# Wetter Temperatur Luftdruck Luftfeuchtigkeit Sichtweite Windgeschwindigkeit Windrichtung Zeit
1 Clouds 15 1024 50 10000 2.1 110 19:59 17.10.2019
2 -273 0 0 0 0 0 19:41 17.10.2019
3 Clouds 15 1024 50 10000 2.1 110 19:20 17.10.2019
4 Clouds 15 1024 50 10000 2.1 110 19:20 17.10.2019
5 Clouds 15 1025 50 0 2.6 120 18:58 17.10.2019
6 Clouds 15 1025 50 0 2.6 120 18:38 17.10.2019
7 Clouds 15 1025 50 0 2.6 120 18:20 17.10.2019
8 Rain 16 1024 44 10000 1.5 200 17:42 17.10.2019
9 Rain 16 1024 44 10000 1.5 200 17:23 17.10.2019
10 Rain 17 1023 41 10000 3.6 120 16:57 17.10.2019
11 Rain 17 1023 41 10000 3.6 120 16:39 17.10.2019
12 Rain 17 1023 41 10000 3.6 120 16:18 17.10.2019
13 Clouds 19 1023 36 9000 5.1 120 15:56 17.10.2019
14 Clouds 19 1023 36 9000 5.1 120 15:56 17.10.2019
15 Clouds 19 1023 36 9000 5.1 120 15:38 17.10.2019
16 Clouds 19 1023 36 9000 5.1 120 15:19 17.10.2019
17 Clouds 20 1023 32 9000 2.6 0 14:55 17.10.2019
18 Clouds 20 1023 32 9000 2.6 0 14:36 17.10.2019
19 Clouds 20 1019 22 10000 2.491 69 14:18 17.10.2019
20 Clouds 21 1022 32 8000 7.2 130 13:39 17.10.2019
21 Clouds 21 1022 32 8000 7.2 130 13:19 17.10.2019
22 Clouds 22 1022 18 9000 5.1 110 12:43 17.10.2019
23 Clouds 22 1022 19 9000 5.1 110 12:22 17.10.2019
24 Thunderstorm 21 1022 28 9000 6.2 10 11:59 17.10.2019
25 Thunderstorm 21 1022 28 9000 6.2 10 11:41 17.10.2019
26 Thunderstorm 22 1022 28 9000 6.2 10 11:21 17.10.2019
27 Haze 22 1023 40 9000 5.1 350 10:58 17.10.2019
28 Haze 22 1023 40 9000 5.1 350 10:39 17.10.2019
29 Haze 22 1023 40 9000 5.1 350 10:19 17.10.2019
30 -273 0 0 0 0 0 09:55 17.10.2019
31 Haze 23 1024 35 8000 2.6 290 09:55 17.10.2019
32 Haze 23 1024 35 8000 2.6 290 09:55 17.10.2019
33 Haze 23 1024 35 8000 2.6 290 09:36 17.10.2019
34 Haze 23 1024 35 8000 2.6 290 09:18 17.10.2019
35 Haze 23 1024 35 8000 2.6 290 09:18 17.10.2019
36 Haze 20 1026 46 8000 2.1 0 08:46 17.10.2019
37 -273 0 0 0 0 0 08:26 17.10.2019
38 Haze 18 1026 48 7000 2.1 0 07:56 17.10.2019
39 Haze 18 1026 48 7000 2.1 0 07:38 17.10.2019
40 Haze 18 1026 48 7000 2.1 0 07:19 17.10.2019
41 Haze 16 1026 51 7000 1.5 0 06:40 17.10.2019
42 Haze 16 1026 51 7000 1.5 0 06:21 17.10.2019
43 Clear 12 1026 62 9000 1.5 0 05:57 17.10.2019
44 Clear 12 1026 62 9000 1.5 0 05:32 17.10.2019
45 Haze 10 1022 76 8000 1.5 180 04:56 17.10.2019
46 Clear 10 1025 71 10000 1 270 03:55 17.10.2019
47 Rain 11 1024 66 10000 1 290 02:50 17.10.2019
48 Rain 11 1024 62 10000 1 240 01:39 17.10.2019
49 Rain 10 1024 62 10000 1.5 330 00:40 17.10.2019
50 Clear 10 1024 62 10000 1.5 330 00:19 17.10.2019
51 Clear 11 1024 58 10000 1.5 290 23:42 16.10.2019
52 Clear 11 1024 58 10000 1.5 290 23:21 16.10.2019
53 Clear 11 1024 62 10000 1.5 320 22:56 16.10.2019
54 Clear 11 1024 62 10000 1.5 320 22:56 16.10.2019
55 Clear 11 1024 62 10000 1.5 320 22:37 16.10.2019
56 Clear 11 1024 62 10000 1.5 320 22:19 16.10.2019
57 Clear 11 1024 62 10000 1.5 320 22:19 16.10.2019
58 Clear 12 1024 50 10000 1 300 21:57 16.10.2019
59 Clear 12 1024 50 10000 1 300 21:37 16.10.2019
60 Clear 12 1024 50 10000 1 300 21:19 16.10.2019
61 Clear 14 1024 47 8000 1.5 310 20:58 16.10.2019
62 Clear 14 1024 47 8000 1.5 310 20:39 16.10.2019
63 Clear 14 1024 47 8000 1.5 310 20:20 16.10.2019
64 Clear 14 1024 41 8000 1 0 19:58 16.10.2019
65 Clear 14 1024 41 8000 1 0 19:38 16.10.2019
66 Clear 14 1024 41 8000 1 0 19:20 16.10.2019
67 Clear 15 1024 41 9000 1.339 10 18:39 16.10.2019
68 Clear 15 1024 41 9000 2.082 0 18:19 16.10.2019
69 Clear 19 1023 33 10000 1 0 17:58 16.10.2019
70 Clear 19 1023 33 10000 1 0 17:58 16.10.2019
71 Clear 19 1023 33 10000 1 0 17:39 16.10.2019
72 Clear 19 1023 33 10000 1 0 17:21 16.10.2019
73 Clear 21 1022 20 10000 1 0 16:59 16.10.2019
74 Clear 21 1022 20 10000 1 0 16:41 16.10.2019
75 Clear 21 1022 20 10000 1 0 16:41 16.10.2019
76 Clear 21 1022 20 10000 1 0 16:20 16.10.2019
77 Clear 21 1022 19 10000 3.1 80 15:56 16.10.2019
78 Clear 21 1022 19 10000 3.1 80 15:56 16.10.2019
79 Clear 20 1022 19 10000 3.1 80 15:37 16.10.2019
80 Clouds 23 1022 19 10000 3.1 80 15:18 16.10.2019
81 Clouds 24 1022 12 10000 4.1 30 14:56 16.10.2019
82 Clouds 24 1022 12 10000 4.1 30 14:38 16.10.2019
83 Clouds 24 1022 12 10000 4.1 30 14:18 16.10.2019
84 Clouds 25 1022 10 10000 2.1 0 13:56 16.10.2019
85 Clouds 25 1022 10 10000 2.1 0 13:36 16.10.2019
86 Clouds 25 1022 10 10000 2.1 0 13:18 16.10.2019
87 Clouds 25 1023 11 10000 1.5 0 12:40 16.10.2019
88 Clouds 25 1023 11 10000 1.5 0 12:18 16.10.2019
89 Clouds 25 1023 11 10000 1.5 0 12:18 16.10.2019
90 Clouds 24 1023 14 10000 2.6 80 11:43 16.10.2019
91 Clouds 24 1020 14 10000 1.5 350 11:18 16.10.2019
92 Clouds 24 1021 15 10000 1.5 350 10:39 16.10.2019
93 Clouds 23 1021 15 10000 1.5 350 10:20 16.10.2019
94 Clouds 22 1025 18 10000 0.5 0 09:56 16.10.2019
95 Clouds 22 1025 18 10000 0.5 0 09:38 16.10.2019
96 Clear 22 1025 18 10000 0.5 0 09:19 16.10.2019
97 Haze 20 1023 21 8000 1.603 137 08:43 16.10.2019
98 Clear 20 1026 20 10000 1 0 08:24 16.10.2019
99 Clear 17 1027 20 10000 2.1 330 07:46 16.10.2019
100 -273 0 0 0 0 0 07:25 16.10.2019
101 Clear 17 1027 20 10000 2.1 330 07:25 16.10.2019
102 Clear 14 1027 26 10000 3.1 350 06:59 16.10.2019
103 Clear 14 1027 26 10000 3.1 350 06:39 16.10.2019
104 Clear 14 1027 26 10000 3.1 350 06:39 16.10.2019
105 Clear 11 1024 50 10000 0.578 226 05:54 16.10.2019
106 Clear 7 1025 61 7000 0.5 0 03:26 16.10.2019
107 Clear 8 1025 57 10000 1.5 0 02:49 16.10.2019
108 Clear 9 1025 50 10000 1 270 01:19 16.10.2019
109 Clear 9 1025 53 10000 1.5 310 00:50 16.10.2019
110 Clear 9 1025 53 10000 1.5 310 00:28 16.10.2019
111 Clear 9 1025 50 9000 1.5 300 23:41 15.10.2019
112 Clear 9 1025 50 9000 1.5 300 23:22 15.10.2019
113 Clear 11 1025 46 9000 1 0 22:56 15.10.2019
114 Clear 11 1025 46 9000 1 0 22:38 15.10.2019
115 Clear 11 1025 46 9000 1 0 22:38 15.10.2019
116 Clear 11 1025 46 9000 1 0 22:20 15.10.2019
117 Clear 11 1025 43 9000 1.5 290 21:56 15.10.2019
118 -273 0 0 0 0 0 21:56 15.10.2019
119 Clear 11 1025 43 9000 1.5 290 21:56 15.10.2019
120 Clear 11 1025 43 9000 1.5 290 21:56 15.10.2019
121 Clear 11 1025 43 9000 1.5 290 21:38 15.10.2019
122 Clear 11 1025 43 9000 1.5 290 21:38 15.10.2019
123 Clear 11 1025 43 9000 1.5 290 21:20 15.10.2019
124 Clear 12 1025 26 6000 1 320 20:57 15.10.2019
125 Clear 12 1025 26 6000 1 320 20:39 15.10.2019
126 Clear 12 1025 26 6000 1 320 20:39 15.10.2019
127 Clear 12 1025 26 6000 1 320 20:20 15.10.2019
128 Clear 12 1025 26 7000 1 290 19:58 15.10.2019
129 -273 0 0 0 0 0 19:40 15.10.2019
130 Clear 12 1025 26 7000 1 290 19:20 15.10.2019
131 Clear 14 1025 26 10000 1.5 340 18:47 15.10.2019
132 Clear 14 1025 26 10000 1.5 340 18:29 15.10.2019
133 Clear 15 1024 23 10000 1.302 358 17:59 15.10.2019
134 Clear 15 1024 23 10000 1.302 358 17:40 15.10.2019
135 Clear 15 1024 23 10000 1.302 358 17:40 15.10.2019
136 Clear 15 1024 23 10000 1.302 358 17:20 15.10.2019
137 Clear 18 1024 20 10000 1.5 250 16:56 15.10.2019
138 Clear 18 1024 20 10000 1.5 250 16:37 15.10.2019
139 Clear 18 1024 20 10000 1.5 250 16:19 15.10.2019
140 Clear 22 1023 14 10000 3.6 350 15:43 15.10.2019
141 Clear 22 1023 14 10000 3.6 350 15:21 15.10.2019
142 Clear 24 1023 10 10000 2.6 0 14:59 15.10.2019
143 Clear 24 1023 10 10000 2.6 0 14:38 15.10.2019
144 Clear 24 1023 10 10000 2.6 0 14:20 15.10.2019
145 Clear 24 1023 10 10000 2.6 0 14:20 15.10.2019
146 Clear 25 1023 7 10000 1.5 0 13:58 15.10.2019
147 Clear 25 1023 7 10000 1.5 0 13:40 15.10.2019
148 Clear 25 1023 7 10000 1.5 0 13:19 15.10.2019
149 Clear 25 1024 7 10000 1.5 0 12:43 15.10.2019
150 Clear 25 1024 7 10000 1.5 0 12:22 15.10.2019
151 Clear 24 1024 8 10000 2.6 150 11:57 15.10.2019
152 Clear 24 1024 8 10000 2.6 150 11:38 15.10.2019
153 Clear 24 1024 8 10000 2.6 150 11:19 15.10.2019
154 Clear 23 1025 12 10000 2.1 0 10:45 15.10.2019
155 Clear 23 1025 12 10000 2.1 0 10:22 15.10.2019
156 Clear 22 1026 12 10000 1.5 0 09:58 15.10.2019
157 Clear 22 1026 12 10000 1.5 0 09:38 15.10.2019
158 Clear 22 1026 12 10000 1.5 0 09:20 15.10.2019
159 Haze 20 1027 15 9000 1.5 0 08:56 15.10.2019
160 Haze 20 1027 15 9000 1.5 0 08:36 15.10.2019
161 Haze 20 1027 15 9000 1.5 0 08:18 15.10.2019
162 Haze 18 1027 19 9000 1.5 0 07:41 15.10.2019
163 Haze 18 1027 19 9000 1.5 0 07:21 15.10.2019
164 Haze 16 1027 29 8000 2.6 320 06:47 15.10.2019
165 Haze 16 1027 29 8000 2.6 320 06:29 15.10.2019
166 Haze 13 1024 33 6000 1.13 211.574 05:48 15.10.2019
167 Haze 11 1026 26 9000 1.5 220 05:29 15.10.2019
168 Haze 7 1025 26 10000 1 0 04:39 15.10.2019
169 Clear 7 1025 61 8000 1 0 03:38 15.10.2019
170 Clear 7 1025 61 8000 1.5 310 02:51 15.10.2019
171 Clear 7 1025 36 7000 1.5 320 01:49 15.10.2019
172 Clear 7 1025 35 7000 1.5 320 01:23 15.10.2019
173 Clear 8 1025 35 7000 0.5 0 00:50 15.10.2019
174 Clear 8 1025 36 7000 0.5 0 00:22 15.10.2019
175 Clear 9 1025 43 8000 0.5 0 23:46 14.10.2019
176 Clear 9 1025 43 8000 0.5 0 23:21 14.10.2019
177 Clear 11 1025 40 8000 0.5 0 22:59 14.10.2019
178 Clear 11 1025 40 8000 0.5 0 22:38 14.10.2019
179 Clear 11 1025 40 8000 0.5 0 22:19 14.10.2019
180 Clear 11 1025 40 8000 0.5 0 22:19 14.10.2019
181 Clear 11 1025 40 8000 0.5 0 22:19 14.10.2019
182 Clear 11 1025 46 8000 1 130 21:56 14.10.2019
183 Clear 11 1025 46 8000 1 130 21:56 14.10.2019
184 Clear 11 1025 46 8000 1 130 21:37 14.10.2019
185 Clear 11 1025 46 8000 1 130 21:19 14.10.2019
186 Clear 13 1025 37 10000 1.5 290 20:55 14.10.2019
187 Clear 13 1025 37 10000 1.5 290 20:37 14.10.2019
188 Clear 13 1025 37 10000 1.5 290 20:18 14.10.2019
189 Clear 15 1024 33 10000 1 0 19:42 14.10.2019
190 Clear 15 1024 33 10000 1 0 19:23 14.10.2019
191 Clear 16 1024 18 10000 2.6 340 18:59 14.10.2019
192 Clear 16 1024 18 10000 2.6 340 18:39 14.10.2019
193 Clear 16 1024 18 10000 2.6 340 18:19 14.10.2019
194 Clear 16 1024 18 10000 2.6 340 18:19 14.10.2019
195 Clear 19 1024 20 10000 4.1 310 17:57 14.10.2019
196 Clear 19 1024 20 10000 4.1 310 17:57 14.10.2019
197 Clear 19 1024 20 10000 4.1 310 17:39 14.10.2019
198 Clear 19 1024 20 10000 4.1 310 17:20 14.10.2019
199 Clear 20 1023 16 10000 4.1 360 16:44 14.10.2019
200 Clear 20 1023 16 10000 4.1 360 16:44 14.10.2019
201 Clear 20 1023 16 10000 4.1 360 16:21 14.10.2019
202 Clear 21 1023 16 10000 4.1 350 15:54 14.10.2019
203 Clear 21 1023 16 10000 4.1 350 15:36 14.10.2019
204 Clear 21 1023 16 10000 4.1 350 15:18 14.10.2019
205 Clear 24 1022 13 10000 4.1 350 14:43 14.10.2019
206 Clear 24 1022 13 10000 4.1 350 14:23 14.10.2019
207 Clear 25 1022 7 10000 3.1 0 13:45 14.10.2019
208 Clear 25 1022 7 10000 3.1 0 13:22 14.10.2019
209 Clear 26 1023 7 10000 2.6 360 12:59 14.10.2019
210 Clear 26 1023 7 10000 2.6 360 12:40 14.10.2019
211 Clear 26 1023 7 10000 2.6 360 12:19 14.10.2019
212 Clear 25 1023 11 10000 2.1 0 11:46 14.10.2019
213 Clear 25 1023 11 10000 2.1 0 11:26 14.10.2019
214 Clear 25 1023 11 10000 2.1 0 11:26 14.10.2019
215 Clear 24 1024 11 10000 1.5 0 10:58 14.10.2019
216 Clear 24 1024 11 10000 1.5 0 10:38 14.10.2019
217 Clear 24 1024 11 10000 1.5 0 10:20 14.10.2019
218 Clear 24 1025 10 10000 1 0 09:55 14.10.2019
219 Clear 24 1025 10 10000 1 0 09:36 14.10.2019
220 Clear 24 1025 10 10000 1 0 09:18 14.10.2019
221 Clear 22 1026 12 10000 1.5 0 08:43 14.10.2019
222 Clear 22 1026 12 10000 1.5 0 08:22 14.10.2019
223 -273 0 0 0 0 0 07:42 14.10.2019
224 Haze 19 1026 15 9000 1.5 0 07:19 14.10.2019
225 Haze 18 1026 23 9000 2.1 320 06:38 14.10.2019
226 Haze 18 1026 23 9000 2.1 320 06:20 14.10.2019
227 Haze 12 1025 40 10000 1.5 330 05:46 14.10.2019
228 Clear 7 1025 56 10000 0.5 0 04:42 14.10.2019
229 Clear 7 1024 56 8000 0.5 0 03:27 14.10.2019
230 Clear 8 1024 49 7000 0.5 0 02:42 14.10.2019
231 Clear 9 1024 49 8000 2.1 140 01:23 14.10.2019
232 Clear 10 1024 39 8000 1 0 00:53 14.10.2019
233 Clear 10 1024 39 8000 1 0 00:53 14.10.2019
234 Clear 10 1024 39 8000 1 0 00:19 14.10.2019
235 Clear 11 1024 46 10000 1 0 23:44 13.10.2019
236 Clear 11 1024 46 10000 1 0 23:20 13.10.2019
237 Clear 13 1024 40 10000 1 0 22:58 13.10.2019
238 Clear 13 1024 40 10000 1 0 22:40 13.10.2019
239 Clear 13 1024 40 10000 1 0 22:21 13.10.2019
240 Clear 13 1024 40 10000 1 0 22:21 13.10.2019
241 Clear 14 1024 37 8000 1.5 0 21:58 13.10.2019
242 Clear 14 1024 37 8000 1.5 0 21:37 13.10.2019
243 Clear 14 1024 37 8000 1.5 0 21:18 13.10.2019
244 Clear 17 1024 43 10000 1 0 20:57 13.10.2019
245 Clear 17 1024 43 10000 1 0 20:57 13.10.2019
246 Clear 17 1024 43 10000 1 0 20:57 13.10.2019
247 Clear 17 1024 43 10000 1 0 20:38 13.10.2019
248 Clear 17 1024 43 10000 1 0 20:20 13.10.2019
249 Clear 15 1024 28 10000 0.5 0 19:57 13.10.2019
250 Clear 15 1024 28 10000 0.5 0 19:39 13.10.2019
251 Clear 15 1024 28 10000 0.5 0 19:39 13.10.2019
252 Clear 15 1024 28 10000 0.5 0 19:21 13.10.2019
253 -273 0 0 0 0 0 18:56 13.10.2019
254 Clear 16 1023 25 10000 1.5 0 18:56 13.10.2019
255 Clear 16 1023 25 10000 1.5 0 18:36 13.10.2019
256 Clear 16 1023 25 10000 1.5 0 18:36 13.10.2019
257 Clear 16 1023 25 10000 1.5 0 18:18 13.10.2019
258 Clear 18 1023 22 10000 1 0 17:54 13.10.2019
259 Clear 18 1023 22 10000 1 0 17:36 13.10.2019
260 Clear 18 1023 22 10000 1 0 17:18 13.10.2019
261 Clear 19 1022 16 10000 1 0 16:41 13.10.2019
262 Clear 19 1022 16 10000 1 0 16:18 13.10.2019
263 Clear 23 1021 14 10000 1 0 15:56 13.10.2019
264 Clear 23 1021 14 10000 1 0 15:56 13.10.2019
265 Clear 23 1021 14 10000 1 0 15:37 13.10.2019
266 Clear 23 1021 14 10000 1 0 15:37 13.10.2019
267 Clear 23 1021 14 10000 1 0 15:18 13.10.2019
268 Clear 23 1021 14 10000 1 0 15:18 13.10.2019
269 Clear 26 1021 9 10000 1 0 14:56 13.10.2019
270 Clear 26 1021 9 10000 1 0 14:38 13.10.2019
271 Clear 26 1021 9 10000 1 0 14:18 13.10.2019
272 Clear 26 1021 9 10000 2.6 0 13:39 13.10.2019
273 Clear 26 1017 12 10000 1.5 140 13:21 13.10.2019
274 Clear 26 1021 10 10000 3.1 210 12:59 13.10.2019
275 Clear 26 1021 10 10000 3.1 210 12:39 13.10.2019
276 Clear 26 1021 10 10000 3.1 210 12:20 13.10.2019
277 Clear 26 1022 12 10000 2.6 0 11:58 13.10.2019
278 Clear 26 1022 12 10000 2.6 0 11:38 13.10.2019
279 Clear 26 1022 12 10000 2.6 0 11:19 13.10.2019
280 Clear 24 1023 15 10000 2.6 0 10:43 13.10.2019
281 Clear 24 1023 15 10000 2.6 0 10:24 13.10.2019
282 Clear 24 1024 15 10000 2.6 0 09:59 13.10.2019
283 Clear 23 1024 15 10000 2.6 0 09:39 13.10.2019
284 Clear 23 1024 15 10000 2.6 0 09:20 13.10.2019
285 Clear 23 1024 15 10000 2.6 0 09:20 13.10.2019
286 Haze 20 1024 19 9000 2.6 200 08:43 13.10.2019
287 Haze 20 1024 19 9000 2.6 200 08:23 13.10.2019
288 Haze 17 1025 25 8000 2.6 340 07:51 13.10.2019
289 Haze 17 1025 25 8000 2.6 340 07:32 13.10.2019
290 Haze 15 1025 27 8000 2.6 320 06:49 13.10.2019
291 Haze 11 1025 30 10000 2.6 320 05:59 13.10.2019
292 Haze 7 1024 65 8000 0.5 0 04:59 13.10.2019
293 Haze 7 1024 65 8000 0.5 0 04:33 13.10.2019
294 Haze 9 1024 66 6000 1 0 02:50 13.10.2019
295 Haze 9 1024 66 6000 1 0 02:25 13.10.2019
296 Haze 10 1023 61 6000 0.5 0 01:34 13.10.2019
297 Haze 9 1023 61 6000 1.5 310 00:53 13.10.2019
298 Haze 9 1023 61 6000 1.5 310 00:23 13.10.2019
299 Haze 10 1024 54 6000 1.5 310 23:59 12.10.2019
300 Haze 10 1024 54 6000 1.5 310 23:40 12.10.2019
301 Haze 10 1024 54 6000 1.5 310 23:40 12.10.2019
302 Haze 10 1024 54 6000 1.5 310 23:21 12.10.2019
303 Haze 10 1024 53 6000 0.5 0 22:58 12.10.2019
304 Haze 10 1024 53 6000 0.5 0 22:39 12.10.2019
305 Haze 10 1024 53 6000 0.5 0 22:21 12.10.2019
306 Haze 11 1024 37 6000 1 0 21:56 12.10.2019
307 Haze 11 1024 37 6000 1 0 21:37 12.10.2019
308 Haze 11 1024 36 6000 1 0 21:19 12.10.2019
309 Haze 12 1023 50 6000 1 0 20:44 12.10.2019
310 Haze 12 1023 50 6000 1 0 20:26 12.10.2019
311 Haze 13 1023 41 8000 1 0 19:42 12.10.2019
312 Haze 13 1023 41 8000 1 0 19:23 12.10.2019
313 Haze 14 1020 66 6000 1.5 200 18:59 12.10.2019
314 Haze 14 1023 37 8000 0.5 0 18:41 12.10.2019
315 Haze 14 1023 35 8000 0.5 0 18:23 12.10.2019
316 Haze 16 1023 23 10000 2.1 140 17:45 12.10.2019
317 Haze 16 1023 23 10000 2.1 140 17:21 12.10.2019
318 Haze 19 1022 19 10000 2.6 340 16:57 12.10.2019
319 Haze 19 1022 19 10000 2.6 340 16:38 12.10.2019
320 Haze 19 1022 19 10000 2.6 340 16:19 12.10.2019
321 Clear 22 1022 14 10000 2.6 350 15:44 12.10.2019
322 Clear 22 1022 14 10000 2.6 350 15:25 12.10.2019
323 Clear 22 1022 14 10000 2.6 350 15:25 12.10.2019
324 Clear 24 1021 10 10000 3.6 360 14:59 12.10.2019
325 Clear 24 1021 10 10000 3.6 360 14:38 12.10.2019
326 Clear 24 1021 10 10000 3.6 360 14:19 12.10.2019
327 Clear 25 1022 8 10000 3.6 350 13:45 12.10.2019
328 Clear 25 1022 8 10000 3.6 350 13:27 12.10.2019
329 Clear 25 1022 16 10000 4.1 350 12:55 12.10.2019
330 Clear 25 1022 16 10000 4.1 350 12:36 12.10.2019
331 Clear 25 1022 16 10000 4.1 350 12:18 12.10.2019
332 Clear 24 1022 16 10000 1 0 11:40 12.10.2019
333 Clear 24 1022 16 10000 1 0 11:22 12.10.2019
334 Clear 23 1023 17 9000 0.5 0 10:56 12.10.2019
335 Clear 23 1023 17 9000 0.5 0 10:37 12.10.2019
336 Clear 23 1023 17 9000 0.5 0 10:19 12.10.2019
337 -273 0 0 0 0 0 09:56 12.10.2019
338 Clear 22 1024 19 8000 1.5 0 09:56 12.10.2019
339 Clear 22 1024 19 8000 1.5 0 09:55 12.10.2019
340 Clear 22 1024 19 8000 1.5 0 09:37 12.10.2019
341 Clear 22 1024 19 8000 1.5 0 09:18 12.10.2019
342 Clear 22 1024 19 8000 1.5 0 09:18 12.10.2019
343 Clear 20 1024 22 9000 1 0 08:41 12.10.2019
344 Clear 20 1024 22 9000 1 0 08:41 12.10.2019
345 Clear 20 1024 22 9000 1 0 08:22 12.10.2019
346 Clear 18 1025 25 10000 1.5 300 07:36 12.10.2019
347 Clear 18 1025 25 10000 1.5 300 07:18 12.10.2019
348 Haze 13 1024 31 10000 2.1 320 05:53 12.10.2019
349 Haze 13 1024 31 10000 2.1 320 05:24 12.10.2019
350 Haze 8 1023 53 10000 2.1 320 04:26 12.10.2019
351 Haze 8 1023 53 10000 2.1 320 04:26 12.10.2019
352 Clear 8 1022 53 10000 1.5 270 03:42 12.10.2019
353 Clear 8 1022 57 9000 1 0 02:28 12.10.2019
354 Clear 8 1022 42 10000 1.5 90 01:29 12.10.2019
355 Clear 9 1021 53 10000 1.5 150 00:43 12.10.2019
356 Clear 9 1021 53 10000 1.5 150 00:19 12.10.2019
357 Clear 9 1021 53 10000 1.5 150 00:19 12.10.2019
358 Clear 10 1022 43 10000 1 0 23:40 11.10.2019
359 Clear 10 1022 43 10000 1 0 23:20 11.10.2019
360 Clear 11 1022 46 10000 1 0 22:56 11.10.2019
361 Clear 11 1022 46 10000 1 0 22:37 11.10.2019
362 Clear 11 1022 46 10000 1 0 22:18 11.10.2019
363 Clear 12 1022 37 10000 0.5 0 21:40 11.10.2019
364 Clear 12 1022 37 10000 0.5 0 21:21 11.10.2019
365 Haze 14 1022 37 10000 2.6 120 20:54 11.10.2019
366 Haze 14 1022 37 10000 2.6 120 20:36 11.10.2019
367 Haze 14 1022 37 10000 2.6 120 20:18 11.10.2019
368 Haze 15 1022 25 10000 4.1 320 19:39 11.10.2019
369 Clear 15 1022 25 10000 4.1 320 19:18 11.10.2019
370 Clear 15 1022 25 10000 4.1 320 19:18 11.10.2019
371 Clear 15 1022 25 10000 4.1 320 19:18 11.10.2019
372 Clear 15 1022 25 10000 4.1 320 19:18 11.10.2019
373 Clear 15 1022 26 10000 3.1 310 18:59 11.10.2019
374 Clear 15 1022 26 10000 3.1 310 18:39 11.10.2019
375 Clear 15 1022 26 10000 3.1 310 18:19 11.10.2019
376 Clear 19 1021 22 10000 2.1 300 17:59 11.10.2019
377 Clear 19 1021 22 10000 2.1 300 17:38 11.10.2019
378 Clear 19 1021 22 10000 2.1 300 17:19 11.10.2019
379 Clear 19 1021 22 10000 2.1 300 17:19 11.10.2019
380 Clear 20 1017 19 10000 5.7 360 16:59 11.10.2019
381 Clear 20 1017 19 10000 5.7 360 16:39 11.10.2019
382 Clear 20 1017 19 10000 5.7 360 16:19 11.10.2019
383 Clouds 21 1016 19 10000 6.7 360 15:55 11.10.2019
384 Clouds 21 1016 19 10000 6.7 360 15:36 11.10.2019
385 Clouds 22 1016 19 10000 6.7 360 15:18 11.10.2019
386 Clouds 23 1020 18 10000 4.6 350 14:41 11.10.2019
387 Clouds 23 1020 18 10000 4.6 350 14:21 11.10.2019
388 Clouds 24 1020 17 10000 5.1 360 13:46 11.10.2019
389 Clouds 24 1020 17 10000 5.1 360 13:26 11.10.2019
390 Clouds 25 1020 18 10000 5.7 350 12:58 11.10.2019
391 Clouds 25 1020 18 10000 5.7 350 12:39 11.10.2019
392 Clouds 25 1020 18 10000 5.7 350 12:20 11.10.2019
393 Clouds 25 1021 16 10000 1.5 0 11:59 11.10.2019
394 Clouds 25 1021 16 10000 1.5 0 11:39 11.10.2019
395 Clouds 25 1021 16 10000 1.5 0 11:21 11.10.2019
396 Clouds 24 1022 18 10000 3.6 350 10:56 11.10.2019
397 Clouds 24 1022 18 10000 3.6 350 10:56 11.10.2019
398 Clouds 24 1022 18 10000 3.6 350 10:36 11.10.2019
399 Clouds 24 1022 18 10000 3.6 350 10:18 11.10.2019
400 Clear 23 1023 19 10000 3.1 230 09:42 11.10.2019
401 Clear 23 1023 19 10000 3.1 230 09:21 11.10.2019
402 Clear 22 1023 22 10000 1.5 0 08:59 11.10.2019
403 Clear 22 1023 22 10000 1.5 0 08:38 11.10.2019
404 Clear 22 1023 22 10000 1.5 0 08:20 11.10.2019
405 Clear 21 1023 33 10000 1.5 0 07:53 11.10.2019
406 Clear 21 1023 33 10000 1.5 0 07:34 11.10.2019
407 Clear 19 1024 29 10000 2.6 320 06:50 11.10.2019
408 Clear 19 1024 29 10000 2.6 320 06:25 11.10.2019
409 Clear 13 1023 54 10000 1 0 05:47 11.10.2019
410 Clear 13 1023 54 10000 1 0 05:47 11.10.2019
411 Clear 13 1023 54 10000 1 0 05:29 11.10.2019
412 Clear 15 1022 53 10000 1.5 0 04:58 11.10.2019
413 Clear 12 1022 50 10000 1.5 300 03:27 11.10.2019
414 Clear 15 1022 47 10000 1.5 0 01:18 11.10.2019
415 Clear 15 1022 47 10000 1.5 0 01:18 11.10.2019
416 Clear 16 1022 47 10000 1.5 0 00:31 11.10.2019
417 Clear 17 1022 35 10000 2.6 0 23:58 10.10.2019
418 Clear 17 1022 35 10000 2.6 0 23:40 10.10.2019
419 Clear 17 1022 35 10000 2.6 0 23:19 10.10.2019
420 Clear 17 1023 35 10000 2.6 0 22:55 10.10.2019
421 Clear 17 1023 35 10000 2.6 0 22:36 10.10.2019
422 Clear 17 1023 35 10000 2.6 0 22:18 10.10.2019
423 Clear 18 1023 27 10000 6.7 10 21:42 10.10.2019
424 Clear 18 1023 27 10000 6.7 10 21:22 10.10.2019
425 Clear 17 1023 25 10000 6.2 360 20:58 10.10.2019
426 Clear 17 1023 25 10000 6.2 360 20:39 10.10.2019
427 Clear 17 1023 25 10000 6.2 360 20:19 10.10.2019
428 Clear 16 1023 29 10000 2.6 0 19:56 10.10.2019
429 Clear 16 1023 29 10000 2.6 0 19:38 10.10.2019
430 Clear 16 1023 29 10000 2.6 0 19:19 10.10.2019
431 Clear 20 1023 22 10000 6.2 10 18:42 10.10.2019
432 Clear 20 1023 22 10000 6.2 10 18:21 10.10.2019
433 Clear 19 1022 25 10000 4.1 350 17:58 10.10.2019
434 Clear 19 1022 25 10000 4.1 350 17:39 10.10.2019
435 Clear 19 1022 25 10000 4.1 350 17:18 10.10.2019
436 Clear 21 1022 20 10000 4.6 10 16:55 10.10.2019
437 Clear 21 1022 20 10000 4.6 10 16:37 10.10.2019
438 Clear 21 1022 20 10000 4.6 10 16:18 10.10.2019
439 Clouds 21 1022 21 10000 5.1 360 15:39 10.10.2019
440 Clouds 21 1022 21 10000 5.1 360 15:21 10.10.2019
441 Clouds 23 1021 14 10000 5.1 10 14:56 10.10.2019
442 Clouds 23 1021 14 10000 5.1 10 14:37 10.10.2019
443 Clouds 23 1021 14 10000 5.1 10 14:19 10.10.2019
444 Clouds 24 1022 15 10000 2.6 0 13:55 10.10.2019
445 Clouds 24 1022 15 10000 2.6 0 13:37 10.10.2019
446 Clouds 24 1022 15 10000 2.6 0 13:18 10.10.2019
447 Clear 24 1021 15 10000 3.1 0 12:41 10.10.2019
448 Clear 24 1021 15 10000 3.1 0 12:20 10.10.2019
449 Clear 24 1022 18 10000 4.1 340 11:58 10.10.2019
450 Clear 24 1022 18 10000 4.1 340 11:58 10.10.2019
451 Clear 24 1022 18 10000 4.1 340 11:58 10.10.2019
452 Clear 24 1022 18 10000 4.1 340 11:39 10.10.2019
453 Clear 24 1022 18 10000 4.1 340 11:19 10.10.2019
454 Clear 24 1019 17 10000 2.6 160 10:45 10.10.2019
455 Clear 23 1019 17 10000 2.6 160 10:27 10.10.2019
456 Clear 22 1024 19 10000 1.5 0 09:58 10.10.2019
457 Clear 22 1024 19 10000 1.5 0 09:40 10.10.2019
458 Clear 21 1024 19 10000 1.5 0 09:21 10.10.2019
459 Clear 21 1024 21 10000 1.5 0 08:58 10.10.2019
460 Clear 21 1024 21 10000 1.5 0 08:38 10.10.2019
461 Clear 21 1024 21 10000 1.5 0 08:19 10.10.2019
462 Clear 19 1024 26 10000 1.5 300 07:45 10.10.2019
463 Clear 19 1024 26 10000 1.5 300 07:23 10.10.2019
464 Haze 15 1024 36 8000 3.1 320 06:49 10.10.2019
465 Haze 15 1024 36 8000 3.1 320 06:49 10.10.2019
466 Haze 15 1024 36 8000 3.1 320 06:29 10.10.2019
467 Haze 12 1024 50 9000 2.1 330 05:28 10.10.2019
468 Haze 12 1024 50 9000 2.1 330 05:28 10.10.2019
469 Clear 9 1023 65 10000 0.42 231.828 04:54 10.10.2019
470 Clear 9 1023 65 10000 0.42 231.828 04:33 10.10.2019
471 Haze 9 1022 61 10000 1 0 01:46 10.10.2019
472 Haze 9 1022 61 10000 1 0 01:46 10.10.2019
473 Haze 9 1022 61 10000 1 0 01:26 10.10.2019
474 Haze 11 1022 53 10000 1.5 340 00:59 10.10.2019
475 Haze 11 1022 53 10000 1.5 340 00:23 10.10.2019
476 Clear 11 1022 53 10000 1.5 0 23:40 09.10.2019
477 Clear 12 1019 71 10000 1.05 31.461 23:22 09.10.2019
478 Clear 11 1022 54 10000 1.5 140 22:59 09.10.2019
479 Clear 11 1022 54 10000 1.5 140 22:40 09.10.2019
480 Clear 11 1022 54 10000 1.5 140 22:22 09.10.2019
481 Clear 12 1022 47 10000 1 200 21:41 09.10.2019
482 Clear 12 1022 47 10000 1 200 21:21 09.10.2019
483 Clear 13 1023 47 10000 2.6 0 20:56 09.10.2019
484 Clear 13 1023 47 10000 2.6 0 20:38 09.10.2019
485 Clear 13 1023 47 10000 2.6 0 20:19 09.10.2019
486 Clear 13 1023 47 10000 2.6 0 20:19 09.10.2019
487 Clear 13 1023 47 10000 2.6 0 20:19 09.10.2019
488 Clear 15 1022 38 10000 1.5 0 19:58 09.10.2019
489 Clear 15 1022 38 10000 1.5 0 19:40 09.10.2019
490 Clear 15 1022 38 10000 1.5 0 19:21 09.10.2019
491 Clear 18 1022 27 10000 2.1 320 18:38 09.10.2019
492 Clear 17 1022 27 10000 2.1 320 18:20 09.10.2019
493 Clear 16 1022 39 10000 2.6 320 17:57 09.10.2019
494 Clear 16 1022 39 10000 2.6 320 17:37 09.10.2019
495 Clear 16 1022 39 10000 2.6 320 17:19 09.10.2019
496 Clear 20 1022 22 10000 2.1 350 16:55 09.10.2019
497 Clear 20 1022 22 10000 2.1 350 16:36 09.10.2019
498 Clear 20 1022 22 10000 2.1 350 16:18 09.10.2019
499 Clear 21 1021 18 10000 2.1 360 15:55 09.10.2019
500 Clear 21 1021 18 10000 2.1 360 15:55 09.10.2019
501 Clear 21 1021 18 10000 2.1 360 15:36 09.10.2019
502 Clear 21 1021 18 10000 2.1 360 15:18 09.10.2019
503 Clear 24 1021 17 10000 4.1 20 14:42 09.10.2019
504 Clear 24 1021 17 10000 4.1 20 14:42 09.10.2019
505 Clear 24 1021 17 10000 4.1 20 14:18 09.10.2019
506 Clear 24 1022 15 10000 2.1 0 13:58 09.10.2019
507 Clear 24 1022 15 10000 2.1 0 13:36 09.10.2019
508 Clear 24 1022 15 10000 2.1 0 13:18 09.10.2019
509 Clear 25 1022 16 10000 1.5 0 12:42 09.10.2019
510 Clear 25 1022 16 10000 1.5 0 12:22 09.10.2019
511 Clear 25 1023 16 10000 5.1 350 11:58 09.10.2019
512 Clear 25 1023 16 10000 5.1 350 11:39 09.10.2019
513 Clear 25 1023 16 10000 5.1 350 11:20 09.10.2019
514 Clear 24 1024 18 10000 4.6 330 10:55 09.10.2019
515 Clear 24 1024 18 10000 4.6 330 10:37 09.10.2019
516 Clear 24 1024 18 10000 4.6 330 10:18 09.10.2019
517 Clear 23 1024 18 10000 4.1 40 09:42 09.10.2019
518 Clear 23 1024 18 10000 4.1 40 09:19 09.10.2019
519 Clear 23 1025 19 10000 2.6 330 08:56 09.10.2019
520 Clear 23 1025 19 10000 2.6 330 08:37 09.10.2019
521 Clear 22 1025 19 10000 2.6 330 08:18 09.10.2019
522 Clear 22 1025 19 10000 2.6 330 08:18 09.10.2019
523 Clear 21 1025 29 10000 3.1 310 07:43 09.10.2019
524 Clear 21 1025 29 10000 3.1 310 07:23 09.10.2019
525 Clear 17 1026 41 10000 3.6 330 06:52 09.10.2019
526 Clear 17 1026 41 10000 3.6 330 06:20 09.10.2019
527 Clear 13 1026 47 10000 2.6 320 05:46 09.10.2019
528 Clear 13 1026 47 10000 2.6 320 05:46 09.10.2019
529 Clear 10 1025 50 10000 1 0 04:27 09.10.2019
530 Clear 12 1024 57 10000 2.6 340 02:54 09.10.2019
531 Clear 11 1025 54 10000 1.5 270 01:48 09.10.2019
532 Clear 11 1025 54 10000 1.5 270 01:21 09.10.2019
533 Clear 12 1025 53 10000 1.5 320 00:58 09.10.2019
534 Clear 12 1025 53 10000 1.5 320 00:40 09.10.2019
535 Clear 12 1025 53 10000 1.5 320 00:21 09.10.2019
536 Clear 15 1025 50 10000 2.1 320 23:57 08.10.2019
537 Clear 15 1025 50 10000 2.1 320 23:36 08.10.2019
538 Clear 15 1025 50 10000 2.1 320 23:18 08.10.2019
539 Clear 15 1026 43 10000 0.5 0 22:39 08.10.2019
540 Clear 15 1026 43 10000 0.5 0 22:20 08.10.2019
541 Clear 15 1026 43 10000 0.5 0 22:20 08.10.2019
542 Clear 15 1026 43 10000 0.5 0 22:20 08.10.2019
543 Clear 16 1026 47 10000 1.5 0 21:57 08.10.2019
544 Clear 16 1026 47 10000 1.5 0 21:39 08.10.2019
545 Clear 16 1026 43 10000 1.5 0 21:19 08.10.2019
546 Clear 17 1026 43 10000 3.6 350 20:56 08.10.2019
547 Clear 17 1026 42 10000 3.6 350 20:38 08.10.2019
548 Clear 17 1026 42 10000 3.6 350 20:20 08.10.2019
549 Clear 18 1026 42 10000 6.2 360 19:58 08.10.2019
550 Clear 18 1026 42 10000 6.2 360 19:39 08.10.2019
551 Clear 18 1026 42 10000 6.2 360 19:20 08.10.2019
552 Clear 19 1026 27 10000 7.7 30 18:54 08.10.2019
553 Clear 19 1026 27 10000 7.7 30 18:36 08.10.2019
554 Clear 19 1026 27 10000 7.7 30 18:18 08.10.2019
555 Clear 19 1025 24 10000 10.3 20 17:40 08.10.2019
556 Clear 19 1025 24 10000 10.3 20 17:20 08.10.2019
557 Clouds 20 1025 22 10000 6.2 40 16:58 08.10.2019
558 Clouds 20 1025 22 10000 6.2 40 16:38 08.10.2019
559 Clouds 20 1025 22 10000 6.2 40 16:20 08.10.2019
560 Clouds 21 1024 20 10000 8.2 40 15:41 08.10.2019
561 Clouds 21 1024 20 10000 8.2 40 15:41 08.10.2019
562 Clouds 21 1024 20 10000 8.2 40 15:21 08.10.2019
563 Clouds 22 1024 19 10000 5.7 30 14:58 08.10.2019
564 Clouds 22 1024 19 10000 5.7 30 14:39 08.10.2019
565 Clouds 22 1024 19 10000 5.7 30 14:20 08.10.2019
566 Clouds 23 1024 18 10000 5.1 360 13:56 08.10.2019
567 Clouds 23 1024 18 10000 5.1 360 13:38 08.10.2019
568 Clouds 23 1024 18 10000 5.1 360 13:18 08.10.2019
569 Clouds 24 1024 17 10000 5.1 360 12:56 08.10.2019
570 Clouds 24 1024 17 10000 5.1 360 12:37 08.10.2019
571 Clouds 24 1024 17 10000 5.1 360 12:37 08.10.2019
572 Clouds 24 1024 17 10000 5.1 360 12:18 08.10.2019
573 Clouds 24 1024 19 10000 5.1 350 11:41 08.10.2019
574 Clouds 24 1024 19 10000 5.1 350 11:22 08.10.2019
575 Clouds 24 1025 18 10000 5.1 350 10:56 08.10.2019
576 Clouds 24 1025 18 10000 5.1 350 10:36 08.10.2019
577 Clouds 24 1025 18 10000 5.1 350 10:18 08.10.2019
578 Clouds 23 1026 24 10000 3.1 0 09:41 08.10.2019
579 Clouds 23 1026 24 10000 3.1 0 09:41 08.10.2019
580 Clouds 23 1026 24 10000 3.1 0 09:41 08.10.2019
581 Clouds 23 1026 24 10000 3.1 0 09:23 08.10.2019
582 Haze 22 1026 35 9000 1.5 0 08:57 08.10.2019
583 Haze 22 1026 35 9000 1.5 0 08:39 08.10.2019
584 Haze 20 1023 37 8000 2.27 29.003 08:21 08.10.2019
585 Haze 18 1027 45 8000 1.5 0 07:41 08.10.2019
586 Haze 18 1027 45 8000 1.5 0 07:20 08.10.2019
587 Haze 18 1027 45 8000 1.5 0 07:20 08.10.2019
588 Haze 15 1026 58 8000 3.1 310 06:47 08.10.2019
589 Haze 15 1026 58 8000 3.1 310 06:26 08.10.2019
590 Haze 13 1026 76 9000 1 290 05:44 08.10.2019
591 Haze 13 1026 76 9000 1 290 05:24 08.10.2019
592 Haze 10 1025 81 10000 2.1 310 03:32 08.10.2019
593 Clear 10 1024 87 10000 1 280 02:46 08.10.2019
594 Mist 9 1024 87 10000 1 280 02:26 08.10.2019
595 Mist 9 1024 81 10000 0.5 0 01:42 08.10.2019
596 Mist 9 1024 81 10000 0.5 0 01:19 08.10.2019
597 Mist 11 1025 81 10000 1.5 260 00:36 08.10.2019
598 Clear 10 1025 81 10000 1.5 260 00:18 08.10.2019
599 Clear 10 1025 81 10000 0.5 0 23:38 07.10.2019
600 Clear 10 1025 81 10000 0.5 0 23:19 07.10.2019
601 Clear 12 1025 81 8000 0.49 239.398 22:55 07.10.2019
602 Clear 12 1025 81 8000 0.49 239.398 22:37 07.10.2019
603 Clear 12 1025 81 8000 0.49 239.398 22:19 07.10.2019
604 Clear 13 1026 71 10000 1.5 270 21:55 07.10.2019
605 Clear 13 1026 71 10000 1.5 270 21:37 07.10.2019
606 Haze 13 1026 71 10000 1.5 270 21:18 07.10.2019
607 Haze 13 1026 71 7000 2.6 0 20:56 07.10.2019
608 Haze 13 1026 71 7000 2.6 0 20:38 07.10.2019
609 Haze 13 1026 71 7000 2.6 0 20:18 07.10.2019
610 Haze 13 1026 66 8000 0.5 0 19:42 07.10.2019
611 Haze 13 1026 66 8000 0.5 0 19:21 07.10.2019
612 Haze 14 1026 66 10000 1.5 0 19:00 07.10.2019
613 Haze 14 1026 66 10000 1.5 0 18:41 07.10.2019
614 Haze 14 1026 66 10000 1.5 0 18:19 07.10.2019
615 Clear 15 1026 54 10000 1 0 17:58 07.10.2019
616 Clear 15 1026 54 10000 1 0 17:40 07.10.2019
617 Clear 15 1026 54 10000 1 0 17:18 07.10.2019
618 Clear 16 1025 48 10000 3.1 350 16:44 07.10.2019
619 Clear 16 1025 48 10000 3.1 350 16:25 07.10.2019
620 Clear 18 1025 48 10000 3.1 350 15:57 07.10.2019
621 Clear 18 1025 48 10000 3.1 350 15:38 07.10.2019
622 Clear 18 1025 48 10000 3.1 350 15:20 07.10.2019
623 Clouds 20 1025 39 10000 4.1 350 14:41 07.10.2019
624 Clouds 19 1022 40 10000 2.1 310 14:23 07.10.2019
625 Clouds 20 1024 39 10000 1.5 0 13:45 07.10.2019
626 Clouds 20 1024 39 10000 1.5 0 13:21 07.10.2019
627 Clouds 20 1025 40 10000 2.6 340 12:58 07.10.2019
628 Clouds 20 1025 40 10000 2.6 340 12:39 07.10.2019
629 Clouds 20 1025 40 10000 2.6 340 12:20 07.10.2019
630 Clouds 19 1025 42 10000 1.5 0 11:59 07.10.2019
631 Clouds 19 1025 42 10000 1.5 0 11:40 07.10.2019
632 Clouds 19 1025 42 10000 1.5 0 11:20 07.10.2019
633 Clouds 19 1026 45 10000 1.5 0 10:43 07.10.2019
634 Clouds 19 1026 45 10000 1.5 0 10:23 07.10.2019
635 Clouds 18 1027 51 10000 1.5 0 09:58 07.10.2019
636 Clouds 18 1027 51 10000 1.5 0 09:38 07.10.2019
637 Clouds 18 1027 51 10000 1.5 0 09:20 07.10.2019
638 Clouds 17 1027 59 10000 1 0 08:43 07.10.2019
639 Clouds 17 1027 59 10000 1 0 08:20 07.10.2019
640 Haze 15 1028 67 8000 1 320 07:49 07.10.2019
641 Haze 15 1028 67 8000 1 320 07:28 07.10.2019
642 Haze 14 1025 71 8000 1.5 250 06:58 07.10.2019
643 Haze 14 1025 71 8000 1.5 250 06:38 07.10.2019
644 Haze 14 1025 71 8000 1.5 250 06:18 07.10.2019
645 Haze 12 1024 76 8000 1.5 250 05:26 07.10.2019
646 Mist 10 1023 87 6000 0.81 179.154 04:49 07.10.2019
647 Mist 10 1022 87 8000 0.81 179.154 03:46 07.10.2019
648 Mist 10 1022 87 8000 0.81 179.154 03:27 07.10.2019
649 Mist 10 1024 87 7000 1 340 02:37 07.10.2019
650 Mist 10 1024 87 7000 1 340 02:18 07.10.2019
651 Mist 10 1024 87 6000 1.5 310 01:23 07.10.2019
652 Clouds 10 1024 93 6000 0.5 120 00:51 07.10.2019
653 Clouds 10 1024 93 6000 0.5 120 00:24 07.10.2019
654 Clouds 10 1024 93 6000 2.1 110 23:59 06.10.2019
655 Clouds 10 1024 93 6000 2.1 110 23:40 06.10.2019
656 Clouds 10 1024 93 6000 2.1 110 23:20 06.10.2019
657 Clouds 10 1024 93 10000 1.5 130 22:56 06.10.2019
658 Clouds 10 1024 93 10000 1.5 130 22:37 06.10.2019
659 Clouds 10 1024 93 10000 1.5 130 22:18 06.10.2019
660 Clouds 11 1024 87 10000 1 0 21:55 06.10.2019
661 Clouds 11 1024 87 10000 1 0 21:55 06.10.2019
662 Clouds 11 1024 87 10000 1 0 21:55 06.10.2019
663 Clouds 11 1024 87 10000 1 0 21:36 06.10.2019
664 Clouds 11 1024 87 10000 1 0 21:18 06.10.2019
665 Clouds 10 1022 93 10000 1.5 200 20:54 06.10.2019
666 Clouds 10 1022 93 10000 1.5 200 20:54 06.10.2019
667 Clouds 11 1025 87 10000 4.1 340 20:36 06.10.2019
668 Clouds 11 1025 87 10000 4.1 340 20:18 06.10.2019
669 Clouds 11 1025 81 10000 3.1 360 19:54 06.10.2019
670 Clouds 11 1025 81 10000 3.1 360 19:36 06.10.2019
671 Clouds 11 1025 81 10000 3.1 360 19:18 06.10.2019
672 Clouds 11 1024 81 10000 1.5 160 18:54 06.10.2019
673 Clouds 11 1024 81 10000 1.5 160 18:54 06.10.2019
674 Clouds 11 1024 81 10000 1.5 160 18:36 06.10.2019
675 Rain 12 1024 81 10000 1.5 160 18:18 06.10.2019
676 Rain 12 1024 76 10000 1.5 0 17:42 06.10.2019
677 Rain 12 1024 76 10000 1.5 0 17:20 06.10.2019
678 Rain 12 1023 76 10000 4.1 330 16:55 06.10.2019
679 Rain 12 1023 76 10000 4.1 330 16:55 06.10.2019
680 Rain 12 1023 76 10000 4.1 330 16:36 06.10.2019
681 Rain 12 1023 76 10000 4.1 330 16:18 06.10.2019
682 Rain 13 1023 76 10000 5.1 340 15:42 06.10.2019
683 Rain 13 1023 76 10000 5.1 340 15:19 06.10.2019
684 Rain 13 1023 76 10000 5.1 340 15:19 06.10.2019
685 Rain 13 1023 76 10000 5.1 340 15:19 06.10.2019
686 Rain 13 1023 76 10000 5.1 340 15:19 06.10.2019
687 Rain 13 1023 76 10000 5.1 340 15:19 06.10.2019
688 Rain 13 1023 81 10000 6.2 350 14:44 06.10.2019
689 Rain 13 1023 81 10000 6.2 350 14:25 06.10.2019
690 Rain 13 1023 76 9000 5.7 330 13:58 06.10.2019
691 Rain 13 1023 76 9000 5.7 330 13:39 06.10.2019
692 Rain 13 1023 76 9000 5.7 330 13:21 06.10.2019
693 Rain 13 1022 76 10000 5.1 60 12:58 06.10.2019
694 Rain 13 1022 76 10000 5.1 60 12:39 06.10.2019
695 Rain 13 1022 76 10000 5.1 60 12:39 06.10.2019
696 Rain 13 1022 76 10000 5.1 60 12:21 06.10.2019
697 Clouds 11 1021 87 10000 2.1 70 11:58 06.10.2019
698 Thunderstorm 12 1022 81 10000 4.6 40 11:39 06.10.2019
699 Thunderstorm 12 1022 81 10000 4.6 40 11:20 06.10.2019
700 Thunderstorm 13 1023 76 8000 5.1 340 10:45 06.10.2019
701 Rain 13 1023 67 9000 7.2 360 10:26 06.10.2019
702 Clouds 13 1023 71 9000 3.6 70 09:58 06.10.2019
703 Clouds 13 1023 71 9000 3.6 70 09:40 06.10.2019
704 Clouds 13 1023 71 9000 3.6 70 09:19 06.10.2019
705 Rain 13 1022 87 8000 2.1 60 08:43 06.10.2019
706 Rain 12 1024 71 8000 1.5 0 08:21 06.10.2019
707 Rain 12 1023 87 9000 1.58 63.549 07:57 06.10.2019
708 Rain 11 1024 81 8000 3.1 270 07:35 06.10.2019
709 Rain 11 1024 93 7000 5.7 90 06:23 06.10.2019
710 Rain 11 1024 87 8000 2.6 230 05:35 06.10.2019
711 Rain 11 1023 81 10000 1 40 04:26 06.10.2019
712 Clouds 11 1023 81 10000 1 150 02:46 06.10.2019
713 Clouds 11 1022 81 10000 2.6 350 02:27 06.10.2019
714 Clouds 12 1022 76 10000 2.1 340 01:46 06.10.2019
715 Clouds 12 1022 76 10000 2.1 340 01:27 06.10.2019
716 Rain 11 1022 76 10000 1 290 00:57 06.10.2019
717 Rain 11 1022 76 10000 1 290 00:28 06.10.2019
718 Rain 12 1023 76 10000 2.1 140 23:45 05.10.2019
719 Rain 12 1023 76 10000 2.1 140 23:23 05.10.2019
720 Rain 11 1021 76 10000 1.42 70.392 22:58 05.10.2019
721 Thunderstorm 12 1023 71 10000 3.1 330 22:40 05.10.2019
722 Thunderstorm 12 1023 71 10000 3.1 330 22:20 05.10.2019
723 Rain 13 1022 66 10000 7.7 360 21:57 05.10.2019
724 Rain 13 1022 66 10000 7.7 360 21:39 05.10.2019
725 Rain 13 1022 66 10000 7.7 360 21:39 05.10.2019
726 Rain 13 1022 66 10000 7.7 360 21:20 05.10.2019
727 Rain 13 1020 76 10000 2.1 250 20:56 05.10.2019
728 Rain 14 1022 71 10000 2.6 40 20:37 05.10.2019
729 Rain 14 1022 71 10000 2.6 40 20:19 05.10.2019
730 Rain 14 1022 71 10000 2.6 40 20:19 05.10.2019
731 Rain 14 1023 66 10000 1.5 30 19:38 05.10.2019
732 Rain 14 1023 66 10000 1.5 30 19:19 05.10.2019
733 Clouds 14 1022 58 10000 6.2 10 18:56 05.10.2019
734 Clouds 14 1022 58 10000 6.2 10 18:38 05.10.2019
735 Clouds 14 1022 58 10000 6.2 10 18:20 05.10.2019
736 Clouds 13 1022 58 10000 6.2 10 17:46 05.10.2019
737 Clouds 14 1022 58 10000 6.2 10 17:27 05.10.2019
738 Clouds 14 1022 62 10000 7.7 360 16:59 05.10.2019
739 Clouds 14 1022 62 10000 7.7 360 16:41 05.10.2019
740 Clouds 14 1022 62 10000 7.7 360 16:21 05.10.2019
741 Clouds 14 1022 62 10000 7.7 360 15:57 05.10.2019
742 Clouds 14 1022 62 10000 7.7 360 15:38 05.10.2019
743 Clouds 14 1022 62 10000 7.7 360 15:20 05.10.2019
744 Clouds 15 1021 62 10000 7.2 360 14:44 05.10.2019
745 Clouds 15 1021 62 10000 7.2 360 14:26 05.10.2019
746 Clouds 15 1021 55 10000 4.6 20 13:59 05.10.2019
747 Clouds 15 1021 55 10000 4.6 20 13:40 05.10.2019
748 Clouds 15 1021 55 10000 4.6 20 13:20 05.10.2019
749 Rain 16 1021 62 10000 6.2 40 12:44 05.10.2019
750 Rain 15 1021 67 10000 6.2 60 12:20 05.10.2019
751 Thunderstorm 14 1021 66 10000 4.6 40 11:45 05.10.2019
752 Thunderstorm 14 1021 62 10000 5.7 10 11:23 05.10.2019
753 Thunderstorm 16 1020 48 10000 7.2 110 10:59 05.10.2019
754 Thunderstorm 16 1020 48 10000 7.2 110 10:41 05.10.2019
755 Rain 16 1021 48 10000 8.7 120 10:23 05.10.2019
756 Rain 17 1022 48 10000 7.7 120 09:56 05.10.2019
757 Rain 17 1022 48 10000 7.7 120 09:37 05.10.2019
758 Rain 17 1022 48 10000 7.7 120 09:19 05.10.2019
759 Thunderstorm 18 1022 55 10000 7.2 140 08:39 05.10.2019
760 Thunderstorm 18 1022 55 10000 7.2 140 08:19 05.10.2019
761 Clouds 17 1019 52 10000 8.7 120 07:52 05.10.2019
762 Thunderstorm 18 1022 55 10000 6.2 120 07:31 05.10.2019
763 Clouds 16 1022 62 10000 5.1 130 06:57 05.10.2019
764 Clouds 15 1022 62 10000 5.1 130 06:26 05.10.2019
765 Clouds 12 1022 76 10000 1 0 05:40 05.10.2019
766 Mist 11 1020 76 10000 0.5 40 03:39 05.10.2019
767 Mist 11 1020 76 10000 0.5 40 03:20 05.10.2019
768 Clouds 11 1020 76 10000 1 100 01:29 05.10.2019
769 Clouds 13 1020 76 10000 1.5 340 00:51 05.10.2019
770 Clouds 13 1020 76 10000 1.5 340 00:51 05.10.2019
771 Clouds 13 1020 76 10000 1.5 340 00:28 05.10.2019
772 Clouds 13 1020 76 10000 0.5 0 23:59 04.10.2019
773 Clouds 13 1020 76 10000 0.5 0 23:41 04.10.2019
774 Clouds 13 1020 76 10000 0.5 0 23:23 04.10.2019
775 Clouds 12 1017 76 10000 1.25 349.229 22:57 04.10.2019
776 Clouds 13 1020 76 10000 1 140 22:38 04.10.2019
777 Clouds 13 1020 76 10000 1 140 22:19 04.10.2019
778 Clouds 13 1020 71 10000 3.6 80 21:41 04.10.2019
779 Clouds 13 1020 71 10000 3.6 80 21:23 04.10.2019
780 Clouds 12 1020 71 10000 3.1 360 21:00 04.10.2019
781 Clouds 12 1020 71 10000 3.1 360 20:41 04.10.2019
782 Clouds 12 1020 71 10000 3.1 360 20:23 04.10.2019
783 Clouds 13 1020 71 10000 2.1 40 19:57 04.10.2019
784 Clouds 13 1020 71 10000 2.1 40 19:38 04.10.2019
785 Clouds 13 1020 71 10000 2.1 40 19:20 04.10.2019
786 Clouds 13 1020 71 10000 4.1 360 18:55 04.10.2019
787 Clouds 13 1020 71 10000 4.1 360 18:36 04.10.2019
788 Clouds 13 1020 71 10000 4.1 360 18:18 04.10.2019
789 Clouds 14 1020 71 10000 6.2 350 17:40 04.10.2019
790 Clouds 14 1020 71 10000 6.2 350 17:22 04.10.2019
791 Clouds 14 1020 76 10000 7.7 350 16:58 04.10.2019
792 Clouds 14 1020 76 10000 7.7 350 16:39 04.10.2019
793 Clouds 14 1020 76 10000 7.7 350 16:18 04.10.2019
794 Clouds 14 1020 76 10000 7.7 350 16:18 04.10.2019
795 Clouds 14 1020 76 10000 7.7 350 16:18 04.10.2019
796 Clouds 14 1019 71 10000 6.7 360 15:56 04.10.2019
797 Clouds 14 1019 71 10000 6.7 360 15:37 04.10.2019
798 Clouds 14 1019 71 10000 6.7 360 15:37 04.10.2019
799 Clouds 14 1019 71 10000 6.7 360 15:19 04.10.2019
800 Clouds 15 1018 62 10000 3.1 70 14:55 04.10.2019
801 Clouds 15 1018 62 10000 3.1 70 14:55 04.10.2019
802 Clouds 15 1018 62 10000 3.1 70 14:36 04.10.2019
803 Clouds 15 1018 62 10000 3.1 70 14:18 04.10.2019
804 Rain 15 1019 76 10000 5.1 20 13:43 04.10.2019
805 Rain 15 1019 76 10000 5.1 20 13:21 04.10.2019
806 Rain 14 1018 76 10000 6.7 10 12:47 04.10.2019
807 Thunderstorm 13 1018 71 9000 6.7 60 12:29 04.10.2019
808 Thunderstorm 18 1015 67 8000 5.1 10 11:59 04.10.2019
809 Thunderstorm 18 1015 67 8000 5.1 10 11:59 04.10.2019
810 Thunderstorm 18 1015 67 8000 5.1 10 11:59 04.10.2019
811 Thunderstorm 18 1015 67 8000 5.1 10 11:59 04.10.2019
812 Thunderstorm 17 1018 48 10000 6.2 120 11:41 04.10.2019
813 Thunderstorm 17 1018 48 10000 6.2 120 11:20 04.10.2019
814 Thunderstorm 17 1018 48 10000 6.2 120 11:20 04.10.2019
815 Clouds 19 1020 45 10000 5.1 60 10:41 04.10.2019
816 Clouds 19 1020 45 10000 5.1 60 10:21 04.10.2019
817 Clouds 18 1018 52 10000 6.7 310 09:48 04.10.2019
818 Thunderstorm 18 1022 51 10000 5.1 100 09:30 04.10.2019
819 Clouds 17 1023 62 10000 3.1 40 08:57 04.10.2019
820 Clouds 17 1023 62 10000 3.1 40 08:38 04.10.2019
821 Clouds 17 1023 62 10000 3.1 40 08:20 04.10.2019
822 Clouds 17 1023 62 9000 2.1 70 07:45 04.10.2019
823 Clouds 17 1023 62 9000 2.1 70 07:22 04.10.2019
824 Mist 15 1023 76 6000 1.5 70 06:44 04.10.2019
825 Mist 15 1023 76 6000 1.5 70 06:25 04.10.2019
826 Mist 13 1022 81 6000 1.51 41.168 05:42 04.10.2019
827 Mist 13 1022 81 6000 1.51 41.168 05:18 04.10.2019
828 Mist 9 1021 93 3000 1 120 03:50 04.10.2019
829 Rain 10 1021 93 8000 1 0 02:54 04.10.2019
830 Clear 11 1021 87 10000 1 170 01:56 04.10.2019
831 Clear 11 1021 87 10000 1 170 01:30 04.10.2019
832 Clear 13 1021 81 10000 1 190 00:58 04.10.2019
833 Rain 13 1021 81 8000 1 160 23:59 03.10.2019
834 Rain 13 1021 81 8000 1 160 23:37 03.10.2019
835 Rain 13 1021 81 8000 1 160 23:18 03.10.2019
836 Rain 13 1021 81 8000 1 160 23:18 03.10.2019
837 Clear 13 1021 87 10000 2.1 130 22:56 03.10.2019
838 Clear 13 1021 87 10000 2.1 130 22:38 03.10.2019
839 Clear 13 1021 87 10000 2.1 130 22:38 03.10.2019
840 Clear 13 1021 87 10000 2.1 130 22:20 03.10.2019
841 -273 0 0 0 0 0 21:56 03.10.2019
842 Clear 14 1021 71 10000 1.5 150 21:37 03.10.2019
843 Clear 14 1021 71 10000 1.5 150 21:19 03.10.2019
844 Clouds 14 1022 71 10000 1.5 0 20:55 03.10.2019
845 Clouds 14 1022 71 10000 1.5 0 20:37 03.10.2019
846 Clouds 14 1022 71 10000 1.5 0 20:37 03.10.2019
847 Clouds 14 1022 71 10000 1.5 0 20:19 03.10.2019
848 Rain 15 1022 82 10000 1 0 19:41 03.10.2019
849 Rain 15 1022 82 10000 1 0 19:22 03.10.2019
850 Rain 16 1021 58 10000 1 180 18:59 03.10.2019
851 Rain 16 1021 58 10000 1 180 18:39 03.10.2019
852 Rain 16 1021 58 10000 1 180 18:39 03.10.2019
853 Rain 16 1021 58 10000 1 180 18:19 03.10.2019
854 Clouds 16 1020 54 10000 3.1 40 17:56 03.10.2019
855 Clouds 16 1020 54 10000 3.1 40 17:37 03.10.2019
856 Clouds 16 1020 54 10000 3.1 40 17:19 03.10.2019
857 Clouds 16 1020 54 10000 3.1 40 17:19 03.10.2019
858 Clouds 18 1019 48 10000 2.6 20 16:43 03.10.2019
859 Clouds 18 1019 48 10000 2.6 20 16:25 03.10.2019
860 Clouds 18 1020 48 10000 5.1 10 15:56 03.10.2019
861 Clouds 18 1020 48 10000 5.1 10 15:38 03.10.2019
862 Clouds 18 1020 48 10000 5.1 10 15:38 03.10.2019
863 Clouds 18 1020 48 10000 5.1 10 15:19 03.10.2019
864 Clouds 19 1018 45 10000 8.7 360 14:45 03.10.2019
865 Clouds 19 1018 45 10000 8.7 360 14:26 03.10.2019
866 Clouds 20 1018 52 10000 5.7 360 13:57 03.10.2019
867 Clouds 20 1018 52 10000 5.7 360 13:39 03.10.2019
868 Clouds 20 1018 52 10000 5.7 360 13:19 03.10.2019
869 Clouds 21 1017 48 10000 7.7 350 12:55 03.10.2019
870 Rain 20 1017 48 10000 7.7 350 12:36 03.10.2019
871 Rain 19 1018 59 10000 6.7 330 12:18 03.10.2019
872 Thunderstorm 19 1019 67 10000 5.1 300 11:41 03.10.2019
873 Thunderstorm 20 1019 63 2500 7.2 320 11:22 03.10.2019
874 Thunderstorm 21 1015 28 10000 4.1 110 10:58 03.10.2019
875 Thunderstorm 22 1018 52 10000 7.7 360 10:40 03.10.2019
876 Thunderstorm 22 1018 52 10000 7.7 360 10:18 03.10.2019
877 Thunderstorm 22 1018 46 10000 8.2 360 09:57 03.10.2019
878 Thunderstorm 21 1018 46 10000 8.2 360 09:39 03.10.2019
879 Thunderstorm 21 1019 43 10000 5.1 10 09:20 03.10.2019
880 Thunderstorm 21 1019 43 10000 5.1 10 09:20 03.10.2019
881 Thunderstorm 21 1016 49 10000 3.6 360 08:44 03.10.2019
882 Clouds 21 1020 49 8000 3.6 140 08:26 03.10.2019
883 Haze 21 1021 52 8000 2.1 0 07:57 03.10.2019
884 Haze 21 1021 52 8000 2.1 0 07:38 03.10.2019
885 Haze 21 1021 52 8000 2.1 0 07:19 03.10.2019
886 Haze 19 1020 55 6000 1.5 0 06:45 03.10.2019
887 Haze 19 1020 55 6000 1.5 0 06:18 03.10.2019
888 Haze 16 1021 67 8000 0.5 310 05:38 03.10.2019
889 Haze 14 1020 76 8000 1 0 04:50 03.10.2019
890 Haze 14 1020 76 8000 1 0 04:25 03.10.2019
891 Haze 14 1020 76 8000 1 0 04:25 03.10.2019
892 Haze 13 1020 76 10000 2.1 290 03:21 03.10.2019
893 Haze 15 1019 72 10000 1.5 250 02:33 03.10.2019
894 Haze 15 1019 67 9000 1.5 260 01:50 03.10.2019
895 Haze 15 1019 67 9000 1.5 260 01:31 03.10.2019
896 Rain 17 1020 67 9000 1 0 00:45 03.10.2019
897 Rain 17 1020 63 9000 1 90 23:58 02.10.2019
898 Rain 17 1020 63 9000 1 90 23:38 02.10.2019
899 Rain 17 1020 63 9000 1 90 23:19 02.10.2019
900 Rain 18 1020 63 9000 1.5 0 22:43 02.10.2019
901 Rain 18 1020 63 9000 1.5 0 22:21 02.10.2019
902 Clear 19 1020 59 10000 2.6 80 21:56 02.10.2019
903 Clear 17 1020 59 10000 2.6 80 21:38 02.10.2019
904 Clear 20 1020 59 10000 2.6 80 21:19 02.10.2019
905 Clear 20 1020 59 10000 1.5 0 20:56 02.10.2019
906 Clear 20 1020 59 10000 1.5 0 20:37 02.10.2019
907 Clear 20 1020 59 10000 1.5 0 20:19 02.10.2019
908 Clouds 19 1020 52 10000 1.5 0 19:46 02.10.2019
909 Clouds 19 1020 52 10000 1.5 0 19:23 02.10.2019
910 Clouds 19 1020 52 10000 1.5 0 19:23 02.10.2019
911 -273 0 0 0 0 0 18:59 02.10.2019
912 Clouds 19 1020 55 10000 5.1 90 18:59 02.10.2019
913 Clouds 19 1020 55 10000 5.1 90 18:40 02.10.2019
914 Clouds 19 1020 55 10000 5.1 90 18:21 02.10.2019
915 Clear 20 1019 52 10000 5.1 120 17:58 02.10.2019
916 Clear 20 1019 52 10000 5.1 120 17:40 02.10.2019
917 Clear 22 1019 52 10000 5.1 120 17:21 02.10.2019
918 Clouds 22 1019 46 10000 5.1 120 16:57 02.10.2019
919 Clouds 21 1019 46 10000 5.1 120 16:37 02.10.2019
920 Clouds 24 1019 46 10000 5.1 120 16:19 02.10.2019
921 Clouds 24 1018 35 10000 5.1 30 15:55 02.10.2019
922 Clouds 24 1018 35 10000 5.1 30 15:37 02.10.2019
923 Clouds 25 1018 35 10000 5.1 30 15:18 02.10.2019
924 Clouds 25 1018 29 10000 4.6 360 14:43 02.10.2019
925 Clouds 25 1018 29 10000 4.6 360 14:23 02.10.2019
926 Clouds 26 1018 29 10000 6.2 360 13:56 02.10.2019
927 Clouds 26 1018 29 10000 6.2 360 13:37 02.10.2019
928 Clouds 26 1018 29 10000 6.2 360 13:19 02.10.2019
929 Clouds 26 1019 29 10000 5.1 20 12:39 02.10.2019
930 Clouds 26 1019 29 10000 5.1 20 12:39 02.10.2019
931 Clouds 26 1019 29 10000 5.1 20 12:21 02.10.2019
932 Clouds 25 1020 31 10000 5.1 360 11:55 02.10.2019
933 Clouds 25 1020 31 10000 5.1 360 11:36 02.10.2019
934 Clouds 25 1020 31 10000 5.1 360 11:18 02.10.2019
935 Clouds 25 1021 33 10000 4.1 360 10:38 02.10.2019
936 Clouds 25 1021 33 10000 4.1 360 10:18 02.10.2019
937 Clouds 24 1022 37 10000 4.1 350 09:39 02.10.2019
938 Clouds 24 1022 37 10000 4.1 350 09:20 02.10.2019
939 Clouds 23 1022 43 9000 1.5 0 08:55 02.10.2019
940 Clouds 23 1022 43 9000 1.5 0 08:36 02.10.2019
941 Clouds 23 1022 43 9000 1.5 0 08:18 02.10.2019
942 Haze 21 1023 52 8000 2.1 320 07:39 02.10.2019
943 Haze 19 1023 52 8000 2.1 320 07:20 02.10.2019
944 Haze 19 1023 52 8000 2.1 320 07:20 02.10.2019
945 Haze 19 1022 59 6000 0.5 320 06:46 02.10.2019
946 Mist 16 1022 63 6000 1 310 05:56 02.10.2019
947 Mist 16 1022 63 6000 1 310 05:24 02.10.2019
948 Mist 13 1022 62 4000 0.52 356.918 04:53 02.10.2019
949 Clear 13 1021 76 9000 1.5 110 03:52 02.10.2019
950 Clear 16 1020 77 9000 1.5 220 02:43 02.10.2019
951 Clear 16 1020 77 9000 1.5 220 02:23 02.10.2019
952 Clear 17 1020 82 10000 1.5 80 01:40 02.10.2019
953 Clear 17 1020 59 10000 1.5 120 00:50 02.10.2019
954 Clear 17 1020 59 10000 1.5 120 00:27 02.10.2019
955 Clear 17 1020 42 10000 1.5 0 23:44 01.10.2019
956 Clear 17 1020 42 10000 1.5 0 23:25 01.10.2019
957 Clear 18 1020 39 10000 1.5 70 22:59 01.10.2019
958 Clear 18 1020 39 10000 1.5 70 22:40 01.10.2019
959 Clear 18 1020 39 10000 1.5 70 22:20 01.10.2019
960 Clear 20 1020 36 10000 3.1 160 21:57 01.10.2019
961 Clear 20 1020 36 10000 3.1 160 21:39 01.10.2019
962 Clear 20 1020 36 10000 3.1 160 21:20 01.10.2019
963 Clear 21 1020 32 10000 6.7 60 20:56 01.10.2019
964 Clear 21 1020 32 10000 6.7 60 20:37 01.10.2019
965 Clear 21 1020 32 10000 6.7 60 20:19 01.10.2019
966 Clear 21 1020 28 10000 4.6 50 19:55 01.10.2019
967 Clear 21 1020 28 10000 4.6 50 19:55 01.10.2019
968 Clear 21 1020 28 10000 4.6 50 19:55 01.10.2019
969 Clear 21 1020 28 10000 4.6 50 19:37 01.10.2019
970 Clear 21 1020 28 10000 4.6 50 19:37 01.10.2019
971 Clear 22 1020 28 10000 4.6 50 19:18 01.10.2019
972 Clouds 22 1019 28 9000 7.2 50 18:40 01.10.2019
973 Rain 22 1019 28 9000 7.2 50 18:21 01.10.2019
974 Rain 23 1018 24 8000 6.7 330 17:58 01.10.2019
975 Rain 23 1018 24 8000 6.7 330 17:39 01.10.2019
976 Rain 23 1018 24 8000 6.7 330 17:19 01.10.2019
977 Clouds 22 1017 24 8000 6.7 340 16:57 01.10.2019
978 Clouds 22 1017 24 8000 6.7 340 16:39 01.10.2019
979 Clouds 22 1017 24 8000 6.7 340 16:39 01.10.2019
980 Clouds 24 1017 24 10000 4.6 330 16:20 01.10.2019
981 Clouds 25 1016 19 10000 3.6 300 15:42 01.10.2019
982 Clouds 25 1016 19 10000 3.6 300 15:22 01.10.2019
983 Clouds 26 1016 16 10000 3.6 350 14:41 01.10.2019
984 Clouds 26 1016 16 10000 3.6 350 14:20 01.10.2019
985 Clouds 27 1016 16 10000 1.5 0 13:58 01.10.2019
986 Clouds 27 1016 16 10000 1.5 0 13:58 01.10.2019
987 Clouds 27 1016 16 10000 1.5 0 13:39 01.10.2019
988 Clouds 27 1016 16 10000 1.5 0 13:39 01.10.2019
989 Clouds 27 1016 16 10000 1.5 0 13:39 01.10.2019
990 Clouds 27 1016 16 10000 1.5 0 13:39 01.10.2019
991 Clouds 27 1016 16 10000 1.5 0 13:20 01.10.2019
992 Clouds 28 1017 15 10000 2.1 0 12:57 01.10.2019
993 Clouds 28 1017 15 10000 2.1 0 12:39 01.10.2019
994 Clouds 28 1017 15 10000 2.1 0 12:18 01.10.2019
995 Clouds 28 1017 16 10000 2.6 0 11:57 01.10.2019
996 Clouds 28 1017 16 10000 2.6 0 11:38 01.10.2019
997 Clouds 27 1017 16 10000 2.6 0 11:18 01.10.2019
998 Clouds 28 1017 16 10000 2.6 0 11:18 01.10.2019
999 Clouds 27 1018 16 10000 2.6 0 10:49 01.10.2019
1000 Clouds 27 1018 16 10000 2.6 0 10:29 01.10.2019
1001 Clouds 25 1020 17 10000 2.6 200 09:49 01.10.2019
1002 Clouds 26 1020 17 10000 2.6 200 09:31 01.10.2019
1003 Clouds 26 1020 17 9000 1.5 0 08:57 01.10.2019
1004 Clouds 26 1020 17 9000 1.5 0 08:39 01.10.2019
1005 Clouds 26 1020 17 9000 1.5 0 08:39 01.10.2019
1006 Clouds 26 1020 17 9000 1.5 0 08:21 01.10.2019
1007 Haze 24 1021 23 8000 1.5 0 07:43 01.10.2019
1008 Haze 24 1021 23 8000 1.5 0 07:24 01.10.2019
1009 Haze 20 1020 30 8000 2.1 340 06:46 01.10.2019
1010 Haze 20 1020 30 8000 2.1 340 06:18 01.10.2019
1011 Haze 20 1020 30 8000 2.1 340 06:18 01.10.2019
1012 Haze 18 1020 36 9000 2.1 310 05:45 01.10.2019
1013 Haze 14 1019 44 10000 2.1 320 04:50 01.10.2019
1014 Haze 14 1019 44 10000 2.1 320 04:26 01.10.2019
1015 Haze 15 1019 47 10000 1 0 02:26 01.10.2019
1016 Haze 14 1018 44 10000 1 0 01:58 01.10.2019
1017 Clear 18 1018 36 10000 1.5 290 00:53 01.10.2019
1018 Clear 18 1018 36 10000 1.5 290 00:26 01.10.2019
1019 Clear 17 1019 36 10000 1.5 230 23:55 30.09.2019
1020 Clear 17 1019 36 10000 1.5 230 23:37 30.09.2019
1021 Clear 20 1019 36 10000 1.5 230 23:18 30.09.2019
1022 Clear 20 1019 31 10000 2.6 300 22:42 30.09.2019
1023 Clear 20 1019 31 10000 2.6 300 22:24 30.09.2019
1024 Clear 22 1019 47 10000 6.2 20 21:56 30.09.2019
1025 Clear 22 1019 47 10000 6.2 20 21:38 30.09.2019
1026 Clear 22 1019 47 10000 6.2 20 21:19 30.09.2019
1027 Clear 22 1019 47 10000 2.6 30 20:56 30.09.2019
1028 Clear 22 1019 47 10000 2.6 30 20:38 30.09.2019
1029 Clear 22 1019 47 10000 2.6 30 20:19 30.09.2019
1030 Clouds 23 1019 47 10000 6.7 20 19:56 30.09.2019
1031 Clouds 23 1019 47 10000 6.7 20 19:56 30.09.2019
1032 Clouds 22 1019 47 10000 6.7 20 19:38 30.09.2019
1033 Clouds 23 1019 47 10000 6.7 20 19:18 30.09.2019
1034 Clouds 23 1019 47 10000 6.7 20 19:18 30.09.2019
1035 Clouds 24 1018 47 10000 5.1 20 18:54 30.09.2019
1036 Clouds 24 1018 47 10000 5.1 20 18:36 30.09.2019
1037 Clouds 24 1018 33 10000 5.1 20 18:18 30.09.2019
1038 Clouds 23 1018 28 10000 2.6 90 17:40 30.09.2019
1039 Clouds 23 1018 28 10000 2.6 90 17:22 30.09.2019
1040 Clouds 25 1013 20 10000 6.7 360 16:56 30.09.2019
1041 Clouds 25 1013 20 10000 6.7 360 16:56 30.09.2019
1042 Clouds 25 1013 20 10000 6.7 360 16:37 30.09.2019
1043 Clouds 25 1013 20 10000 6.7 360 16:19 30.09.2019
1044 Clouds 16 1015 33 0 2.91 42.742 15:55 30.09.2019
1045 Clouds 16 1015 33 0 2.91 42.742 15:37 30.09.2019
1046 Clouds 27 1012 18 10000 3.6 10 15:18 30.09.2019
1047 Clouds 26 1013 38 10000 6.2 360 14:57 30.09.2019
1048 Clouds 27 1012 18 10000 3.6 10 14:37 30.09.2019
1049 Clouds 28 1013 23 10000 2.6 360 14:18 30.09.2019
1050 Clouds 28 1013 23 10000 2.6 360 14:18 30.09.2019
1051 Clouds 28 1013 23 10000 2.6 360 13:44 30.09.2019
1052 Clouds 28 1013 23 10000 2.6 360 13:23 30.09.2019
1053 Rain 27 1017 36 10000 4.1 10 12:59 30.09.2019
1054 Rain 27 1017 36 10000 4.1 10 12:40 30.09.2019
1055 Clouds 27 1017 36 10000 5.1 350 12:21 30.09.2019
1056 Clear 27 1018 36 10000 2.6 130 11:44 30.09.2019
1057 Clear 27 1018 36 10000 2.6 130 11:22 30.09.2019
1058 Clouds 27 1019 36 10000 3.1 110 10:59 30.09.2019
1059 Clouds 27 1019 36 10000 3.1 110 10:39 30.09.2019
1060 Clouds 27 1019 36 10000 3.1 110 10:19 30.09.2019
1061 Clouds 25 1020 47 8000 1.5 0 09:58 30.09.2019
1062 Clouds 25 1020 47 8000 1.5 0 09:39 30.09.2019
1063 Clouds 25 1020 47 8000 1.5 0 09:20 30.09.2019
1064 Clouds 23 1021 60 7000 1.5 0 08:46 30.09.2019
1065 Clouds 23 1021 60 7000 1.5 0 08:28 30.09.2019
1066 Haze 23 1022 56 7000 2.1 0 07:44 30.09.2019
1067 Haze 23 1022 56 7000 2.1 0 07:26 30.09.2019
1068 Haze 20 1022 72 7000 1.5 210 06:56 30.09.2019
1069 Haze 20 1022 72 7000 1.5 210 06:33 30.09.2019
1070 Haze 19 1021 77 8000 1 210 05:47 30.09.2019
1071 Haze 17 1020 82 9000 1 0 03:45 30.09.2019
1072 Clear 17 1020 82 10000 0.36 352.257 02:46 30.09.2019
1073 Clear 19 1020 77 10000 1.5 190 01:35 30.09.2019
1074 Clear 19 1020 77 10000 1.5 220 00:42 30.09.2019
1075 Clear 19 1020 77 10000 1.5 220 00:21 30.09.2019
1076 Clear 20 1020 72 10000 1 230 23:46 29.09.2019
1077 Clear 20 1020 72 10000 1 230 23:23 29.09.2019
1078 Clear 20 1020 68 10000 2.1 150 22:55 29.09.2019
1079 Clear 20 1020 68 10000 2.1 150 22:37 29.09.2019
1080 Clear 20 1020 68 10000 2.1 150 22:37 29.09.2019
1081 Clear 20 1020 68 10000 2.1 150 22:19 29.09.2019
1082 Clear 21 1020 64 10000 4.6 130 21:57 29.09.2019
1083 Clear 20 1020 64 10000 4.6 130 21:37 29.09.2019
1084 Clear 21 1020 64 10000 4.6 130 21:19 29.09.2019
1085 Clear 21 1020 64 10000 3.1 130 20:44 29.09.2019
1086 Clear 21 1020 64 10000 3.1 130 20:20 29.09.2019
1087 Clear 22 1019 64 10000 3.6 90 19:59 29.09.2019
1088 Clear 22 1019 64 10000 3.6 90 19:37 29.09.2019
1089 Clear 23 1019 64 10000 3.6 90 19:19 29.09.2019
1090 Clear 23 1019 60 10000 3.1 150 18:56 29.09.2019
1091 Clear 23 1019 60 10000 3.1 150 18:56 29.09.2019
1092 Clear 23 1019 60 10000 3.1 150 18:38 29.09.2019
1093 Clear 23 1019 60 10000 3.1 150 18:19 29.09.2019
1094 Clouds 23 1019 56 10000 4.1 130 17:58 29.09.2019
1095 Clouds 23 1019 56 10000 4.1 130 17:38 29.09.2019
1096 Clouds 23 1019 56 10000 4.1 130 17:19 29.09.2019
1097 Clouds 24 1018 53 9000 4.6 110 16:58 29.09.2019
1098 Clouds 24 1018 53 9000 4.6 110 16:40 29.09.2019
1099 Clouds 24 1018 53 9000 4.6 110 16:19 29.09.2019
1100 Clouds 24 1018 53 9000 4.6 110 16:19 29.09.2019
1101 Clouds 25 1018 47 9000 5.7 120 15:56 29.09.2019
1102 Clouds 25 1018 47 9000 5.7 120 15:36 29.09.2019
1103 Clouds 27 1018 47 9000 5.7 120 15:18 29.09.2019
1104 Clouds 27 1018 27 9000 4.6 10 14:55 29.09.2019
1105 Clouds 27 1018 27 9000 4.6 10 14:36 29.09.2019
1106 Clouds 27 1018 27 9000 4.6 10 14:18 29.09.2019
1107 Clouds 28 1018 30 9000 3.1 0 13:41 29.09.2019
1108 Clouds 28 1018 30 9000 3.1 0 13:19 29.09.2019
1109 Clouds 28 1019 28 10000 1 0 12:58 29.09.2019
1110 Clouds 28 1019 28 10000 1 0 12:39 29.09.2019
1111 Clouds 28 1019 28 10000 1 0 12:21 29.09.2019
1112 Clouds 28 1019 32 10000 3.6 0 11:57 29.09.2019
1113 Clouds 28 1019 32 10000 3.6 0 11:38 29.09.2019
1114 Clouds 27 1019 32 10000 3.6 0 11:18 29.09.2019
1115 Clouds 27 1021 34 9000 3.1 40 10:57 29.09.2019
1116 Clouds 27 1021 34 9000 3.1 40 10:36 29.09.2019
1117 Clouds 26 1021 34 9000 3.1 40 10:18 29.09.2019
1118 Haze 26 1022 36 9000 2.6 0 09:44 29.09.2019
1119 Haze 25 1022 36 9000 2.6 0 09:20 29.09.2019
1120 Haze 24 1022 46 9000 3.1 0 08:57 29.09.2019
1121 Haze 24 1022 46 9000 3.1 0 08:37 29.09.2019
1122 Haze 24 1022 46 9000 3.1 0 08:18 29.09.2019
1123 Haze 24 1022 46 9000 3.1 0 08:18 29.09.2019
1124 Haze 23 1022 53 7000 2.1 0 07:41 29.09.2019
1125 Haze 23 1022 53 7000 2.1 0 07:41 29.09.2019
1126 Haze 23 1022 53 7000 2.1 0 07:23 29.09.2019
1127 Haze 21 1022 64 7000 1.5 0 06:42 29.09.2019
1128 Haze 14 1021 87 10000 1 310 04:57 29.09.2019
1129 Haze 14 1021 87 10000 1 310 04:25 29.09.2019
1130 Clear 15 1020 82 10000 1 240 03:55 29.09.2019
1131 Clear 15 1020 77 10000 0.37 97.997 02:40 29.09.2019
1132 Clear 18 1020 77 10000 1 320 01:51 29.09.2019
1133 Clear 18 1020 77 10000 1 320 01:30 29.09.2019
1134 Clear 17 1020 77 10000 1 0 00:47 29.09.2019
1135 Clear 17 1020 77 10000 1 0 00:19 29.09.2019
1136 Clear 20 1020 55 10000 1.5 310 23:42 28.09.2019
1137 Clear 20 1020 55 10000 1.5 310 23:22 28.09.2019
1138 Clear 21 1020 59 10000 1 0 22:56 28.09.2019
1139 Clear 21 1020 59 10000 1 0 22:37 28.09.2019
1140 Clear 21 1020 59 10000 1 0 22:19 28.09.2019
1141 Clear 22 1020 52 10000 1 0 21:55 28.09.2019
1142 Clear 22 1020 52 10000 1 0 21:36 28.09.2019
1143 Clear 22 1020 52 10000 1 0 21:18 28.09.2019
1144 Clear 22 1019 22 10000 1.5 130 20:55 28.09.2019
1145 Clear 22 1019 22 10000 1.5 130 20:36 28.09.2019
1146 Clear 22 1019 22 10000 1.5 130 20:18 28.09.2019
1147 Clear 22 1019 22 10000 1.5 130 20:18 28.09.2019
1148 Clear 22 1019 18 10000 1 120 19:42 28.09.2019
1149 Clear 22 1019 18 10000 1 120 19:42 28.09.2019
1150 Clear 22 1019 18 10000 1 120 19:22 28.09.2019
1151 Clear 25 1019 15 10000 2.6 150 18:59 28.09.2019
1152 Clear 25 1019 15 10000 2.6 150 18:41 28.09.2019
1153 Clear 25 1019 15 10000 2.6 150 18:21 28.09.2019
1154 Clear 26 1018 10 10000 6.7 30 17:57 28.09.2019
1155 Clear 26 1018 10 10000 6.7 30 17:39 28.09.2019
1156 Clear 26 1018 10 10000 6.7 30 17:21 28.09.2019
1157 Clear 27 1017 9 10000 7.7 30 16:48 28.09.2019
1158 Clear 27 1017 9 10000 7.7 30 16:28 28.09.2019
1159 Clear 28 1017 10 10000 7.7 10 15:57 28.09.2019
1160 Clear 28 1017 10 10000 7.7 10 15:38 28.09.2019
1161 Clear 28 1017 10 10000 7.7 10 15:20 28.09.2019
1162 Clear 30 1016 9 10000 4.6 340 14:54 28.09.2019
1163 Clear 30 1016 9 10000 4.6 340 14:36 28.09.2019
1164 Clear 31 1016 9 10000 4.6 340 14:18 28.09.2019
1165 Clear 31 1016 9 10000 5.1 300 13:42 28.09.2019
1166 Clear 31 1016 9 10000 5.1 300 13:20 28.09.2019
1167 Clear 32 1017 8 10000 4.6 360 12:55 28.09.2019
1168 Clear 32 1017 8 10000 4.6 360 12:36 28.09.2019
1169 Clear 32 1017 8 10000 4.6 360 12:18 28.09.2019
1170 Clear 32 1017 8 10000 4.6 360 12:18 28.09.2019
1171 Clear 32 1018 9 10000 4.6 190 11:40 28.09.2019
1172 Clear 32 1018 9 10000 4.6 190 11:20 28.09.2019
1173 Clear 31 1019 9 10000 4.6 140 10:44 28.09.2019
1174 Clear 31 1019 9 10000 4.6 140 10:21 28.09.2019
1175 Clear 30 1015 7 10000 6.2 330 09:59 28.09.2019
1176 Clear 31 1020 10 10000 3.1 80 09:40 28.09.2019
1177 Clear 31 1020 10 10000 3.1 80 09:40 28.09.2019
1178 Clear 31 1020 10 10000 3.1 80 09:18 28.09.2019
1179 Clear 30 1021 11 10000 1.5 310 08:47 28.09.2019
1180 Clear 30 1021 11 10000 1.5 310 08:29 28.09.2019
1181 Clear 28 1021 15 10000 3.1 350 07:56 28.09.2019
1182 Clear 28 1021 15 10000 3.1 350 07:38 28.09.2019
1183 Clear 27 1021 15 10000 3.1 350 07:18 28.09.2019
1184 Clear 25 1021 19 10000 2.6 330 06:37 28.09.2019
1185 Clear 22 1021 19 10000 2.6 330 06:19 28.09.2019
1186 Clear 22 1021 20 10000 2.6 310 05:25 28.09.2019
1187 Clear 16 1021 28 10000 3.1 300 04:45 28.09.2019
1188 Clear 16 1021 28 10000 3.1 300 04:26 28.09.2019
1189 Clear 16 1021 26 10000 2.1 320 03:35 28.09.2019
1190 Clear 20 1021 25 10000 2.1 310 02:58 28.09.2019
1191 Clear 20 1021 25 10000 2.1 310 02:37 28.09.2019
1192 Clear 21 1021 25 10000 2.1 310 02:18 28.09.2019
1193 Clear 20 1021 25 10000 2.1 320 01:41 28.09.2019
1194 Clear 22 1021 25 10000 2.1 320 01:19 28.09.2019
1195 Clear 22 1021 20 10000 1 0 00:44 28.09.2019
1196 Clear 22 1021 20 10000 1 0 00:26 28.09.2019
1197 Clear 24 1021 15 10000 2.1 0 23:39 27.09.2019
1198 Clear 24 1021 15 10000 2.1 0 23:21 27.09.2019
1199 Clear 26 1021 11 10000 6.2 20 22:49 27.09.2019
1200 Clear 26 1021 11 10000 6.2 20 22:21 27.09.2019
1201 Clear 25 1021 11 10000 9.8 10 21:59 27.09.2019
1202 Clear 25 1021 11 10000 9.8 10 21:59 27.09.2019
1203 Clear 25 1021 11 10000 9.8 10 21:40 27.09.2019
1204 Clear 26 1021 11 10000 9.8 10 21:20 27.09.2019
1205 Clear 26 1021 11 10000 9.8 10 21:20 27.09.2019
1206 Clear 26 1022 11 10000 9.3 10 20:58 27.09.2019
1207 Clear 26 1022 11 10000 9.3 10 20:58 27.09.2019
1208 Clear 26 1022 11 10000 9.3 10 20:40 27.09.2019
1209 Clear 27 1022 10 10000 10.3 10 20:19 27.09.2019
1210 Clear 27 1021 10 10000 11.3 10 19:57 27.09.2019
1211 Clear 27 1021 10 10000 11.3 10 19:38 27.09.2019
1212 Clear 27 1021 10 10000 11.3 10 19:19 27.09.2019
1213 Clear 27 1021 10 10000 10.3 10 18:42 27.09.2019
1214 Clear 27 1021 10 10000 10.3 10 18:23 27.09.2019
1215 Clear 28 1021 10 8000 10.3 10 17:56 27.09.2019
1216 Clear 28 1021 10 8000 10.3 10 17:38 27.09.2019
1217 Clear 28 1021 10 8000 10.3 10 17:20 27.09.2019
1218 Clear 28 1020 11 8000 6.7 360 16:57 27.09.2019
1219 Clear 28 1020 11 8000 6.7 360 16:37 27.09.2019
1220 Clear 28 1020 11 8000 6.7 360 16:37 27.09.2019
1221 Clear 28 1020 11 8000 6.7 360 16:37 27.09.2019
1222 Clear 27 1020 11 8000 6.7 360 16:18 27.09.2019
1223 Clear 27 1020 11 8000 6.7 360 16:18 27.09.2019
1224 Clouds 29 1020 10 9000 7.7 10 15:46 27.09.2019
1225 Clouds 30 1020 10 9000 7.7 10 15:21 27.09.2019
1226 Clouds 30 1020 10 9000 7.7 10 15:21 27.09.2019
1227 Clouds 31 1020 10 9000 5.7 10 14:59 27.09.2019
1228 Clouds 31 1020 10 9000 5.7 10 14:40 27.09.2019
1229 Clouds 31 1020 10 9000 5.7 10 14:21 27.09.2019
1230 Clouds 31 1020 10 9000 5.7 350 13:57 27.09.2019
1231 Clouds 31 1020 10 9000 5.7 350 13:39 27.09.2019
1232 Clouds 32 1020 18 9000 2.6 0 13:21 27.09.2019
1233 Clouds 32 1020 18 9000 2.6 0 12:54 27.09.2019
1234 Clouds 32 1020 18 9000 2.6 0 12:23 27.09.2019
1235 Clouds 30 1021 20 9000 3.6 190 11:58 27.09.2019
1236 Clouds 30 1021 20 9000 3.6 190 11:38 27.09.2019
1237 Haze 30 1021 20 9000 3.6 190 11:19 27.09.2019
1238 Haze 30 1021 20 9000 3.6 190 11:19 27.09.2019
1239 Haze 30 1022 32 8000 1.5 0 10:43 27.09.2019
1240 Haze 30 1022 32 8000 1.5 0 10:22 27.09.2019
1241 Haze 28 1023 34 7000 1.5 0 09:58 27.09.2019
1242 Haze 28 1023 34 7000 1.5 0 09:39 27.09.2019
1243 Haze 28 1023 34 7000 1.5 0 09:19 27.09.2019
1244 Haze 27 1024 36 7000 2.6 0 08:41 27.09.2019
1245 Haze 27 1024 36 7000 2.6 0 08:21 27.09.2019
1246 Haze 25 1025 57 4000 1.5 0 07:50 27.09.2019
1247 Haze 25 1025 57 4000 1.5 0 07:29 27.09.2019
1248 Mist 23 1025 64 3500 1.5 170 06:49 27.09.2019
1249 Mist 23 1025 64 3500 1.5 170 06:31 27.09.2019
1250 Mist 19 1025 72 4000 1.5 140 05:54 27.09.2019
1251 Mist 19 1025 72 4000 1.5 140 05:54 27.09.2019
1252 Mist 19 1025 72 4000 1.5 140 05:34 27.09.2019
1253 Mist 18 1021 63 5000 1.5 220 04:52 27.09.2019
1254 Mist 16 1024 82 3000 0.5 0 03:38 27.09.2019
1255 Clear 18 1023 72 10000 1 290 01:56 27.09.2019
1256 Clear 18 1023 72 10000 1 290 01:30 27.09.2019
1257 Clear 19 1023 72 10000 2.1 340 00:41 27.09.2019
1258 Clear 17 1023 82 10000 1.5 310 23:57 26.09.2019
1259 Clear 17 1023 82 10000 1.5 310 23:39 26.09.2019
1260 Clear 17 1023 82 10000 1.5 310 23:20 26.09.2019
1261 Clear 18 1023 82 10000 1.5 310 22:58 26.09.2019
1262 Clear 18 1023 82 10000 1.5 310 22:39 26.09.2019
1263 Clear 18 1023 77 10000 1.5 290 22:18 26.09.2019
1264 Clear 18 1023 77 10000 1.5 290 22:18 26.09.2019
1265 Clear 20 1023 77 10000 0.5 0 21:58 26.09.2019
1266 Clear 20 1023 77 10000 0.5 0 21:38 26.09.2019
1267 Clear 19 1023 77 10000 0.5 0 21:19 26.09.2019
1268 Clear 19 1023 77 10000 0.5 0 21:19 26.09.2019
1269 Clear 19 1023 68 10000 1 0 20:58 26.09.2019
1270 Clear 19 1023 68 10000 1 0 20:39 26.09.2019
1271 Clear 19 1023 68 10000 1 0 20:21 26.09.2019
1272 Clear 21 1022 60 10000 1 0 19:56 26.09.2019
1273 Clear 21 1022 60 10000 1 0 19:38 26.09.2019
1274 Clear 21 1022 60 10000 1 0 19:18 26.09.2019
1275 Clear 22 1022 56 10000 1.5 120 18:43 26.09.2019
1276 Clear 22 1022 56 10000 1.5 120 18:22 26.09.2019
1277 Clear 24 1022 44 10000 1 140 17:59 26.09.2019
1278 Clear 24 1022 44 10000 1 140 17:38 26.09.2019
1279 Clear 24 1022 44 10000 1 140 17:19 26.09.2019
1280 Clear 26 1021 24 10000 1.5 300 16:56 26.09.2019
1281 Clear 26 1021 24 10000 1.5 300 16:37 26.09.2019
1282 Clear 26 1021 24 10000 1.5 300 16:18 26.09.2019
1283 Clear 30 1021 21 10000 2.6 360 15:42 26.09.2019
1284 Clouds 30 1017 25 10000 3.22 64.381 15:24 26.09.2019
1285 Clear 31 1021 22 10000 3.1 290 14:59 26.09.2019
1286 Clear 31 1021 22 10000 3.1 290 14:41 26.09.2019
1287 Clear 31 1021 22 10000 3.1 290 14:41 26.09.2019
1288 Clear 31 1021 22 10000 3.1 290 14:22 26.09.2019
1289 Clouds 30 1022 21 10000 2.1 320 13:57 26.09.2019
1290 Clouds 30 1022 21 10000 2.1 320 13:39 26.09.2019
1291 Clouds 30 1022 21 10000 2.1 320 13:19 26.09.2019
1292 Clouds 31 1022 27 10000 2.6 0 12:44 26.09.2019
1293 Clouds 31 1022 27 10000 2.6 0 12:23 26.09.2019
1294 Clouds 30 1023 30 10000 2.1 280 11:57 26.09.2019
1295 Clouds 30 1023 30 10000 2.1 280 11:39 26.09.2019
1296 Clouds 30 1023 30 10000 2.1 280 11:19 26.09.2019
1297 Haze 30 1025 35 8000 2.1 0 10:42 26.09.2019
1298 Haze 30 1025 35 8000 2.1 0 10:24 26.09.2019
1299 Haze 28 1026 44 7000 4.1 330 09:59 26.09.2019
1300 Haze 28 1026 44 7000 4.1 330 09:40 26.09.2019
1301 Haze 28 1026 44 7000 4.1 330 09:20 26.09.2019
1302 Haze 27 1027 47 7000 2.1 280 08:51 26.09.2019
1303 Haze 27 1027 47 7000 2.1 280 08:31 26.09.2019
1304 Mist 25 1027 60 6000 2.6 0 07:48 26.09.2019
1305 Mist 23 1027 60 6000 2.6 0 07:22 26.09.2019
1306 Haze 23 1027 60 5000 2.6 0 06:55 26.09.2019
1307 Mist 23 1027 64 4000 1 0 06:29 26.09.2019
1308 Mist 21 1024 64 8000 0.61 102.478 05:59 26.09.2019
1309 Mist 20 1027 73 5000 1 320 05:29 26.09.2019
1310 Mist 18 1026 82 5000 0.5 0 03:51 26.09.2019
1311 Mist 17 1025 82 7000 0.5 0 02:25 26.09.2019
1312 Clouds 18 1024 77 8000 0.5 0 01:48 26.09.2019
1313 Clouds 18 1024 77 8000 0.5 0 01:22 26.09.2019
1314 Clear 19 1024 82 8000 0.5 0 00:45 26.09.2019
1315 Clear 19 1024 82 8000 0.5 0 00:25 26.09.2019
1316 Clouds 19 1024 77 8000 0.5 0 23:43 25.09.2019
1317 Clouds 19 1024 77 8000 0.5 0 23:23 25.09.2019
1318 Clear 20 1024 73 8000 1 240 22:55 25.09.2019
1319 Clear 20 1024 73 8000 1 240 22:37 25.09.2019
1320 Clear 21 1024 73 8000 1 240 22:18 25.09.2019
1321 Clear 21 1024 73 8000 1 240 22:18 25.09.2019
1322 Clear 21 1024 73 8000 1 120 21:55 25.09.2019
1323 Clear 21 1024 73 8000 1 120 21:36 25.09.2019
1324 Clear 21 1024 73 8000 1 120 21:18 25.09.2019
1325 Clear 21 1024 68 8000 0.5 0 20:55 25.09.2019
1326 Clear 21 1024 68 8000 0.5 0 20:37 25.09.2019
1327 Clear 25 1024 68 8000 0.5 0 20:18 25.09.2019
1328 Clear 25 1024 60 9000 1.5 230 19:39 25.09.2019
1329 Clear 25 1024 60 9000 1.5 230 19:20 25.09.2019
1330 Clear 24 1019 50 10000 3.1 90 18:56 25.09.2019
1331 Clear 25 1023 56 9000 1.5 140 18:37 25.09.2019
1332 Clear 26 1023 56 9000 1.5 140 18:18 25.09.2019
1333 Clear 26 1023 53 9000 2.1 140 17:40 25.09.2019
1334 Clear 26 1023 53 9000 2.1 140 17:21 25.09.2019
1335 Clouds 27 1022 47 9000 1.5 60 16:58 25.09.2019
1336 Clouds 27 1022 47 9000 1.5 60 16:40 25.09.2019
1337 Clouds 27 1022 47 9000 1.5 60 16:22 25.09.2019
1338 Clouds 28 1022 36 9000 3.6 90 15:55 25.09.2019
1339 Clouds 28 1022 36 9000 3.6 90 15:55 25.09.2019
1340 Clouds 28 1022 36 9000 3.6 90 15:37 25.09.2019
1341 Clouds 28 1022 36 9000 3.6 90 15:18 25.09.2019
1342 Clouds 29 1022 34 9000 4.6 10 14:42 25.09.2019
1343 Clouds 29 1022 34 9000 4.6 10 14:22 25.09.2019
1344 Clouds 30 1022 26 9000 6.2 50 13:57 25.09.2019
1345 Clouds 30 1022 26 9000 6.2 50 13:57 25.09.2019
1346 Clouds 30 1022 26 9000 6.2 50 13:39 25.09.2019
1347 Clouds 30 1022 26 9000 6.2 50 13:20 25.09.2019
1348 Clouds 30 1023 35 9000 3.6 0 12:44 25.09.2019
1349 Clouds 30 1023 35 9000 3.6 0 12:44 25.09.2019
1350 Clouds 30 1023 35 9000 3.6 0 12:25 25.09.2019
1351 Clouds 30 1023 32 9000 3.1 0 11:59 25.09.2019
1352 Clouds 30 1023 32 9000 3.1 0 11:40 25.09.2019
1353 Clouds 30 1023 32 9000 3.1 0 11:20 25.09.2019
1354 Haze 29 1024 37 9000 3.1 0 10:46 25.09.2019
1355 Haze 29 1024 37 9000 3.1 0 10:26 25.09.2019
1356 Haze 28 1025 39 9000 3.1 0 09:58 25.09.2019
1357 Haze 28 1025 39 9000 3.1 0 09:58 25.09.2019
1358 Haze 28 1025 39 9000 3.1 0 09:58 25.09.2019
1359 Haze 28 1025 39 9000 3.1 0 09:38 25.09.2019
1360 Haze 28 1025 39 9000 3.1 0 09:20 25.09.2019
1361 Haze 27 1026 44 9000 3.6 360 08:55 25.09.2019
1362 Haze 27 1026 44 9000 3.6 360 08:37 25.09.2019
1363 Haze 27 1026 44 9000 3.6 360 08:18 25.09.2019
1364 Haze 25 1026 50 8000 1.5 0 07:40 25.09.2019
1365 Haze 23 1026 50 8000 1.5 0 07:22 25.09.2019
1366 Haze 22 1022 53 6000 2.39 71.792 06:45 25.09.2019
1367 Mist 21 1022 53 6000 1.45 34.25 06:23 25.09.2019
1368 Mist 20 1025 68 6000 1.5 320 05:39 25.09.2019
1369 Mist 18 1021 68 8000 1.45 34.25 04:57 25.09.2019
1370 Clear 17 1022 77 10000 1 280 02:31 25.09.2019
1371 Clear 18 1022 72 10000 1.5 220 00:56 25.09.2019
1372 Clear 18 1022 72 10000 1.5 220 00:36 25.09.2019
1373 Clear 19 1022 72 10000 1.5 220 00:18 25.09.2019
1374 Clear 19 1022 68 10000 1 350 23:40 24.09.2019
1375 Clear 19 1022 68 10000 1 350 23:21 24.09.2019
1376 Clear 19 1022 68 10000 0.5 50 22:56 24.09.2019
1377 Clear 19 1022 68 10000 0.5 50 22:36 24.09.2019
1378 Clear 20 1022 68 10000 0.5 50 22:18 24.09.2019
1379 Clear 20 1022 64 10000 1 190 21:54 24.09.2019
1380 Clear 22 1022 64 10000 1 190 21:36 24.09.2019
1381 Clear 20 1022 64 10000 1 190 21:18 24.09.2019
1382 Clear 20 1022 60 10000 0.5 0 20:54 24.09.2019
1383 Clear 20 1022 60 10000 0.5 0 20:36 24.09.2019
1384 Clear 24 1022 60 10000 0.5 0 20:18 24.09.2019
1385 Clear 24 1022 56 10000 1 0 19:41 24.09.2019
1386 Clear 24 1022 56 10000 1 0 19:19 24.09.2019
1387 Clear 24 1022 53 10000 2.1 160 18:55 24.09.2019
1388 Clear 24 1022 53 10000 2.1 160 18:55 24.09.2019
1389 Clear 24 1022 53 10000 2.1 160 18:37 24.09.2019
1390 Clear 25 1022 53 10000 2.1 160 18:19 24.09.2019
1391 Clear 26 1021 44 10000 1.5 100 17:55 24.09.2019
1392 Clear 26 1021 44 10000 1.5 100 17:37 24.09.2019
1393 Clear 26 1021 39 10000 1.5 0 17:18 24.09.2019
1394 Clear 26 1021 39 10000 1.5 0 16:41 24.09.2019
1395 Clear 27 1021 39 10000 1.5 0 16:20 24.09.2019
1396 Clear 28 1020 32 9000 3.1 360 15:57 24.09.2019
1397 Clear 28 1020 32 9000 3.1 360 15:38 24.09.2019
1398 Clear 28 1020 32 9000 3.1 360 15:19 24.09.2019
1399 Clear 30 1019 23 9000 2.1 0 14:37 24.09.2019
1400 Clear 30 1019 23 9000 2.1 0 14:18 24.09.2019
1401 Clear 31 1020 23 9000 2.1 0 13:41 24.09.2019
1402 Clear 31 1020 23 9000 2.1 0 13:21 24.09.2019
1403 Clear 30 1021 27 9000 1.5 0 12:42 24.09.2019
1404 Clear 30 1021 27 9000 1.5 0 12:22 24.09.2019
1405 Clear 30 1022 28 9000 1.5 0 11:58 24.09.2019
1406 Clear 30 1022 28 9000 1.5 0 11:40 24.09.2019
1407 Clear 30 1022 28 9000 1.5 0 11:21 24.09.2019
1408 Clear 28 1023 32 9000 2.1 0 10:40 24.09.2019
1409 Clear 28 1023 32 9000 2.1 0 10:21 24.09.2019
1410 Clear 28 1024 36 7000 2.6 80 09:58 24.09.2019
1411 Clear 28 1024 36 7000 2.6 80 09:58 24.09.2019
1412 Clear 28 1024 36 7000 2.6 80 09:40 24.09.2019
1413 Clear 28 1024 36 7000 2.6 80 09:19 24.09.2019
1414 Haze 27 1025 41 7000 1.5 0 08:55 24.09.2019
1415 Haze 27 1025 41 7000 1.5 0 08:55 24.09.2019
1416 Haze 27 1025 41 7000 1.5 0 08:37 24.09.2019
1417 Haze 27 1025 41 7000 1.5 0 08:18 24.09.2019
1418 Haze 25 1025 47 7000 1.5 0 07:42 24.09.2019
1419 Haze 25 1025 47 7000 1.5 0 07:42 24.09.2019
1420 Haze 23 1025 47 7000 1.5 0 07:24 24.09.2019
1421 Haze 22 1025 56 7000 1 0 06:47 24.09.2019
1422 Haze 22 1025 56 7000 1 0 06:27 24.09.2019
1423 Haze 19 1024 64 6000 1 0 05:26 24.09.2019
1424 Haze 16 1021 63 6000 1.28 26.867 04:58 24.09.2019
1425 Clear 15 1023 67 10000 1.5 290 03:42 24.09.2019
1426 Clear 15 1022 72 10000 1.5 310 02:45 24.09.2019
1427 Clear 15 1022 67 9000 1.5 320 01:44 24.09.2019
1428 Clear 17 1022 59 8000 1.5 280 00:42 24.09.2019
1429 Clear 16 1022 59 8000 1.5 280 00:23 24.09.2019
1430 Clear 15 1022 63 8000 1.5 320 23:44 23.09.2019
1431 Clear 15 1022 63 8000 1.5 320 23:24 23.09.2019
1432 Clear 17 1022 52 8000 1.5 0 22:57 23.09.2019
1433 Clear 17 1022 52 8000 1.5 0 22:38 23.09.2019
1434 Clear 17 1022 52 8000 1.5 0 22:20 23.09.2019
1435 Clear 18 1022 45 9000 1.5 290 21:56 23.09.2019
1436 Clear 18 1022 45 9000 1.5 290 21:37 23.09.2019
1437 Clear 18 1022 45 9000 1.5 290 21:18 23.09.2019
1438 Clear 18 1022 45 8000 1.5 310 20:41 23.09.2019
1439 Clear 18 1022 45 8000 1.5 310 20:20 23.09.2019
1440 Clear 19 1022 32 8000 1.5 320 19:56 23.09.2019
1441 Clear 19 1022 32 8000 1.5 320 19:38 23.09.2019
1442 Clear 19 1022 32 8000 1.5 320 19:20 23.09.2019
1443 Clear 21 1021 32 8000 1.5 140 18:42 23.09.2019
1444 Clear 22 1021 32 8000 1.5 140 18:21 23.09.2019
1445 Clear 23 1021 23 10000 1.5 0 17:59 23.09.2019
1446 Clear 23 1021 23 10000 1.5 0 17:39 23.09.2019
1447 Clear 23 1021 23 10000 1.5 0 17:21 23.09.2019
1448 Clear 26 1020 16 10000 2.6 360 16:59 23.09.2019
1449 Clear 26 1020 16 10000 2.6 360 16:38 23.09.2019
1450 Clear 27 1020 16 10000 2.6 360 16:19 23.09.2019
1451 Clear 28 1020 14 10000 4.1 350 15:58 23.09.2019
1452 Clear 28 1020 14 10000 4.1 350 15:39 23.09.2019
1453 Clear 28 1020 14 10000 4.1 350 15:19 23.09.2019
1454 Clear 31 1020 10 10000 1.5 0 14:57 23.09.2019
1455 Clear 31 1020 10 10000 1.5 0 14:36 23.09.2019
1456 Clear 31 1020 10 10000 1.5 0 14:18 23.09.2019
1457 Clear 31 1020 10 10000 2.1 0 13:40 23.09.2019
1458 Clear 31 1020 10 10000 2.1 0 13:19 23.09.2019
1459 Clear 30 1021 11 10000 4.6 40 12:59 23.09.2019
1460 Clear 30 1021 11 10000 4.6 40 12:40 23.09.2019
1461 Clear 30 1021 11 10000 4.6 40 12:21 23.09.2019
1462 Clear 31 1022 12 10000 3.1 360 11:45 23.09.2019
1463 Clear 31 1022 12 10000 3.1 360 11:45 23.09.2019
1464 Clear 31 1022 12 10000 3.1 360 11:26 23.09.2019
1465 Clear 30 1023 12 10000 2.6 320 10:57 23.09.2019
1466 Clear 30 1023 12 10000 2.6 320 10:39 23.09.2019
1467 Clear 30 1023 12 10000 2.6 320 10:20 23.09.2019
1468 Clear 30 1023 12 10000 2.6 320 10:20 23.09.2019
1469 Clear 28 1024 15 10000 2.1 0 09:40 23.09.2019
1470 Clear 28 1024 15 10000 2.1 0 09:21 23.09.2019
1471 Clear 28 1025 21 10000 1.5 0 08:57 23.09.2019
1472 Clear 28 1025 21 10000 1.5 0 08:38 23.09.2019
1473 Clear 26 1025 21 10000 1.5 0 08:18 23.09.2019
1474 Clear 26 1025 21 10000 1.5 0 08:18 23.09.2019
1475 Clear 25 1026 29 10000 1 0 07:33 23.09.2019
1476 Haze 21 1025 40 10000 1 160 06:52 23.09.2019
1477 Haze 20 1025 40 10000 1 160 06:19 23.09.2019
1478 Haze 19 1021 39 9000 0.5 33.469 05:22 23.09.2019
1479 Haze 13 1021 58 9000 1.5 260 04:55 23.09.2019
1480 Clear 13 1023 67 8000 1 270 03:56 23.09.2019
1481 Clear 13 1023 67 8000 1 270 03:56 23.09.2019
1482 Clear 14 1022 67 8000 1.5 0 01:25 23.09.2019
1483 Clear 16 1022 63 8000 1.5 150 00:24 23.09.2019
1484 Clear 16 1022 63 8000 2.1 110 23:58 22.09.2019
1485 Clear 16 1022 63 8000 2.1 110 23:39 22.09.2019
1486 Clear 15 1022 63 8000 2.1 110 23:20 22.09.2019
1487 Clear 16 1022 59 8000 1.5 70 22:54 22.09.2019
1488 Clear 16 1022 59 8000 1.5 70 22:36 22.09.2019
1489 Clear 16 1022 59 8000 1.5 70 22:18 22.09.2019
1490 Clear 17 1022 55 8000 1 0 21:40 22.09.2019
1491 Clear 17 1022 55 8000 1 0 21:20 22.09.2019
1492 Clear 19 1022 49 8000 1.5 0 20:43 22.09.2019
1493 Clear 19 1022 49 8000 1.5 0 20:24 22.09.2019
1494 Clear 21 1022 49 8000 1.5 0 19:56 22.09.2019
1495 Clear 21 1022 49 8000 1.5 0 19:38 22.09.2019
1496 Clear 21 1022 49 8000 1.5 0 19:38 22.09.2019
1497 Clear 21 1022 49 8000 1.5 0 19:19 22.09.2019
1498 Clear 22 1018 49 10000 1.3 7.755 18:56 22.09.2019
1499 Clear 22 1018 49 10000 1.3 7.755 18:56 22.09.2019
1500 Clear 21 1021 43 8000 1.5 150 18:37 22.09.2019
1501 Clear 21 1021 43 8000 1.5 150 18:37 22.09.2019
1502 Clear 23 1021 43 8000 1.5 150 18:18 22.09.2019
1503 Clear 24 1020 33 10000 4.1 10 17:42 22.09.2019
1504 Clear 24 1020 33 10000 4.1 10 17:24 22.09.2019
1505 Clear 26 1020 31 10000 2.6 360 16:48 22.09.2019
1506 Clear 26 1020 31 10000 2.6 360 16:27 22.09.2019
1507 Clear 26 1020 31 10000 2.6 360 16:27 22.09.2019
1508 Clear 28 1019 26 10000 3.1 340 15:59 22.09.2019
1509 Clear 28 1019 26 10000 3.1 340 15:40 22.09.2019
1510 Clear 28 1019 26 10000 3.1 340 15:40 22.09.2019
1511 Clear 28 1019 26 10000 3.1 340 15:22 22.09.2019
1512 Clear 29 1019 23 9000 2.1 0 14:47 22.09.2019
1513 Clear 29 1019 23 9000 2.1 0 14:47 22.09.2019
1514 Clear 29 1019 23 9000 2.1 0 14:27 22.09.2019
1515 Clear 29 1019 23 10000 3.1 10 13:59 22.09.2019
1516 Clear 29 1019 23 10000 3.1 10 13:41 22.09.2019
1517 Clear 29 1019 23 10000 3.1 10 13:41 22.09.2019
1518 Clear 29 1019 23 10000 3.1 10 13:22 22.09.2019
1519 Clear 30 1020 21 10000 2.1 0 12:56 22.09.2019
1520 Clear 30 1020 21 10000 2.1 0 12:38 22.09.2019
1521 Clear 29 1020 21 10000 2.1 0 12:18 22.09.2019
1522 Clear 29 1021 21 10000 1.5 0 11:43 22.09.2019
1523 Clear 29 1021 21 10000 1.5 0 11:24 22.09.2019
1524 Clear 28 1022 24 10000 2.6 270 10:55 22.09.2019
1525 Clear 28 1022 24 10000 2.6 270 10:55 22.09.2019
1526 Clear 28 1022 24 10000 2.6 270 10:37 22.09.2019
1527 Clear 28 1022 24 10000 2.6 270 10:18 22.09.2019
1528 Clear 27 1023 31 10000 2.6 0 09:42 22.09.2019
1529 Clear 27 1023 31 10000 2.6 0 09:42 22.09.2019
1530 Clear 27 1023 31 10000 2.6 0 09:21 22.09.2019
1531 Clear 26 1023 34 10000 1.5 0 08:48 22.09.2019
1532 Clear 26 1023 34 10000 1.5 0 08:26 22.09.2019
1533 Clear 24 1024 41 10000 1.5 90 07:57 22.09.2019
1534 Clear 24 1024 41 10000 1.5 90 07:39 22.09.2019
1535 Clear 22 1024 41 10000 1.5 90 07:20 22.09.2019
1536 Clear 21 1023 43 9000 2.1 330 06:55 22.09.2019
1537 Clear 18 1023 52 8000 0.88 25.343 05:37 22.09.2019
1538 Clear 13 1021 67 9000 1.5 310 03:50 22.09.2019
1539 Clear 14 1020 67 9000 1 330 02:41 22.09.2019
1540 Clear 14 1020 67 9000 1 330 02:23 22.09.2019
1541 Clear 15 1020 59 8000 1.5 330 01:23 22.09.2019
1542 Clear 15 1019 59 8000 1.5 310 00:37 22.09.2019
1543 Clear 15 1019 59 8000 1.5 310 00:19 22.09.2019
1544 Clear 16 1019 51 9000 1 320 23:41 21.09.2019
1545 Clear 16 1019 51 9000 1 320 23:22 21.09.2019
1546 Clear 17 1019 55 10000 1.5 0 22:39 21.09.2019
1547 Clear 17 1019 55 10000 1.5 0 22:21 21.09.2019
1548 Clear 18 1019 52 10000 1.5 150 21:55 21.09.2019
1549 Clear 18 1019 52 10000 1.5 150 21:37 21.09.2019
1550 Clear 18 1019 52 10000 1.5 150 21:18 21.09.2019
1551 Clear 18 1019 52 10000 1.07 19.965 20:39 21.09.2019
1552 Clear 18 1019 52 10000 1.07 19.965 20:39 21.09.2019
1553 Clear 18 1019 52 10000 1.07 19.965 20:21 21.09.2019
1554 Clear 19 1019 43 9000 1.5 0 19:48 21.09.2019
1555 Clear 19 1019 43 9000 1.5 0 19:25 21.09.2019
1556 Clear 21 1019 37 10000 1.5 160 18:59 21.09.2019
1557 Clear 21 1019 37 10000 1.5 160 18:37 21.09.2019
1558 Clear 21 1019 37 10000 1.5 160 18:19 21.09.2019
1559 Clear 22 1018 23 10000 1.5 140 17:42 21.09.2019
1560 Clear 22 1018 23 10000 1.5 140 17:42 21.09.2019
1561 Clear 22 1018 23 10000 1.5 140 17:21 21.09.2019
1562 Clear 25 1018 27 10000 2.1 90 16:44 21.09.2019
1563 Clear 25 1018 27 10000 2.1 90 16:24 21.09.2019
1564 Clear 27 1018 12 10000 2.1 150 15:56 21.09.2019
1565 Clear 27 1018 12 10000 2.1 150 15:38 21.09.2019
1566 Clear 27 1018 12 10000 2.1 150 15:19 21.09.2019
1567 Clear 29 1018 8 10000 3.6 20 14:44 21.09.2019
1568 Clear 29 1018 8 10000 3.6 20 14:26 21.09.2019
1569 Clear 29 1018 8 10000 3.6 160 13:43 21.09.2019
1570 Clear 29 1018 8 10000 3.6 160 13:23 21.09.2019
1571 Clear 30 1019 9 10000 3.6 140 12:57 21.09.2019
1572 Clear 30 1019 9 10000 3.6 140 12:39 21.09.2019
1573 Clear 30 1019 9 10000 3.6 140 12:20 21.09.2019
1574 Clear 29 1019 10 10000 3.6 120 11:51 21.09.2019
1575 Clear 29 1019 10 10000 3.6 120 11:25 21.09.2019
1576 Clear 29 1020 9 10000 3.6 60 10:56 21.09.2019
1577 Clear 29 1020 9 10000 3.6 60 10:38 21.09.2019
1578 Clear 29 1020 9 10000 3.6 60 10:19 21.09.2019
1579 Clear 29 1021 9 10000 2.6 290 09:55 21.09.2019
1580 Clear 29 1021 9 10000 2.6 290 09:36 21.09.2019
1581 Clear 27 1021 9 10000 2.6 290 09:18 21.09.2019
1582 Clear 26 1022 13 10000 2.1 0 08:42 21.09.2019
1583 Clear 24 1022 15 10000 1.5 190 07:58 21.09.2019
1584 Clear 24 1022 15 10000 1.5 190 07:39 21.09.2019
1585 Clear 23 1022 15 10000 1.5 190 07:18 21.09.2019
1586 Clear 23 1022 17 10000 1.5 280 06:35 21.09.2019
1587 Clear 18 1021 24 10000 0.5 0 05:51 21.09.2019
1588 Clear 14 1021 30 10000 1 0 04:39 21.09.2019
1589 Clear 14 1021 30 10000 1 0 04:39 21.09.2019
1590 Clear 13 1020 30 10000 1 0 03:31 21.09.2019
1591 Clear 14 1020 30 10000 1 0 02:25 21.09.2019
1592 Clear 17 1020 22 10000 1.5 330 01:47 21.09.2019
1593 Clear 17 1020 22 10000 1.5 330 01:21 21.09.2019
1594 Clear 19 1020 26 10000 2.1 330 00:23 21.09.2019
1595 Clear 20 1020 19 10000 1 0 23:48 20.09.2019
1596 Clear 20 1020 19 10000 1 0 23:48 20.09.2019
1597 Clear 20 1020 19 10000 1 0 23:30 20.09.2019
1598 Clear 22 1021 18 10000 1.5 0 22:46 20.09.2019
1599 -273 0 0 0 0 0 22:26 20.09.2019
1600 Clear 24 1021 11 10000 6.2 10 21:58 20.09.2019
1601 Clear 24 1021 11 10000 6.2 10 21:39 20.09.2019
1602 Clear 24 1021 11 10000 6.2 10 21:21 20.09.2019
1603 Clear 24 1021 11 10000 6.2 10 21:21 20.09.2019
1604 Clear 24 1021 11 10000 5.1 30 20:59 20.09.2019
1605 Clear 24 1021 11 10000 5.1 30 20:41 20.09.2019
1606 Clear 24 1021 11 10000 5.1 30 20:20 20.09.2019
1607 Clear 25 1021 10 10000 5.1 20 19:56 20.09.2019
1608 Clear 25 1021 10 10000 5.1 20 19:37 20.09.2019
1609 Clear 25 1021 10 10000 5.1 20 19:18 20.09.2019
1610 Clear 26 1020 9 10000 6.7 20 18:39 20.09.2019
1611 Clear 26 1020 9 10000 6.7 20 18:20 20.09.2019
1612 Clear 26 1020 9 10000 6.2 40 17:48 20.09.2019
1613 Clear 26 1020 9 10000 6.2 40 17:28 20.09.2019
1614 Clear 27 1019 9 10000 6.7 20 16:59 20.09.2019
1615 Clear 27 1019 9 10000 6.7 20 16:37 20.09.2019
1616 Clear 27 1019 9 10000 6.7 20 16:19 20.09.2019
1617 Clear 28 1018 8 10000 6.2 360 15:42 20.09.2019
1618 Clear 28 1018 8 10000 6.2 360 15:23 20.09.2019
1619 Clear 30 1018 8 10000 3.1 100 14:55 20.09.2019
1620 Clear 30 1018 8 10000 3.1 100 14:36 20.09.2019
1621 Clear 29 1018 8 10000 3.1 100 14:18 20.09.2019
1622 Clear 30 1019 7 10000 5.1 90 13:44 20.09.2019
1623 Clear 31 1019 7 10000 5.1 90 13:25 20.09.2019
1624 Clear 31 1019 7 10000 3.1 70 12:42 20.09.2019
1625 Clear 31 1019 7 10000 3.1 70 12:23 20.09.2019
1626 Clear 31 1020 7 10000 6.2 80 11:57 20.09.2019
1627 Clear 31 1020 7 10000 6.2 80 11:39 20.09.2019
1628 Clear 31 1020 7 10000 6.2 80 11:19 20.09.2019
1629 Clear 30 1021 7 10000 3.1 0 10:42 20.09.2019
1630 Clear 30 1021 7 10000 3.1 0 10:22 20.09.2019
1631 Clear 30 1022 8 10000 3.1 250 09:38 20.09.2019
1632 Clear 29 1022 8 10000 3.1 250 09:19 20.09.2019
1633 Clear 28 1022 10 10000 3.1 0 08:59 20.09.2019
1634 Clear 28 1022 10 10000 3.1 0 08:39 20.09.2019
1635 Clear 28 1022 10 10000 3.1 0 08:20 20.09.2019
1636 Clear 27 1023 15 8000 1.5 0 07:41 20.09.2019
1637 Clear 24 1023 15 8000 1.5 0 07:23 20.09.2019
1638 Clear 24 1023 18 7000 1.5 0 06:43 20.09.2019
1639 Clear 24 1023 18 7000 1.5 0 06:43 20.09.2019
1640 Clear 20 1023 18 7000 1.5 0 06:19 20.09.2019
1641 Clear 14 1022 30 10000 1 0 04:58 20.09.2019
1642 Clear 13 1022 35 10000 2.1 310 03:29 20.09.2019
1643 Clear 15 1022 35 10000 2.1 310 02:39 20.09.2019
1644 Clear 18 1022 28 10000 1 0 01:43 20.09.2019
1645 Clear 20 1021 23 10000 0.5 0 00:44 20.09.2019
1646 Clear 22 1022 13 10000 2.6 0 23:56 19.09.2019
1647 Clear 22 1022 13 10000 2.6 0 23:38 19.09.2019
1648 Clear 22 1022 13 10000 2.6 0 23:18 19.09.2019
1649 Clear 23 1022 13 10000 2.6 0 22:40 19.09.2019
1650 Clear 24 1022 11 10000 4.6 20 22:22 19.09.2019
1651 Clear 24 1022 11 10000 5.1 20 21:57 19.09.2019
1652 Clear 24 1022 11 10000 5.1 20 21:39 19.09.2019
1653 Clear 24 1022 11 10000 5.1 20 21:19 19.09.2019
1654 Clear 25 1022 10 10000 6.2 20 20:57 19.09.2019
1655 Clear 25 1022 10 10000 6.2 20 20:57 19.09.2019
1656 Clear 25 1022 10 10000 6.2 20 20:39 19.09.2019
1657 Clear 25 1022 10 10000 6.2 20 20:19 19.09.2019
1658 Clear 25 1022 10 10000 7.2 20 19:54 19.09.2019
1659 Clear 25 1022 10 10000 7.2 20 19:54 19.09.2019
1660 Clear 25 1022 10 10000 7.2 20 19:36 19.09.2019
1661 Clear 25 1022 10 10000 7.2 20 19:36 19.09.2019
1662 Clear 26 1022 10 10000 7.2 20 19:18 19.09.2019
1663 Clear 26 1021 10 10000 8.2 20 18:41 19.09.2019
1664 Clear 26 1021 10 10000 8.2 20 18:22 19.09.2019
1665 Clear 26 1021 9 10000 7.7 20 17:43 19.09.2019
1666 Clear 26 1021 9 10000 7.7 20 17:24 19.09.2019
1667 Clear 28 1020 8 10000 6.2 30 16:59 19.09.2019
1668 Clear 28 1020 8 10000 6.2 30 16:40 19.09.2019
1669 Clear 28 1020 8 10000 6.2 30 16:20 19.09.2019
1670 Clear 29 1019 8 10000 7.2 10 15:41 19.09.2019
1671 Clear 29 1019 8 10000 7.2 10 15:22 19.09.2019
1672 Clear 31 1019 8 10000 7.7 360 14:58 19.09.2019
1673 Clear 31 1019 8 10000 7.7 360 14:39 19.09.2019
1674 Clear 31 1019 8 10000 7.7 360 14:20 19.09.2019
1675 Clear 32 1019 7 10000 5.7 320 13:40 19.09.2019
1676 Clear 32 1019 7 10000 5.7 320 13:22 19.09.2019
1677 Clear 33 1020 7 10000 4.6 110 12:59 19.09.2019
1678 Clear 33 1020 7 10000 4.6 110 12:36 19.09.2019
1679 Clear 33 1020 7 10000 4.6 110 12:18 19.09.2019
1680 Clear 32 1021 6 10000 4.1 20 11:41 19.09.2019
1681 Clear 32 1021 6 10000 4.1 20 11:22 19.09.2019
1682 Clear 32 1022 5 10000 3.6 360 10:58 19.09.2019
1683 Clear 32 1022 5 10000 3.6 360 10:39 19.09.2019
1684 Clear 32 1022 5 10000 3.6 360 10:21 19.09.2019
1685 Clear 32 1022 5 10000 3.6 360 10:21 19.09.2019
1686 Clear 31 1023 7 10000 1.5 0 09:56 19.09.2019
1687 Clear 31 1023 7 10000 1.5 0 09:38 19.09.2019
1688 Clear 30 1023 7 10000 1.5 0 09:19 19.09.2019
1689 Clear 30 1023 7 10000 2.1 180 08:49 19.09.2019
1690 Clear 30 1023 7 10000 2.1 180 08:23 19.09.2019
1691 Clear 28 1024 13 10000 1 220 07:44 19.09.2019
1692 Clear 25 1024 13 10000 1 220 07:22 19.09.2019
1693 Clear 25 1019 17 10000 3.1 230 06:51 19.09.2019
1694 Clear 25 1019 17 10000 3.1 230 06:32 19.09.2019
1695 Clear 19 1023 20 10000 2.6 330 05:53 19.09.2019
1696 Clear 19 1023 20 10000 2.6 330 05:34 19.09.2019
1697 Clear 16 1022 37 10000 1.5 310 03:55 19.09.2019
1698 Clear 13 1022 37 10000 1.5 310 03:19 19.09.2019
1699 Clear 19 1022 47 10000 1 0 01:34 19.09.2019
1700 Clear 21 1022 44 10000 1.07 318.854 00:53 19.09.2019
1701 Clear 21 1022 44 10000 1.07 318.854 00:26 19.09.2019
1702 Clear 22 1022 45 10000 0.5 0 23:44 18.09.2019
1703 Clear 22 1022 45 10000 0.5 0 23:23 18.09.2019
1704 Clear 22 1022 42 10000 1 0 22:57 18.09.2019
1705 Clear 22 1022 42 10000 1 0 22:37 18.09.2019
1706 Clear 16 1022 42 10000 1 0 22:18 18.09.2019
1707 Clear 17 1022 34 10000 1.5 0 21:56 18.09.2019
1708 Clear 17 1022 34 10000 1.5 0 21:37 18.09.2019
1709 Clear 18 1022 34 10000 1.5 0 21:18 18.09.2019
1710 Clear 19 1022 30 10000 1 280 20:56 18.09.2019
1711 Clear 19 1022 30 10000 1 280 20:37 18.09.2019
1712 Clear 23 1022 30 10000 1 280 20:19 18.09.2019
1713 Clear 23 1022 24 10000 1.5 300 19:54 18.09.2019
1714 Clear 23 1022 24 10000 1.5 300 19:36 18.09.2019
1715 Clear 21 1022 24 10000 1.5 300 19:18 18.09.2019
1716 Clear 21 1022 21 10000 1.5 80 18:54 18.09.2019
1717 Clear 21 1022 21 10000 1.5 80 18:36 18.09.2019
1718 Clear 21 1022 21 10000 1.5 80 18:18 18.09.2019
1719 Clear 23 1021 18 10000 1.5 0 17:40 18.09.2019
1720 Clear 23 1021 18 10000 1.5 0 17:19 18.09.2019
1721 Clear 26 1020 11 10000 5.7 360 16:58 18.09.2019
1722 Clear 26 1020 11 10000 5.7 360 16:39 18.09.2019
1723 Clear 26 1020 11 10000 5.7 360 16:21 18.09.2019
1724 Clear 28 1019 14 10000 5.7 350 15:56 18.09.2019
1725 Clear 28 1019 14 10000 5.7 350 15:38 18.09.2019
1726 Clear 29 1019 14 10000 5.7 350 15:19 18.09.2019
1727 Clear 30 1019 5 10000 1.5 190 14:58 18.09.2019
1728 Clear 30 1019 5 10000 1.5 190 14:39 18.09.2019
1729 Clear 31 1019 5 10000 1.5 190 14:21 18.09.2019
1730 Clear 31 1019 5 10000 1.5 190 14:21 18.09.2019
1731 Clear 31 1019 5 10000 2.1 0 13:54 18.09.2019
1732 Clear 31 1019 5 10000 2.1 0 13:36 18.09.2019
1733 Clear 31 1019 5 10000 2.1 0 13:18 18.09.2019
1734 Clear 31 1020 6 10000 2.1 100 12:37 18.09.2019
1735 Clear 30 1020 6 10000 2.1 100 12:19 18.09.2019
1736 Clear 30 1020 5 10000 2.1 150 11:40 18.09.2019
1737 Clear 30 1020 5 10000 2.1 150 11:20 18.09.2019
1738 Clear 29 1021 9 9000 2.6 170 10:56 18.09.2019
1739 Clear 29 1021 9 9000 2.6 170 10:37 18.09.2019
1740 Clear 28 1021 9 9000 2.6 170 10:18 18.09.2019
1741 Clear 28 1022 10 9000 2.1 0 09:42 18.09.2019
1742 Clear 28 1022 10 9000 2.1 0 09:22 18.09.2019
1743 Clear 28 1022 10 9000 2.1 0 09:22 18.09.2019
1744 Clear 28 1022 10 9000 2.1 0 09:22 18.09.2019
1745 Clear 28 1022 10 9000 2.1 0 09:22 18.09.2019
1746 Clear 27 1022 10 9000 1.5 0 08:58 18.09.2019
1747 Clear 27 1022 10 9000 1.5 0 08:40 18.09.2019
1748 Clear 25 1022 10 9000 1.5 0 08:21 18.09.2019
1749 Clear 25 1023 11 9000 1 0 07:44 18.09.2019
1750 Clear 22 1023 11 9000 1 0 07:23 18.09.2019
1751 Clear 21 1022 14 10000 1.5 0 06:49 18.09.2019
1752 Clear 21 1022 14 10000 1.5 0 06:24 18.09.2019
1753 Clear 18 1022 17 10000 2.6 310 05:27 18.09.2019
1754 Clear 11 1020 34 8000 1 280 03:40 18.09.2019
1755 Clear 12 1019 35 10000 0.5 0 02:40 18.09.2019
1756 Clear 12 1019 33 10000 1 290 01:44 18.09.2019
1757 Clear 13 1019 28 10000 1 290 00:56 18.09.2019
1758 Clear 13 1019 28 10000 1 290 00:32 18.09.2019
1759 Clear 14 1019 26 10000 1 170 23:48 17.09.2019
1760 Clear 14 1019 26 10000 1 170 23:25 17.09.2019
1761 Clear 14 1019 15 10000 1.5 180 22:57 17.09.2019
1762 Clear 14 1019 15 10000 1.5 180 22:38 17.09.2019
1763 Clear 14 1019 15 10000 1.5 180 22:19 17.09.2019
1764 Clear 16 1019 20 10000 1 100 21:54 17.09.2019
1765 Clear 16 1019 20 10000 1 100 21:36 17.09.2019
1766 Clear 16 1019 20 10000 1 100 21:18 17.09.2019
1767 Clear 19 1019 17 10000 1.5 260 20:55 17.09.2019
1768 Clear 12 1015 15 0 0.52 342.889 20:37 17.09.2019
1769 Clear 19 1019 17 10000 1.5 260 20:37 17.09.2019
1770 Clear 19 1019 17 10000 1.5 260 20:37 17.09.2019
1771 Clear 20 1019 12 10000 1.5 350 20:19 17.09.2019
1772 Clear 20 1019 12 10000 1.5 350 19:54 17.09.2019
1773 Clear 20 1019 12 10000 1.5 350 19:36 17.09.2019
1774 Clear 20 1019 12 10000 1.5 350 19:18 17.09.2019
1775 Clear 22 1018 9 10000 2.6 330 18:42 17.09.2019
1776 Clear 22 1018 9 10000 2.6 330 18:22 17.09.2019
1777 Clear 25 1017 7 10000 3.1 340 17:55 17.09.2019
1778 Clear 25 1017 7 10000 3.1 340 17:37 17.09.2019
1779 Clear 25 1017 7 10000 3.1 340 17:18 17.09.2019
1780 Clear 26 1017 6 10000 6.2 30 16:41 17.09.2019
1781 Clear 26 1017 6 10000 6.2 30 16:41 17.09.2019
1782 Clear 28 1017 6 10000 6.2 30 16:22 17.09.2019
1783 Clear 29 1017 5 10000 4.6 360 15:56 17.09.2019
1784 Clear 29 1017 5 10000 4.6 360 15:37 17.09.2019
1785 Clear 30 1017 5 10000 4.6 360 15:19 17.09.2019
1786 Clear 30 1017 6 10000 2.6 350 14:55 17.09.2019
1787 Clear 30 1017 6 10000 2.6 350 14:37 17.09.2019
1788 Clear 31 1017 6 10000 2.6 350 14:18 17.09.2019
1789 Clear 31 1017 6 10000 5.1 350 13:42 17.09.2019
1790 Clear 31 1017 6 10000 5.1 350 13:23 17.09.2019
1791 Clear 31 1017 5 10000 5.1 330 12:56 17.09.2019
1792 Clear 31 1017 5 10000 5.1 330 12:37 17.09.2019
1793 Clear 31 1019 5 10000 3.1 0 12:18 17.09.2019
1794 Clear 31 1019 5 10000 3.1 0 12:18 17.09.2019
1795 Clear 31 1019 5 10000 3.1 0 11:42 17.09.2019
1796 Clear 31 1019 5 10000 3.1 0 11:24 17.09.2019
1797 Clear 30 1019 5 10000 1 0 10:43 17.09.2019
1798 Clear 30 1019 5 10000 1 0 10:24 17.09.2019
1799 Clear 29 1020 5 10000 1.5 0 09:59 17.09.2019
1800 Clear 29 1020 5 10000 1.5 0 09:41 17.09.2019
1801 Clear 27 1020 5 10000 1.5 0 09:21 17.09.2019
1802 Clear 27 1021 7 10000 1.5 0 08:46 17.09.2019
1803 Clear 27 1021 7 10000 1.5 0 08:26 17.09.2019
1804 Clear 25 1021 11 10000 2.6 0 07:58 17.09.2019
1805 Clear 25 1021 11 10000 2.6 0 07:39 17.09.2019
1806 Clear 23 1021 11 10000 2.6 0 07:19 17.09.2019
1807 Clear 22 1021 12 10000 2.1 290 06:45 17.09.2019
1808 Clear 19 1021 12 10000 2.1 290 06:19 17.09.2019
1809 Clear 19 1021 12 10000 2.1 290 06:19 17.09.2019
1810 Haze 17 1020 20 9000 2.6 330 05:44 17.09.2019
1811 Clear 14 1020 26 10000 2.6 310 04:28 17.09.2019
1812 Clear 18 1019 22 10000 1 230 02:57 17.09.2019
1813 Clear 18 1019 22 10000 1 230 02:38 17.09.2019
1814 Clear 18 1019 18 10000 1 0 01:24 17.09.2019
1815 Clear 18 1019 17 10000 2.6 340 00:32 17.09.2019
1816 Clear 20 1019 16 10000 1.5 170 23:38 16.09.2019
1817 Clear 20 1019 16 10000 1.5 170 23:18 16.09.2019
1818 Clear 20 1019 16 10000 1.5 170 23:18 16.09.2019
1819 Clear 21 1018 10 10000 8.2 20 22:43 16.09.2019
1820 Clear 21 1018 10 10000 8.2 20 22:25 16.09.2019
1821 Clear 22 1018 9 10000 8.2 20 21:59 16.09.2019
1822 Clear 22 1018 9 10000 8.2 20 21:40 16.09.2019
1823 Clear 22 1018 9 10000 8.2 20 21:21 16.09.2019
1824 Clear 23 1018 9 10000 8.2 10 20:59 16.09.2019
1825 Clear 23 1018 9 10000 8.2 10 20:39 16.09.2019
1826 Clear 23 1018 9 10000 8.2 10 20:19 16.09.2019
1827 Clear 23 1018 8 10000 7.7 10 19:56 16.09.2019
1828 Clear 23 1018 8 10000 7.7 10 19:38 16.09.2019
1829 Clear 23 1018 8 10000 7.7 10 19:18 16.09.2019
1830 Clear 23 1018 6 10000 7.7 360 18:44 16.09.2019
1831 Clear 23 1018 6 10000 7.7 360 18:25 16.09.2019
1832 Clear 24 1017 6 8000 7.2 20 17:56 16.09.2019
1833 Clear 24 1017 6 8000 7.2 20 17:56 16.09.2019
1834 Clear 24 1017 6 8000 7.2 20 17:37 16.09.2019
1835 Clear 24 1017 6 8000 7.2 20 17:19 16.09.2019
1836 Clear 25 1016 5 8000 7.7 30 16:43 16.09.2019
1837 Clear 25 1016 5 8000 7.7 30 16:21 16.09.2019
1838 Dust 26 1016 4 7000 6.7 10 15:57 16.09.2019
1839 Dust 26 1016 4 7000 6.7 10 15:39 16.09.2019
1840 Dust 26 1016 4 7000 6.7 10 15:20 16.09.2019
1841 Dust 27 1016 4 7000 6.7 10 15:20 16.09.2019
1842 Dust 28 1016 4 7000 5.1 360 14:58 16.09.2019
1843 Dust 28 1016 4 7000 5.1 360 14:39 16.09.2019
1844 Dust 28 1016 4 7000 5.1 360 14:20 16.09.2019
1845 Clear 29 1016 4 10000 5.1 360 13:43 16.09.2019
1846 Clear 30 1016 4 10000 5.1 360 13:22 16.09.2019
1847 Clear 30 1017 5 10000 5.1 350 12:57 16.09.2019
1848 Clear 30 1017 5 10000 5.1 350 12:39 16.09.2019
1849 Clear 30 1017 5 10000 5.1 350 12:21 16.09.2019
1850 Clear 30 1018 5 10000 3.1 0 11:45 16.09.2019
1851 Clear 30 1018 5 10000 3.1 0 11:23 16.09.2019
1852 Clear 30 1019 6 10000 4.1 70 10:56 16.09.2019
1853 Clear 30 1019 6 10000 4.1 70 10:37 16.09.2019
1854 Clear 30 1019 6 10000 4.1 70 10:18 16.09.2019
1855 Clear 28 1020 7 10000 2.1 0 09:42 16.09.2019
1856 Clear 28 1020 7 10000 2.1 0 09:21 16.09.2019
1857 Clear 28 1021 8 10000 1.5 0 08:56 16.09.2019
1858 Clear 28 1021 8 10000 1.5 0 08:38 16.09.2019
1859 Clear 28 1021 8 10000 1.5 0 08:19 16.09.2019
1860 Clear 26 1021 9 10000 2.1 300 07:42 16.09.2019
1861 Clear 25 1021 9 10000 2.1 300 07:24 16.09.2019
1862 Clear 24 1021 15 10000 1.5 0 06:58 16.09.2019
1863 Clear 24 1021 15 10000 1.5 0 06:39 16.09.2019
1864 Clear 23 1021 15 10000 1.5 0 06:20 16.09.2019
1865 Clear 22 1020 20 10000 1.5 300 05:42 16.09.2019
1866 Clear 22 1020 20 10000 1.5 300 05:21 16.09.2019
1867 Clear 18 1020 21 10000 3.6 320 03:37 16.09.2019
1868 Clear 19 1018 33 10000 1.5 180 01:20 16.09.2019
1869 Clear 19 1018 32 10000 0.5 70 00:38 16.09.2019
1870 Clear 19 1018 31 10000 0.5 70 00:20 16.09.2019
1871 Clear 22 1018 24 10000 2.6 260 23:39 15.09.2019
1872 Clear 22 1018 24 10000 2.6 260 23:20 15.09.2019
1873 Clear 21 1018 24 10000 1.5 310 22:39 15.09.2019
1874 Clear 21 1018 24 10000 1.5 310 22:21 15.09.2019
1875 Clear 22 1018 24 10000 1 250 21:58 15.09.2019
1876 Clear 22 1018 24 10000 1 250 21:39 15.09.2019
1877 Clear 22 1018 24 10000 1 250 21:21 15.09.2019
1878 Clear 23 1018 20 10000 2.1 20 20:55 15.09.2019
1879 Clear 23 1018 20 10000 2.1 20 20:55 15.09.2019
1880 Clear 23 1018 20 10000 2.1 20 20:37 15.09.2019
1881 Clear 23 1018 20 10000 2.1 20 20:19 15.09.2019
1882 Clear 23 1018 19 10000 2.6 320 19:42 15.09.2019
1883 Clear 23 1018 19 10000 2.6 320 19:22 15.09.2019
1884 Clear 24 1017 16 10000 4.1 300 18:42 15.09.2019
1885 Clear 24 1017 16 10000 4.1 300 18:24 15.09.2019
1886 Clear 24 1016 14 10000 7.2 340 17:56 15.09.2019
1887 Clear 24 1016 14 10000 7.2 340 17:37 15.09.2019
1888 Clear 26 1016 14 10000 7.2 340 17:19 15.09.2019
1889 Clear 26 1016 14 10000 7.2 340 17:19 15.09.2019
1890 Clear 26 1016 12 10000 5.7 30 16:42 15.09.2019
1891 Clear 26 1016 12 10000 5.7 30 16:24 15.09.2019
1892 Clear 28 1015 13 10000 7.7 350 15:58 15.09.2019
1893 Clear 28 1015 13 10000 7.7 350 15:58 15.09.2019
1894 Clear 28 1015 13 10000 7.7 350 15:39 15.09.2019
1895 Clear 29 1015 13 10000 7.7 350 15:20 15.09.2019
1896 Clear 30 1015 17 10000 7.7 360 14:56 15.09.2019
1897 Clear 30 1015 17 10000 7.7 360 14:38 15.09.2019
1898 Clear 31 1015 17 10000 7.7 360 14:20 15.09.2019
1899 Clouds 32 1015 11 10000 5.1 360 13:45 15.09.2019
1900 Clouds 32 1015 11 10000 5.1 360 13:24 15.09.2019
1901 Clouds 31 1016 12 10000 5.1 10 12:55 15.09.2019
1902 Clouds 31 1016 12 10000 5.1 10 12:36 15.09.2019
1903 Clouds 31 1016 12 10000 5.1 10 12:18 15.09.2019
1904 Clouds 30 1017 12 9000 2.1 0 11:42 15.09.2019
1905 Clouds 30 1017 12 9000 2.1 0 11:22 15.09.2019
1906 Clouds 30 1014 10 10000 3.1 310 10:56 15.09.2019
1907 Clouds 30 1014 10 10000 3.1 310 10:38 15.09.2019
1908 Clouds 29 1014 10 10000 3.1 310 10:19 15.09.2019
1909 Clear 29 1019 21 9000 3.1 0 09:40 15.09.2019
1910 Clear 28 1019 21 9000 3.1 0 09:20 15.09.2019
1911 Clear 28 1020 21 9000 1.5 0 08:47 15.09.2019
1912 Clear 28 1020 21 9000 1.5 0 08:27 15.09.2019
1913 Clear 26 1020 31 8000 1 0 07:49 15.09.2019
1914 Clear 26 1020 31 8000 1 0 07:30 15.09.2019
1915 Haze 23 1020 40 8000 1.5 0 06:43 15.09.2019
1916 Clear 15 1019 33 10000 1.5 340 03:31 15.09.2019
1917 Clear 14 1015 47 10000 1.5 170 02:42 15.09.2019
1918 Clear 16 1018 33 10000 1 280 01:41 15.09.2019
1919 Clear 16 1018 33 10000 1 280 01:21 15.09.2019
1920 Clear 17 1018 27 10000 1 310 00:46 15.09.2019
1921 Clear 17 1018 24 10000 1 310 00:24 15.09.2019
1922 Clear 18 1018 32 9000 2.1 180 23:58 14.09.2019
1923 Clear 18 1018 32 9000 2.1 180 23:40 14.09.2019
1924 Clear 18 1018 32 9000 2.1 180 23:21 14.09.2019
1925 Clear 17 1018 29 10000 1 0 22:59 14.09.2019
1926 Clear 17 1018 29 10000 1 0 22:40 14.09.2019
1927 Clear 17 1018 29 10000 1 0 22:21 14.09.2019
1928 Clear 18 1018 22 10000 1 0 21:57 14.09.2019
1929 Clear 18 1018 22 10000 1 0 21:39 14.09.2019
1930 Clear 18 1018 22 10000 1 0 21:19 14.09.2019
1931 Clear 19 1018 22 10000 1.5 0 20:54 14.09.2019
1932 Clear 19 1018 22 10000 1.5 0 20:54 14.09.2019
1933 Clear 19 1018 22 10000 1.5 0 20:54 14.09.2019
1934 Clear 19 1018 22 10000 1.5 0 20:36 14.09.2019
1935 Clear 19 1018 22 10000 1.5 0 20:18 14.09.2019
1936 Clear 22 1018 15 10000 2.1 260 19:41 14.09.2019
1937 Clear 23 1018 15 10000 2.1 260 19:20 14.09.2019
1938 Clear 24 1018 12 10000 6.2 10 18:54 14.09.2019
1939 Clear 24 1018 12 10000 6.2 10 18:36 14.09.2019
1940 Clear 25 1018 12 10000 6.2 10 18:18 14.09.2019
1941 Clouds 26 1018 10 10000 5.1 10 17:41 14.09.2019
1942 Clouds 26 1018 10 10000 5.1 10 17:21 14.09.2019
1943 Clouds 26 1018 10 10000 5.1 10 17:21 14.09.2019
1944 Clouds 26 1018 10 10000 5.1 10 17:21 14.09.2019
1945 Clouds 26 1018 10 10000 5.1 10 17:21 14.09.2019
1946 Clouds 28 1017 11 10000 7.2 10 16:44 14.09.2019
1947 Clouds 28 1017 11 10000 7.2 10 16:24 14.09.2019
1948 Clouds 29 1017 11 0 5.1 350 15:56 14.09.2019
1949 Clouds 29 1017 11 0 5.1 350 15:56 14.09.2019
1950 Clouds 29 1017 11 0 5.1 350 15:37 14.09.2019
1951 Clouds 30 1017 11 0 5.1 350 15:18 14.09.2019
1952 Clouds 30 1017 9 0 7.2 360 14:43 14.09.2019
1953 Clouds 32 1017 9 0 7.2 360 14:19 14.09.2019
1954 Clouds 32 1017 9 0 6.7 10 13:48 14.09.2019
1955 Clouds 32 1017 9 0 6.7 10 13:23 14.09.2019
1956 Clouds 32 1018 9 0 2.1 30 12:48 14.09.2019
1957 Clouds 32 1018 9 0 2.1 30 12:28 14.09.2019
1958 Clouds 32 1018 9 0 1.5 0 11:56 14.09.2019
1959 Clouds 32 1018 9 0 1.5 0 11:37 14.09.2019
1960 Clouds 32 1018 9 0 1.5 0 11:19 14.09.2019
1961 Clear 31 1019 11 10000 2.1 200 10:37 14.09.2019
1962 Clear 31 1019 11 10000 2.1 200 10:19 14.09.2019
1963 Clear 30 1020 11 10000 2.1 240 09:56 14.09.2019
1964 Clear 30 1020 11 10000 2.1 240 09:38 14.09.2019
1965 Clear 29 1020 11 10000 2.1 240 09:19 14.09.2019
1966 Clear 28 1021 12 10000 2.1 360 08:45 14.09.2019
1967 Clear 28 1021 12 10000 2.1 360 08:23 14.09.2019
1968 Clear 28 1021 12 10000 2.1 360 08:23 14.09.2019
1969 Clear 27 1021 14 10000 1.5 0 07:46 14.09.2019
1970 Clear 27 1021 14 10000 1.5 0 07:28 14.09.2019
1971 Clear 27 1021 14 10000 1.5 0 07:28 14.09.2019
1972 Clear 23 1020 20 10000 2.1 250 06:40 14.09.2019
1973 Clear 21 1020 20 10000 2.1 250 06:21 14.09.2019
1974 Clear 20 1020 30 10000 0.5 330 05:21 14.09.2019
1975 Clear 15 1019 38 10000 2.1 160 03:43 14.09.2019
1976 Clear 15 1019 36 10000 1 0 02:52 14.09.2019
1977 Clear 16 1019 33 10000 2.6 130 01:50 14.09.2019
1978 Clear 16 1019 33 10000 2.6 130 01:22 14.09.2019
1979 Clear 17 1019 28 10000 1.5 80 00:57 14.09.2019
1980 Clear 17 1019 28 10000 1.5 80 00:38 14.09.2019
1981 Clear 19 1019 27 10000 1.5 80 00:19 14.09.2019
1982 Clear 21 1019 19 10000 1.5 0 23:38 13.09.2019
1983 Clear 21 1019 19 10000 1.5 0 23:19 13.09.2019
1984 Clear 23 1019 19 10000 1.5 0 23:19 13.09.2019
1985 Clear 24 1019 15 10000 1.5 0 22:57 13.09.2019
1986 Clear 24 1019 15 10000 1.5 0 22:38 13.09.2019
1987 Clear 24 1019 15 10000 1.5 0 22:19 13.09.2019
1988 Clear 24 1018 15 10000 5.1 340 21:41 13.09.2019
1989 Clear 24 1018 15 10000 5.1 340 21:20 13.09.2019
1990 Clear 24 1018 15 10000 5.1 340 21:20 13.09.2019
1991 Clear 25 1018 13 10000 6.7 360 20:59 13.09.2019
1992 Clear 25 1018 13 10000 6.7 360 20:40 13.09.2019
1993 Clear 25 1018 13 10000 6.7 360 20:21 13.09.2019
1994 Clear 25 1018 16 10000 4.6 350 19:56 13.09.2019
1995 Clear 25 1018 16 10000 4.6 350 19:37 13.09.2019
1996 Clear 25 1014 11 10000 10.3 350 19:19 13.09.2019
1997 -273 0 0 0 0 0 18:55 13.09.2019
1998 Clear 26 1018 14 10000 4.1 360 18:36 13.09.2019
1999 Clear 26 1018 14 10000 4.1 360 18:18 13.09.2019
2000 Clear 26 1017 16 10000 5.7 350 17:38 13.09.2019
2001 Clear 26 1017 16 10000 5.7 350 17:19 13.09.2019
2002 Clouds 27 1016 15 10000 7.2 10 16:41 13.09.2019
2003 Clouds 28 1016 15 10000 7.2 10 16:20 13.09.2019
2004 Clouds 29 1015 23 10000 5.7 360 15:46 13.09.2019
2005 Clouds 29 1015 23 10000 5.7 360 15:28 13.09.2019
2006 Clouds 31 1015 16 10000 5.7 10 14:59 13.09.2019
2007 Clouds 31 1015 16 10000 5.7 10 14:41 13.09.2019
2008 Clouds 31 1015 16 10000 5.7 10 14:41 13.09.2019
2009 Clouds 31 1015 16 10000 5.7 10 14:22 13.09.2019
2010 Clouds 31 1015 17 10000 5.1 360 13:46 13.09.2019
2011 Clouds 31 1015 17 10000 5.1 360 13:24 13.09.2019
2012 Clouds 31 1016 19 10000 4.1 360 12:58 13.09.2019
2013 Clouds 31 1016 19 10000 4.1 360 12:39 13.09.2019
2014 Clouds 31 1016 19 10000 4.1 360 12:39 13.09.2019
2015 Clouds 31 1016 19 10000 4.1 360 12:21 13.09.2019
2016 Clouds 31 1017 22 10000 4.6 350 11:55 13.09.2019
2017 Clouds 30 1017 22 10000 4.6 350 11:19 13.09.2019
2018 Clouds 30 1018 25 10000 3.1 350 10:39 13.09.2019
2019 Clouds 29 1018 25 10000 3.1 350 10:19 13.09.2019
2020 Clouds 29 1019 28 10000 3.1 0 09:45 13.09.2019
2021 Clouds 29 1019 28 10000 3.1 0 09:24 13.09.2019
2022 Clouds 27 1019 28 10000 1.5 0 08:58 13.09.2019
2023 Clouds 27 1019 28 10000 1.5 0 08:40 13.09.2019
2024 Clouds 26 1019 28 10000 1.5 0 08:20 13.09.2019
2025 Clear 25 1020 24 10000 1.5 0 07:45 13.09.2019
2026 Clear 25 1020 24 10000 1.5 0 07:45 13.09.2019
2027 Clear 25 1020 24 10000 1.5 0 07:27 13.09.2019
2028 Haze 23 1020 17 9000 1 0 06:47 13.09.2019
2029 Clear 20 1019 26 10000 1.5 310 05:49 13.09.2019
2030 Clear 15 1019 42 10000 0.54 199.683 04:53 13.09.2019
2031 Clouds 14 1019 44 10000 0.54 199.683 03:40 13.09.2019
2032 Clear 15 1018 39 10000 1 0 02:20 13.09.2019
2033 Clear 15 1017 34 10000 1 0 01:52 13.09.2019
2034 Clear 15 1017 34 10000 1 0 01:33 13.09.2019
2035 Clear 17 1017 32 10000 1 0 00:39 13.09.2019
2036 Clear 16 1017 25 10000 1 0 23:59 12.09.2019
2037 Clear 16 1017 25 10000 1 0 23:36 12.09.2019
2038 Clear 18 1017 24 10000 1 0 22:59 12.09.2019
2039 Clear 18 1017 24 10000 1 0 22:41 12.09.2019
2040 Clear 18 1017 24 10000 1 0 22:23 12.09.2019
2041 Clear 20 1017 22 10000 1.5 0 21:57 12.09.2019
2042 Clear 20 1017 22 10000 1.5 0 21:37 12.09.2019
2043 Clear 20 1017 22 10000 1.5 0 21:19 12.09.2019
2044 Clear 20 1017 22 10000 1.5 0 21:19 12.09.2019
2045 Clear 20 1017 22 10000 1 0 20:55 12.09.2019
2046 Clear 20 1017 23 10000 1 0 20:37 12.09.2019
2047 Clear 20 1017 23 10000 1 0 20:19 12.09.2019
2048 Clear 20 1017 23 10000 1 0 20:19 12.09.2019
2049 Clear 21 1017 18 10000 1.5 0 19:41 12.09.2019
2050 Clear 24 1017 18 10000 1.5 0 19:20 12.09.2019
2051 Clear 25 1016 13 10000 2.1 310 18:58 12.09.2019
2052 Clear 25 1016 13 10000 2.1 310 18:37 12.09.2019
2053 Clear 26 1016 13 10000 2.1 310 18:18 12.09.2019
2054 Clear 27 1015 11 10000 6.7 360 17:41 12.09.2019
2055 Clear 27 1015 11 10000 6.7 360 17:22 12.09.2019
2056 Clear 27 1015 13 10000 7.7 360 16:58 12.09.2019
2057 Clear 27 1015 13 10000 7.7 360 16:58 12.09.2019
2058 Clear 27 1015 13 10000 7.7 360 16:58 12.09.2019
2059 Clear 27 1015 13 10000 7.7 360 16:58 12.09.2019
2060 Clear 27 1015 13 10000 7.7 360 16:40 12.09.2019
2061 Clear 27 1015 13 10000 7.7 360 16:20 12.09.2019
2062 Clear 29 1015 13 10000 6.7 10 15:43 12.09.2019
2063 Clear 29 1015 13 10000 6.7 10 15:24 12.09.2019
2064 Clear 32 1015 10 10000 3.1 20 14:55 12.09.2019
2065 Clear 32 1015 10 10000 3.1 20 14:37 12.09.2019
2066 Clear 32 1015 10 10000 3.1 20 14:19 12.09.2019
2067 Clear 32 1015 9 10000 2.6 350 13:39 12.09.2019
2068 Clear 32 1015 9 10000 2.6 350 13:20 12.09.2019
2069 Clear 33 1016 10 10000 5.1 360 12:49 12.09.2019
2070 Clear 33 1016 10 10000 5.1 360 12:49 12.09.2019
2071 Clear 32 1016 10 10000 5.1 360 12:19 12.09.2019
2072 Clear 31 1017 10 10000 1 0 11:58 12.09.2019
2073 Clear 31 1017 10 10000 1 0 11:39 12.09.2019
2074 Clear 31 1018 10 10000 1 0 11:21 12.09.2019
2075 Clear 31 1018 10 10000 1 0 10:49 12.09.2019
2076 Clear 31 1018 10 10000 1 0 10:28 12.09.2019
2077 Clear 30 1019 11 10000 1.5 0 09:57 12.09.2019
2078 Clear 30 1019 11 10000 1.5 0 09:38 12.09.2019
2079 Clear 30 1019 11 10000 1.5 0 09:19 12.09.2019
2080 Clear 29 1019 12 10000 1.5 0 08:43 12.09.2019
2081 Clear 29 1019 12 10000 1.5 0 08:23 12.09.2019
2082 Clear 27 1019 15 10000 1.5 0 07:47 12.09.2019
2083 Clear 24 1019 15 10000 1.5 0 07:21 12.09.2019
2084 Clear 23 1019 19 10000 2.1 320 06:52 12.09.2019
2085 Clear 23 1019 19 10000 2.1 320 06:32 12.09.2019
2086 Clear 23 1019 19 10000 2.1 320 06:32 12.09.2019
2087 Haze 20 1019 18 10000 2.1 300 05:53 12.09.2019
2088 Haze 20 1019 18 10000 2.1 300 05:35 12.09.2019
2089 Clear 17 1019 36 10000 1 0 04:44 12.09.2019
2090 Clear 17 1018 29 10000 1.5 140 03:23 12.09.2019
2091 Clear 19 1018 29 10000 1 0 01:43 12.09.2019
2092 Clear 22 1018 29 10000 1 0 01:22 12.09.2019
2093 Clear 22 1018 25 10000 2.1 350 00:47 12.09.2019
2094 Clear 22 1018 25 10000 2.1 350 00:27 12.09.2019
2095 Clear 22 1018 22 10000 1 0 23:43 11.09.2019
2096 Clear 22 1018 22 10000 1 0 23:25 11.09.2019
2097 Clear 24 1018 17 10000 1.5 0 22:57 11.09.2019
2098 Clear 24 1018 17 10000 1.5 0 22:38 11.09.2019
2099 Clear 24 1018 17 10000 1.5 0 22:19 11.09.2019
2100 Clear 24 1018 15 10000 5.1 350 21:57 11.09.2019
2101 Clear 23 1018 15 10000 5.1 350 21:38 11.09.2019
2102 Clear 23 1018 15 10000 5.1 350 21:38 11.09.2019
2103 Clear 23 1018 15 10000 5.1 350 21:38 11.09.2019
2104 Clear 25 1018 13 10000 5.7 360 21:19 11.09.2019
2105 Clear 25 1018 13 10000 5.7 360 20:54 11.09.2019
2106 Clear 25 1018 13 10000 5.7 360 20:36 11.09.2019
2107 Clear 26 1018 13 10000 5.7 360 20:18 11.09.2019
2108 Clear 26 1018 12 10000 5.1 10 19:54 11.09.2019
2109 Clear 26 1018 12 10000 5.1 10 19:54 11.09.2019
2110 Clear 26 1018 12 10000 5.1 10 19:36 11.09.2019
2111 Clear 26 1018 12 10000 5.1 10 19:18 11.09.2019
2112 Clear 26 1017 11 10000 6.2 10 18:42 11.09.2019
2113 Clear 26 1017 11 10000 6.2 10 18:22 11.09.2019
2114 Clear 27 1016 11 10000 6.7 20 17:58 11.09.2019
2115 Clear 27 1016 11 10000 6.7 20 17:58 11.09.2019
2116 Clear 27 1016 11 10000 6.7 20 17:39 11.09.2019
2117 Clear 27 1016 11 10000 6.7 20 17:20 11.09.2019
2118 Clear 27 1016 11 10000 5.1 20 16:54 11.09.2019
2119 Clear 27 1016 11 10000 5.1 20 16:54 11.09.2019
2120 Clear 27 1016 11 10000 5.1 20 16:36 11.09.2019
2121 Clear 27 1016 11 10000 5.1 20 16:36 11.09.2019
2122 Clear 28 1016 11 10000 5.1 20 16:18 11.09.2019
2123 Clear 29 1015 13 10000 6.2 10 15:43 11.09.2019
2124 Clear 29 1015 13 10000 6.2 10 15:20 11.09.2019
2125 Clear 31 1015 9 10000 3.1 50 14:57 11.09.2019
2126 Clear 31 1015 9 10000 3.1 50 14:37 11.09.2019
2127 Clear 31 1015 9 10000 3.1 50 14:18 11.09.2019
2128 Clear 32 1016 10 10000 3.1 0 13:40 11.09.2019
2129 Clear 32 1016 10 10000 3.1 0 13:22 11.09.2019
2130 Clear 32 1016 10 10000 2.1 0 12:59 11.09.2019
2131 Clear 32 1016 10 10000 2.1 0 12:59 11.09.2019
2132 Clear 32 1016 10 10000 2.1 0 12:38 11.09.2019
2133 Clear 31 1016 10 10000 2.1 0 12:20 11.09.2019
2134 Clear 31 1016 10 10000 2.1 0 12:20 11.09.2019
2135 Clear 31 1017 10 10000 3.1 0 11:40 11.09.2019
2136 Clear 31 1017 10 10000 3.1 0 11:21 11.09.2019
2137 Clear 32 1018 9 10000 2.6 0 10:59 11.09.2019
2138 Clear 32 1018 9 10000 2.6 0 10:40 11.09.2019
2139 Clear 32 1018 9 10000 2.6 0 10:20 11.09.2019
2140 Clear 30 1019 12 10000 2.6 350 09:40 11.09.2019
2141 Clear 29 1019 12 10000 2.6 350 09:20 11.09.2019
2142 Clear 29 1019 14 10000 2.1 200 08:57 11.09.2019
2143 Clear 29 1019 14 10000 2.1 200 08:57 11.09.2019
2144 Clear 29 1019 14 10000 2.1 200 08:38 11.09.2019
2145 Clear 29 1019 14 10000 2.1 200 08:20 11.09.2019
2146 Clear 28 1020 14 10000 3.1 360 07:41 11.09.2019
2147 Clear 25 1020 14 10000 3.1 360 07:22 11.09.2019
2148 Clear 25 1019 19 10000 1.5 0 06:48 11.09.2019
2149 Clear 25 1019 19 10000 1.5 0 06:30 11.09.2019
2150 Clear 20 1019 32 10000 2.1 150 05:37 11.09.2019
2151 Clear 19 1019 32 10000 2.1 150 05:19 11.09.2019
2152 Clear 19 1019 32 10000 2.1 150 05:19 11.09.2019
2153 Clear 18 1019 34 10000 2.1 240 04:23 11.09.2019
2154 Clear 19 1018 36 10000 1 280 03:32 11.09.2019
2155 Clear 20 1018 29 10000 1 330 02:41 11.09.2019
2156 Clear 21 1017 27 10000 0.29 243.876 01:53 11.09.2019
2157 Clear 21 1017 34 10000 1 0 00:50 11.09.2019
2158 Clear 23 1017 35 10000 1 0 00:20 11.09.2019
2159 Clear 23 1017 35 10000 1 0 00:20 11.09.2019
2160 Clear 24 1017 17 10000 2.6 0 23:41 10.09.2019
2161 Clear 24 1017 17 10000 2.6 0 23:23 10.09.2019
2162 Clear 23 1016 18 10000 2.1 290 22:59 10.09.2019
2163 Clear 23 1016 18 10000 2.1 290 22:41 10.09.2019
2164 Clear 23 1016 18 10000 2.1 290 22:19 10.09.2019
2165 Clear 24 1016 18 10000 2.1 280 21:55 10.09.2019
2166 Clear 24 1016 18 10000 2.1 280 21:37 10.09.2019
2167 Clear 24 1016 18 10000 2.1 280 21:37 10.09.2019
2168 Clear 24 1016 18 10000 2.1 280 21:37 10.09.2019
2169 Clear 24 1016 18 10000 2.1 280 21:37 10.09.2019
2170 Clear 24 1016 18 10000 2.1 280 21:18 10.09.2019
2171 Clear 24 1016 16 10000 3.1 290 20:57 10.09.2019
2172 Clear 24 1016 16 10000 3.1 290 20:38 10.09.2019
2173 Clear 24 1016 16 10000 3.1 290 20:19 10.09.2019
2174 Clear 25 1016 16 10000 5.1 330 19:56 10.09.2019
2175 Clear 25 1016 16 10000 5.1 330 19:37 10.09.2019
2176 Clear 26 1016 16 10000 5.1 330 19:19 10.09.2019
2177 Clear 26 1015 14 10000 7.7 10 18:55 10.09.2019
2178 Clear 26 1015 14 10000 7.7 10 18:37 10.09.2019
2179 Clear 26 1015 14 10000 7.7 10 18:18 10.09.2019
2180 Clear 26 1015 14 10000 6.7 10 17:42 10.09.2019
2181 Clear 26 1015 14 10000 6.7 10 17:21 10.09.2019
2182 Clear 28 1014 12 9000 6.2 20 16:58 10.09.2019
2183 Clear 28 1014 12 9000 6.2 20 16:39 10.09.2019
2184 Dust 29 1009 12 10000 14.4 350 16:20 10.09.2019
2185 Dust 29 1013 11 7000 7.2 360 15:57 10.09.2019
2186 Dust 29 1013 11 7000 7.2 360 15:39 10.09.2019
2187 Dust 30 1013 11 7000 7.2 360 15:20 10.09.2019
2188 Dust 30 1013 10 7000 6.2 350 14:41 10.09.2019
2189 Dust 30 1013 10 7000 6.2 350 14:22 10.09.2019
2190 Clear 32 1013 9 10000 4.6 30 13:50 10.09.2019
2191 Clear 32 1013 9 10000 4.6 30 13:24 10.09.2019
2192 Clear 33 1014 10 10000 4.6 80 12:58 10.09.2019
2193 Clear 33 1014 10 10000 4.6 80 12:40 10.09.2019
2194 Clear 33 1014 10 10000 4.6 80 12:22 10.09.2019
2195 Clouds 34 1010 9 10000 9.8 10 11:54 10.09.2019
2196 Clouds 34 1010 9 10000 9.8 10 11:36 10.09.2019
2197 Clear 33 1015 11 10000 2.1 0 11:18 10.09.2019
2198 Clear 33 1015 11 10000 2.1 0 10:39 10.09.2019
2199 Clear 32 1015 11 10000 2.1 0 10:19 10.09.2019
2200 Clouds 32 1016 12 10000 3.6 60 09:50 10.09.2019
2201 Clouds 31 1016 12 10000 3.6 60 09:20 10.09.2019
2202 Clouds 31 1016 12 10000 3.6 60 08:59 10.09.2019
2203 Clouds 31 1016 12 10000 3.6 60 08:41 10.09.2019
2204 Clear 30 1017 14 10000 2.6 120 08:22 10.09.2019
2205 Clear 29 1017 13 10000 1.5 0 07:44 10.09.2019
2206 Clear 26 1017 13 10000 1.5 0 07:25 10.09.2019
2207 Clear 26 1017 20 10000 2.1 330 06:51 10.09.2019
2208 Clear 26 1017 20 10000 2.1 330 06:31 10.09.2019
2209 Haze 18 1017 24 10000 1 290 04:57 10.09.2019
2210 Clear 17 1016 31 10000 2.6 320 02:46 10.09.2019
2211 Clear 17 1016 31 10000 2.6 320 02:22 10.09.2019
2212 Clear 17 1016 31 10000 2.6 320 02:22 10.09.2019
2213 Clear 17 1016 31 10000 2.6 320 02:22 10.09.2019
2214 Clear 17 1015 36 10000 1.5 300 01:54 10.09.2019
2215 Clear 17 1015 36 10000 1.5 300 01:54 10.09.2019
2216 Clear 17 1015 36 10000 1.5 300 01:28 10.09.2019
2217 Clear 18 1015 37 10000 1.5 0 00:44 10.09.2019
2218 Clear 18 1015 37 10000 1.5 0 00:24 10.09.2019
2219 Clear 19 1015 34 10000 1.5 0 23:43 09.09.2019
2220 Clear 19 1015 34 10000 1.5 0 23:19 09.09.2019
2221 Clear 20 1015 20 10000 1.5 0 22:56 09.09.2019
2222 Clear 20 1015 20 10000 1.5 0 22:37 09.09.2019
2223 Clear 20 1015 20 10000 1.5 0 22:19 09.09.2019
2224 Clear 20 1015 25 10000 0.5 0 21:56 09.09.2019
2225 Clear 20 1015 25 10000 0.5 0 21:37 09.09.2019
2226 Clear 20 1015 24 10000 0.5 0 21:19 09.09.2019
2227 Clear 21 1015 21 10000 2.6 300 20:55 09.09.2019
2228 Clear 21 1015 21 10000 2.6 300 20:37 09.09.2019
2229 Clear 21 1015 21 10000 2.6 300 20:18 09.09.2019
2230 Clear 22 1015 15 10000 1.5 0 19:56 09.09.2019
2231 Clear 22 1015 15 10000 1.5 0 19:38 09.09.2019
2232 Clear 22 1015 15 10000 1.5 0 19:19 09.09.2019
2233 Clear 22 1015 15 10000 1.5 0 19:19 09.09.2019
2234 Clear 28 1015 12 10000 6.2 10 18:56 09.09.2019
2235 Clear 28 1015 12 10000 6.2 10 18:37 09.09.2019
2236 Clear 28 1015 12 10000 6.2 10 18:19 09.09.2019
2237 Clear 28 1015 12 10000 6.2 10 17:56 09.09.2019
2238 Clear 29 1014 12 10000 6.7 10 17:38 09.09.2019
2239 Clear 29 1014 12 10000 6.7 10 17:20 09.09.2019
2240 Clear 29 1014 12 10000 6.7 10 17:20 09.09.2019
2241 Clear 30 1014 10 10000 6.7 10 16:55 09.09.2019
2242 Clear 30 1014 10 10000 6.7 10 16:36 09.09.2019
2243 Clear 30 1014 10 10000 6.7 10 16:18 09.09.2019
2244 Clouds 31 1014 10 10000 5.1 360 15:42 09.09.2019
2245 Clouds 32 1014 10 10000 5.1 360 15:24 09.09.2019
2246 Clouds 32 1014 10 10000 6.2 350 14:58 09.09.2019
2247 Clouds 32 1014 10 10000 6.2 350 14:40 09.09.2019
2248 Clouds 32 1014 10 10000 6.2 350 14:40 09.09.2019
2249 Clouds 33 1014 10 10000 6.2 350 14:21 09.09.2019
2250 Clouds 33 1014 10 10000 3.1 190 13:55 09.09.2019
2251 Clouds 33 1014 10 10000 3.1 190 13:36 09.09.2019
2252 Clouds 33 1014 10 10000 3.1 190 13:18 09.09.2019
2253 Clear 33 1014 10 10000 3.1 0 12:42 09.09.2019
2254 Clear 33 1014 10 10000 3.1 0 12:22 09.09.2019
2255 Clear 33 1015 10 10000 3.6 230 11:58 09.09.2019
2256 Clear 33 1015 10 10000 3.6 230 11:40 09.09.2019
2257 Clear 32 1015 10 10000 3.6 230 11:18 09.09.2019
2258 Clear 32 1016 10 10000 3.1 0 10:42 09.09.2019
2259 Clear 32 1016 10 10000 3.1 0 10:23 09.09.2019
2260 Clear 31 1017 12 10000 3.1 60 09:58 09.09.2019
2261 Clear 31 1017 12 10000 3.1 60 09:39 09.09.2019
2262 Clear 29 1017 12 10000 3.1 60 09:21 09.09.2019
2263 Clear 29 1017 17 10000 2.6 0 08:39 09.09.2019
2264 Clear 27 1017 17 10000 2.6 0 08:21 09.09.2019
2265 Clear 27 1018 19 10000 1.5 0 07:58 09.09.2019
2266 Clear 27 1018 19 10000 1.5 0 07:39 09.09.2019
2267 Clear 25 1018 19 10000 1.5 0 07:20 09.09.2019
2268 Clear 24 1018 23 10000 1.5 0 06:46 09.09.2019
2269 Clear 21 1018 30 10000 1.5 260 05:37 09.09.2019
2270 Clear 15 1016 42 10000 1 110 02:59 09.09.2019
2271 Clear 15 1016 42 10000 1 110 02:41 09.09.2019
2272 Clear 17 1016 36 10000 0.5 0 01:22 09.09.2019
2273 Clear 18 1016 32 10000 0.5 0 00:24 09.09.2019
2274 Clear 18 1017 30 10000 1 130 23:47 08.09.2019
2275 Clear 18 1017 30 10000 1 130 23:29 08.09.2019
2276 Clear 20 1016 33 10000 1.5 0 22:59 08.09.2019
2277 Clear 20 1016 33 10000 1.5 0 22:39 08.09.2019
2278 Clear 21 1016 33 10000 1.5 0 22:21 08.09.2019
2279 Clear 22 1016 19 10000 1.5 250 21:57 08.09.2019
2280 Clear 22 1016 19 10000 1.5 250 21:39 08.09.2019
2281 Clear 21 1016 19 10000 1.5 250 21:21 08.09.2019
2282 Clear 20 1012 42 10000 1.66 21.866 20:41 08.09.2019
2283 Clear 23 1012 42 10000 1.5 250 20:22 08.09.2019
2284 Clear 23 1012 42 10000 1.5 250 19:59 08.09.2019
2285 Clear 23 1016 20 10000 1.5 0 19:39 08.09.2019
2286 Clear 23 1016 20 10000 1.5 0 19:21 08.09.2019
2287 Clear 23 1012 40 10000 1.66 21.866 18:58 08.09.2019
2288 Clear 26 1015 22 10000 4.1 340 18:39 08.09.2019
2289 Clear 26 1015 22 10000 4.1 340 18:19 08.09.2019
2290 Clear 27 1015 29 10000 6.2 10 17:57 08.09.2019
2291 Clear 27 1015 29 10000 6.2 10 17:37 08.09.2019
2292 Clear 27 1015 29 10000 6.2 10 17:18 08.09.2019
2293 Clouds 28 1014 21 10000 6.7 350 16:45 08.09.2019
2294 Clouds 29 1014 21 10000 6.7 350 16:23 08.09.2019
2295 Clouds 29 1013 32 10000 5.1 360 15:59 08.09.2019
2296 Clouds 29 1013 32 10000 5.1 360 15:41 08.09.2019
2297 Clouds 30 1013 32 10000 5.1 360 15:22 08.09.2019
2298 Clouds 31 1014 17 10000 2.1 0 14:58 08.09.2019
2299 Clouds 31 1014 17 10000 2.1 0 14:39 08.09.2019
2300 Clouds 31 1014 17 10000 2.1 0 14:20 08.09.2019
2301 Clouds 31 1014 20 10000 2.6 0 13:57 08.09.2019
2302 Clouds 31 1014 20 10000 2.6 0 13:38 08.09.2019
2303 Clouds 31 1014 20 10000 2.6 0 13:19 08.09.2019
2304 Clouds 31 1014 20 10000 2.6 0 12:42 08.09.2019
2305 Clouds 30 1015 23 10000 2.1 0 12:24 08.09.2019
2306 Clouds 30 1015 23 10000 2.1 0 11:59 08.09.2019
2307 Clouds 30 1016 25 10000 2.1 260 11:40 08.09.2019
2308 Clouds 30 1016 25 10000 2.1 260 11:20 08.09.2019
2309 Clouds 30 1017 28 10000 1.5 0 10:58 08.09.2019
2310 Clouds 30 1017 28 10000 1.5 0 10:40 08.09.2019
2311 Clouds 29 1017 28 10000 1.5 0 10:22 08.09.2019
2312 Clouds 28 1018 36 8000 2.6 200 09:39 08.09.2019
2313 Clouds 27 1018 36 8000 2.6 200 09:21 08.09.2019
2314 Clouds 27 1018 44 8000 1.5 0 08:57 08.09.2019
2315 Clouds 27 1018 44 8000 1.5 0 08:38 08.09.2019
2316 Clouds 26 1018 44 8000 1.5 0 08:18 08.09.2019
2317 Clouds 25 1019 50 8000 2.6 0 07:40 08.09.2019
2318 Clouds 24 1019 50 8000 2.6 0 07:21 08.09.2019
2319 Clouds 24 1019 50 8000 2.6 0 06:53 08.09.2019
2320 Clouds 24 1019 50 8000 2.6 0 06:53 08.09.2019
2321 Clear 24 1018 53 7000 1 0 06:32 08.09.2019
2322 Mist 22 1018 60 4000 1.5 0 05:38 08.09.2019
2323 Mist 19 1018 72 4000 1 0 04:18 08.09.2019
2324 Clear 19 1017 72 10000 2.6 100 02:59 08.09.2019
2325 Clear 19 1017 72 10000 2.6 100 02:29 08.09.2019
2326 Clear 20 1017 63 10000 1 0 01:52 08.09.2019
2327 Clear 22 1017 63 10000 1 0 01:22 08.09.2019
2328 Clear 22 1016 60 10000 2.6 80 00:45 08.09.2019
2329 Clear 22 1016 60 10000 2.6 80 00:27 08.09.2019
2330 Clear 22 1016 64 10000 1 50 23:39 07.09.2019
2331 Clear 23 1016 64 10000 1 50 23:21 07.09.2019
2332 Clear 22 1016 64 10000 3.6 80 22:58 07.09.2019
2333 Clear 22 1016 64 10000 3.6 80 22:39 07.09.2019
2334 Clear 23 1016 64 10000 3.6 80 22:20 07.09.2019
2335 Clear 23 1016 64 10000 3.6 80 21:43 07.09.2019
2336 Clear 22 1016 60 10000 1.5 100 21:25 07.09.2019
2337 Clear 24 1015 53 10000 1.85 27.954 20:58 07.09.2019
2338 Clear 24 1015 53 10000 1.86 16.14 20:39 07.09.2019
2339 Clear 24 1015 53 10000 1.86 16.14 20:20 07.09.2019
2340 Clear 24 1015 49 10000 3.6 80 19:55 07.09.2019
2341 Clear 24 1015 49 10000 3.6 80 19:37 07.09.2019
2342 Clear 25 1015 49 10000 3.6 80 19:19 07.09.2019
2343 Clear 24 1014 56 10000 4.1 60 18:56 07.09.2019
2344 Clear 24 1014 56 10000 4.1 60 18:36 07.09.2019
2345 Clear 25 1014 56 10000 4.1 60 18:18 07.09.2019
2346 Clear 25 1014 56 10000 4.1 60 17:56 07.09.2019
2347 Clear 25 1013 49 10000 4.1 100 17:37 07.09.2019
2348 Clear 26 1013 49 10000 4.1 100 17:18 07.09.2019
2349 Clear 26 1013 49 10000 4.1 100 17:18 07.09.2019
2350 Clear 26 1012 47 10000 4.1 100 16:43 07.09.2019
2351 Clear 28 1012 47 10000 4.1 100 16:21 07.09.2019
2352 Clear 29 1011 39 10000 6.2 90 15:55 07.09.2019
2353 Clear 29 1011 39 10000 6.2 90 15:55 07.09.2019
2354 Clear 29 1011 39 10000 6.2 90 15:36 07.09.2019
2355 Clear 29 1011 39 10000 6.2 90 15:18 07.09.2019
2356 Clear 29 1011 39 10000 6.2 90 14:54 07.09.2019
2357 Clear 29 1011 39 10000 6.2 90 14:54 07.09.2019
2358 Clear 30 1011 13 10000 4.6 30 14:36 07.09.2019
2359 Clear 31 1011 13 10000 4.6 30 14:18 07.09.2019
2360 Clear 31 1011 12 10000 3.1 0 13:43 07.09.2019
2361 Clear 31 1011 12 10000 3.1 0 13:25 07.09.2019
2362 Clear 31 1011 12 10000 3.1 0 12:46 07.09.2019
2363 Clear 31 1012 13 10000 5.7 10 12:26 07.09.2019
2364 Clear 31 1012 13 10000 5.7 10 11:59 07.09.2019
2365 Clear 30 1012 13 10000 4.1 350 11:40 07.09.2019
2366 Clear 30 1012 13 10000 4.1 350 11:20 07.09.2019
2367 Clear 30 1014 13 10000 1.5 0 10:41 07.09.2019
2368 Clear 29 1014 13 10000 1.5 0 10:22 07.09.2019
2369 Clear 28 1014 14 10000 1.5 0 09:57 07.09.2019
2370 Clear 28 1014 14 10000 1.5 0 09:38 07.09.2019
2371 Clear 28 1014 14 10000 1.5 0 09:20 07.09.2019
2372 Clear 28 1014 14 10000 1.5 0 09:20 07.09.2019
2373 Clear 27 1015 15 8000 1.5 0 08:44 07.09.2019
2374 Clear 27 1015 15 8000 1.5 0 08:26 07.09.2019
2375 Clear 26 1015 17 8000 1.5 0 07:48 07.09.2019
2376 Clear 26 1015 17 8000 1.5 0 07:28 07.09.2019
2377 Clear 24 1015 17 8000 1.5 0 06:53 07.09.2019
2378 Clear 24 1011 23 10000 2.34 113.875 06:29 07.09.2019
2379 Clear 21 1014 26 10000 1 0 05:32 07.09.2019
2380 Clear 16 1014 38 8000 0.5 0 04:23 07.09.2019
2381 Clear 15 1013 37 10000 1 0 02:52 07.09.2019
2382 Clear 15 1013 37 10000 1 0 02:20 07.09.2019
2383 Clear 15 1013 36 10000 1.5 0 01:26 07.09.2019
2384 Clear 19 1013 25 10000 3.1 310 00:44 07.09.2019
2385 Clear 19 1013 25 10000 3.1 310 00:21 07.09.2019
2386 Clear 20 1014 19 10000 4.1 290 23:43 06.09.2019
2387 Clear 21 1014 19 10000 4.1 290 23:22 06.09.2019
2388 Clear 21 1014 22 10000 3.1 300 22:58 06.09.2019
2389 Clear 21 1014 22 10000 3.1 300 22:39 06.09.2019
2390 Clear 23 1014 22 10000 3.1 300 22:19 06.09.2019
2391 Clear 23 1014 18 10000 3.1 270 21:58 06.09.2019
2392 Clear 23 1014 18 10000 3.1 270 21:58 06.09.2019
2393 Clear 23 1014 18 10000 3.1 270 21:39 06.09.2019
2394 Clear 23 1014 18 10000 3.1 270 21:21 06.09.2019
2395 Clear 23 1014 17 10000 4.1 320 20:58 06.09.2019
2396 Clear 23 1014 17 10000 4.1 320 20:39 06.09.2019
2397 Clear 24 1014 17 10000 4.1 320 20:21 06.09.2019
2398 Clear 24 1014 17 10000 5.7 340 19:57 06.09.2019
2399 Clear 24 1014 17 10000 5.7 340 19:39 06.09.2019
2400 Clear 24 1014 17 10000 5.7 340 19:20 06.09.2019
2401 Clear 24 1013 15 9000 6.7 360 18:47 06.09.2019
2402 Clear 25 1013 15 9000 6.7 360 18:27 06.09.2019
2403 Dust 25 1012 13 8000 10.3 20 17:59 06.09.2019
2404 Dust 25 1012 13 8000 10.3 20 17:38 06.09.2019
2405 Dust 26 1012 13 8000 10.3 20 17:19 06.09.2019
2406 Dust 26 1012 13 8000 10.3 20 17:19 06.09.2019
2407 Dust 26 1012 13 8000 8.7 10 16:41 06.09.2019
2408 Dust 27 1012 13 8000 8.7 10 16:19 06.09.2019
2409 Dust 28 1012 13 8000 9.8 10 15:45 06.09.2019
2410 Dust 28 1012 13 8000 9.8 10 15:27 06.09.2019
2411 Clear 30 1012 12 9000 6.2 360 14:59 06.09.2019
2412 Clear 30 1012 12 9000 6.2 360 14:39 06.09.2019
2413 Clear 31 1012 12 9000 6.2 360 14:18 06.09.2019
2414 Clear 31 1012 10 10000 4.1 50 13:43 06.09.2019
2415 Clear 31 1012 10 10000 4.1 50 13:22 06.09.2019
2416 Clear 32 1012 10 10000 3.1 0 12:38 06.09.2019
2417 Clear 32 1012 10 10000 3.1 0 12:20 06.09.2019
2418 Clear 32 1013 10 10000 2.6 0 11:55 06.09.2019
2419 Clear 32 1013 10 10000 2.6 0 11:55 06.09.2019
2420 Clear 32 1013 10 10000 2.6 0 11:55 06.09.2019
2421 Clear 32 1013 10 10000 2.6 0 11:37 06.09.2019
2422 Clear 32 1013 10 10000 2.6 0 11:18 06.09.2019
2423 Clear 32 1014 9 10000 2.1 0 10:41 06.09.2019
2424 Clear 31 1014 9 10000 2.1 0 10:22 06.09.2019
2425 Clear 30 1015 10 10000 2.1 0 09:58 06.09.2019
2426 Clear 30 1015 10 10000 2.1 0 09:37 06.09.2019
2427 Clear 30 1015 10 10000 2.1 0 09:18 06.09.2019
2428 Clear 30 1016 12 10000 2.1 0 08:44 06.09.2019
2429 Clear 29 1011 11 10000 3.1 300 08:26 06.09.2019
2430 Clear 29 1016 15 10000 2.1 0 07:49 06.09.2019
2431 Clear 29 1016 15 10000 2.1 0 07:28 06.09.2019
2432 Clear 27 1016 20 10000 1 0 06:58 06.09.2019
2433 Clear 27 1016 20 10000 1 0 06:28 06.09.2019
2434 Haze 22 1015 35 9000 1 130 05:43 06.09.2019
2435 Clear 17 1015 39 8000 0.9 125.434 04:52 06.09.2019
2436 Clear 17 1015 39 8000 0.9 125.434 04:19 06.09.2019
2437 Clear 18 1014 39 10000 1 0 02:27 06.09.2019
2438 Clear 17 1014 37 10000 1 0 00:48 06.09.2019
2439 Clear 20 1014 22 10000 2.6 320 23:57 05.09.2019
2440 Clear 20 1014 22 10000 2.6 320 23:57 05.09.2019
2441 Clear 20 1014 22 10000 2.6 320 23:39 05.09.2019
2442 Clear 21 1014 22 10000 2.6 320 23:19 05.09.2019
2443 Clear 21 1014 21 10000 2.6 300 22:44 05.09.2019
2444 Clear 21 1014 21 10000 2.6 300 22:25 05.09.2019
2445 Clear 22 1014 21 10000 2.6 300 21:57 05.09.2019
2446 Clear 24 1014 19 10000 2.6 270 21:38 05.09.2019
2447 Clear 24 1014 19 10000 2.6 270 21:19 05.09.2019
2448 Clear 25 1013 17 10000 7.7 360 20:57 05.09.2019
2449 Clear 25 1013 17 10000 7.7 360 20:38 05.09.2019
2450 Clear 24 1013 17 10000 7.7 360 20:19 05.09.2019
2451 Clear 24 1013 17 10000 5.1 360 19:55 05.09.2019
2452 Clear 24 1013 17 10000 5.1 360 19:37 05.09.2019
2453 Clear 26 1013 17 10000 5.1 360 19:18 05.09.2019
2454 Clear 27 1013 28 10000 6.2 360 18:41 05.09.2019
2455 Clear 27 1013 22 10000 6.2 360 18:21 05.09.2019
2456 Clear 27 1013 22 10000 6.2 360 17:57 05.09.2019
2457 Clear 27 1012 18 10000 5.1 350 17:38 05.09.2019
2458 Clear 28 1012 18 10000 5.1 350 17:20 05.09.2019
2459 Clear 28 1012 17 10000 6.7 10 16:42 05.09.2019
2460 Clear 30 1012 17 10000 6.7 10 16:21 05.09.2019
2461 Clear 30 1012 17 10000 6.7 10 16:21 05.09.2019
2462 Clouds 30 1011 17 10000 6.7 350 15:58 05.09.2019
2463 Clouds 30 1011 17 10000 6.7 350 15:58 05.09.2019
2464 Clouds 30 1011 17 10000 6.7 350 15:39 05.09.2019
2465 Clouds 32 1011 17 10000 6.7 350 15:19 05.09.2019
2466 Clouds 32 1011 17 10000 6.7 350 14:55 05.09.2019
2467 Clouds 33 1011 17 10000 6.2 350 14:37 05.09.2019
2468 Clouds 33 1011 17 10000 6.2 350 14:18 05.09.2019
2469 Clouds 33 1012 17 10000 5.1 360 13:41 05.09.2019
2470 Clouds 33 1012 17 10000 5.1 360 13:19 05.09.2019
2471 Clouds 33 1013 18 10000 2.1 0 12:42 05.09.2019
2472 Clouds 32 1013 18 10000 2.1 0 12:24 05.09.2019
2473 Clouds 32 1014 20 10000 6.2 350 11:56 05.09.2019
2474 Clouds 32 1014 20 10000 6.2 350 11:36 05.09.2019
2475 Clouds 32 1014 20 10000 6.2 350 11:18 05.09.2019
2476 Clouds 31 1015 23 10000 3.6 360 10:37 05.09.2019
2477 Clouds 31 1015 23 10000 3.6 360 10:19 05.09.2019
2478 Clouds 31 1015 23 10000 2.1 0 09:57 05.09.2019
2479 Clouds 31 1015 23 10000 2.1 0 09:38 05.09.2019
2480 Clouds 29 1015 23 10000 2.1 0 09:18 05.09.2019
2481 Clouds 29 1015 23 10000 2.1 0 09:18 05.09.2019
2482 Clouds 29 1016 25 8000 2.1 0 08:43 05.09.2019
2483 Clouds 28 1016 25 8000 2.1 0 08:24 05.09.2019
2484 Haze 28 1016 32 5000 1 0 07:44 05.09.2019
2485 Haze 28 1016 32 5000 1 0 07:25 05.09.2019
2486 Haze 25 1016 31 5000 0.5 0 06:50 05.09.2019
2487 Haze 25 1016 31 5000 0.5 0 06:29 05.09.2019
2488 Haze 23 1016 31 5000 0.5 0 05:49 05.09.2019
2489 Haze 23 1016 23 5000 1 0 05:28 05.09.2019
2490 Clear 18 1015 34 8000 1 0 04:45 05.09.2019
2491 Clear 16 1015 34 8000 1 0 04:19 05.09.2019
2492 Haze 18 1015 39 8000 1 130 03:22 05.09.2019
2493 Clear 18 1014 39 10000 2.1 120 02:42 05.09.2019
2494 Clear 16 1014 39 10000 2.1 120 02:18 05.09.2019
2495 Clear 21 1014 18 10000 1.5 0 01:19 05.09.2019
2496 Clear 17 1010 48 10000 0.73 203.683 00:40 05.09.2019
2497 Clear 19 1010 48 10000 0.24 6.627 00:19 05.09.2019
2498 Clear 19 1014 26 10000 1 0 23:45 04.09.2019
2499 Clear 19 1014 26 10000 1 0 23:23 04.09.2019
2500 Clear 21 1014 23 10000 1.5 0 22:49 04.09.2019
2501 Clear 20 1014 23 10000 1.5 0 22:22 04.09.2019
2502 Clear 21 1014 17 10000 1.5 0 21:58 04.09.2019
2503 Clear 21 1014 17 10000 1.5 0 21:39 04.09.2019
2504 Clear 23 1014 17 10000 1.5 0 21:20 04.09.2019
2505 Clear 24 1014 16 10000 6.7 350 20:56 04.09.2019
2506 Clear 24 1014 16 10000 6.7 350 20:37 04.09.2019
2507 Clear 25 1014 16 10000 6.7 350 20:18 04.09.2019
2508 Clear 25 1013 22 10000 5.7 350 19:44 04.09.2019
2509 Clear 26 1009 23 10000 3.6 300 19:24 04.09.2019
2510 Clear 27 1012 15 10000 5.1 340 18:55 04.09.2019
2511 Clear 27 1012 15 10000 5.1 340 18:37 04.09.2019
2512 Clear 27 1012 15 10000 5.1 340 18:18 04.09.2019
2513 Clear 28 1012 14 10000 6.2 10 17:41 04.09.2019
2514 Clear 30 1012 14 10000 6.2 10 17:23 04.09.2019
2515 Clouds 30 1011 18 10000 7.2 10 16:57 04.09.2019
2516 Clouds 30 1011 18 10000 7.2 10 16:38 04.09.2019
2517 Clouds 31 1011 18 10000 7.2 10 16:19 04.09.2019
2518 Clouds 31 1011 20 10000 7.7 350 15:41 04.09.2019
2519 Clouds 31 1011 20 10000 7.7 350 15:22 04.09.2019
2520 Clear 31 1006 16 10000 9.8 40 14:58 04.09.2019
2521 Clouds 33 1011 22 10000 5.1 360 14:38 04.09.2019
2522 Clouds 33 1011 22 10000 5.1 360 14:20 04.09.2019
2523 Clouds 33 1011 21 10000 5.1 350 13:58 04.09.2019
2524 Clouds 33 1011 21 10000 5.1 350 13:58 04.09.2019
2525 Clouds 33 1011 21 10000 5.1 350 13:39 04.09.2019
2526 Clouds 33 1011 21 10000 5.1 350 13:21 04.09.2019
2527 Clouds 34 1012 22 10000 4.6 320 12:44 04.09.2019
2528 Clouds 34 1012 22 10000 4.6 320 12:26 04.09.2019
2529 Clouds 32 1013 27 10000 4.6 70 11:58 04.09.2019
2530 Clouds 32 1013 27 10000 4.6 70 11:38 04.09.2019
2531 Clouds 32 1013 27 10000 4.6 70 11:20 04.09.2019
2532 Clouds 32 1014 31 10000 2.6 0 10:56 04.09.2019
2533 Clouds 32 1014 31 10000 2.6 0 10:56 04.09.2019
2534 Clouds 32 1014 31 10000 2.6 0 10:36 04.09.2019
2535 Clouds 31 1014 31 10000 2.6 0 10:18 04.09.2019
2536 Clouds 31 1014 31 10000 2.6 0 09:44 04.09.2019
2537 Clouds 30 1015 33 10000 2.6 0 09:20 04.09.2019
2538 Clouds 30 1015 33 10000 2.6 0 08:42 04.09.2019
2539 Clouds 29 1016 37 9000 1.5 0 08:24 04.09.2019
2540 Haze 27 1016 57 9000 1.5 0 07:58 04.09.2019
2541 Haze 27 1016 57 9000 1.5 0 07:35 04.09.2019
2542 Haze 26 1016 65 7000 1.5 0 06:53 04.09.2019
2543 Haze 26 1016 65 7000 1.5 0 06:32 04.09.2019
2544 Haze 21 1015 72 8000 1.5 140 04:54 04.09.2019
2545 Haze 21 1015 72 8000 1.5 140 04:22 04.09.2019
2546 Clear 21 1014 73 8000 1.5 0 02:46 04.09.2019
2547 Clear 23 1014 69 10000 1 0 00:58 04.09.2019
2548 Clear 23 1014 69 10000 1 0 00:39 04.09.2019
2549 Clear 23 1014 69 10000 1 0 00:18 04.09.2019
2550 Clear 26 1014 69 10000 1.5 0 23:48 03.09.2019
2551 Clear 25 1014 69 10000 1.5 0 23:26 03.09.2019
2552 Clear 25 1015 64 10000 1 0 22:41 03.09.2019
2553 Clear 26 1015 64 10000 1 0 22:22 03.09.2019
2554 Clear 26 1014 64 10000 0.99 8.514 21:57 03.09.2019
2555 Clear 26 1014 64 10000 0.99 8.514 21:38 03.09.2019
2556 Clear 26 1014 64 10000 1.79 33.344 21:20 03.09.2019
2557 Clear 26 1014 60 10000 1.79 33.344 20:55 03.09.2019
2558 Clear 26 1014 60 10000 1.79 33.344 20:36 03.09.2019
2559 Clear 26 1014 60 10000 1.79 33.344 20:36 03.09.2019
2560 Clear 26 1014 60 10000 1.79 33.344 20:36 03.09.2019
2561 Clear 26 1014 60 10000 1.79 33.344 20:18 03.09.2019
2562 Clear 27 1013 57 10000 1 0 19:42 03.09.2019
2563 Clear 27 1013 57 10000 1 0 19:19 03.09.2019
2564 Clear 27 1013 53 10000 2.1 90 18:57 03.09.2019
2565 Clear 27 1013 53 10000 2.1 90 18:38 03.09.2019
2566 Clear 27 1013 53 10000 2.1 90 18:18 03.09.2019
2567 Clear 28 1013 53 10000 2.1 90 17:43 03.09.2019
2568 Clear 28 1013 53 10000 2.1 90 17:43 03.09.2019
2569 Clear 29 1012 50 10000 3.1 100 17:23 03.09.2019
2570 Clouds 29 1011 47 10000 6.7 100 17:00 03.09.2019
2571 Clouds 29 1011 47 10000 6.7 100 16:41 03.09.2019
2572 Clouds 30 1011 47 10000 6.7 100 16:22 03.09.2019
2573 Clouds 31 1011 40 10000 6.7 110 15:42 03.09.2019
2574 Clouds 32 1011 40 10000 6.7 110 15:22 03.09.2019
2575 Clouds 33 1011 31 10000 5.7 120 14:59 03.09.2019
2576 Clouds 33 1011 31 10000 5.7 120 14:41 03.09.2019
2577 Clouds 33 1011 31 10000 5.7 120 14:21 03.09.2019
2578 Clouds 33 1011 24 10000 5.7 140 13:58 03.09.2019
2579 Clouds 33 1011 24 10000 5.7 140 13:38 03.09.2019
2580 Clouds 33 1011 24 10000 5.7 140 13:20 03.09.2019
2581 Clouds 33 1011 24 10000 5.7 140 13:20 03.09.2019
2582 Clouds 33 1012 23 10000 3.1 260 12:57 03.09.2019
2583 Clouds 33 1012 23 10000 3.1 260 12:38 03.09.2019
2584 Clouds 33 1012 23 10000 3.1 260 12:20 03.09.2019
2585 Clouds 33 1013 19 10000 3.6 170 11:42 03.09.2019
2586 Clouds 32 1013 19 10000 3.6 170 11:23 03.09.2019
2587 Clouds 32 1014 29 8000 2.6 0 10:57 03.09.2019
2588 Clouds 32 1014 29 8000 2.6 0 10:39 03.09.2019
2589 Clouds 31 1014 29 8000 2.6 0 10:20 03.09.2019
2590 Smoke 31 1015 37 10000 1.5 0 09:44 03.09.2019
2591 Smoke 31 1015 37 10000 1.5 0 09:26 03.09.2019
2592 Smoke 29 1015 42 0 1 0 08:56 03.09.2019
2593 Smoke 29 1015 42 0 1 0 08:56 03.09.2019
2594 Smoke 29 1015 42 0 1 0 08:37 03.09.2019
2595 Smoke 28 1015 42 0 1 0 08:18 03.09.2019
2596 Smoke 27 1016 50 0 1.5 0 07:41 03.09.2019
2597 Smoke 26 1016 50 0 1.5 0 07:23 03.09.2019
2598 Clear 26 1016 57 10000 1.5 0 06:45 03.09.2019
2599 Clear 23 1016 64 8000 1.5 0 05:53 03.09.2019
2600 Clear 19 1015 77 8000 1 0 03:42 03.09.2019
2601 Clear 21 1015 73 10000 0.55 237.688 02:46 03.09.2019
2602 Clear 20 1015 73 10000 0.55 237.688 02:24 03.09.2019
2603 Clear 20 1015 73 10000 0.5 0 01:50 03.09.2019
2604 Clear 20 1015 73 10000 0.5 0 01:31 03.09.2019
2605 Clear 22 1015 73 10000 1 0 00:40 03.09.2019
2606 Clear 22 1015 73 10000 1 0 00:20 03.09.2019
2607 Clear 23 1015 64 10000 1.5 200 23:40 02.09.2019
2608 Clear 24 1015 64 10000 1.5 200 23:20 02.09.2019
2609 Clear 23 1015 68 10000 1 0 22:56 02.09.2019
2610 Clear 23 1015 68 10000 1 0 22:38 02.09.2019
2611 Clear 23 1015 68 10000 1 0 22:38 02.09.2019
2612 Clear 25 1015 68 10000 1 0 22:19 02.09.2019
2613 Clear 25 1015 64 10000 2.6 110 21:56 02.09.2019
2614 Clear 25 1015 64 10000 2.6 110 21:38 02.09.2019
2615 Clear 26 1015 64 10000 2.6 110 21:20 02.09.2019
2616 Clear 26 1015 64 10000 2.6 110 21:20 02.09.2019
2617 Clear 26 1015 57 10000 3.1 150 20:55 02.09.2019
2618 Clear 26 1015 57 10000 3.1 150 20:37 02.09.2019
2619 Clear 26 1015 57 10000 3.1 150 20:18 02.09.2019
2620 Clear 26 1015 53 10000 3.6 120 19:55 02.09.2019
2621 Clear 26 1015 53 10000 3.6 120 19:37 02.09.2019
2622 Clear 26 1015 53 10000 3.6 120 19:19 02.09.2019
2623 Clouds 27 1014 50 10000 4.1 130 18:39 02.09.2019
2624 Clouds 27 1014 50 10000 4.1 130 18:21 02.09.2019
2625 Clear 28 1014 44 10000 4.6 140 17:57 02.09.2019
2626 Clear 28 1014 44 10000 4.6 140 17:38 02.09.2019
2627 Clear 28 1014 44 10000 4.6 140 17:19 02.09.2019
2628 Clouds 28 1013 34 10000 2.6 350 16:41 02.09.2019
2629 Clouds 29 1013 34 10000 2.6 350 16:22 02.09.2019
2630 Clouds 30 1013 32 10000 2.1 340 15:57 02.09.2019
2631 Clouds 30 1013 32 10000 2.1 340 15:38 02.09.2019
2632 Clouds 30 1013 32 10000 2.1 340 15:19 02.09.2019
2633 Clouds 30 1013 35 10000 6.2 360 14:56 02.09.2019
2634 Clouds 30 1013 35 10000 6.2 360 14:37 02.09.2019
2635 Clouds 30 1013 35 10000 6.2 360 14:37 02.09.2019
2636 Clouds 31 1013 35 10000 6.2 360 14:18 02.09.2019
2637 Clouds 31 1014 33 10000 2.1 0 13:44 02.09.2019
2638 Clouds 31 1014 33 10000 2.1 0 13:25 02.09.2019
2639 Clouds 31 1014 33 10000 1.5 0 12:47 02.09.2019
2640 Clouds 31 1014 33 10000 1.5 0 12:27 02.09.2019
2641 Clouds 30 1015 37 10000 4.1 330 12:00 02.09.2019
2642 Clouds 30 1015 37 10000 4.1 330 11:41 02.09.2019
2643 Clouds 30 1015 37 10000 4.1 330 11:22 02.09.2019
2644 Clouds 30 1016 37 10000 2.1 0 10:58 02.09.2019
2645 Clouds 30 1016 37 10000 2.1 0 10:39 02.09.2019
2646 Clouds 29 1016 37 10000 2.1 0 10:21 02.09.2019
2647 Clouds 29 1017 42 10000 2.1 340 09:58 02.09.2019
2648 Clouds 29 1017 42 10000 2.1 340 09:38 02.09.2019
2649 Clouds 27 1017 42 10000 2.1 340 09:19 02.09.2019
2650 Clouds 27 1018 47 10000 1 0 08:39 02.09.2019
2651 Clouds 25 1018 47 10000 1 0 08:18 02.09.2019
2652 Clouds 25 1018 50 10000 4.6 360 07:42 02.09.2019
2653 Rain 23 1018 50 10000 4.6 360 07:22 02.09.2019
2654 Rain 22 1018 53 10000 7.7 360 06:58 02.09.2019
2655 Rain 22 1018 53 10000 7.7 360 06:39 02.09.2019
2656 Thunderstorm 20 1018 64 10000 7.7 360 05:50 02.09.2019
2657 Clouds 20 1018 64 10000 7.7 360 05:20 02.09.2019
2658 Clouds 21 1017 60 10000 2.1 80 04:45 02.09.2019
2659 Clouds 23 1016 64 10000 6.2 150 01:50 02.09.2019
2660 Clear 24 1015 60 10000 1.5 0 00:55 02.09.2019
2661 Clear 24 1015 60 10000 1.5 0 00:32 02.09.2019
2662 Clouds 25 1015 60 10000 1.5 0 23:48 01.09.2019
2663 Clouds 25 1015 60 10000 1.5 0 23:23 01.09.2019
2664 Clouds 26 1015 60 10000 1.5 0 22:59 01.09.2019
2665 Clouds 26 1015 60 10000 1.5 0 22:59 01.09.2019
2666 Clouds 26 1015 60 10000 1.5 0 22:40 01.09.2019
2667 Clouds 26 1015 60 10000 1.5 0 22:20 01.09.2019
2668 Clouds 26 1016 57 10000 4.6 80 21:59 01.09.2019
2669 Clouds 26 1016 57 10000 4.6 80 21:40 01.09.2019
2670 Clouds 27 1016 57 10000 4.6 80 21:22 01.09.2019
2671 Rain 27 1015 53 10000 4.1 120 20:57 01.09.2019
2672 Rain 27 1015 53 10000 4.1 120 20:38 01.09.2019
2673 Rain 27 1015 53 10000 4.1 120 20:19 01.09.2019
2674 Rain 27 1015 50 10000 5.1 110 19:58 01.09.2019
2675 Rain 27 1015 50 10000 5.1 110 19:38 01.09.2019
2676 Rain 27 1015 50 10000 5.1 110 19:19 01.09.2019
2677 Thunderstorm 27 1015 53 10000 6.2 110 18:43 01.09.2019
2678 Rain 27 1014 53 9000 6.2 80 18:25 01.09.2019
2679 Rain 28 1015 53 9000 5.7 80 17:57 01.09.2019
2680 Clear 28 1014 47 10000 6.7 100 17:38 01.09.2019
2681 Clear 29 1014 47 10000 6.7 100 17:19 01.09.2019
2682 Clear 29 1013 37 10000 3.6 130 16:41 01.09.2019
2683 Clear 31 1013 37 10000 3.6 130 16:20 01.09.2019
2684 Clouds 31 1012 37 9000 2.6 90 15:55 01.09.2019
2685 Clouds 31 1012 37 9000 2.6 90 15:37 01.09.2019
2686 Clouds 31 1012 37 9000 2.6 90 15:37 01.09.2019
2687 Clouds 32 1012 37 9000 2.6 90 15:19 01.09.2019
2688 Clouds 31 1012 37 10000 5.1 130 14:41 01.09.2019
2689 Clouds 31 1012 37 10000 5.1 130 14:21 01.09.2019
2690 Clouds 32 1012 22 10000 3.6 230 13:58 01.09.2019
2691 Clouds 32 1012 22 10000 3.6 230 13:39 01.09.2019
2692 Clouds 32 1012 22 10000 3.6 230 13:20 01.09.2019
2693 Clouds 32 1012 22 10000 3.6 230 13:20 01.09.2019
2694 Clouds 31 1013 23 10000 5.1 340 12:43 01.09.2019
2695 Clouds 31 1013 23 10000 5.1 340 12:25 01.09.2019
2696 Clouds 31 1013 23 10000 5.1 350 11:55 01.09.2019
2697 Clouds 31 1013 23 10000 5.1 350 11:36 01.09.2019
2698 Clouds 31 1013 23 10000 5.1 350 11:18 01.09.2019
2699 Clouds 31 1014 25 10000 3.1 0 10:43 01.09.2019
2700 Clouds 31 1014 25 10000 3.1 0 10:23 01.09.2019
2701 Clouds 31 1015 27 10000 2.6 0 09:44 01.09.2019
2702 Clouds 29 1015 27 10000 2.6 0 09:25 01.09.2019
2703 Clouds 29 1016 32 10000 1.5 0 08:45 01.09.2019
2704 Clouds 28 1016 32 10000 1.5 0 08:25 01.09.2019
2705 Clear 28 1016 34 10000 1.5 0 07:59 01.09.2019
2706 Clear 28 1016 34 10000 1.5 0 07:40 01.09.2019
2707 Clear 28 1016 34 10000 1.5 0 07:18 01.09.2019
2708 Clear 26 1016 41 10000 1.5 0 06:37 01.09.2019
2709 Haze 23 1015 41 9000 0.5 0 05:57 01.09.2019
2710 Clear 19 1015 45 10000 1 0 04:34 01.09.2019
2711 Clear 19 1014 42 9000 1.5 320 03:43 01.09.2019
2712 Clear 20 1014 40 9000 1.5 0 02:59 01.09.2019
2713 Clear 20 1014 40 9000 1.5 0 02:29 01.09.2019
2714 Clear 20 1014 37 9000 1.5 140 01:51 01.09.2019
2715 Clouds 20 1014 37 9000 1.5 140 01:24 01.09.2019
2716 Clear 20 1014 46 10000 2.6 110 00:47 01.09.2019
2717 Clear 20 1014 46 10000 2.6 110 00:23 01.09.2019
2718 Clear 21 1014 50 10000 1.5 0 23:55 31.08.2019
2719 Clear 21 1014 50 10000 1.5 0 23:36 31.08.2019
2720 Clear 24 1014 50 10000 1.5 0 23:18 31.08.2019
2721 Clear 23 1014 49 10000 1 0 22:44 31.08.2019
2722 Clear 23 1014 49 10000 1 0 22:25 31.08.2019
2723 Clear 24 1014 47 10000 1.5 0 21:58 31.08.2019
2724 Clear 24 1014 47 10000 1.5 0 21:39 31.08.2019
2725 Clear 24 1014 47 10000 1.5 0 21:19 31.08.2019
2726 Clear 25 1014 47 10000 1.5 0 20:47 31.08.2019
2727 Clouds 24 1008 25 10000 3.6 320 20:29 31.08.2019
2728 Clear 24 1013 41 10000 1.5 0 19:57 31.08.2019
2729 Clear 25 1013 41 10000 1.5 0 19:39 31.08.2019
2730 Clear 27 1013 41 10000 1.5 0 19:20 31.08.2019
2731 Clear 27 1013 39 10000 1.5 0 18:40 31.08.2019
2732 Clear 26 1013 39 10000 1.5 0 18:21 31.08.2019
2733 Clear 26 1012 26 10000 1.5 0 17:57 31.08.2019
2734 Clear 26 1012 26 10000 1.5 0 17:37 31.08.2019
2735 Clear 26 1012 26 10000 1.5 0 17:37 31.08.2019
2736 Clear 28 1012 26 10000 1.5 0 17:18 31.08.2019
2737 Clouds 29 1010 23 10000 7.7 10 16:57 31.08.2019
2738 Clouds 29 1010 23 10000 7.7 10 16:39 31.08.2019
2739 Clouds 30 1010 23 10000 7.7 10 16:20 31.08.2019
2740 Clouds 30 1010 23 10000 7.7 10 15:55 31.08.2019
2741 Clouds 30 1010 14 10000 5.1 10 15:36 31.08.2019
2742 Rain 32 1010 14 10000 5.1 10 15:18 31.08.2019
2743 Rain 33 1010 13 10000 3.1 350 14:41 31.08.2019
2744 Rain 33 1010 13 10000 3.1 350 14:41 31.08.2019
2745 Rain 33 1010 13 10000 3.1 350 14:41 31.08.2019
2746 Clouds 33 1010 13 10000 3.1 350 14:22 31.08.2019
2747 Clouds 33 1011 13 10000 1.5 0 13:41 31.08.2019
2748 Clouds 33 1011 13 10000 1.5 0 13:23 31.08.2019
2749 Clouds 33 1011 13 10000 1.5 0 12:59 31.08.2019
2750 Clouds 34 1011 12 10000 1.5 0 12:39 31.08.2019
2751 Clouds 34 1011 12 10000 1.5 0 12:20 31.08.2019
2752 Clouds 34 1011 12 10000 1.5 0 12:20 31.08.2019
2753 Clouds 34 1012 13 10000 6.2 30 11:55 31.08.2019
2754 Clouds 34 1012 13 10000 6.2 30 11:36 31.08.2019
2755 Clouds 33 1012 13 10000 6.2 30 11:18 31.08.2019
2756 Clouds 32 1013 14 10000 1.5 0 10:41 31.08.2019
2757 Clouds 32 1013 14 10000 1.5 0 10:19 31.08.2019
2758 Clouds 32 1014 14 9000 2.1 110 09:56 31.08.2019
2759 Clouds 32 1014 14 9000 2.1 110 09:37 31.08.2019
2760 Clouds 30 1014 14 9000 2.1 110 09:19 31.08.2019
2761 Clouds 30 1014 21 9000 1 0 08:43 31.08.2019
2762 Clouds 28 1014 21 9000 1 0 08:23 31.08.2019
2763 Clouds 28 1015 23 9000 1 0 07:40 31.08.2019
2764 Clouds 28 1015 23 9000 1 0 07:22 31.08.2019
2765 Clouds 25 1014 27 8000 1 0 06:29 31.08.2019
2766 Clouds 22 1014 40 6000 1 0 05:59 31.08.2019
2767 Clouds 22 1014 40 6000 1 0 05:32 31.08.2019
2768 Haze 18 1014 45 8000 1.06 90.216 04:34 31.08.2019
2769 Haze 16 1014 51 8000 1.5 110 03:45 31.08.2019
2770 Clouds 19 1014 45 9000 1 0 02:36 31.08.2019
2771 Clouds 20 1014 40 9000 1 0 01:53 31.08.2019
2772 Clouds 20 1014 40 9000 1 0 01:33 31.08.2019
2773 Clear 21 1014 37 10000 1 0 00:50 31.08.2019
2774 Clear 21 1014 37 10000 1 0 00:50 31.08.2019
2775 Clear 21 1014 37 10000 1 0 00:30 31.08.2019
2776 Clear 21 1014 37 10000 1.5 290 23:57 30.08.2019
2777 Clear 21 1014 37 10000 1.5 290 23:57 30.08.2019
2778 Clear 21 1014 37 10000 1.5 290 23:38 30.08.2019
2779 Clear 21 1014 37 10000 1.5 290 23:18 30.08.2019
2780 Clear 23 1015 28 10000 2.1 230 22:42 30.08.2019
2781 Clear 24 1015 28 10000 2.1 230 22:22 30.08.2019
2782 Clear 24 1015 28 10000 2.1 230 21:58 30.08.2019
2783 Clear 24 1015 28 10000 2.1 230 21:58 30.08.2019
2784 Clear 24 1015 27 10000 1 0 21:38 30.08.2019
2785 Clear 25 1015 27 10000 1 0 21:19 30.08.2019
2786 Clear 25 1015 27 10000 1 0 21:19 30.08.2019
2787 Clear 25 1015 27 10000 1 0 21:19 30.08.2019
2788 Clear 25 1015 27 10000 2.1 340 20:58 30.08.2019
2789 Clear 25 1015 27 10000 2.1 340 20:39 30.08.2019
2790 Clear 25 1015 27 10000 2.1 340 20:20 30.08.2019
2791 Clear 25 1015 57 10000 1.5 0 19:57 30.08.2019
2792 Clear 25 1015 57 10000 1.5 0 19:38 30.08.2019
2793 Clear 25 1015 57 10000 1.5 0 19:19 30.08.2019
2794 Clear 26 1014 57 10000 3.1 150 18:47 30.08.2019
2795 Clear 26 1014 57 10000 3.1 150 18:25 30.08.2019
2796 Clouds 27 1013 41 10000 4.6 60 17:58 30.08.2019
2797 Clouds 27 1013 41 10000 4.6 60 17:58 30.08.2019
2798 Clouds 27 1013 41 10000 4.6 60 17:40 30.08.2019
2799 Clouds 28 1013 41 10000 4.6 60 17:19 30.08.2019
2800 Clouds 29 1012 25 10000 6.2 30 16:59 30.08.2019
2801 Clouds 29 1012 25 10000 6.2 30 16:40 30.08.2019
2802 Clouds 30 1012 25 10000 6.2 30 16:21 30.08.2019
2803 Clouds 30 1012 25 10000 6.2 30 15:43 30.08.2019
2804 Clouds 31 1012 13 10000 5.7 10 15:22 30.08.2019
2805 Clouds 31 1012 14 10000 6.7 10 14:46 30.08.2019
2806 Clouds 31 1012 14 10000 6.7 10 14:28 30.08.2019
2807 Clouds 33 1013 11 10000 6.2 350 13:58 30.08.2019
2808 Clouds 33 1013 11 10000 6.2 350 13:40 30.08.2019
2809 Clouds 34 1013 11 10000 6.2 350 13:21 30.08.2019
2810 Clouds 34 1013 15 10000 5.1 330 12:45 30.08.2019
2811 Clouds 34 1014 13 10000 3.6 0 12:26 30.08.2019
2812 Clouds 33 1015 13 10000 3.6 0 11:58 30.08.2019
2813 Clouds 33 1015 13 10000 3.6 0 11:39 30.08.2019
2814 Clouds 33 1015 13 10000 3.6 0 11:21 30.08.2019
2815 Clouds 33 1015 13 10000 3.6 0 11:21 30.08.2019
2816 Clouds 32 1016 14 10000 2.1 0 10:39 30.08.2019
2817 Clouds 32 1016 14 10000 2.1 0 10:20 30.08.2019
2818 Clouds 32 1017 14 10000 2.1 0 09:56 30.08.2019
2819 Clouds 32 1017 14 10000 2.1 0 09:36 30.08.2019
2820 Clouds 32 1017 14 10000 2.1 0 09:36 30.08.2019
2821 Clouds 31 1017 14 10000 2.1 0 09:18 30.08.2019
2822 Clouds 31 1018 16 10000 3.1 0 08:44 30.08.2019
2823 Clouds 31 1018 16 10000 3.1 0 08:24 30.08.2019
2824 Clear 29 1018 17 10000 3.1 0 07:47 30.08.2019
2825 Clear 28 1018 17 10000 3.1 0 07:27 30.08.2019
2826 Clear 27 1018 20 10000 1.5 0 06:58 30.08.2019
2827 Clear 27 1018 20 10000 1.5 0 06:40 30.08.2019
2828 Clear 24 1018 20 10000 1.5 0 06:20 30.08.2019
2829 Clear 23 1018 28 10000 1.5 0 05:28 30.08.2019
2830 Clear 20 1017 42 10000 1 0 03:57 30.08.2019
2831 Clear 20 1017 42 10000 1 0 03:37 30.08.2019
2832 Clear 20 1017 42 10000 1 0 03:37 30.08.2019
2833 Clear 21 1017 39 10000 1 0 02:41 30.08.2019
2834 Clear 21 1017 32 10000 1 0 01:51 30.08.2019
2835 Clear 24 1017 32 10000 1 0 00:55 30.08.2019
2836 Clear 25 1017 28 10000 1.5 0 00:20 30.08.2019
2837 Clear 25 1018 19 10000 2.6 20 23:48 29.08.2019
2838 Clear 25 1018 19 10000 2.6 20 23:48 29.08.2019
2839 Clear 27 1018 19 10000 2.6 20 23:23 29.08.2019
2840 Clear 27 1018 19 10000 2.6 20 23:23 29.08.2019
2841 Clear 27 1018 19 10000 2.6 20 22:56 29.08.2019
2842 Clear 26 1018 19 10000 3.6 320 22:37 29.08.2019
2843 Clear 27 1018 19 10000 3.6 320 22:19 29.08.2019
2844 Clear 27 1018 16 10000 5.1 350 21:41 29.08.2019
2845 Clear 27 1018 16 10000 5.1 350 21:21 29.08.2019
2846 Clear 28 1018 14 10000 5.1 20 20:59 29.08.2019
2847 Clear 28 1018 14 10000 5.1 20 20:41 29.08.2019
2848 Clear 28 1018 14 10000 5.1 20 20:19 29.08.2019
2849 Clear 28 1018 14 10000 5.1 20 19:56 29.08.2019
2850 Clear 28 1017 13 10000 7.7 20 19:38 29.08.2019
2851 Clear 29 1017 13 10000 7.7 20 19:19 29.08.2019
2852 Clear 29 1017 14 10000 6.2 30 18:41 29.08.2019
2853 Clear 29 1017 14 10000 6.2 30 18:20 29.08.2019
2854 Clear 29 1017 14 10000 6.2 30 17:56 29.08.2019
2855 Clear 30 1016 14 10000 5.1 30 17:36 29.08.2019
2856 Clear 30 1016 14 10000 5.1 30 17:18 29.08.2019
2857 Clouds 30 1016 13 10000 5.1 50 16:43 29.08.2019
2858 Rain 31 1016 13 10000 5.1 50 16:23 29.08.2019
2859 Rain 31 1015 14 10000 6.2 360 15:57 29.08.2019
2860 Rain 31 1015 14 10000 6.2 360 15:37 29.08.2019
2861 Rain 32 1015 14 10000 6.2 360 15:18 29.08.2019
2862 Rain 33 1015 14 10000 5.1 360 14:43 29.08.2019
2863 Clouds 33 1015 14 10000 5.1 360 14:21 29.08.2019
2864 Clouds 34 1016 13 10000 3.1 0 13:58 29.08.2019
2865 Clouds 34 1016 13 10000 3.1 0 13:58 29.08.2019
2866 Clouds 34 1016 13 10000 3.1 0 13:39 29.08.2019
2867 Clouds 34 1016 13 10000 3.1 0 13:39 29.08.2019
2868 Clouds 34 1016 13 10000 3.1 0 13:20 29.08.2019
2869 Clouds 33 1011 13 10000 1.5 20 12:58 29.08.2019
2870 Clouds 34 1017 15 10000 6.2 10 12:39 29.08.2019
2871 Clouds 33 1017 15 10000 6.2 10 12:20 29.08.2019
2872 Clouds 33 1018 18 10000 2.6 0 11:57 29.08.2019
2873 Clouds 33 1018 18 10000 2.6 0 11:36 29.08.2019
2874 Clouds 33 1018 18 10000 2.6 0 11:18 29.08.2019
2875 Clouds 33 1019 18 10000 3.1 60 10:41 29.08.2019
2876 Clouds 32 1019 18 10000 3.1 60 10:23 29.08.2019
2877 Clouds 31 1020 23 10000 4.6 10 09:42 29.08.2019
2878 Clouds 30 1020 23 10000 4.6 10 09:20 29.08.2019
2879 Clouds 30 1020 26 10000 3.1 0 08:56 29.08.2019
2880 Clouds 30 1020 26 10000 3.1 0 08:37 29.08.2019
2881 Clouds 29 1020 26 10000 3.1 0 08:19 29.08.2019
2882 Clouds 28 1021 34 10000 1.5 0 07:43 29.08.2019
2883 Clouds 26 1021 34 10000 1.5 0 07:25 29.08.2019
2884 Clear 26 1021 41 10000 1.5 0 06:43 29.08.2019
2885 Clear 24 1021 41 10000 1.5 0 06:21 29.08.2019
2886 Clear 23 1021 47 10000 1 0 05:38 29.08.2019
2887 Haze 19 1020 60 10000 1.5 330 04:50 29.08.2019
2888 Haze 19 1020 60 10000 1.5 330 04:28 29.08.2019
2889 Clear 19 1019 56 10000 1 0 02:49 29.08.2019
2890 Haze 20 1019 56 10000 1 0 01:48 29.08.2019
2891 Haze 19 1019 52 10000 1 320 00:58 29.08.2019
2892 Haze 19 1019 52 10000 2.1 300 00:40 29.08.2019
2893 Haze 19 1019 52 10000 2.1 300 00:20 29.08.2019
2894 Clear 20 1019 52 10000 1 290 23:42 28.08.2019
2895 Clear 20 1019 52 10000 1 290 23:23 28.08.2019
2896 Clear 20 1019 49 10000 0.53 25.023 22:58 28.08.2019
2897 Clear 20 1019 49 10000 0.53 25.023 22:39 28.08.2019
2898 Clear 23 1019 49 10000 0.53 25.023 22:18 28.08.2019
2899 Clear 23 1019 47 10000 1.5 0 21:57 28.08.2019
2900 Clear 23 1019 47 10000 1.5 0 21:38 28.08.2019
2901 Clear 27 1019 47 10000 1.5 0 21:20 28.08.2019
2902 Clouds 26 1018 41 10000 1 0 20:41 28.08.2019
2903 Clouds 26 1018 41 10000 1 0 20:22 28.08.2019
2904 Clear 26 1018 29 10000 1.41 13.329 19:55 28.08.2019
2905 Clear 26 1018 29 10000 1.41 13.329 19:37 28.08.2019
2906 Clear 26 1018 29 10000 1.41 13.329 19:18 28.08.2019
2907 Clear 28 1017 27 10000 1.5 0 18:42 28.08.2019
2908 Clear 28 1017 27 10000 1.5 0 18:21 28.08.2019
2909 Clear 28 1017 21 10000 1.5 0 17:55 28.08.2019
2910 Clear 28 1017 21 10000 1.5 0 17:37 28.08.2019
2911 Clear 29 1017 21 10000 1.5 0 17:19 28.08.2019
2912 Clear 30 1016 17 10000 4.1 10 16:42 28.08.2019
2913 Clear 31 1016 17 10000 4.1 10 16:18 28.08.2019
2914 Clouds 32 1015 19 10000 4.6 360 15:54 28.08.2019
2915 Clouds 32 1015 19 10000 4.6 360 15:36 28.08.2019
2916 Clouds 32 1015 12 10000 4.6 360 15:18 28.08.2019
2917 Clouds 33 1015 11 10000 4.1 10 14:55 28.08.2019
2918 Clouds 33 1015 11 10000 4.1 10 14:36 28.08.2019
2919 Clouds 33 1015 11 10000 4.1 10 14:18 28.08.2019
2920 Clouds 33 1016 14 10000 3.6 60 13:39 28.08.2019
2921 Clouds 33 1016 14 10000 3.6 60 13:39 28.08.2019
2922 Clouds 33 1016 14 10000 3.6 60 13:20 28.08.2019
2923 Clouds 33 1017 13 10000 4.1 350 12:58 28.08.2019
2924 Clouds 33 1017 13 10000 4.1 350 12:40 28.08.2019
2925 Clouds 33 1017 13 10000 4.1 350 12:40 28.08.2019
2926 Clouds 32 1017 13 10000 4.1 350 12:21 28.08.2019
2927 Clouds 32 1018 14 10000 2.1 0 11:40 28.08.2019
2928 Clouds 32 1018 14 10000 2.1 0 11:22 28.08.2019
2929 Clouds 32 1018 14 10000 2.1 0 10:57 28.08.2019
2930 Clouds 31 1019 15 10000 2.1 0 10:38 28.08.2019
2931 Clouds 31 1019 15 10000 2.1 0 10:19 28.08.2019
2932 Clouds 31 1020 13 10000 1.5 0 09:42 28.08.2019
2933 Clouds 29 1020 13 10000 1.5 0 09:21 28.08.2019
2934 Clouds 29 1020 17 10000 1.5 0 08:57 28.08.2019
2935 Clouds 29 1020 17 10000 1.5 0 08:38 28.08.2019
2936 Clouds 28 1020 17 10000 1.5 0 08:19 28.08.2019
2937 Clear 28 1020 21 10000 1 0 07:38 28.08.2019
2938 Clear 27 1020 21 10000 1 0 07:20 28.08.2019
2939 Clear 27 1020 21 10000 1 0 07:20 28.08.2019
2940 Clear 25 1020 23 10000 1.5 0 06:49 28.08.2019
2941 Haze 22 1020 30 8000 1 20 05:59 28.08.2019
2942 Haze 18 1019 45 10000 1 0 04:49 28.08.2019
2943 Clear 16 1018 45 10000 1 0 01:58 28.08.2019
2944 Clear 16 1018 45 10000 1 0 01:30 28.08.2019
2945 Clear 19 1018 32 10000 1.5 330 00:50 28.08.2019
2946 Clear 19 1018 32 10000 1.5 330 00:32 28.08.2019
2947 Clear 20 1018 30 10000 1.5 260 23:46 27.08.2019
2948 Clear 23 1018 30 10000 1.5 260 23:22 27.08.2019
2949 Clear 24 1018 29 10000 1.5 250 22:59 27.08.2019
2950 Clear 24 1018 29 10000 1.5 250 22:41 27.08.2019
2951 Clear 25 1018 29 10000 1.5 250 22:22 27.08.2019
2952 Clear 25 1018 31 10000 1.5 0 21:57 27.08.2019
2953 Clear 25 1018 31 10000 1.5 0 21:38 27.08.2019
2954 Clear 26 1018 25 10000 1.5 0 21:19 27.08.2019
2955 Clear 26 1018 17 10000 1.5 0 20:57 27.08.2019
2956 Clear 26 1018 17 10000 1.5 0 20:37 27.08.2019
2957 Clear 26 1018 17 10000 1.5 0 20:19 27.08.2019
2958 Clear 27 1017 15 10000 5.7 30 19:43 27.08.2019
2959 Clear 27 1017 15 10000 5.7 30 19:25 27.08.2019
2960 Clear 27 1016 16 10000 7.2 30 18:56 27.08.2019
2961 Clear 27 1016 16 10000 7.2 30 18:37 27.08.2019
2962 Clear 27 1016 16 10000 7.2 30 18:18 27.08.2019
2963 Clear 28 1016 20 10000 6.7 20 17:43 27.08.2019
2964 Clear 28 1016 20 10000 6.7 20 17:24 27.08.2019
2965 Clouds 29 1015 17 10000 5.1 10 16:57 27.08.2019
2966 Clouds 29 1015 17 10000 5.1 10 16:36 27.08.2019
2967 Clouds 29 1015 17 10000 5.1 10 16:18 27.08.2019
2968 Clouds 30 1015 15 10000 4.1 10 15:42 27.08.2019
2969 Clouds 31 1015 15 10000 4.1 10 15:23 27.08.2019
2970 Clouds 32 1015 14 10000 5.7 360 14:59 27.08.2019
2971 Clouds 32 1015 14 10000 5.7 360 14:41 27.08.2019
2972 Clouds 32 1015 14 10000 5.7 360 14:23 27.08.2019
2973 Clouds 33 1015 13 10000 3.6 350 13:43 27.08.2019
2974 Clouds 33 1015 13 10000 3.6 350 13:24 27.08.2019
2975 Clouds 33 1015 13 10000 3.6 350 12:56 27.08.2019
2976 Clouds 33 1016 12 10000 3.1 70 12:37 27.08.2019
2977 Clouds 33 1016 12 10000 3.1 70 12:18 27.08.2019
2978 Clouds 33 1016 14 10000 3.6 10 11:43 27.08.2019
2979 Clouds 32 1016 14 10000 3.6 10 11:25 27.08.2019
2980 Clouds 32 1016 14 10000 3.6 10 10:44 27.08.2019
2981 Clouds 32 1017 16 10000 2.1 0 10:21 27.08.2019
2982 Clouds 31 1018 17 10000 2.6 0 09:58 27.08.2019
2983 Clouds 31 1018 17 10000 2.6 0 09:39 27.08.2019
2984 Clouds 30 1018 17 10000 2.6 0 09:20 27.08.2019
2985 Clouds 30 1018 17 10000 2.6 0 08:54 27.08.2019
2986 Clouds 29 1018 20 10000 3.6 360 08:36 27.08.2019
2987 Clouds 29 1018 20 10000 3.6 360 08:18 27.08.2019
2988 Clear 28 1018 29 10000 1.5 0 07:39 27.08.2019
2989 Clear 26 1018 29 10000 1.5 0 07:19 27.08.2019
2990 Clear 26 1018 29 10000 1.5 0 06:51 27.08.2019
2991 Haze 23 1018 44 9000 1 0 06:23 27.08.2019
2992 Haze 22 1018 64 9000 1.5 140 05:42 27.08.2019
2993 Haze 18 1018 82 10000 1 100 04:37 27.08.2019
2994 Haze 17 1017 63 10000 0.5 330 03:34 27.08.2019
2995 Clear 19 1017 77 10000 1.5 70 02:23 27.08.2019
2996 Clear 19 1017 77 10000 1.5 0 01:40 27.08.2019
2997 Clear 22 1017 68 10000 1.5 0 00:58 27.08.2019
2998 Clear 22 1017 68 10000 1.5 0 00:38 27.08.2019
2999 Clear 24 1017 68 10000 1.5 0 00:19 27.08.2019
3000 Clear 23 1017 45 10000 1.5 0 23:37 26.08.2019
3001 Clear 23 1017 45 10000 1.5 0 23:19 26.08.2019
3002 Clear 24 1018 28 10000 2.1 0 22:39 26.08.2019
3003 Clear 24 1018 28 10000 2.1 0 22:19 26.08.2019
3004 Clouds 25 1018 25 10000 3.1 350 21:57 26.08.2019
3005 Clouds 25 1018 25 10000 3.1 350 21:37 26.08.2019
3006 Clouds 26 1018 25 10000 3.1 350 21:18 26.08.2019
3007 Clear 25 1018 49 10000 1.5 270 20:54 26.08.2019
3008 Clear 25 1018 49 10000 1.5 270 20:36 26.08.2019
3009 Clear 25 1018 49 10000 1.5 270 20:36 26.08.2019
3010 Clear 23 1018 49 10000 1.5 270 20:18 26.08.2019
3011 Clear 23 1017 46 10000 1.5 70 19:42 26.08.2019
3012 Clear 26 1017 46 10000 1.5 70 19:19 26.08.2019
3013 Clear 26 1017 38 10000 3.1 90 18:58 26.08.2019
3014 Clear 26 1017 38 10000 3.1 90 18:37 26.08.2019
3015 Clear 26 1017 38 10000 3.1 90 18:37 26.08.2019
3016 Clear 26 1017 38 10000 3.1 90 18:18 26.08.2019
3017 Clear 28 1016 21 10000 4.1 360 17:43 26.08.2019
3018 Rain 28 1016 21 10000 4.1 360 17:19 26.08.2019
3019 Rain 28 1016 21 10000 4.1 360 17:19 26.08.2019
3020 Rain 29 1015 21 10000 4.1 30 16:57 26.08.2019
3021 Rain 29 1015 21 10000 4.1 30 16:39 26.08.2019
3022 Clouds 31 1015 21 10000 4.1 30 16:18 26.08.2019
3023 Clouds 31 1015 18 10000 5.7 360 15:44 26.08.2019
3024 Clouds 31 1015 18 10000 5.7 360 15:22 26.08.2019
3025 Clouds 31 1016 21 10000 7.7 20 14:58 26.08.2019
3026 Clouds 31 1016 21 10000 7.7 20 14:39 26.08.2019
3027 Clouds 31 1016 21 10000 7.7 20 14:21 26.08.2019
3028 Clouds 31 1015 19 10000 7.2 360 13:43 26.08.2019
3029 Clouds 31 1015 19 10000 7.2 360 13:23 26.08.2019
3030 Clouds 30 1016 25 10000 2.6 360 12:57 26.08.2019
3031 Clouds 30 1016 25 10000 2.6 360 12:39 26.08.2019
3032 Clouds 30 1016 25 10000 2.6 360 12:20 26.08.2019
3033 Clouds 30 1017 28 10000 2.1 360 11:38 26.08.2019
3034 Clouds 30 1017 28 10000 2.1 360 11:20 26.08.2019
3035 Clouds 30 1017 28 10000 2.1 220 10:57 26.08.2019
3036 Clouds 30 1017 28 10000 2.1 220 10:39 26.08.2019
3037 Clouds 30 1017 28 10000 2.1 220 10:19 26.08.2019
3038 Clouds 30 1017 28 10000 2.1 220 09:42 26.08.2019
3039 Clouds 29 1018 34 10000 2.1 70 09:23 26.08.2019
3040 Clouds 29 1018 34 10000 2.1 70 08:56 26.08.2019
3041 Clouds 28 1018 39 10000 1.5 0 08:38 26.08.2019
3042 Clouds 28 1018 39 10000 1.5 0 08:38 26.08.2019
3043 Clouds 27 1018 39 10000 1.5 0 08:19 26.08.2019
3044 Clear 26 1019 44 10000 1.5 0 07:42 26.08.2019
3045 Clear 25 1019 44 10000 1.5 0 07:24 26.08.2019
3046 Clear 25 1019 44 10000 1.5 0 06:57 26.08.2019
3047 Clear 25 1018 50 10000 1 0 06:38 26.08.2019
3048 Haze 23 1018 50 10000 1 0 06:18 26.08.2019
3049 Haze 20 1018 72 10000 1.5 320 04:36 26.08.2019
3050 Haze 18 1018 72 10000 1.5 320 03:48 26.08.2019
3051 Haze 18 1017 68 10000 1 0 02:31 26.08.2019
3052 Haze 19 1017 64 10000 1 280 01:23 26.08.2019
3053 Haze 18 1016 68 10000 1.5 300 00:43 26.08.2019
3054 Haze 18 1016 68 10000 1.5 300 00:24 26.08.2019
3055 Clear 21 1016 60 10000 0.5 0 23:44 25.08.2019
3056 Clear 21 1016 60 10000 0.5 0 23:44 25.08.2019
3057 Clear 20 1016 60 10000 0.5 0 23:20 25.08.2019
3058 Clear 20 1016 64 10000 2.1 120 22:58 25.08.2019
3059 Clear 20 1016 64 10000 2.1 120 22:39 25.08.2019
3060 Clear 20 1016 64 10000 2.1 120 22:20 25.08.2019
3061 Clear 21 1016 64 10000 2.1 120 21:58 25.08.2019
3062 Clear 21 1016 64 10000 2.1 120 21:58 25.08.2019
3063 Clear 21 1016 64 10000 1.5 110 21:39 25.08.2019
3064 Clear 22 1016 64 10000 1.5 110 21:18 25.08.2019
3065 Clear 23 1016 53 10000 1 190 20:41 25.08.2019
3066 Clear 23 1016 53 10000 1 190 20:20 25.08.2019
3067 Clear 24 1016 53 10000 1 190 19:59 25.08.2019
3068 Clouds 25 1012 38 10000 2.6 90 19:39 25.08.2019
3069 Clouds 25 1012 38 10000 2.6 90 19:20 25.08.2019
3070 Clouds 28 1012 32 10000 3.6 80 18:58 25.08.2019
3071 Clear 26 1016 49 10000 2.6 110 18:39 25.08.2019
3072 Clear 26 1016 49 10000 2.6 110 18:21 25.08.2019
3073 Clear 26 1016 49 10000 2.6 110 17:46 25.08.2019
3074 Clouds 26 1015 50 10000 1.5 80 17:25 25.08.2019
3075 Clouds 27 1015 50 10000 1.5 80 16:59 25.08.2019
3076 Clouds 28 1015 39 10000 5.7 110 16:37 25.08.2019
3077 Clouds 29 1015 39 10000 5.7 110 16:18 25.08.2019
3078 Clouds 29 1014 32 10000 2.6 130 15:43 25.08.2019
3079 Clouds 29 1014 32 10000 2.6 130 15:25 25.08.2019
3080 Clouds 30 1014 23 10000 3.1 60 14:54 25.08.2019
3081 Clouds 30 1014 23 10000 3.1 60 14:36 25.08.2019
3082 Clouds 30 1014 23 10000 3.1 60 14:18 25.08.2019
3083 Clouds 31 1014 23 10000 3.1 80 13:42 25.08.2019
3084 Clouds 31 1014 23 10000 3.1 80 13:20 25.08.2019
3085 Clouds 30 1015 23 10000 6.7 300 12:48 25.08.2019
3086 Clouds 30 1015 23 10000 6.7 300 12:26 25.08.2019
3087 Clouds 30 1016 26 10000 6.7 320 11:59 25.08.2019
3088 Clouds 30 1016 26 10000 6.7 320 11:40 25.08.2019
3089 Clouds 30 1016 26 10000 6.7 320 11:21 25.08.2019
3090 Clouds 30 1016 34 10000 5.1 320 10:58 25.08.2019
3091 Clouds 30 1016 34 10000 5.1 320 10:39 25.08.2019
3092 Clouds 29 1016 34 10000 5.1 320 10:20 25.08.2019
3093 Clouds 29 1017 35 10000 2.6 0 09:44 25.08.2019
3094 Clouds 29 1017 35 10000 2.6 0 09:25 25.08.2019
3095 Clouds 28 1018 42 10000 1.5 0 08:56 25.08.2019
3096 Clouds 28 1018 42 10000 1.5 0 08:38 25.08.2019
3097 Clouds 28 1018 42 10000 1.5 0 08:20 25.08.2019
3098 Clouds 27 1018 47 10000 3.6 70 07:35 25.08.2019
3099 Clouds 25 1018 50 8000 2.1 0 06:46 25.08.2019
3100 Clouds 25 1018 50 8000 2.1 0 06:46 25.08.2019
3101 Thunderstorm 25 1017 50 8000 1 0 05:43 25.08.2019
3102 Haze 22 1017 56 8000 1 350 04:32 25.08.2019
3103 Clear 21 1016 60 8000 1 340 03:31 25.08.2019
3104 Clear 21 1016 52 10000 1 0 02:39 25.08.2019
3105 Clear 21 1016 49 10000 0.57 20.334 01:20 25.08.2019
3106 Clear 21 1016 49 10000 1.5 90 00:38 25.08.2019
3107 Clear 23 1016 49 10000 1.5 90 00:20 25.08.2019
3108 Clear 23 1016 49 10000 1.5 90 23:47 24.08.2019
3109 Clear 23 1016 56 10000 1 120 23:22 24.08.2019
3110 Clear 23 1016 56 10000 1 120 22:55 24.08.2019
3111 Clear 23 1016 60 10000 2.1 70 22:37 24.08.2019
3112 Clear 23 1016 60 10000 2.1 70 22:18 24.08.2019
3113 Clouds 24 1012 33 10000 3.1 320 21:55 24.08.2019
3114 Clouds 24 1012 33 10000 3.1 320 21:36 24.08.2019
3115 Clear 25 1016 53 10000 1.5 80 21:18 24.08.2019
3116 Clear 25 1016 53 10000 1.5 80 20:41 24.08.2019
3117 Clear 25 1016 29 10000 1.5 0 20:20 24.08.2019
3118 Clouds 26 1011 22 10000 3.1 40 19:59 24.08.2019
3119 Clouds 26 1011 22 10000 3.1 40 19:40 24.08.2019
3120 Clouds 26 1011 22 10000 3.1 40 19:22 24.08.2019
3121 Clouds 27 1015 39 10000 2.6 40 18:57 24.08.2019
3122 Clouds 27 1015 39 10000 2.6 40 18:37 24.08.2019
3123 Clouds 27 1015 39 10000 2.6 40 18:19 24.08.2019
3124 Clouds 27 1015 39 10000 2.6 40 17:42 24.08.2019
3125 Clouds 28 1014 24 10000 4.6 20 17:23 24.08.2019
3126 Clouds 29 1014 21 10000 4.6 10 16:42 24.08.2019
3127 Clouds 30 1014 21 10000 4.6 10 16:19 24.08.2019
3128 Clouds 30 1014 20 10000 5.1 10 15:55 24.08.2019
3129 Clouds 30 1014 20 10000 5.1 10 15:37 24.08.2019
3130 Clouds 32 1014 20 10000 5.1 10 15:19 24.08.2019
3131 Clouds 32 1013 19 10000 6.2 360 14:42 24.08.2019
3132 Clouds 32 1013 19 10000 6.2 360 14:21 24.08.2019
3133 Clouds 31 1014 19 10000 2.1 40 13:56 24.08.2019
3134 Clouds 31 1014 19 10000 2.1 40 13:37 24.08.2019
3135 Clouds 31 1014 19 10000 2.1 40 13:18 24.08.2019
3136 Clouds 32 1014 18 10000 4.1 10 12:42 24.08.2019
3137 Clouds 31 1014 18 10000 4.1 10 12:24 24.08.2019
3138 Clouds 31 1015 22 10000 4.1 80 11:56 24.08.2019
3139 Clouds 31 1015 22 10000 4.1 80 11:38 24.08.2019
3140 Clouds 32 1015 22 10000 4.1 80 11:18 24.08.2019
3141 Clouds 31 1016 25 10000 2.6 0 10:43 24.08.2019
3142 Clouds 31 1016 25 10000 2.6 0 10:22 24.08.2019
3143 Clouds 30 1017 26 10000 2.1 0 09:44 24.08.2019
3144 Clouds 30 1017 26 10000 2.1 0 09:20 24.08.2019
3145 Clear 29 1018 30 10000 2.1 0 08:56 24.08.2019
3146 Clear 29 1018 30 10000 2.1 0 08:36 24.08.2019
3147 Clear 28 1018 30 10000 2.1 0 08:18 24.08.2019
3148 Clear 27 1018 31 10000 1 0 07:41 24.08.2019
3149 Clear 27 1018 31 10000 1 0 07:22 24.08.2019
3150 Clear 26 1018 29 9000 1.5 0 06:24 24.08.2019
3151 Haze 22 1017 46 8000 0.65 84.749 05:40 24.08.2019
3152 Clear 18 1016 67 9000 2.1 130 03:54 24.08.2019
3153 Clear 18 1016 67 9000 2.1 130 03:34 24.08.2019
3154 Clear 18 1016 63 8000 0.2 271.985 02:24 24.08.2019
3155 Clouds 20 1016 52 8000 0.5 0 01:30 24.08.2019
3156 Clear 20 1016 63 10000 2.1 110 00:49 24.08.2019
3157 Clear 23 1016 63 10000 2.1 110 00:24 24.08.2019
3158 Clear 24 1016 40 10000 2.6 300 23:49 23.08.2019
3159 Clear 24 1016 40 10000 2.6 300 23:24 23.08.2019
3160 Clear 25 1016 40 10000 2.6 300 22:59 23.08.2019
3161 Clouds 25 1016 30 10000 2.1 320 22:41 23.08.2019
3162 Clouds 25 1016 30 10000 2.1 320 22:20 23.08.2019
3163 Clouds 26 1016 25 10000 3.1 20 21:38 23.08.2019
3164 Clouds 26 1016 25 10000 3.1 20 21:19 23.08.2019
3165 Clouds 26 1016 33 10000 1.5 0 20:53 23.08.2019
3166 Clouds 26 1016 33 10000 1.5 0 20:35 23.08.2019
3167 Clouds 27 1017 36 10000 2.1 350 19:58 23.08.2019
3168 Clouds 27 1017 36 10000 2.1 350 19:40 23.08.2019
3169 Clouds 26 1017 36 10000 2.1 350 19:18 23.08.2019
3170 Clouds 26 1017 36 10000 2.1 350 19:18 23.08.2019
3171 Clouds 26 1017 47 10000 2.6 0 18:42 23.08.2019
3172 Clouds 26 1017 47 10000 2.6 0 18:24 23.08.2019
3173 Clouds 27 1016 57 10000 2.6 50 17:46 23.08.2019
3174 Clouds 27 1016 57 10000 2.6 50 17:28 23.08.2019
3175 Clouds 27 1016 57 10000 2.6 50 16:59 23.08.2019
3176 Clouds 27 1015 47 10000 3.1 60 16:40 23.08.2019
3177 Clouds 27 1015 47 10000 3.1 60 16:22 23.08.2019
3178 Clouds 27 1015 41 10000 3.1 80 15:41 23.08.2019
3179 Clouds 28 1015 41 10000 3.1 80 15:22 23.08.2019
3180 Clouds 28 1015 39 10000 2.1 80 14:58 23.08.2019
3181 Clouds 28 1015 39 10000 2.1 80 14:40 23.08.2019
3182 Clouds 28 1015 39 10000 2.1 80 14:20 23.08.2019
3183 Thunderstorm 26 1010 24 10000 3.6 220 13:56 23.08.2019
3184 Thunderstorm 27 1015 64 10000 4.1 90 13:38 23.08.2019
3185 Thunderstorm 28 1015 64 10000 4.1 90 13:19 23.08.2019
3186 Thunderstorm 26 1015 72 10000 7.2 90 12:44 23.08.2019
3187 Thunderstorm 25 1014 93 10000 10.8 130 12:25 23.08.2019
3188 Thunderstorm 29 1015 54 7000 6.2 60 11:59 23.08.2019
3189 Clouds 31 1015 35 10000 5.1 110 11:41 23.08.2019
3190 Clouds 31 1015 35 10000 5.1 110 11:41 23.08.2019
3191 Clouds 31 1015 35 10000 5.1 110 11:20 23.08.2019
3192 Clouds 32 1016 29 10000 1.5 0 10:58 23.08.2019
3193 Clouds 32 1016 29 10000 1.5 0 10:58 23.08.2019
3194 Clouds 32 1016 29 10000 1.5 0 10:40 23.08.2019
3195 Clouds 32 1016 29 10000 1.5 0 10:21 23.08.2019
3196 Clouds 30 1017 32 10000 2.6 0 09:45 23.08.2019
3197 Clouds 30 1017 32 10000 2.6 0 09:45 23.08.2019
3198 Clouds 30 1017 32 10000 2.6 0 09:26 23.08.2019
3199 Clouds 30 1017 32 10000 2.6 0 08:58 23.08.2019
3200 Clouds 30 1017 32 10000 2.6 0 08:38 23.08.2019
3201 Clouds 28 1017 32 10000 2.6 0 08:18 23.08.2019
3202 Clouds 28 1018 42 10000 2.6 0 07:41 23.08.2019
3203 Clouds 28 1018 42 10000 2.6 0 07:23 23.08.2019
3204 Haze 26 1018 47 9000 2.1 0 06:44 23.08.2019
3205 Haze 24 1018 47 9000 2.1 0 06:23 23.08.2019
3206 Haze 23 1018 50 7000 1.5 320 05:46 23.08.2019
3207 Haze 23 1018 50 7000 1.5 320 05:27 23.08.2019
3208 Haze 18 1017 40 7000 1.2 30.088 04:19 23.08.2019
3209 Clear 18 1016 48 10000 1.5 140 02:41 23.08.2019
3210 Clear 18 1016 48 10000 1.5 140 02:21 23.08.2019
3211 Clear 19 1016 45 10000 1 0 01:37 23.08.2019
3212 Clear 19 1016 46 10000 0.5 0 00:44 23.08.2019
3213 Clear 20 1016 46 10000 0.5 0 00:18 23.08.2019
3214 Clear 20 1016 46 10000 0.5 0 23:43 22.08.2019
3215 Clear 20 1016 49 10000 1 0 23:23 22.08.2019
3216 Clear 23 1016 49 10000 2.1 60 22:54 22.08.2019
3217 Clear 23 1016 49 10000 2.1 60 22:36 22.08.2019
3218 Clear 23 1016 49 10000 2.1 60 22:36 22.08.2019
3219 Clear 23 1016 49 10000 2.1 60 22:18 22.08.2019
3220 Clear 23 1016 56 10000 2.6 70 21:41 22.08.2019
3221 Clear 24 1016 56 10000 2.6 70 21:23 22.08.2019
3222 Clear 24 1016 53 10000 1.5 70 20:59 22.08.2019
3223 Clear 24 1016 53 10000 1.5 70 20:41 22.08.2019
3224 Clear 24 1016 53 10000 1.5 70 20:20 22.08.2019
3225 Clear 26 1015 47 10000 3.1 90 19:58 22.08.2019
3226 Clear 26 1015 47 10000 3.1 90 19:39 22.08.2019
3227 Clear 27 1015 47 10000 3.1 90 19:21 22.08.2019
3228 Clear 27 1015 41 10000 3.1 90 18:58 22.08.2019
3229 Clear 28 1011 15 10000 3.6 90 18:40 22.08.2019
3230 Clear 28 1014 29 10000 2.6 100 18:20 22.08.2019
3231 Clear 28 1014 29 10000 2.6 100 18:20 22.08.2019
3232 Clear 28 1014 29 10000 2.6 100 17:57 22.08.2019
3233 Clear 28 1014 29 10000 2.6 100 17:38 22.08.2019
3234 Clear 28 1014 29 10000 2.6 100 17:19 22.08.2019
3235 Clouds 30 1013 11 10000 4.1 350 16:56 22.08.2019
3236 Clouds 30 1013 11 10000 4.1 350 16:37 22.08.2019
3237 Clouds 29 1013 11 10000 4.1 350 16:19 22.08.2019
3238 Clouds 29 1013 11 10000 4.1 350 16:19 22.08.2019
3239 Clouds 30 1013 9 10000 5.1 10 15:42 22.08.2019
3240 Clouds 30 1013 9 10000 5.1 10 15:42 22.08.2019
3241 Clouds 30 1013 9 10000 5.1 10 15:42 22.08.2019
3242 Clouds 31 1013 9 10000 5.1 10 15:23 22.08.2019
3243 Clouds 31 1013 9 10000 5.1 10 14:58 22.08.2019
3244 Clouds 31 1013 9 10000 5.1 10 14:58 22.08.2019
3245 Clouds 32 1013 11 10000 5.1 20 14:40 22.08.2019
3246 Clouds 33 1013 11 10000 5.1 20 14:21 22.08.2019
3247 Clouds 32 1013 11 10000 5.1 20 14:21 22.08.2019
3248 Clouds 33 1014 11 10000 4.1 50 13:57 22.08.2019
3249 Clouds 33 1014 11 10000 4.1 50 13:39 22.08.2019
3250 Clouds 33 1014 11 10000 4.1 50 13:19 22.08.2019
3251 Clouds 32 1015 12 10000 2.6 0 12:42 22.08.2019
3252 Clouds 32 1015 12 10000 2.6 0 12:24 22.08.2019
3253 Clouds 32 1015 12 10000 2.6 0 11:58 22.08.2019
3254 Clouds 32 1015 15 10000 1 0 11:40 22.08.2019
3255 Clouds 32 1015 15 10000 1 0 11:20 22.08.2019
3256 Clouds 31 1015 15 10000 1 0 10:58 22.08.2019
3257 Clouds 31 1016 16 10000 1 0 10:38 22.08.2019
3258 Clouds 31 1016 16 10000 1 0 10:20 22.08.2019
3259 Clouds 30 1017 18 10000 3.6 60 09:56 22.08.2019
3260 Clouds 30 1017 18 10000 3.6 60 09:37 22.08.2019
3261 Clouds 30 1017 18 10000 3.6 60 09:19 22.08.2019
3262 Clear 29 1017 23 10000 2.1 0 08:41 22.08.2019
3263 Clear 27 1017 23 10000 2.1 0 08:22 22.08.2019
3264 Clear 27 1017 23 10000 2.1 0 07:58 22.08.2019
3265 Clear 27 1018 22 10000 1 0 07:38 22.08.2019
3266 Clear 26 1018 22 10000 1 0 07:19 22.08.2019
3267 Clear 25 1018 17 10000 1 0 06:46 22.08.2019
3268 Clear 22 1018 17 10000 1 0 06:21 22.08.2019
3269 Clear 22 1017 25 8000 1 0 05:29 22.08.2019
3270 Clear 15 1016 38 10000 0.42 99.085 03:26 22.08.2019
3271 Clear 16 1016 36 10000 1.5 140 02:36 22.08.2019
3272 Clear 17 1016 31 10000 1.5 120 01:36 22.08.2019
3273 Clear 18 1016 31 10000 1.5 120 00:57 22.08.2019
3274 Clear 18 1016 31 10000 1.5 120 00:38 22.08.2019
3275 Clear 17 1012 42 10000 1.5 240 00:20 22.08.2019
3276 Clear 19 1016 26 10000 2.1 190 23:41 21.08.2019
3277 Clear 19 1016 26 10000 2.1 190 23:23 21.08.2019
3278 Clear 20 1016 28 10000 1.5 50 22:58 21.08.2019
3279 Clear 20 1016 28 10000 1.5 50 22:39 21.08.2019
3280 Clear 23 1016 28 10000 1.5 50 22:20 21.08.2019
3281 Clear 24 1016 17 10000 5.1 350 21:56 21.08.2019
3282 Clear 24 1016 17 10000 5.1 350 21:37 21.08.2019
3283 Clear 24 1016 17 10000 5.1 350 21:19 21.08.2019
3284 Clear 24 1016 19 10000 4.1 360 20:55 21.08.2019
3285 Clear 24 1016 19 10000 4.1 360 20:55 21.08.2019
3286 Clear 24 1016 19 10000 4.1 360 20:37 21.08.2019
3287 Clear 25 1016 19 10000 4.1 360 20:19 21.08.2019
3288 Clear 25 1016 27 10000 2.1 50 19:42 21.08.2019
3289 Clear 25 1016 27 10000 2.1 50 19:23 21.08.2019
3290 Clear 25 1012 15 10000 4.6 20 18:56 21.08.2019
3291 Clear 25 1012 15 10000 4.6 20 18:56 21.08.2019
3292 Clear 26 1015 25 10000 3.1 80 18:38 21.08.2019
3293 Clear 26 1015 25 10000 3.1 80 18:20 21.08.2019
3294 Clear 26 1015 27 10000 2.1 80 17:44 21.08.2019
3295 Clear 26 1015 27 10000 2.1 80 17:22 21.08.2019
3296 Clouds 28 1014 12 10000 3.6 50 16:57 21.08.2019
3297 Clouds 28 1014 12 10000 3.6 50 16:39 21.08.2019
3298 Clouds 30 1014 12 10000 3.6 50 16:18 21.08.2019
3299 Clouds 31 1014 9 10000 3.1 40 15:56 21.08.2019
3300 Clouds 31 1014 9 10000 3.1 40 15:38 21.08.2019
3301 Clouds 31 1014 9 10000 3.1 40 15:18 21.08.2019
3302 Clouds 32 1014 7 10000 3.6 210 14:54 21.08.2019
3303 Clouds 32 1014 7 10000 3.6 210 14:36 21.08.2019
3304 Clouds 32 1014 7 10000 3.6 210 14:18 21.08.2019
3305 Clouds 32 1014 7 10000 3.1 0 13:43 21.08.2019
3306 Clouds 33 1014 7 10000 3.1 0 13:20 21.08.2019
3307 Clouds 32 1015 6 10000 3.6 80 12:57 21.08.2019
3308 Clouds 32 1015 6 10000 3.6 80 12:39 21.08.2019
3309 Clouds 32 1015 6 10000 3.6 80 12:19 21.08.2019
3310 Clouds 31 1016 8 10000 3.6 330 11:44 21.08.2019
3311 Clouds 31 1016 8 10000 3.6 330 11:24 21.08.2019
3312 Clear 31 1016 8 10000 4.1 30 10:59 21.08.2019
3313 Clear 31 1016 8 10000 4.1 30 10:40 21.08.2019
3314 Clear 31 1016 8 10000 4.1 30 10:22 21.08.2019
3315 Clear 30 1017 9 10000 3.6 50 09:58 21.08.2019
3316 Clear 30 1017 9 10000 3.6 50 09:40 21.08.2019
3317 Clear 30 1017 9 10000 3.6 50 09:21 21.08.2019
3318 Clear 28 1017 10 10000 4.6 70 08:50 21.08.2019
3319 Clear 28 1017 10 10000 4.6 70 08:26 21.08.2019
3320 Clear 27 1017 12 10000 2.1 0 07:56 21.08.2019
3321 Clear 27 1017 12 10000 2.1 0 07:37 21.08.2019
3322 Clear 26 1017 12 10000 2.1 0 07:18 21.08.2019
3323 Clear 23 1017 18 8000 1.5 190 06:44 21.08.2019
3324 Clear 21 1017 18 8000 1.5 190 06:19 21.08.2019
3325 Clear 20 1017 17 10000 1.5 150 05:29 21.08.2019
3326 Clear 16 1016 17 10000 0.91 80.094 04:51 21.08.2019
3327 Clear 16 1016 26 10000 1.5 160 02:44 21.08.2019
3328 Clear 16 1016 31 10000 1.5 0 01:36 21.08.2019
3329 Clear 18 1016 23 10000 1 0 00:43 21.08.2019
3330 Clear 18 1016 23 10000 1 0 00:21 21.08.2019
3331 Clear 19 1016 20 10000 1 0 23:45 20.08.2019
3332 Clear 19 1016 20 10000 1 0 23:45 20.08.2019
3333 Clear 23 1016 20 10000 1 0 23:21 20.08.2019
3334 Clear 24 1016 12 10000 3.1 0 22:59 20.08.2019
3335 Clear 24 1016 12 10000 3.1 0 22:41 20.08.2019
3336 Clear 24 1016 12 10000 3.1 0 22:22 20.08.2019
3337 Clear 24 1017 15 10000 1 0 21:58 20.08.2019
3338 Clear 24 1017 15 10000 1 0 21:39 20.08.2019
3339 Clear 24 1017 15 10000 1 0 21:20 20.08.2019
3340 Clear 25 1017 11 10000 4.1 80 20:59 20.08.2019
3341 Clear 25 1017 11 10000 4.1 80 20:59 20.08.2019
3342 Clear 25 1017 11 10000 4.1 80 20:41 20.08.2019
3343 Clear 25 1017 11 10000 4.1 80 20:41 20.08.2019
3344 Clear 26 1017 11 10000 4.1 80 20:23 20.08.2019
3345 Clear 26 1017 10 10000 4.1 360 19:41 20.08.2019
3346 Clear 26 1017 10 10000 4.1 360 19:22 20.08.2019
3347 Clear 26 1017 9 10000 4.1 40 18:58 20.08.2019
3348 Clear 25 1017 9 10000 4.1 40 18:40 20.08.2019
3349 Clear 26 1017 9 10000 4.1 40 18:19 20.08.2019
3350 Clear 27 1012 9 10000 10.8 350 17:57 20.08.2019
3351 Clear 27 1012 9 10000 10.8 350 17:39 20.08.2019
3352 Clear 28 1015 8 9000 5.1 20 17:20 20.08.2019
3353 Clear 28 1015 8 9000 5.1 20 17:20 20.08.2019
3354 Clear 28 1015 8 9000 5.1 20 16:46 20.08.2019
3355 Clear 28 1015 8 9000 5.1 20 16:26 20.08.2019
3356 Clouds 30 1015 11 10000 5.1 360 15:57 20.08.2019
3357 Clouds 30 1015 11 10000 5.1 360 15:38 20.08.2019
3358 Clouds 31 1015 11 10000 5.1 360 15:18 20.08.2019
3359 Clouds 31 1015 9 10000 4.6 20 14:43 20.08.2019
3360 Clouds 31 1015 9 10000 4.6 20 14:22 20.08.2019
3361 Clouds 31 1015 9 10000 4.6 20 14:22 20.08.2019
3362 Clouds 31 1016 7 10000 4.1 30 13:57 20.08.2019
3363 Clouds 31 1016 7 10000 4.1 30 13:57 20.08.2019
3364 Clouds 31 1016 7 10000 4.1 30 13:39 20.08.2019
3365 Clouds 31 1016 7 10000 4.1 30 13:20 20.08.2019
3366 Clouds 31 1017 8 0 3.1 150 12:51 20.08.2019
3367 Clouds 31 1017 8 0 3.1 150 12:31 20.08.2019
3368 Clear 31 1018 9 10000 2.6 220 11:59 20.08.2019
3369 Clear 31 1018 9 10000 2.6 220 11:40 20.08.2019
3370 Clear 30 1018 9 10000 2.6 220 11:21 20.08.2019
3371 Clear 29 1018 11 10000 3.1 180 10:57 20.08.2019
3372 Clear 29 1018 11 10000 3.1 180 10:38 20.08.2019
3373 Clear 29 1018 11 10000 3.1 180 10:20 20.08.2019
3374 Clear 29 1018 11 10000 3.1 180 09:54 20.08.2019
3375 Clear 29 1019 10 10000 2.1 0 09:36 20.08.2019
3376 Clear 28 1019 10 10000 2.1 0 09:18 20.08.2019
3377 Clear 28 1020 12 10000 2.6 240 08:41 20.08.2019
3378 Clear 26 1020 12 10000 2.6 240 08:21 20.08.2019
3379 Clear 25 1020 17 10000 2.1 0 07:57 20.08.2019
3380 Clear 25 1020 17 10000 2.1 0 07:38 20.08.2019
3381 Clear 25 1020 17 10000 2.1 0 07:18 20.08.2019
3382 Clear 23 1020 20 10000 1.5 0 06:41 20.08.2019
3383 Clear 22 1020 20 10000 1.5 0 06:19 20.08.2019
3384 Clear 22 1020 22 10000 1.5 0 05:40 20.08.2019
3385 Clear 17 1019 33 10000 0.5 0 04:21 20.08.2019
3386 Clear 18 1015 29 10000 0.71 49.967 02:47 20.08.2019
3387 Clear 17 1019 29 10000 1.5 0 01:45 20.08.2019
3388 Clear 19 1019 29 10000 1.5 0 01:19 20.08.2019
3389 Clear 20 1019 20 10000 4.1 340 00:43 20.08.2019
3390 Clear 21 1019 20 10000 4.1 340 00:21 20.08.2019
3391 Clear 20 1019 21 10000 3.1 320 23:42 19.08.2019
3392 Clear 21 1019 21 10000 3.1 320 23:18 19.08.2019
3393 Clear 23 1016 13 10000 3.6 30 22:57 19.08.2019
3394 Clear 23 1016 13 10000 3.6 30 22:39 19.08.2019
3395 Clear 22 1019 14 10000 5.1 10 22:19 19.08.2019
3396 Clear 22 1019 14 10000 5.1 10 22:19 19.08.2019
3397 Clear 23 1019 14 10000 5.1 10 21:56 19.08.2019
3398 Clear 23 1019 14 10000 5.1 10 21:38 19.08.2019
3399 Clear 22 1019 14 10000 5.1 10 21:19 19.08.2019
3400 Clear 22 1019 17 10000 1.5 0 20:40 19.08.2019
3401 Clear 23 1019 17 10000 1.5 0 20:21 19.08.2019
3402 Clear 23 1019 17 10000 1.5 0 19:59 19.08.2019
3403 Clear 24 1019 14 10000 6.2 40 19:40 19.08.2019
3404 Clear 24 1019 14 10000 6.2 40 19:19 19.08.2019
3405 Clear 25 1017 15 10000 6.7 30 18:58 19.08.2019
3406 Clear 25 1017 15 10000 6.7 30 18:39 19.08.2019
3407 Clear 25 1017 15 10000 6.7 30 18:21 19.08.2019
3408 Clouds 26 1016 14 10000 6.2 30 17:55 19.08.2019
3409 Clouds 26 1016 14 10000 6.2 30 17:36 19.08.2019
3410 Clouds 26 1016 14 10000 6.2 30 17:18 19.08.2019
3411 Clouds 27 1015 13 10000 6.7 10 16:38 19.08.2019
3412 Clouds 28 1015 13 10000 6.7 10 16:20 19.08.2019
3413 Clouds 29 1015 9 10000 7.7 350 15:56 19.08.2019
3414 Clouds 29 1015 9 10000 7.7 350 15:37 19.08.2019
3415 Clouds 30 1015 9 10000 7.7 350 15:19 19.08.2019
3416 Clouds 31 1015 9 10000 6.2 10 14:43 19.08.2019
3417 Clouds 31 1015 9 10000 6.2 10 14:23 19.08.2019
3418 Clouds 31 1015 12 10000 2.6 0 13:58 19.08.2019
3419 Clouds 31 1015 12 10000 2.6 0 13:38 19.08.2019
3420 Clouds 31 1015 12 10000 2.6 0 13:19 19.08.2019
3421 Clouds 30 1016 13 10000 2.6 0 12:57 19.08.2019
3422 Clouds 30 1016 13 10000 2.6 0 12:57 19.08.2019
3423 Clouds 30 1016 13 10000 2.6 0 12:39 19.08.2019
3424 Clouds 30 1016 13 10000 2.6 0 12:19 19.08.2019
3425 Clouds 31 1017 17 10000 1 0 11:39 19.08.2019
3426 Clouds 30 1017 17 10000 1 0 11:21 19.08.2019
3427 Clouds 30 1017 20 10000 3.1 0 10:58 19.08.2019
3428 Clouds 30 1017 20 10000 3.1 0 10:37 19.08.2019
3429 Clouds 29 1017 20 10000 3.1 0 10:18 19.08.2019
3430 Clouds 28 1018 27 10000 2.6 0 09:45 19.08.2019
3431 Clouds 28 1018 27 10000 2.6 0 09:24 19.08.2019
3432 Clouds 27 1018 27 10000 2.6 0 08:57 19.08.2019
3433 Clouds 27 1019 29 10000 2.1 0 08:39 19.08.2019
3434 Clouds 25 1019 29 10000 2.1 0 08:20 19.08.2019
3435 Clouds 25 1019 27 10000 1 0 07:48 19.08.2019
3436 Clouds 25 1019 27 10000 1 0 07:30 19.08.2019
3437 Clouds 24 1019 22 10000 1 0 06:48 19.08.2019
3438 Clouds 24 1019 22 10000 1 0 06:27 19.08.2019
3439 Clear 17 1018 27 10000 1 0 04:57 19.08.2019
3440 Clear 17 1018 27 10000 1 0 04:27 19.08.2019
3441 Clear 17 1018 27 10000 1 0 04:27 19.08.2019
3442 Clear 15 1018 29 10000 1.5 0 03:23 19.08.2019
3443 Clear 16 1018 25 10000 1.5 0 02:24 19.08.2019
3444 Clear 19 1017 25 10000 1.5 0 01:34 19.08.2019
3445 Clear 21 1017 16 10000 3.6 330 00:44 19.08.2019
3446 Clear 21 1017 16 10000 3.6 330 00:23 19.08.2019
3447 Clear 21 1018 24 10000 2.6 320 23:42 18.08.2019
3448 Clear 21 1018 24 10000 2.6 320 23:21 18.08.2019
3449 Clear 22 1018 24 10000 2.6 320 22:56 18.08.2019
3450 Clear 22 1018 24 10000 2.6 320 22:56 18.08.2019
3451 Clear 22 1018 32 10000 1.5 320 22:38 18.08.2019
3452 Clear 22 1018 32 10000 1.5 320 22:20 18.08.2019
3453 Clear 23 1017 11 10000 2.6 0 21:55 18.08.2019
3454 Clear 23 1017 11 10000 2.6 0 21:37 18.08.2019
3455 Clear 24 1017 11 10000 2.6 0 21:18 18.08.2019
3456 Clear 24 1017 11 10000 2.6 0 20:43 18.08.2019
3457 Clear 24 1017 11 10000 2.6 0 20:25 18.08.2019
3458 Clear 25 1016 12 10000 6.2 10 19:55 18.08.2019
3459 Clear 25 1016 12 10000 6.2 10 19:37 18.08.2019
3460 Clear 25 1016 12 10000 6.2 10 19:19 18.08.2019
3461 Clear 26 1016 12 10000 8.2 10 18:41 18.08.2019
3462 Clear 26 1016 12 10000 8.2 10 18:23 18.08.2019
3463 Clear 26 1015 11 9000 8.7 30 17:58 18.08.2019
3464 Clear 26 1015 11 9000 8.7 30 17:40 18.08.2019
3465 Clear 26 1015 11 9000 8.7 30 17:19 18.08.2019
3466 Dust 27 1014 11 7000 8.7 10 16:57 18.08.2019
3467 Dust 27 1014 11 7000 8.7 10 16:38 18.08.2019
3468 Dust 27 1014 11 7000 8.7 10 16:19 18.08.2019
3469 -273 0 0 0 0 0 15:55 18.08.2019
3470 Dust 28 1014 11 7000 8.7 10 15:55 18.08.2019
3471 Dust 29 1013 12 7000 8.2 10 15:37 18.08.2019
3472 Dust 30 1013 12 7000 8.2 10 15:19 18.08.2019
3473 Clouds 31 1013 13 10000 6.7 360 14:40 18.08.2019
3474 Clouds 31 1013 13 10000 6.7 360 14:21 18.08.2019
3475 Clouds 31 1013 12 10000 5.1 350 13:59 18.08.2019
3476 Clouds 31 1013 12 10000 5.1 350 13:59 18.08.2019
3477 Clouds 31 1013 13 10000 4.6 70 13:41 18.08.2019
3478 Clouds 31 1013 13 10000 4.6 70 13:22 18.08.2019
3479 Clouds 32 1013 12 10000 4.1 70 12:57 18.08.2019
3480 Clouds 32 1013 12 10000 4.1 70 12:38 18.08.2019
3481 Clouds 32 1013 12 10000 4.1 70 12:38 18.08.2019
3482 Clouds 32 1013 12 10000 4.1 70 12:20 18.08.2019
3483 Clouds 32 1013 12 10000 4.1 70 12:20 18.08.2019
3484 Clouds 31 1014 11 10000 3.6 80 11:43 18.08.2019
3485 Clouds 31 1014 11 10000 3.6 80 11:23 18.08.2019
3486 Clouds 31 1015 15 10000 1 0 10:57 18.08.2019
3487 Clouds 31 1015 15 10000 1 0 10:39 18.08.2019
3488 Clouds 29 1015 15 10000 1 0 10:19 18.08.2019
3489 Clouds 29 1015 24 10000 2.1 0 09:43 18.08.2019
3490 Clouds 28 1015 24 10000 2.1 0 09:20 18.08.2019
3491 Clouds 27 1015 27 10000 2.1 0 08:44 18.08.2019
3492 Clouds 27 1015 27 10000 2.1 0 08:44 18.08.2019
3493 Clouds 27 1015 27 10000 2.1 0 08:25 18.08.2019
3494 Clouds 26 1015 27 10000 2.1 0 07:57 18.08.2019
3495 Clear 25 1015 41 10000 2.1 0 07:30 18.08.2019
3496 Clear 24 1015 46 10000 1.5 0 06:33 18.08.2019
3497 Clear 21 1015 52 10000 1 0 05:42 18.08.2019
3498 Clear 16 1014 59 10000 1.5 0 03:51 18.08.2019
3499 Clear 16 1014 55 10000 1.5 0 02:52 18.08.2019
3500 Clear 16 1014 55 10000 1.5 0 02:34 18.08.2019
3501 Clear 17 1014 52 10000 1.5 0 01:57 18.08.2019
3502 Clear 17 1014 52 10000 1.5 0 01:26 18.08.2019
3503 Clear 18 1014 52 10000 1.5 170 00:42 18.08.2019
3504 Clear 18 1014 52 10000 1.5 170 00:20 18.08.2019
3505 Clear 18 1013 52 10000 1.5 0 23:58 17.08.2019
3506 Clear 18 1013 52 10000 1.5 0 23:38 17.08.2019
3507 Clear 18 1013 52 10000 1.5 0 23:38 17.08.2019
3508 Clear 19 1013 52 10000 1.5 0 23:19 17.08.2019
3509 Clear 19 1014 55 10000 1.5 0 22:57 17.08.2019
3510 Clear 19 1014 55 10000 1.5 0 22:39 17.08.2019
3511 Clear 22 1014 55 10000 1.5 0 22:20 17.08.2019
3512 Clear 23 1013 49 10000 1.5 210 21:44 17.08.2019
3513 Clear 23 1013 49 10000 1.5 210 21:26 17.08.2019
3514 Clear 23 1013 46 10000 2.1 160 20:59 17.08.2019
3515 Clear 23 1013 46 10000 2.1 160 20:38 17.08.2019
3516 Clear 24 1013 46 10000 2.1 160 20:19 17.08.2019
3517 Clear 24 1013 49 10000 2.1 180 19:43 17.08.2019
3518 Clear 24 1013 49 10000 2.1 180 19:24 17.08.2019
3519 Clear 25 1013 46 10000 3.1 170 18:59 17.08.2019
3520 Clear 25 1013 46 10000 3.1 170 18:39 17.08.2019
3521 Clear 26 1013 46 10000 3.1 170 18:18 17.08.2019
3522 Clear 26 1013 46 10000 3.1 170 18:18 17.08.2019
3523 Clear 26 1013 46 10000 3.1 170 18:18 17.08.2019
3524 Clear 26 1012 33 10000 2.1 10 17:43 17.08.2019
3525 Clear 26 1012 33 10000 2.1 10 17:22 17.08.2019
3526 Clear 28 1011 11 10000 4.1 360 16:59 17.08.2019
3527 Clear 28 1011 11 10000 4.1 360 16:40 17.08.2019
3528 Clear 30 1011 11 10000 4.1 360 16:22 17.08.2019
3529 Clouds 30 1011 9 10000 5.1 10 15:54 17.08.2019
3530 Clouds 30 1011 9 10000 5.1 10 15:36 17.08.2019
3531 Clouds 31 1011 9 10000 5.1 10 15:18 17.08.2019
3532 Clouds 31 1011 7 10000 3.6 60 14:40 17.08.2019
3533 Clouds 31 1011 7 10000 3.6 60 14:21 17.08.2019
3534 Clouds 31 1011 8 10000 5.1 80 13:45 17.08.2019
3535 Clouds 31 1011 8 10000 5.1 80 13:21 17.08.2019
3536 Clouds 31 1012 6 10000 3.1 50 12:45 17.08.2019
3537 Clouds 31 1012 6 10000 3.1 50 12:45 17.08.2019
3538 Clouds 31 1012 6 10000 3.1 50 12:21 17.08.2019
3539 Clouds 30 1013 9 10000 4.1 60 11:59 17.08.2019
3540 Clouds 30 1013 9 10000 4.1 60 11:39 17.08.2019
3541 Clouds 30 1013 9 10000 4.1 60 11:20 17.08.2019
3542 Clear 30 1013 13 10000 3.1 100 10:42 17.08.2019
3543 Clear 30 1013 13 10000 3.1 100 10:42 17.08.2019
3544 Clear 30 1013 13 10000 3.1 100 10:22 17.08.2019
3545 Clear 29 1014 18 10000 2.1 0 09:59 17.08.2019
3546 Clear 29 1014 18 10000 2.1 0 09:40 17.08.2019
3547 Clear 29 1014 18 10000 2.1 0 09:21 17.08.2019
3548 Clear 27 1014 19 10000 1.5 0 08:51 17.08.2019
3549 Clear 27 1014 19 10000 1.5 0 08:22 17.08.2019
3550 Clear 25 1014 29 10000 1.5 0 07:44 17.08.2019
3551 Clear 23 1014 29 10000 1.5 0 07:20 17.08.2019
3552 Clear 23 1014 35 10000 1 0 06:34 17.08.2019
3553 Clear 16 1014 63 10000 1.5 150 04:48 17.08.2019
3554 Clear 16 1014 63 10000 1.5 150 04:21 17.08.2019
3555 Clear 15 1013 63 10000 0.35 58.756 02:43 17.08.2019
3556 Clear 16 1013 67 10000 1.5 110 01:40 17.08.2019
3557 Clear 17 1013 67 10000 1.5 110 01:20 17.08.2019
3558 Clear 17 1013 59 10000 1 0 00:46 17.08.2019
3559 Clear 17 1013 59 10000 1 0 00:24 17.08.2019
3560 Clouds 18 1013 67 10000 1 0 23:44 16.08.2019
3561 Clouds 18 1013 67 10000 1 0 23:24 16.08.2019
3562 Clouds 18 1013 52 10000 2.1 340 22:43 16.08.2019
3563 Clouds 21 1013 52 10000 2.1 340 22:20 16.08.2019
3564 Clouds 21 1014 56 10000 1.5 250 21:58 16.08.2019
3565 Clouds 21 1014 56 10000 1.5 250 21:38 16.08.2019
3566 Clouds 21 1014 56 10000 1.5 250 21:18 16.08.2019
3567 Thunderstorm 22 1014 40 10000 1.5 0 20:43 16.08.2019
3568 Thunderstorm 22 1014 40 10000 1.5 0 20:43 16.08.2019
3569 Thunderstorm 22 1014 40 10000 1.5 0 20:20 16.08.2019
3570 Thunderstorm 23 1013 37 10000 3.1 110 19:58 16.08.2019
3571 Thunderstorm 23 1013 33 10000 6.7 360 19:39 16.08.2019
3572 Thunderstorm 23 1013 33 10000 6.7 360 19:19 16.08.2019
3573 Clouds 23 1012 35 10000 3.6 20 18:42 16.08.2019
3574 Clouds 23 1012 35 10000 3.6 20 18:42 16.08.2019
3575 Clouds 22 1012 35 10000 3.6 20 18:23 16.08.2019
3576 Clouds 22 1012 35 10000 7.2 40 17:48 16.08.2019
3577 Thunderstorm 22 1011 43 10000 7.2 20 17:28 16.08.2019
3578 Thunderstorm 22 1011 46 9000 8.2 350 16:59 16.08.2019
3579 Thunderstorm 23 1007 33 10000 6.2 350 16:40 16.08.2019
3580 Thunderstorm 24 1011 49 9000 9.3 360 16:19 16.08.2019
3581 Thunderstorm 25 1009 41 9000 12.3 350 15:56 16.08.2019
3582 Thunderstorm 25 1009 41 9000 12.3 350 15:56 16.08.2019
3583 Thunderstorm 25 1008 39 9000 7.2 30 15:37 16.08.2019
3584 Thunderstorm 26 1008 39 9000 7.2 30 15:19 16.08.2019
3585 Thunderstorm 27 1008 42 9000 5.1 110 14:56 16.08.2019
3586 Thunderstorm 27 1008 42 9000 5.1 110 14:37 16.08.2019
3587 Rain 27 1008 42 9000 5.1 110 14:18 16.08.2019
3588 Thunderstorm 30 1005 51 10000 5.7 40 13:39 16.08.2019
3589 Thunderstorm 30 1008 38 10000 5.1 100 13:20 16.08.2019
3590 Rain 31 1009 40 10000 5.1 50 12:40 16.08.2019
3591 Rain 31 1009 40 10000 5.1 50 12:21 16.08.2019
3592 Thunderstorm 30 1011 42 10000 5.1 50 11:55 16.08.2019
3593 Thunderstorm 30 1011 42 10000 5.1 50 11:37 16.08.2019
3594 Thunderstorm 30 1011 42 10000 5.1 50 11:37 16.08.2019
3595 Clouds 30 1011 42 10000 5.1 50 11:18 16.08.2019
3596 Clouds 30 1012 42 10000 6.7 50 10:42 16.08.2019
3597 Clouds 31 1012 42 10000 6.7 50 10:20 16.08.2019
3598 Clouds 32 1012 38 10000 4.1 140 09:39 16.08.2019
3599 Clouds 30 1012 38 10000 4.1 140 09:19 16.08.2019
3600 Clouds 30 1013 42 9000 3.6 160 08:58 16.08.2019
3601 Clouds 30 1009 40 10000 2.21 83.803 08:39 16.08.2019
3602 Clouds 29 1014 54 9000 2.6 190 08:19 16.08.2019
3603 Clouds 29 1014 54 9000 2.6 190 07:45 16.08.2019
3604 Clouds 29 1014 54 9000 2.6 190 07:26 16.08.2019
3605 Clouds 26 1014 57 9000 2.1 190 06:53 16.08.2019
3606 Rain 26 1014 57 9000 2.1 190 06:18 16.08.2019
3607 Haze 26 1014 53 8000 1.5 0 05:33 16.08.2019
3608 Clouds 22 1014 64 10000 1.5 0 03:20 16.08.2019
3609 Clear 21 1014 52 10000 1 0 01:52 16.08.2019
3610 Clear 21 1014 52 10000 1 0 01:25 16.08.2019
3611 Clear 22 1014 52 10000 1 0 00:50 16.08.2019
3612 Clear 23 1014 49 10000 0.5 0 00:23 16.08.2019
3613 Clear 23 1014 50 10000 1.5 190 23:57 15.08.2019
3614 Clear 23 1014 50 10000 1.5 190 23:38 15.08.2019
3615 Clear 24 1014 50 10000 1.5 190 23:18 15.08.2019
3616 Clear 24 1014 40 10000 2.1 40 22:41 15.08.2019
3617 Clear 24 1014 40 10000 2.1 40 22:22 15.08.2019
3618 Clear 24 1014 40 10000 2.1 40 21:58 15.08.2019
3619 Clouds 25 1014 64 10000 1 0 21:39 15.08.2019
3620 Clouds 25 1014 64 10000 1 0 21:19 15.08.2019
3621 Clouds 25 1014 41 10000 1.5 270 20:57 15.08.2019
3622 Clouds 25 1014 41 10000 1.5 270 20:38 15.08.2019
3623 Clouds 27 1014 41 10000 1.5 270 20:20 15.08.2019
3624 Thunderstorm 27 1014 50 10000 2.1 80 19:40 15.08.2019
3625 Thunderstorm 27 1014 50 10000 2.1 80 19:21 15.08.2019
3626 Clouds 28 1013 47 10000 3.1 130 18:55 15.08.2019
3627 Clouds 28 1013 47 10000 3.1 130 18:37 15.08.2019
3628 Clouds 28 1013 47 10000 3.1 130 18:18 15.08.2019
3629 Clouds 28 1012 17 10000 3.6 0 17:39 15.08.2019
3630 Clouds 30 1012 17 10000 3.6 0 17:20 15.08.2019
3631 Clouds 30 1011 16 10000 5.1 30 16:59 15.08.2019
3632 Clouds 30 1011 16 10000 5.1 30 16:41 15.08.2019
3633 Clouds 32 1011 16 10000 5.1 30 16:23 15.08.2019
3634 Clouds 32 1011 18 10000 4.1 340 15:39 15.08.2019
3635 Clouds 32 1011 18 10000 4.1 340 15:21 15.08.2019
3636 Clouds 34 1011 18 10000 4.1 340 14:58 15.08.2019
3637 Clouds 34 1012 21 10000 4.6 360 14:40 15.08.2019
3638 Clouds 34 1012 21 10000 4.6 360 14:21 15.08.2019
3639 Clouds 34 1012 22 10000 3.1 0 13:57 15.08.2019
3640 Clouds 34 1012 22 10000 3.1 0 13:38 15.08.2019
3641 Clouds 34 1012 22 10000 3.1 0 13:19 15.08.2019
3642 Clouds 34 1012 22 10000 3.1 0 13:19 15.08.2019
3643 Clouds 34 1013 27 10000 2.1 0 12:40 15.08.2019
3644 Clouds 34 1013 27 10000 2.1 0 12:22 15.08.2019
3645 Clouds 32 1014 31 10000 1.5 0 11:59 15.08.2019
3646 Clouds 32 1014 31 10000 1.5 0 11:39 15.08.2019
3647 Clouds 32 1014 31 10000 1.5 0 11:20 15.08.2019
3648 Clouds 31 1015 35 10000 1.5 0 10:59 15.08.2019
3649 Clouds 31 1015 35 10000 1.5 0 10:59 15.08.2019
3650 Clouds 31 1015 35 10000 1.5 0 10:59 15.08.2019
3651 Clouds 31 1015 35 10000 1.5 0 10:37 15.08.2019
3652 Clouds 31 1015 35 10000 1.5 0 10:37 15.08.2019
3653 Clouds 31 1015 35 10000 1.5 0 10:37 15.08.2019
3654 Clouds 30 1015 35 10000 1.5 0 10:19 15.08.2019
3655 Clouds 30 1015 35 10000 1.5 0 09:44 15.08.2019
3656 Clouds 30 1015 37 10000 2.6 150 09:23 15.08.2019
3657 Clouds 29 1016 45 10000 1.5 0 08:55 15.08.2019
3658 Clouds 29 1016 45 10000 1.5 0 08:36 15.08.2019
3659 Clouds 28 1016 45 10000 1.5 0 08:18 15.08.2019
3660 Clouds 27 1017 54 10000 1.5 0 07:41 15.08.2019
3661 Clouds 27 1017 54 10000 1.5 0 07:21 15.08.2019
3662 Clouds 26 1017 64 10000 1.5 140 06:53 15.08.2019
3663 Clouds 26 1017 64 10000 1.5 140 06:32 15.08.2019
3664 Clouds 25 1017 64 10000 0.5 0 05:39 15.08.2019
3665 Clouds 25 1017 64 10000 0.5 0 05:21 15.08.2019
3666 Clouds 23 1017 73 10000 1 0 04:29 15.08.2019
3667 Clear 22 1016 73 10000 1.5 150 03:30 15.08.2019
3668 Clear 22 1016 77 10000 1.5 100 02:35 15.08.2019
3669 Clear 23 1016 73 10000 2.1 150 01:49 15.08.2019
3670 Clear 23 1016 73 10000 2.1 150 01:26 15.08.2019
3671 Clear 23 1016 77 10000 2.1 160 00:39 15.08.2019
3672 Clear 24 1016 77 10000 2.1 160 00:19 15.08.2019
3673 Clear 24 1016 73 10000 3.1 200 23:57 14.08.2019
3674 Clear 24 1016 73 10000 3.1 200 23:37 14.08.2019
3675 Clear 24 1016 73 10000 3.1 200 23:19 14.08.2019
3676 Clear 24 1016 73 10000 2.1 130 22:42 14.08.2019
3677 Clear 24 1016 73 10000 2.1 130 22:23 14.08.2019
3678 Clouds 25 1016 69 10000 3.6 130 21:58 14.08.2019
3679 Clouds 25 1016 69 10000 3.6 130 21:40 14.08.2019
3680 Clouds 25 1016 69 10000 3.6 130 21:21 14.08.2019
3681 Clouds 25 1016 69 10000 2.1 150 20:59 14.08.2019
3682 Clouds 25 1016 69 10000 2.1 150 20:41 14.08.2019
3683 Clouds 25 1016 69 10000 2.1 150 20:20 14.08.2019
3684 Clear 26 1015 60 10000 3.6 130 19:55 14.08.2019
3685 Clear 26 1015 60 10000 3.6 130 19:37 14.08.2019
3686 Clear 27 1015 60 10000 3.6 130 19:18 14.08.2019
3687 Clear 27 1015 60 10000 3.6 130 18:55 14.08.2019
3688 Clouds 26 1015 53 10000 1.5 140 18:36 14.08.2019
3689 Clouds 27 1015 53 10000 1.5 140 18:18 14.08.2019
3690 Clouds 27 1014 54 10000 5.7 130 17:40 14.08.2019
3691 Clouds 27 1014 54 10000 5.7 130 17:22 14.08.2019
3692 Thunderstorm 28 1013 47 9000 5.7 120 16:58 14.08.2019
3693 Clouds 29 1012 44 9000 4.6 120 16:39 14.08.2019
3694 Clouds 30 1012 44 9000 4.6 120 16:20 14.08.2019
3695 Rain 29 1012 50 8000 6.7 120 15:43 14.08.2019
3696 Rain 29 1012 50 8000 6.7 120 15:20 14.08.2019
3697 Thunderstorm 31 1011 61 9000 6.7 40 14:58 14.08.2019
3698 Rain 32 1011 45 9000 7.2 90 14:39 14.08.2019
3699 Rain 33 1011 45 9000 7.2 90 14:19 14.08.2019
3700 Rain 33 1011 45 9000 7.2 90 14:19 14.08.2019
3701 Clouds 33 1011 33 10000 6.2 120 13:44 14.08.2019
3702 Clouds 33 1011 33 10000 6.2 120 13:44 14.08.2019
3703 Clouds 33 1011 33 10000 6.2 120 13:25 14.08.2019
3704 Clouds 34 1011 29 10000 4.1 0 12:59 14.08.2019
3705 Clouds 34 1011 29 10000 4.1 0 12:40 14.08.2019
3706 Clouds 33 1011 29 10000 4.1 0 12:22 14.08.2019
3707 Clouds 34 1011 29 10000 4.1 0 12:22 14.08.2019
3708 Clouds 34 1012 29 10000 4.6 160 11:58 14.08.2019
3709 Clouds 34 1012 29 10000 4.6 160 11:40 14.08.2019
3710 Clouds 34 1012 29 10000 4.6 160 11:21 14.08.2019
3711 Clouds 33 1013 21 10000 3.1 0 10:45 14.08.2019
3712 Clouds 33 1013 21 10000 3.1 0 10:25 14.08.2019
3713 Clouds 33 1013 21 10000 3.1 0 10:25 14.08.2019
3714 Clouds 33 1014 16 10000 4.1 320 09:59 14.08.2019
3715 Clouds 33 1014 16 10000 4.1 320 09:41 14.08.2019
3716 Clouds 32 1014 16 10000 4.1 320 09:20 14.08.2019
3717 Clouds 31 1014 22 10000 2.6 0 08:41 14.08.2019
3718 Clouds 31 1014 22 10000 2.6 0 08:23 14.08.2019
3719 Clear 29 1015 32 9000 1.5 0 07:54 14.08.2019
3720 Clear 29 1015 32 9000 1.5 0 07:34 14.08.2019
3721 Clear 28 1015 48 9000 1.5 0 06:49 14.08.2019
3722 Clear 25 1015 48 9000 1.5 0 06:18 14.08.2019
3723 Clear 25 1014 54 8000 1.5 0 05:28 14.08.2019
3724 Clear 25 1014 54 8000 1.5 0 05:28 14.08.2019
3725 Clear 20 1013 37 9000 0.97 76.35 03:38 14.08.2019
3726 Clear 21 1012 35 10000 1 0 02:34 14.08.2019
3727 Clear 22 1012 31 10000 0.5 0 01:54 14.08.2019
3728 Clear 24 1012 31 10000 0.5 0 01:19 14.08.2019
3729 -273 0 0 0 0 0 23:55 13.08.2019
3730 Clear 24 1012 25 10000 1 0 23:37 13.08.2019
3731 Clear 24 1012 25 10000 1 0 23:18 13.08.2019
3732 Clear 25 1013 21 10000 3.1 340 22:42 13.08.2019
3733 Clear 25 1013 21 10000 3.1 340 22:24 13.08.2019
3734 Clear 25 1013 21 10000 1.5 310 21:59 13.08.2019
3735 Clear 25 1013 21 10000 1.5 310 21:39 13.08.2019
3736 Clear 26 1013 21 10000 1.5 310 21:19 13.08.2019
3737 Clear 26 1013 21 10000 1 0 20:57 13.08.2019
3738 Clouds 26 1008 22 10000 2.1 220 20:37 13.08.2019
3739 Clear 28 1013 22 10000 2.6 80 20:18 13.08.2019
3740 Clear 28 1013 22 10000 2.6 80 19:43 13.08.2019
3741 Clear 28 1013 22 10000 2.6 80 19:22 13.08.2019
3742 Clear 30 1013 14 10000 5.1 40 18:59 13.08.2019
3743 Clear 30 1013 14 10000 5.1 40 18:41 13.08.2019
3744 Clear 30 1013 14 10000 5.1 40 18:20 13.08.2019
3745 Clear 30 1012 18 10000 7.7 10 17:43 13.08.2019
3746 Clear 30 1012 18 10000 7.7 10 17:22 13.08.2019
3747 Clear 30 1011 15 10000 6.7 10 16:58 13.08.2019
3748 Clear 30 1011 15 10000 6.7 10 16:39 13.08.2019
3749 Clear 30 1011 15 10000 6.7 10 16:21 13.08.2019
3750 Clear 32 1011 15 10000 6.7 10 15:59 13.08.2019
3751 Clear 32 1011 15 10000 6.7 10 15:59 13.08.2019
3752 Clouds 32 1010 18 10000 7.7 10 15:38 13.08.2019
3753 Clouds 34 1010 11 10000 7.7 10 15:19 13.08.2019
3754 Clouds 34 1010 11 10000 7.7 10 15:19 13.08.2019
3755 Clouds 34 1010 12 10000 5.1 10 14:42 13.08.2019
3756 Clouds 34 1010 12 10000 5.1 10 14:20 13.08.2019
3757 Clear 34 1011 11 10000 5.1 360 13:56 13.08.2019
3758 Clear 34 1011 11 10000 5.1 360 13:56 13.08.2019
3759 Clear 34 1011 11 10000 5.1 360 13:38 13.08.2019
3760 Clear 35 1011 12 10000 5.1 360 13:18 13.08.2019
3761 Clear 34 1012 10 10000 6.2 30 12:41 13.08.2019
3762 Clear 34 1012 10 10000 6.2 30 12:23 13.08.2019
3763 Clear 34 1012 10 10000 6.2 30 11:59 13.08.2019
3764 Clear 34 1013 13 10000 5.1 60 11:40 13.08.2019
3765 Clear 34 1013 13 10000 5.1 60 11:21 13.08.2019
3766 Clear 34 1013 13 10000 5.1 60 11:21 13.08.2019
3767 Clear 34 1013 13 10000 5.1 60 10:57 13.08.2019
3768 Clear 34 1013 12 10000 5.1 350 10:37 13.08.2019
3769 Clear 33 1013 12 10000 5.1 350 10:19 13.08.2019
3770 Clear 32 1014 12 10000 4.1 80 09:44 13.08.2019
3771 Clear 32 1014 15 10000 4.1 80 09:23 13.08.2019
3772 Clear 32 1014 15 10000 4.1 80 09:23 13.08.2019
3773 Clear 32 1014 15 10000 4.1 80 08:55 13.08.2019
3774 Clear 32 1014 15 10000 1 0 08:37 13.08.2019
3775 Clear 30 1014 15 10000 1 0 08:18 13.08.2019
3776 Clear 30 1014 17 10000 2.34 101.252 07:38 13.08.2019
3777 Clear 30 1014 17 10000 2.34 101.252 07:38 13.08.2019
3778 Clear 28 1014 17 10000 2.34 101.252 07:20 13.08.2019
3779 Clear 28 1014 19 10000 2.6 0 06:43 13.08.2019
3780 Clouds 25 1014 31 8000 1.23 92.698 05:46 13.08.2019
3781 Clear 18 1013 45 10000 1 0 03:45 13.08.2019
3782 Clear 20 1013 37 10000 1 0 02:22 13.08.2019
3783 Clear 21 1012 37 10000 1 0 01:21 13.08.2019
3784 Clear 24 1012 28 10000 1 0 00:47 13.08.2019
3785 Clear 26 1012 22 10000 1.5 260 23:58 12.08.2019
3786 Clear 26 1012 22 10000 1.5 260 23:40 12.08.2019
3787 Clear 26 1012 22 10000 1.5 260 23:20 12.08.2019
3788 Clear 27 1013 20 10000 1 0 22:40 12.08.2019
3789 Clear 27 1013 20 10000 1 0 22:20 12.08.2019
3790 Clear 27 1013 20 10000 3.1 340 21:56 12.08.2019
3791 Clear 27 1013 20 10000 3.1 340 21:38 12.08.2019
3792 Clear 28 1013 20 10000 3.1 340 21:19 12.08.2019
3793 Clear 28 1013 20 10000 3.1 340 20:57 12.08.2019
3794 Clear 28 1013 19 10000 2.6 70 20:38 12.08.2019
3795 Clear 28 1013 19 10000 2.6 70 20:20 12.08.2019
3796 Clear 29 1013 17 10000 6.7 20 19:56 12.08.2019
3797 Clear 29 1013 17 10000 6.7 20 19:56 12.08.2019
3798 Clear 29 1013 17 10000 6.7 20 19:37 12.08.2019
3799 Clear 29 1013 17 10000 6.7 20 19:19 12.08.2019
3800 Clear 30 1012 23 10000 6.2 10 18:55 12.08.2019
3801 Clear 30 1012 23 10000 6.2 10 18:55 12.08.2019
3802 Clear 30 1012 23 10000 6.2 10 18:55 12.08.2019
3803 Clear 30 1012 23 10000 6.2 10 18:37 12.08.2019
3804 Clear 30 1012 18 10000 6.2 10 18:19 12.08.2019
3805 Clear 30 1012 18 10000 6.2 10 18:19 12.08.2019
3806 Clear 31 1012 15 10000 7.7 30 17:46 12.08.2019
3807 Clear 31 1012 15 10000 7.7 30 17:28 12.08.2019
3808 Clear 31 1011 14 9000 7.2 40 16:56 12.08.2019
3809 Clear 31 1011 14 9000 7.2 40 16:56 12.08.2019
3810 Clear 31 1011 14 9000 7.2 40 16:56 12.08.2019
3811 Clear 31 1011 14 9000 7.2 40 16:56 12.08.2019
3812 Clear 31 1011 14 9000 7.2 40 16:56 12.08.2019
3813 Clear 31 1011 14 9000 7.2 40 16:37 12.08.2019
3814 Clear 31 1011 14 9000 7.2 40 16:37 12.08.2019
3815 Clear 32 1011 14 9000 7.2 40 16:19 12.08.2019
3816 Clear 33 1010 13 9000 5.1 360 15:54 12.08.2019
3817 Clear 33 1010 13 9000 5.1 360 15:36 12.08.2019
3818 Clear 33 1010 13 9000 5.1 360 15:36 12.08.2019
3819 Clear 34 1010 13 9000 5.1 360 15:18 12.08.2019
3820 Clear 34 1010 13 10000 7.7 350 14:42 12.08.2019
3821 Clear 34 1010 13 10000 7.7 350 14:41 12.08.2019
3822 Clear 34 1010 13 10000 7.7 350 14:41 12.08.2019
3823 Clear 34 1010 13 10000 7.7 350 14:41 12.08.2019
3824 Clear 34 1010 13 10000 7.7 350 14:22 12.08.2019
3825 Clouds 36 1010 12 10000 5.1 350 13:57 12.08.2019
3826 Clouds 36 1010 12 10000 5.1 350 13:39 12.08.2019
3827 Clouds 36 1010 12 10000 5.1 350 13:20 12.08.2019
3828 Clouds 36 1011 14 10000 6.2 50 12:43 12.08.2019
3829 Clouds 36 1011 14 10000 6.2 50 12:43 12.08.2019
3830 Clouds 36 1011 14 10000 6.2 50 12:21 12.08.2019
3831 Clouds 35 1012 16 10000 6.2 70 11:45 12.08.2019
3832 -273 0 0 0 0 0 11:44 12.08.2019
3833 Clouds 35 1012 16 10000 6.2 70 11:44 12.08.2019
3834 Clouds 35 1012 16 10000 6.2 70 11:26 12.08.2019
3835 Clouds 35 1013 17 10000 5.7 100 10:56 12.08.2019
3836 Clouds 35 1013 17 10000 5.7 100 10:56 12.08.2019
3837 Clouds 35 1013 17 10000 5.7 100 10:37 12.08.2019
3838 Clouds 33 1013 17 10000 5.7 100 10:19 12.08.2019
3839 Clouds 32 1014 18 10000 3.1 0 09:42 12.08.2019
3840 Clouds 32 1014 18 10000 3.1 0 09:21 12.08.2019
3841 Clouds 31 1014 23 10000 3.6 30 08:59 12.08.2019
3842 Clouds 31 1014 23 10000 3.6 30 08:58 12.08.2019
3843 Clouds 31 1014 23 10000 3.6 30 08:39 12.08.2019
3844 Clouds 31 1014 23 10000 3.6 30 08:21 12.08.2019
3845 Clear 30 1015 26 10000 3.1 0 07:55 12.08.2019
3846 Clear 30 1015 26 10000 3.1 0 07:33 12.08.2019
3847 Haze 28 1015 36 10000 1.5 0 06:53 12.08.2019
3848 Haze 25 1015 61 10000 1.5 0 05:41 12.08.2019
3849 Clear 19 1014 77 10000 1 80 03:25 12.08.2019
3850 Clear 21 1014 73 10000 1 230 02:41 12.08.2019
3851 Clear 23 1013 73 10000 1.44 23.591 01:22 12.08.2019
3852 Clear 24 1013 64 10000 1 0 00:58 12.08.2019
3853 Clear 24 1013 64 10000 1 0 00:58 12.08.2019
3854 Clear 24 1013 64 10000 1 0 00:40 12.08.2019
3855 Clear 23 1013 64 10000 1 0 00:20 12.08.2019
3856 Clear 23 1014 64 10000 1 80 23:56 11.08.2019
3857 Clear 23 1014 64 10000 1 80 23:38 11.08.2019
3858 Clear 26 1014 64 10000 1 80 23:19 11.08.2019
3859 Clear 26 1014 60 10000 2.1 100 22:40 11.08.2019
3860 Clear 26 1014 60 10000 2.1 100 22:20 11.08.2019
3861 Clear 26 1014 60 10000 2.1 120 21:59 11.08.2019
3862 Clear 26 1014 60 10000 2.1 120 21:41 11.08.2019
3863 Clear 26 1014 60 10000 2.1 120 21:22 11.08.2019
3864 Clear 26 1013 60 10000 2.1 120 20:58 11.08.2019
3865 Clear 26 1013 60 10000 2.1 120 20:40 11.08.2019
3866 Clear 26 1013 60 10000 2.1 120 20:22 11.08.2019
3867 Clear 28 1013 54 10000 3.1 140 19:45 11.08.2019
3868 Clear 28 1013 54 10000 3.1 140 19:20 11.08.2019
3869 Clear 28 1013 54 10000 3.6 130 18:56 11.08.2019
3870 Clear 28 1013 54 10000 3.6 130 18:37 11.08.2019
3871 Clear 29 1013 54 10000 3.6 130 18:18 11.08.2019
3872 Clouds 29 1012 47 10000 4.6 100 17:41 11.08.2019
3873 Clouds 30 1012 47 10000 4.6 100 17:20 11.08.2019
3874 Clouds 30 1012 45 10000 6.2 120 16:58 11.08.2019
3875 Clouds 30 1012 45 10000 6.2 120 16:38 11.08.2019
3876 Clouds 31 1012 45 10000 6.2 120 16:20 11.08.2019
3877 Clouds 31 1011 42 10000 6.7 100 15:44 11.08.2019
3878 Clouds 31 1011 42 10000 6.7 100 15:26 11.08.2019
3879 Clouds 31 1011 42 10000 6.7 100 15:26 11.08.2019
3880 Clouds 32 1011 40 10000 6.7 120 14:59 11.08.2019
3881 Clouds 32 1011 40 10000 6.7 120 14:59 11.08.2019
3882 Clouds 32 1011 40 10000 6.7 120 14:40 11.08.2019
3883 Clouds 33 1011 40 10000 6.7 120 14:21 11.08.2019
3884 Clouds 33 1011 38 10000 5.1 120 13:46 11.08.2019
3885 Clouds 33 1011 38 10000 5.1 120 13:46 11.08.2019
3886 Clouds 33 1011 38 10000 5.1 120 13:26 11.08.2019
3887 Clouds 33 1012 38 10000 6.2 130 12:58 11.08.2019
3888 Clouds 33 1012 38 10000 6.2 130 12:38 11.08.2019
3889 Clouds 33 1012 38 10000 6.2 130 12:20 11.08.2019
3890 Clouds 32 1013 40 10000 4.6 70 11:40 11.08.2019
3891 Clouds 32 1013 40 10000 4.6 70 11:22 11.08.2019
3892 Clouds 31 1014 42 10000 4.1 60 10:56 11.08.2019
3893 Clouds 31 1014 42 10000 4.1 60 10:38 11.08.2019
3894 Clouds 31 1014 42 10000 4.1 60 10:19 11.08.2019
3895 Clouds 31 1015 40 10000 3.1 280 09:44 11.08.2019
3896 Clouds 31 1015 40 10000 3.1 280 09:26 11.08.2019
3897 Clouds 29 1015 48 10000 3.6 100 08:58 11.08.2019
3898 Clouds 29 1015 48 10000 3.6 100 08:39 11.08.2019
3899 Clouds 29 1015 48 10000 3.6 100 08:20 11.08.2019
3900 Clouds 28 1015 54 10000 3.6 30 07:32 11.08.2019
3901 Clouds 27 1015 54 10000 2.1 0 06:52 11.08.2019
3902 Clouds 27 1015 54 10000 2.1 0 06:31 11.08.2019
3903 Clouds 24 1015 64 10000 1.5 0 05:19 11.08.2019
3904 Clear 23 1014 68 10000 1 220 02:53 11.08.2019
3905 Clear 22 1014 73 10000 2.6 340 01:58 11.08.2019
3906 Clear 23 1014 68 10000 3.1 350 01:32 11.08.2019
3907 Clear 24 1014 68 10000 3.1 350 00:56 11.08.2019
3908 Clear 24 1014 68 10000 1 0 00:36 11.08.2019
3909 Clear 24 1014 73 10000 1.5 0 23:56 10.08.2019
3910 Clear 24 1014 73 10000 1.5 0 23:37 10.08.2019
3911 Clear 24 1014 73 10000 1.5 0 23:18 10.08.2019
3912 Clear 24 1014 73 10000 1 0 22:38 10.08.2019
3913 Clear 24 1014 73 10000 1 0 22:20 10.08.2019
3914 Clear 25 1014 69 10000 3.1 130 21:41 10.08.2019
3915 Clear 25 1014 69 10000 3.1 130 21:22 10.08.2019
3916 Clear 25 1014 69 10000 3.1 130 21:22 10.08.2019
3917 Clear 25 1014 69 10000 3.1 130 20:59 10.08.2019
3918 Clear 25 1013 64 10000 2.1 0 20:41 10.08.2019
3919 Clear 26 1013 64 10000 2.1 0 20:20 10.08.2019
3920 Clear 26 1013 64 10000 2.1 0 19:56 10.08.2019
3921 Clear 26 1013 60 10000 2.6 100 19:37 10.08.2019
3922 Clear 26 1013 60 10000 2.6 100 19:18 10.08.2019
3923 Clear 26 1013 60 10000 3.1 100 18:39 10.08.2019
3924 Clear 27 1013 60 10000 3.1 100 18:20 10.08.2019
3925 Clear 27 1012 57 10000 6.2 100 17:41 10.08.2019
3926 Clear 27 1012 57 10000 6.2 100 17:23 10.08.2019
3927 Clear 28 1011 50 10000 7.2 100 16:45 10.08.2019
3928 Clear 28 1011 50 10000 7.2 100 16:26 10.08.2019
3929 Clear 30 1011 45 10000 8.7 120 15:53 10.08.2019
3930 Clear 30 1011 45 10000 8.7 120 15:23 10.08.2019
3931 Clouds 31 1011 39 9000 7.7 120 14:44 10.08.2019
3932 Clouds 31 1011 39 9000 7.7 120 14:21 10.08.2019
3933 Clouds 31 1011 37 10000 8.2 120 13:42 10.08.2019
3934 Clouds 32 1011 37 10000 8.2 120 13:21 10.08.2019
3935 Clouds 32 1011 35 10000 7.7 120 12:57 10.08.2019
3936 Clouds 32 1011 35 10000 7.7 120 12:39 10.08.2019
3937 Clouds 32 1011 35 10000 7.7 120 12:20 10.08.2019
3938 Clouds 32 1012 37 10000 5.1 150 11:42 10.08.2019
3939 Clouds 32 1012 37 10000 5.1 150 11:23 10.08.2019
3940 Clouds 31 1013 37 10000 5.1 130 10:58 10.08.2019
3941 Clouds 31 1013 37 10000 5.1 130 10:37 10.08.2019
3942 Clouds 31 1013 37 10000 5.1 130 10:19 10.08.2019
3943 Clouds 30 1013 37 10000 4.6 130 09:43 10.08.2019
3944 Clouds 30 1013 37 10000 4.6 130 09:24 10.08.2019
3945 Clear 29 1014 39 10000 2.6 130 08:55 10.08.2019
3946 Clear 29 1014 39 10000 2.6 130 08:55 10.08.2019
3947 Clear 29 1014 39 10000 2.6 130 08:37 10.08.2019
3948 Clear 28 1014 39 10000 2.6 130 08:18 10.08.2019
3949 Clouds 28 1009 37 10000 1.5 100 07:43 10.08.2019
3950 Clear 27 1014 50 9000 1 0 07:19 10.08.2019
3951 Clear 27 1014 50 9000 1 0 06:43 10.08.2019
3952 Clear 25 1014 60 9000 1.5 0 05:44 10.08.2019
3953 Clear 23 1014 60 9000 1.5 0 05:19 10.08.2019
3954 Clear 22 1013 64 10000 2.6 320 03:51 10.08.2019
3955 Clear 23 1013 56 10000 1.5 0 02:38 10.08.2019
3956 Clear 23 1013 56 10000 1.5 0 01:44 10.08.2019
3957 Clear 23 1013 68 10000 1.5 0 01:24 10.08.2019
3958 Clear 23 1013 68 10000 3.1 100 00:59 10.08.2019
3959 Clear 23 1013 68 10000 3.1 100 00:40 10.08.2019
3960 Clear 24 1013 68 10000 3.1 100 00:18 10.08.2019
3961 Clear 24 1013 69 10000 4.1 110 23:39 09.08.2019
3962 Clear 26 1013 69 10000 4.1 110 23:20 09.08.2019
3963 Clear 26 1013 69 10000 4.1 110 23:20 09.08.2019
3964 Clear 26 1013 69 10000 4.1 110 23:20 09.08.2019
3965 Clear 26 1013 53 10000 4.1 90 22:55 09.08.2019
3966 Clear 26 1013 53 10000 4.1 90 22:55 09.08.2019
3967 Clear 26 1013 53 10000 4.1 90 22:37 09.08.2019
3968 Dust 26 1013 53 10000 4.1 90 22:18 09.08.2019
3969 Dust 28 1012 44 9000 6.7 50 21:40 09.08.2019
3970 Dust 28 1012 44 9000 6.7 50 21:21 09.08.2019
3971 Dust 28 1012 21 9000 5.7 50 20:57 09.08.2019
3972 Dust 28 1012 21 9000 5.7 50 20:38 09.08.2019
3973 Dust 29 1012 21 9000 5.7 50 20:18 09.08.2019
3974 Dust 29 1012 18 9000 7.7 30 19:43 09.08.2019
3975 Dust 29 1012 18 9000 7.7 30 19:22 09.08.2019
3976 Dust 30 1011 17 8000 6.7 40 18:56 09.08.2019
3977 Dust 30 1011 17 8000 6.7 40 18:38 09.08.2019
3978 Dust 30 1011 17 8000 6.7 40 18:38 09.08.2019
3979 Dust 30 1011 17 8000 6.7 40 18:19 09.08.2019
3980 Dust 30 1011 17 8000 6.7 40 18:19 09.08.2019
3981 Dust 30 1010 18 7000 8.2 30 17:42 09.08.2019
3982 Dust 30 1010 18 7000 8.2 30 17:24 09.08.2019
3983 -273 0 0 0 0 0 16:55 09.08.2019
3984 Dust 31 1009 16 7000 8.7 40 16:36 09.08.2019
3985 Clear 32 1009 16 7000 8.7 40 16:18 09.08.2019
3986 Clear 32 1009 16 7000 8.7 40 16:18 09.08.2019
3987 Clear 32 1008 16 8000 6.2 20 15:41 09.08.2019
3988 Clear 32 1008 16 8000 6.2 20 15:21 09.08.2019
3989 Dust 33 1003 15 6000 13.4 350 14:58 09.08.2019
3990 Dust 33 1003 15 6000 13.4 350 14:38 09.08.2019
3991 Dust 34 1003 15 6000 13.4 350 14:20 09.08.2019
3992 Dust 35 1007 15 10000 7.2 350 13:45 09.08.2019
3993 Dust 35 1007 15 10000 7.2 350 13:21 09.08.2019
3994 Clear 36 1008 14 10000 5.1 350 12:56 09.08.2019
3995 Clear 36 1008 14 10000 5.1 350 12:37 09.08.2019
3996 Clear 36 1008 14 10000 5.1 350 12:18 09.08.2019
3997 Clear 36 1009 14 10000 5.1 30 11:41 09.08.2019
3998 Clear 36 1009 14 10000 5.1 30 11:20 09.08.2019
3999 Clouds 36 1005 13 10000 9.3 350 10:42 09.08.2019
4000 Clouds 34 1005 13 10000 9.3 350 10:22 09.08.2019
4001 Clear 35 1012 16 10000 4.6 10 09:59 09.08.2019
4002 Clear 35 1012 16 10000 4.6 10 09:38 09.08.2019
4003 Clear 34 1012 16 10000 4.6 10 09:19 09.08.2019
4004 Clear 34 1013 18 10000 3.1 10 08:44 09.08.2019
4005 Clear 34 1013 18 10000 3.1 10 08:25 09.08.2019
4006 Clear 33 1013 18 10000 3.1 10 07:56 09.08.2019
4007 Clear 33 1013 18 10000 3.1 10 07:56 09.08.2019
4008 -273 0 0 0 0 0 07:56 09.08.2019
4009 Clear 32 1013 19 10000 3.1 360 07:37 09.08.2019
4010 Clear 32 1013 19 10000 3.1 360 07:19 09.08.2019
4011 Clear 31 1013 21 10000 2.1 110 06:40 09.08.2019
4012 Clear 29 1013 21 10000 2.1 110 06:20 09.08.2019
4013 Haze 28 1013 30 9000 1.5 170 05:30 09.08.2019
4014 Clear 26 1011 43 10000 1 0 02:27 09.08.2019
4015 Clear 27 1011 49 10000 1.5 0 01:23 09.08.2019
4016 Clear 27 1011 25 10000 2.6 140 00:41 09.08.2019
4017 Clear 27 1011 25 10000 2.6 140 00:22 09.08.2019
4018 Clear 28 1011 22 10000 2.6 120 23:56 08.08.2019
4019 Clear 28 1011 22 10000 2.6 120 23:36 08.08.2019
4020 Clear 29 1011 22 10000 2.6 120 23:18 08.08.2019
4021 Clear 29 1011 20 10000 2.6 100 22:38 08.08.2019
4022 Clear 30 1011 20 10000 2.6 100 22:19 08.08.2019
4023 Clear 30 1011 17 10000 5.1 50 21:59 08.08.2019
4024 Clear 30 1011 17 10000 5.1 50 21:41 08.08.2019
4025 Clear 30 1011 17 10000 5.1 50 21:22 08.08.2019
4026 Clear 31 1010 17 10000 5.1 50 20:57 08.08.2019
4027 Clear 31 1010 17 10000 5.1 50 20:39 08.08.2019
4028 Clear 31 1010 17 10000 5.1 50 20:19 08.08.2019
4029 Clear 31 1010 17 9000 6.2 40 19:47 08.08.2019
4030 Clear 31 1010 17 9000 6.2 40 19:28 08.08.2019
4031 Clouds 31 1009 19 9000 7.2 40 18:45 08.08.2019
4032 Clouds 31 1009 19 9000 7.2 40 18:24 08.08.2019
4033 Clouds 32 1008 18 9000 6.7 30 17:59 08.08.2019
4034 Clouds 32 1008 18 9000 6.7 30 17:41 08.08.2019
4035 Clouds 32 1008 18 9000 6.7 30 17:22 08.08.2019
4036 Clear 33 1007 17 9000 7.7 10 16:55 08.08.2019
4037 Clear 33 1007 17 9000 7.7 10 16:37 08.08.2019
4038 Clear 33 1007 17 9000 7.7 10 16:19 08.08.2019
4039 Clear 34 1006 16 9000 8.2 10 15:42 08.08.2019
4040 Clear 34 1006 16 9000 8.2 10 15:23 08.08.2019
4041 Clear 36 1006 16 10000 5.1 350 14:59 08.08.2019
4042 Clear 36 1006 16 10000 5.1 350 14:37 08.08.2019
4043 Clear 36 1006 16 10000 5.1 350 14:18 08.08.2019
4044 Clouds 37 1007 16 10000 6.2 350 13:40 08.08.2019
4045 Clouds 37 1007 16 10000 6.2 350 13:20 08.08.2019
4046 Clouds 36 1006 15 10000 5.1 70 12:40 08.08.2019
4047 Clouds 36 1006 15 10000 5.1 70 12:21 08.08.2019
4048 Clouds 36 1009 16 10000 6.2 60 11:59 08.08.2019
4049 Clouds 36 1009 16 10000 6.2 60 11:39 08.08.2019
4050 Clouds 36 1009 16 10000 6.2 60 11:21 08.08.2019
4051 Clear 35 1009 16 10000 5.1 80 10:41 08.08.2019
4052 Clear 35 1009 16 10000 5.1 80 10:21 08.08.2019
4053 Clear 34 1011 19 10000 5.1 350 09:52 08.08.2019
4054 Clear 34 1011 19 10000 5.1 350 09:31 08.08.2019
4055 Clear 33 1011 19 10000 5.1 350 08:59 08.08.2019
4056 Clear 33 1011 22 10000 2.1 0 08:39 08.08.2019
4057 Clear 32 1011 22 10000 2.1 0 08:19 08.08.2019
4058 Clear 31 1012 30 10000 1.5 0 07:41 08.08.2019
4059 Clear 29 1012 30 10000 1.5 0 07:20 08.08.2019
4060 Clear 27 1012 54 10000 1.5 180 06:49 08.08.2019
4061 Clear 27 1012 54 10000 1.5 180 06:30 08.08.2019
4062 Haze 25 1012 69 8000 0.5 0 05:53 08.08.2019
4063 Haze 25 1012 69 8000 0.5 0 05:19 08.08.2019
4064 Clear 23 1012 77 10000 1 130 03:53 08.08.2019
4065 Clear 24 1012 77 10000 1 130 02:51 08.08.2019
4066 Clear 24 1011 69 10000 1.5 160 01:38 08.08.2019
4067 Clear 24 1011 73 10000 1.5 120 00:26 08.08.2019
4068 Clear 25 1011 69 10000 3.1 130 23:56 07.08.2019
4069 Clear 25 1011 69 10000 3.1 130 23:21 07.08.2019
4070 Clear 26 1011 69 10000 3.1 130 22:59 07.08.2019
4071 Clear 27 1010 57 10000 1 0 22:40 07.08.2019
4072 Clear 28 1010 57 10000 1 0 22:20 07.08.2019
4073 Clear 28 1010 33 10000 1.5 0 21:56 07.08.2019
4074 Clear 28 1010 33 10000 1.5 0 21:37 07.08.2019
4075 Clear 29 1010 33 10000 1.5 0 21:19 07.08.2019
4076 Clear 31 1005 12 10000 8.7 340 20:43 07.08.2019
4077 Clear 30 1005 12 10000 8.7 340 20:24 07.08.2019
4078 Clear 30 1009 21 10000 3.6 60 19:59 07.08.2019
4079 Clear 30 1009 21 10000 3.6 60 19:39 07.08.2019
4080 Clear 30 1009 21 10000 3.6 60 19:21 07.08.2019
4081 Clear 31 1009 21 10000 2.6 40 18:44 07.08.2019
4082 Clear 31 1009 16 10000 2.6 40 18:22 07.08.2019
4083 Clear 31 1009 16 10000 2.6 40 17:59 07.08.2019
4084 Clear 31 1009 16 10000 2.6 40 17:41 07.08.2019
4085 Clear 32 1008 14 10000 3.1 30 17:22 07.08.2019
4086 Clear 32 1007 13 9000 8.2 10 16:57 07.08.2019
4087 Clear 32 1007 13 9000 8.2 10 16:57 07.08.2019
4088 Clear 32 1007 13 9000 8.2 10 16:39 07.08.2019
4089 Clear 33 1007 13 9000 8.2 10 16:21 07.08.2019
4090 Clear 33 1007 14 9000 7.2 20 15:58 07.08.2019
4091 Clouds 34 1007 18 10000 6.7 50 15:40 07.08.2019
4092 Clouds 35 1007 18 10000 6.7 50 15:19 07.08.2019
4093 Clouds 36 1007 12 10000 4.6 50 14:49 07.08.2019
4094 Clouds 36 1007 12 10000 4.6 50 14:29 07.08.2019
4095 Clouds 36 1007 12 10000 4.1 60 13:56 07.08.2019
4096 Clouds 36 1007 12 10000 4.1 60 13:38 07.08.2019
4097 Clouds 36 1007 12 10000 4.1 60 13:18 07.08.2019
4098 Clouds 36 1008 12 10000 6.7 10 12:55 07.08.2019
4099 Clouds 36 1008 12 10000 6.7 10 12:36 07.08.2019
4100 Clouds 36 1008 12 10000 6.7 10 12:18 07.08.2019
4101 Clouds 36 1009 13 10000 6.7 30 11:43 07.08.2019
4102 Clouds 36 1009 13 10000 6.7 30 11:20 07.08.2019
4103 Clear 35 1010 14 10000 6.7 350 10:57 07.08.2019
4104 Clear 35 1010 14 10000 6.7 350 10:39 07.08.2019
4105 Clear 35 1010 14 10000 6.7 350 10:18 07.08.2019
4106 Clear 34 1010 15 10000 5.7 350 09:45 07.08.2019
4107 Clear 34 1010 15 10000 5.7 350 09:22 07.08.2019
4108 Clear 33 1011 15 9000 3.1 0 08:57 07.08.2019
4109 Clear 33 1011 15 9000 3.1 0 08:38 07.08.2019
4110 Clear 33 1011 15 9000 3.1 0 08:20 07.08.2019
4111 Haze 32 1011 16 9000 4.1 30 07:41 07.08.2019
4112 Haze 31 1011 16 9000 4.1 30 07:20 07.08.2019
4113 Haze 30 1011 18 8000 2.1 0 06:31 07.08.2019
4114 Haze 29 1011 21 8000 1.5 0 05:54 07.08.2019
4115 Haze 26 1012 27 9000 1.5 330 04:57 07.08.2019
4116 Clear 26 1012 27 10000 1.5 340 03:21 07.08.2019
4117 Clear 27 1010 22 10000 1 0 02:50 07.08.2019
4118 Clear 27 1010 22 10000 1 0 02:20 07.08.2019
4119 Clear 27 1009 20 10000 1.5 0 01:39 07.08.2019
4120 Clear 28 1009 20 10000 1.5 0 00:51 07.08.2019
4121 Clear 28 1009 18 10000 4.6 340 00:22 07.08.2019
4122 Clear 29 1010 18 10000 3.6 360 23:42 06.08.2019
4123 Clear 29 1010 18 10000 3.6 360 23:21 06.08.2019
4124 Clear 29 1010 18 10000 3.6 360 22:57 06.08.2019
4125 Clear 29 1011 18 10000 5.7 350 22:38 06.08.2019
4126 Clear 30 1011 18 10000 5.7 350 22:19 06.08.2019
4127 Clear 30 1011 17 10000 6.7 10 21:43 06.08.2019
4128 Clear 30 1011 17 10000 6.7 10 21:25 06.08.2019
4129 Clear 30 1011 16 10000 7.7 10 20:58 06.08.2019
4130 Clear 30 1011 16 10000 7.7 10 20:40 06.08.2019
4131 Clear 31 1011 16 10000 7.7 10 20:21 06.08.2019
4132 Clear 31 1011 22 10000 8.7 10 19:43 06.08.2019
4133 Clear 31 1011 22 10000 8.7 10 19:25 06.08.2019
4134 Clear 32 1010 12 10000 10.3 10 18:48 06.08.2019
4135 Clear 32 1010 12 10000 10.3 10 18:29 06.08.2019
4136 Clear 32 1009 11 10000 11.3 10 17:59 06.08.2019
4137 Clear 32 1009 11 10000 11.3 10 17:40 06.08.2019
4138 Clear 32 1009 11 10000 11.3 10 17:21 06.08.2019
4139 Clear 32 1009 11 10000 11.3 10 16:59 06.08.2019
4140 Clear 33 1008 10 9000 10.8 10 16:39 06.08.2019
4141 Clear 34 1008 10 9000 10.8 10 16:20 06.08.2019
4142 Clear 35 1008 7 9000 10.8 10 15:57 06.08.2019
4143 Clear 35 1008 7 9000 10.8 10 15:57 06.08.2019
4144 Clear 35 1008 7 9000 10.8 10 15:38 06.08.2019
4145 Clear 35 1008 7 9000 10.8 10 15:19 06.08.2019
4146 Clear 36 1009 7 9000 12.3 10 14:44 06.08.2019
4147 Clear 36 1009 7 9000 12.3 10 14:25 06.08.2019
4148 Clear 36 1008 9 10000 10.3 360 13:58 06.08.2019
4149 Clear 36 1008 9 10000 10.3 360 13:39 06.08.2019
4150 Clear 37 1008 9 10000 10.3 360 13:20 06.08.2019
4151 Clear 37 1008 11 10000 10.8 10 12:57 06.08.2019
4152 Clear 37 1008 11 10000 10.8 10 12:38 06.08.2019
4153 Clear 36 1008 9 10000 10.8 10 12:20 06.08.2019
4154 Clear 36 1008 12 10000 8.7 10 11:41 06.08.2019
4155 Clear 36 1008 12 10000 8.7 10 11:19 06.08.2019
4156 Clear 36 1009 12 10000 9.8 10 10:42 06.08.2019
4157 Clear 36 1009 12 10000 9.8 10 10:23 06.08.2019
4158 Clear 36 1009 12 10000 9.3 10 09:57 06.08.2019
4159 Clear 36 1009 12 10000 9.3 10 09:37 06.08.2019
4160 Clear 35 1009 12 10000 9.3 10 09:19 06.08.2019
4161 Clear 35 1010 12 10000 7.7 10 08:41 06.08.2019
4162 Clear 35 1010 12 10000 7.7 10 08:23 06.08.2019
4163 Clear 34 1010 13 10000 2.1 0 07:36 06.08.2019
4164 Clear 31 1010 17 10000 2.1 270 06:51 06.08.2019
4165 Clear 31 1010 17 10000 2.1 270 06:32 06.08.2019
4166 Clear 29 1010 22 10000 2.6 330 05:48 06.08.2019
4167 Clear 21 1009 28 10000 2.6 300 03:44 06.08.2019
4168 Clear 23 1009 25 10000 1.5 0 01:51 06.08.2019
4169 Clear 23 1009 25 10000 1.5 0 01:22 06.08.2019
4170 Clear 24 1009 23 10000 1 230 00:29 06.08.2019
4171 Clear 25 1010 20 10000 1.5 0 23:46 05.08.2019
4172 Clear 28 1010 20 10000 1.5 0 23:18 05.08.2019
4173 Clear 29 1010 28 10000 4.6 20 22:40 05.08.2019
4174 Clear 29 1010 28 10000 4.6 20 22:22 05.08.2019
4175 Clear 29 1010 16 10000 8.7 20 21:54 05.08.2019
4176 Clear 29 1010 16 10000 8.7 20 21:36 05.08.2019
4177 Clear 29 1010 16 10000 8.7 20 21:18 05.08.2019
4178 Clear 29 1009 16 10000 8.7 20 20:42 05.08.2019
4179 Clear 31 1009 16 10000 8.7 20 20:24 05.08.2019
4180 Clear 31 1009 22 10000 9.3 20 19:59 05.08.2019
4181 Clear 31 1009 22 10000 9.3 20 19:39 05.08.2019
4182 Clear 31 1009 22 10000 9.3 20 19:39 05.08.2019
4183 Clear 31 1009 22 10000 9.3 20 19:21 05.08.2019
4184 Clear 32 1008 12 10000 10.3 30 18:45 05.08.2019
4185 Clear 32 1008 12 10000 10.3 30 18:22 05.08.2019
4186 Clear 33 1008 11 10000 9.8 20 17:58 05.08.2019
4187 Clear 33 1008 11 10000 9.8 20 17:40 05.08.2019
4188 Clear 33 1008 11 10000 9.8 20 17:22 05.08.2019
4189 Clear 33 1008 11 10000 9.8 20 17:22 05.08.2019
4190 Clear 34 1007 10 9000 8.7 10 16:44 05.08.2019
4191 Clear 34 1007 10 9000 8.7 10 16:24 05.08.2019
4192 Clear 35 1007 9 9000 7.2 40 15:44 05.08.2019
4193 Clear 35 1007 9 9000 7.2 40 15:21 05.08.2019
4194 Clouds 36 1007 10 10000 8.2 40 14:54 05.08.2019
4195 Clouds 36 1007 10 10000 8.2 40 14:54 05.08.2019
4196 Clouds 36 1007 10 10000 8.2 40 14:36 05.08.2019
4197 Clouds 36 1007 10 10000 8.2 40 14:18 05.08.2019
4198 Clouds 37 1007 11 10000 5.7 30 13:40 05.08.2019
4199 Clouds 37 1007 12 10000 5.7 30 13:20 05.08.2019
4200 Clouds 37 1007 12 10000 5.1 360 12:43 05.08.2019
4201 Clouds 38 1007 12 10000 5.1 360 12:19 05.08.2019
4202 Clouds 37 1008 9 10000 5.1 360 11:44 05.08.2019
4203 Clouds 37 1008 9 10000 5.1 360 11:26 05.08.2019
4204 Clear 37 1008 10 10000 6.7 360 10:49 05.08.2019
4205 Clear 37 1008 10 10000 6.7 360 10:31 05.08.2019
4206 Clear 36 1009 10 10000 6.2 360 09:57 05.08.2019
4207 Clear 36 1009 10 10000 6.2 360 09:38 05.08.2019
4208 Clear 35 1009 10 10000 6.2 360 09:20 05.08.2019
4209 Clear 35 1010 13 0 4.6 330 08:44 05.08.2019
4210 Clear 35 1010 13 0 4.6 330 08:25 05.08.2019
4211 Clear 31 1011 14 9000 2.6 0 07:49 05.08.2019
4212 Clear 32 1011 14 9000 2.6 0 07:30 05.08.2019
4213 Clear 32 1011 15 9000 1.5 0 06:57 05.08.2019
4214 Clear 31 1011 15 9000 1.5 0 06:24 05.08.2019
4215 Clear 29 1011 18 10000 1.5 0 05:31 05.08.2019
4216 Clear 26 1011 27 10000 1.5 310 04:51 05.08.2019
4217 Clear 23 1010 28 10000 2.1 300 03:50 05.08.2019
4218 Clear 25 1010 29 10000 1.5 0 02:46 05.08.2019
4219 Clear 25 1010 29 10000 1.5 0 01:55 05.08.2019
4220 Clear 25 1010 30 10000 1 0 01:22 05.08.2019
4221 Clear 26 1010 23 10000 1.5 0 00:40 05.08.2019
4222 Clear 26 1010 23 10000 1.5 0 00:20 05.08.2019
4223 Clear 27 1011 16 10000 1 0 23:43 04.08.2019
4224 Clear 27 1011 16 10000 1 0 23:23 04.08.2019
4225 Clear 29 1011 13 10000 5.1 20 22:57 04.08.2019
4226 Clear 29 1011 13 10000 5.1 20 22:38 04.08.2019
4227 Clear 29 1011 13 10000 5.1 20 22:19 04.08.2019
4228 Clear 29 1011 13 10000 5.1 20 21:45 04.08.2019
4229 Clear 29 1011 13 10000 5.1 20 21:45 04.08.2019
4230 Clear 29 1011 13 10000 5.1 20 21:24 04.08.2019
4231 Clear 30 1011 13 10000 5.7 10 20:59 04.08.2019
4232 Clear 30 1011 13 10000 5.7 10 20:41 04.08.2019
4233 Clear 30 1011 13 10000 5.7 10 20:18 04.08.2019
4234 Clear 31 1010 13 10000 6.2 20 19:48 04.08.2019
4235 Clear 31 1010 13 10000 6.2 20 19:27 04.08.2019
4236 Clear 31 1010 22 10000 6.2 30 18:57 04.08.2019
4237 Clear 31 1010 22 10000 6.2 30 18:39 04.08.2019
4238 Clear 31 1010 15 10000 6.2 30 18:19 04.08.2019
4239 Clear 32 1009 12 10000 7.2 20 17:42 04.08.2019
4240 Clear 32 1009 12 10000 7.2 20 17:21 04.08.2019
4241 Clear 33 1008 11 10000 10.3 20 16:44 04.08.2019
4242 Clear 33 1008 11 10000 10.3 20 16:26 04.08.2019
4243 Clear 33 1008 11 10000 10.3 20 16:26 04.08.2019
4244 Clear 34 1008 9 10000 7.2 20 15:55 04.08.2019
4245 Clear 34 1008 9 10000 7.2 20 15:37 04.08.2019
4246 Clear 34 1008 9 10000 7.2 20 15:37 04.08.2019
4247 Clear 34 1008 9 10000 7.2 20 15:37 04.08.2019
4248 Clear 35 1008 9 10000 7.2 20 15:18 04.08.2019
4249 Clear 35 1008 10 10000 8.2 30 14:42 04.08.2019
4250 Clear 35 1008 10 10000 8.2 30 14:20 04.08.2019
4251 Clear 36 1009 10 10000 7.7 30 13:43 04.08.2019
4252 Clear 36 1009 10 10000 7.7 30 13:23 04.08.2019
4253 Clear 36 1009 10 10000 5.1 20 12:47 04.08.2019
4254 Clear 36 1009 10 10000 5.1 20 12:29 04.08.2019
4255 Clear 36 1011 10 10000 6.2 20 11:58 04.08.2019
4256 Clear 36 1011 10 10000 6.2 20 11:39 04.08.2019
4257 Clear 36 1011 10 10000 6.2 20 11:21 04.08.2019
4258 Clear 35 1012 11 10000 6.2 350 10:41 04.08.2019
4259 Clear 35 1012 11 10000 6.2 350 10:21 04.08.2019
4260 Clear 34 1013 11 10000 4.6 10 09:45 04.08.2019
4261 Clear 34 1013 11 10000 4.6 10 09:25 04.08.2019
4262 Clear 33 1013 13 10000 6.2 300 08:53 04.08.2019
4263 Clear 33 1013 13 10000 6.2 300 08:32 04.08.2019
4264 Clear 31 1014 15 10000 2.6 280 07:53 04.08.2019
4265 Clear 31 1014 15 10000 2.6 280 07:22 04.08.2019
4266 Clear 29 1014 26 10000 1.5 0 06:28 04.08.2019
4267 Clear 25 1014 44 7000 1 0 05:43 04.08.2019
4268 Clear 23 1013 68 10000 1 0 02:47 04.08.2019
4269 Clear 25 1013 60 10000 2.6 170 01:51 04.08.2019
4270 Clear 25 1013 60 10000 2.6 170 01:28 04.08.2019
4271 Clear 24 1013 52 10000 2.1 90 00:41 04.08.2019
4272 Clear 25 1013 52 10000 2.1 90 00:22 04.08.2019
4273 Clear 24 1013 26 10000 2.1 0 23:42 03.08.2019
4274 Clear 25 1013 26 10000 2.1 0 23:19 03.08.2019
4275 Clear 26 1013 16 10000 3.1 340 22:55 03.08.2019
4276 Clear 26 1013 16 10000 3.1 340 22:37 03.08.2019
4277 Clear 27 1013 16 10000 3.1 340 22:18 03.08.2019
4278 Clear 28 1013 14 10000 5.1 10 21:38 03.08.2019
4279 Clear 28 1013 14 10000 5.1 10 21:19 03.08.2019
4280 Clear 28 1012 14 10000 7.2 40 20:43 03.08.2019
4281 Clear 28 1012 14 10000 7.2 40 20:23 03.08.2019
4282 Clear 30 1012 13 10000 9.3 20 19:43 03.08.2019
4283 Clear 30 1012 13 10000 9.3 20 19:24 03.08.2019
4284 Clear 30 1011 13 10000 7.7 20 18:56 03.08.2019
4285 Clear 30 1011 13 10000 7.7 20 18:28 03.08.2019
4286 Clear 31 1010 11 9000 5.7 40 17:50 03.08.2019
4287 Clear 31 1010 11 9000 5.7 40 17:22 03.08.2019
4288 Clear 32 1009 11 9000 7.2 360 16:58 03.08.2019
4289 Clear 32 1009 11 9000 7.2 360 16:38 03.08.2019
4290 Clear 32 1009 11 9000 7.2 360 16:19 03.08.2019
4291 Clear 33 1009 11 10000 5.7 360 15:45 03.08.2019
4292 Clear 33 1009 11 10000 5.7 360 15:23 03.08.2019
4293 Clear 35 1009 10 10000 6.2 340 14:43 03.08.2019
4294 Clear 35 1009 10 10000 6.2 340 14:22 03.08.2019
4295 Clear 35 1009 10 10000 4.1 100 13:52 03.08.2019
4296 Clear 35 1009 10 10000 4.1 100 13:52 03.08.2019
4297 Clear 35 1009 10 10000 4.1 100 13:25 03.08.2019
4298 Clouds 36 1010 10 10000 6.7 10 12:58 03.08.2019
4299 Clouds 36 1010 10 10000 6.7 10 12:40 03.08.2019
4300 Clouds 35 1010 10 10000 6.7 10 12:21 03.08.2019
4301 Clouds 35 1011 10 10000 4.6 350 11:49 03.08.2019
4302 Clouds 35 1011 10 10000 4.6 350 11:28 03.08.2019
4303 Clear 34 1012 11 10000 3.6 340 10:42 03.08.2019
4304 Clear 34 1012 11 10000 3.6 340 10:24 03.08.2019
4305 Clear 32 1012 12 10000 3.1 0 09:44 03.08.2019
4306 Clear 32 1012 12 10000 3.1 0 09:23 03.08.2019
4307 Clear 31 1013 11 10000 3.6 300 08:54 03.08.2019
4308 Clear 30 1013 13 10000 2.6 0 07:56 03.08.2019
4309 Clear 30 1013 13 10000 2.6 0 07:36 03.08.2019
4310 Clear 30 1013 13 10000 2.6 0 07:36 03.08.2019
4311 Clear 29 1012 17 10000 2.6 50 06:39 03.08.2019
4312 Clear 26 1012 27 10000 1 0 04:52 03.08.2019
4313 Clear 24 1012 27 10000 2.1 0 02:39 03.08.2019
4314 Clear 24 1012 20 10000 2.1 320 01:50 03.08.2019
4315 Clear 24 1012 20 10000 2.1 320 01:50 03.08.2019
4316 Clear 26 1012 15 10000 7.7 20 00:49 03.08.2019
4317 Clear 26 1012 16 10000 5.7 30 23:59 02.08.2019
4318 Clear 26 1012 16 10000 5.7 30 23:40 02.08.2019
4319 Clear 27 1012 16 10000 5.7 30 23:19 02.08.2019
4320 Clear 28 1012 14 10000 7.7 30 22:57 02.08.2019
4321 Clear 27 1012 14 10000 7.7 30 22:38 02.08.2019
4322 Clear 28 1012 14 10000 7.7 30 22:19 02.08.2019
4323 Clear 28 1012 14 10000 7.7 30 21:43 02.08.2019
4324 Clear 28 1012 14 10000 6.7 30 21:25 02.08.2019
4325 Clear 29 1011 13 10000 8.7 20 20:59 02.08.2019
4326 Clear 29 1011 13 10000 8.7 20 20:40 02.08.2019
4327 Clear 29 1011 13 10000 8.7 20 20:20 02.08.2019
4328 Clear 29 1011 13 10000 6.2 50 19:46 02.08.2019
4329 Clear 29 1011 13 10000 6.2 50 19:26 02.08.2019
4330 Clear 30 1009 12 10000 8.7 20 18:45 02.08.2019
4331 Clear 30 1009 12 10000 8.7 20 18:26 02.08.2019
4332 Clear 30 1009 12 9000 7.2 50 17:48 02.08.2019
4333 Clear 30 1009 12 9000 7.2 50 17:25 02.08.2019
4334 Clear 31 1009 12 9000 7.2 50 16:58 02.08.2019
4335 Clouds 32 1008 11 9000 9.3 30 16:38 02.08.2019
4336 Clouds 31 1008 11 9000 9.3 30 16:19 02.08.2019
4337 Clouds 33 1008 10 10000 8.7 360 15:39 02.08.2019
4338 Clouds 34 1008 10 10000 8.7 360 15:19 02.08.2019
4339 Clouds 34 1008 9 10000 8.7 360 14:46 02.08.2019
4340 Clouds 35 1008 9 10000 8.7 360 14:19 02.08.2019
4341 Clouds 35 1008 11 10000 7.2 360 13:49 02.08.2019
4342 Clouds 35 1008 11 10000 7.2 360 13:27 02.08.2019
4343 Clouds 35 1009 11 10000 4.6 70 12:46 02.08.2019
4344 Clouds 35 1009 11 10000 4.6 70 12:23 02.08.2019
4345 Clouds 35 1009 11 10000 6.7 320 11:55 02.08.2019
4346 Clouds 35 1009 11 10000 6.7 320 11:37 02.08.2019
4347 Clouds 34 1009 11 10000 6.7 320 11:18 02.08.2019
4348 Clouds 33 1010 11 10000 4.1 60 10:41 02.08.2019
4349 Clouds 33 1010 11 10000 4.1 60 10:23 02.08.2019
4350 Clouds 33 1010 11 10000 4.1 60 09:52 02.08.2019
4351 Clouds 33 1011 13 10000 3.1 100 09:26 02.08.2019
4352 Clear 31 1011 20 10000 3.6 30 08:50 02.08.2019
4353 Clear 31 1011 20 10000 3.6 30 08:23 02.08.2019
4354 Clear 30 1012 30 10000 1.5 0 07:51 02.08.2019
4355 Clear 30 1012 30 10000 1.5 0 07:31 02.08.2019
4356 Clear 30 1012 51 9000 1.5 0 06:51 02.08.2019
4357 Clear 28 1012 51 9000 1.5 0 06:24 02.08.2019
4358 Clear 27 1012 61 8000 1.5 0 05:26 02.08.2019
4359 Clear 21 1011 82 9000 1 0 03:29 02.08.2019
4360 Clear 23 1011 83 10000 0.5 0 02:35 02.08.2019
4361 Clear 24 1011 78 10000 1 0 00:47 02.08.2019
4362 Clear 24 1011 78 10000 1 0 00:18 02.08.2019
4363 Clear 24 1011 78 10000 1 0 23:43 01.08.2019
4364 Clear 25 1012 73 10000 2.1 140 23:19 01.08.2019
4365 Clear 25 1012 69 10000 2.1 150 22:40 01.08.2019
4366 Clear 25 1012 69 10000 2.1 150 22:21 01.08.2019
4367 Clear 27 1012 69 10000 2.1 150 21:44 01.08.2019
4368 Clear 27 1011 65 10000 2.6 150 21:24 01.08.2019
4369 Clear 28 1011 65 10000 2.6 150 20:59 01.08.2019
4370 Clear 28 1011 31 10000 3.1 70 20:40 01.08.2019
4371 Clear 28 1011 31 10000 3.1 70 20:21 01.08.2019
4372 Clear 30 1011 16 10000 4.6 30 19:42 01.08.2019
4373 Clear 30 1011 16 10000 4.6 30 19:20 01.08.2019
4374 Clear 31 1010 15 10000 2.6 60 18:45 01.08.2019
4375 Clear 31 1010 15 10000 2.6 60 18:25 01.08.2019
4376 Clear 31 1010 15 10000 2.6 60 17:56 01.08.2019
4377 Clear 32 1009 19 9000 5.1 40 17:38 01.08.2019
4378 Clear 32 1009 19 9000 5.1 40 17:19 01.08.2019
4379 Clear 33 1008 19 9000 7.2 10 16:44 01.08.2019
4380 Clear 34 1008 19 9000 7.2 10 16:21 01.08.2019
4381 Clear 35 1007 14 10000 7.2 10 15:42 01.08.2019
4382 Clear 35 1007 14 10000 7.2 10 15:20 01.08.2019
4383 Clouds 36 1007 12 10000 7.2 360 14:44 01.08.2019
4384 Clouds 36 1007 12 10000 7.2 360 14:21 01.08.2019
4385 Clouds 37 1008 11 10000 6.2 350 13:58 01.08.2019
4386 Clouds 37 1008 11 10000 6.2 350 13:40 01.08.2019
4387 Clouds 37 1008 11 10000 6.2 350 13:21 01.08.2019
4388 Clouds 37 1009 11 10000 5.1 10 12:49 01.08.2019
4389 Clouds 37 1009 11 10000 5.1 10 12:28 01.08.2019
4390 Clouds 37 1010 11 10000 5.1 330 11:55 01.08.2019
4391 Clouds 37 1010 11 10000 5.1 330 11:36 01.08.2019
4392 Clouds 37 1010 11 10000 5.1 330 11:18 01.08.2019
4393 Clouds 36 1011 13 10000 4.1 60 10:41 01.08.2019
4394 Clouds 36 1011 13 10000 4.1 60 10:41 01.08.2019
4395 Clouds 36 1011 13 10000 4.1 60 10:22 01.08.2019
4396 Clear 35 1011 12 10000 2.1 0 09:48 01.08.2019
4397 Clear 35 1011 12 10000 2.1 0 09:23 01.08.2019
4398 Clear 35 1012 14 10000 7.2 340 08:50 01.08.2019
4399 Clear 35 1012 14 10000 7.2 340 08:21 01.08.2019
4400 Clear 33 1012 15 10000 4.1 40 07:55 01.08.2019
4401 Clear 33 1012 15 10000 4.1 40 07:29 01.08.2019
4402 Clear 31 1012 18 10000 5.7 80 06:58 01.08.2019
4403 Clear 31 1012 18 10000 5.7 80 06:36 01.08.2019
4404 Clear 30 1012 21 10000 1.5 0 05:32 01.08.2019
4405 Clear 30 1012 21 10000 1.5 0 05:32 01.08.2019
4406 Clear 28 1006 17 10000 5.1 350 02:36 01.08.2019
4407 Clear 27 1010 29 10000 3.1 270 01:33 01.08.2019
4408 Clear 27 1011 25 10000 1.5 280 00:27 01.08.2019
4409 Clear 25 1011 25 10000 1.5 280 23:59 31.07.2019
4410 Clear 25 1011 22 10000 3.6 340 23:40 31.07.2019
4411 Clear 28 1011 22 10000 3.6 340 23:19 31.07.2019
4412 Clear 28 1011 22 10000 2.1 310 22:44 31.07.2019
4413 Clear 28 1011 22 10000 2.1 310 22:25 31.07.2019
4414 Clear 30 1011 17 10000 5.7 10 21:41 31.07.2019
4415 Clear 30 1011 17 10000 5.7 10 21:23 31.07.2019
4416 Clear 31 1011 16 10000 7.7 20 20:51 31.07.2019
4417 Clear 31 1011 16 10000 7.7 20 20:24 31.07.2019
4418 Clear 31 1011 17 10000 6.2 20 19:55 31.07.2019
4419 Clear 31 1011 17 10000 6.2 20 19:37 31.07.2019
4420 Clear 31 1011 17 10000 6.2 20 19:19 31.07.2019
4421 Clear 32 1011 16 10000 5.7 20 18:39 31.07.2019
4422 Clear 32 1011 16 10000 5.7 20 18:19 31.07.2019
4423 Clouds 32 1009 14 8000 9.3 20 17:45 31.07.2019
4424 Clouds 33 1009 14 8000 9.3 20 17:20 31.07.2019
4425 Clouds 33 1009 14 8000 7.7 330 16:54 31.07.2019
4426 Clouds 33 1009 14 8000 4.1 0 16:33 31.07.2019
4427 Clouds 35 1009 13 8000 5.7 360 15:59 31.07.2019
4428 Clouds 35 1009 13 8000 5.7 360 15:40 31.07.2019
4429 Clouds 35 1009 13 8000 5.7 360 15:21 31.07.2019
4430 Clouds 36 1009 12 10000 8.2 350 14:42 31.07.2019
4431 Clouds 36 1009 12 10000 8.2 350 14:20 31.07.2019
4432 Clouds 37 1010 11 10000 5.7 340 13:55 31.07.2019
4433 Clouds 37 1010 11 10000 5.7 340 13:37 31.07.2019
4434 Clouds 37 1010 11 10000 5.7 340 13:19 31.07.2019
4435 Clouds 37 1011 12 10000 5.1 350 12:41 31.07.2019
4436 Clouds 37 1011 12 10000 5.1 350 12:23 31.07.2019
4437 Clouds 37 1011 13 10000 5.1 60 11:40 31.07.2019
4438 Clouds 36 1011 13 10000 5.1 60 11:21 31.07.2019
4439 Clear 36 1012 14 10000 6.2 350 10:56 31.07.2019
4440 Clear 36 1012 14 10000 6.2 350 10:38 31.07.2019
4441 Clear 35 1012 14 10000 6.2 350 10:19 31.07.2019
4442 Clear 35 1013 17 10000 3.1 0 09:42 31.07.2019
4443 Clear 34 1013 17 10000 3.1 0 09:23 31.07.2019
4444 Clear 34 1013 18 10000 2.6 0 08:44 31.07.2019
4445 Clear 34 1013 18 10000 2.6 0 08:24 31.07.2019
4446 Clear 32 1014 23 10000 1.5 0 07:48 31.07.2019
4447 Clear 32 1014 23 10000 1.5 0 07:30 31.07.2019
4448 Haze 27 1013 24 8000 1 0 05:23 31.07.2019
4449 Clear 21 1013 37 10000 0.5 0 03:56 31.07.2019
4450 Clear 22 1012 29 10000 0.5 0 00:37 31.07.2019
4451 Clear 27 1012 29 10000 0.5 0 23:49 30.07.2019
4452 Clear 26 1013 33 10000 1.09 358.691 23:27 30.07.2019
4453 Clear 27 1013 33 10000 1.09 358.691 22:49 30.07.2019
4454 Clear 27 1013 44 10000 1 0 22:26 30.07.2019
4455 Clear 28 1013 38 10000 1 0 21:59 30.07.2019
4456 Clear 28 1013 38 10000 1 0 21:37 30.07.2019
4457 Clear 29 1013 38 10000 1 0 21:19 30.07.2019
4458 Clear 30 1013 23 10000 1 0 20:55 30.07.2019
4459 Clear 30 1013 23 10000 1 0 20:36 30.07.2019
4460 Clear 31 1013 23 10000 1 0 20:18 30.07.2019
4461 Clear 30 1013 21 10000 2.6 70 19:42 30.07.2019
4462 Clear 30 1013 21 10000 2.6 70 19:24 30.07.2019
4463 Clear 31 1013 21 10000 2.6 70 18:45 30.07.2019
4464 Clear 32 1012 21 10000 3.1 60 18:21 30.07.2019
4465 Clear 33 1011 14 10000 4.1 30 17:43 30.07.2019
4466 Clear 33 1011 14 10000 4.1 30 17:20 30.07.2019
4467 Clear 34 1011 15 9000 5.7 20 16:55 30.07.2019
4468 Clear 34 1011 15 9000 5.7 20 16:37 30.07.2019
4469 Clear 35 1011 15 9000 5.7 20 16:18 30.07.2019
4470 Clouds 35 1010 14 9000 5.7 10 15:39 30.07.2019
4471 Clouds 35 1010 14 9000 5.7 10 15:39 30.07.2019
4472 Clouds 36 1010 14 9000 5.7 10 15:19 30.07.2019
4473 Clouds 37 1010 15 10000 6.7 360 14:43 30.07.2019
4474 Clouds 37 1010 15 10000 6.7 360 14:43 30.07.2019
4475 Clouds 37 1010 15 10000 6.7 360 14:22 30.07.2019
4476 Clouds 37 1011 16 10000 5.7 20 13:55 30.07.2019
4477 Clouds 37 1011 16 10000 5.7 20 13:36 30.07.2019
4478 Clouds 37 1011 16 10000 5.7 20 13:18 30.07.2019
4479 Clouds 37 1011 14 10000 3.6 70 12:43 30.07.2019
4480 Clouds 37 1011 14 10000 3.6 70 12:24 30.07.2019
4481 Clouds 36 1012 20 10000 4.1 50 11:44 30.07.2019
4482 Clouds 36 1012 20 10000 4.1 50 11:44 30.07.2019
4483 Clouds 36 1012 20 10000 4.1 50 11:23 30.07.2019
4484 Clouds 35 1013 26 10000 4.6 90 10:55 30.07.2019
4485 Clouds 35 1013 26 10000 4.6 90 10:37 30.07.2019
4486 Clouds 34 1013 26 10000 4.6 90 10:19 30.07.2019
4487 Clouds 33 1014 27 9000 3.1 80 09:45 30.07.2019
4488 Clouds 33 1014 27 9000 3.1 80 09:26 30.07.2019
4489 Clear 31 1015 40 9000 2.1 180 08:32 30.07.2019
4490 Clear 30 1015 42 9000 1.5 0 07:52 30.07.2019
4491 Clear 30 1015 42 9000 1.5 0 07:34 30.07.2019
4492 Clear 28 1015 57 9000 1.5 0 06:52 30.07.2019
4493 Clear 28 1015 57 9000 1.5 0 06:32 30.07.2019
4494 Clear 26 1015 65 10000 1.5 0 05:35 30.07.2019
4495 Clear 21 1015 68 10000 1.66 67.2 03:29 30.07.2019
4496 Clear 21 1014 73 10000 1 90 01:22 30.07.2019
4497 Clear 22 1014 64 10000 0.79 11.14 00:27 30.07.2019
4498 Clear 23 1014 60 10000 1.33 24.863 23:57 29.07.2019
4499 Clear 23 1014 60 10000 1.33 24.863 23:38 29.07.2019
4500 Clear 25 1014 60 10000 1.33 24.863 23:19 29.07.2019
4501 Clear 25 1015 57 10000 1.33 24.863 22:54 29.07.2019
4502 Clear 25 1015 57 10000 1.33 24.863 22:36 29.07.2019
4503 Clear 24 1015 57 10000 1.33 24.863 22:18 29.07.2019
4504 Clear 24 1015 57 10000 1 330 21:41 29.07.2019
4505 Clear 24 1015 57 10000 1 330 21:23 29.07.2019
4506 Clouds 25 1015 57 8000 1.66 38.768 20:57 29.07.2019
4507 Clouds 25 1015 57 8000 1.66 38.768 20:38 29.07.2019
4508 Clouds 27 1015 57 8000 1.66 38.768 20:19 29.07.2019
4509 Clouds 26 1015 64 8000 2.1 100 19:43 29.07.2019
4510 Clouds 26 1015 64 8000 2.1 100 19:22 29.07.2019
4511 Clear 28 1014 51 10000 0.5 0 18:55 29.07.2019
4512 Clear 28 1014 51 10000 0.5 0 18:36 29.07.2019
4513 Clear 28 1014 51 10000 0.5 0 18:18 29.07.2019
4514 Clear 28 1014 51 10000 1.5 50 17:46 29.07.2019
4515 Clear 28 1014 51 10000 1.5 50 17:26 29.07.2019
4516 Clear 30 1014 42 10000 1.5 50 16:46 29.07.2019
4517 Clear 30 1014 42 10000 1.5 50 16:26 29.07.2019
4518 Clear 31 1014 45 10000 2.6 40 15:54 29.07.2019
4519 Clear 31 1014 45 10000 2.6 40 15:35 29.07.2019
4520 Clouds 31 1014 45 10000 2.1 80 14:57 29.07.2019
4521 Clouds 31 1014 45 10000 2.1 80 14:39 29.07.2019
4522 Clouds 31 1014 45 10000 2.1 80 14:21 29.07.2019
4523 Thunderstorm 27 1015 83 9000 6.2 70 13:43 29.07.2019
4524 Thunderstorm 27 1015 83 9000 6.2 70 13:23 29.07.2019
4525 Thunderstorm 29 1015 83 9000 6.2 70 12:43 29.07.2019
4526 Clouds 33 1015 31 10000 6.7 130 12:25 29.07.2019
4527 Clouds 33 1015 33 10000 4.6 80 11:45 29.07.2019
4528 Clouds 33 1015 33 10000 4.6 80 11:24 29.07.2019
4529 -273 0 0 0 0 0 10:57 29.07.2019
4530 Clouds 32 1016 35 10000 4.1 140 10:57 29.07.2019
4531 Clouds 32 1016 35 10000 4.1 140 10:39 29.07.2019
4532 Clouds 32 1016 35 10000 4.1 140 10:20 29.07.2019
4533 Clouds 31 1017 40 10000 2.1 0 09:41 29.07.2019
4534 Clouds 30 1017 40 10000 2.1 0 09:19 29.07.2019
4535 Clouds 30 1017 45 10000 2.6 120 08:41 29.07.2019
4536 Clouds 29 1017 45 10000 2.6 120 08:20 29.07.2019
4537 Clouds 29 1018 48 10000 2.1 0 07:45 29.07.2019
4538 Clouds 29 1018 48 10000 2.1 0 07:23 29.07.2019
4539 Haze 26 1018 61 9000 1 0 05:52 29.07.2019
4540 Clouds 25 1018 69 10000 1.5 170 04:59 29.07.2019
4541 Clouds 24 1017 64 10000 1 300 02:28 29.07.2019
4542 Clouds 24 1016 64 10000 1.5 100 01:46 29.07.2019
4543 Clouds 24 1016 64 10000 1.5 100 01:24 29.07.2019
4544 Clear 25 1016 64 10000 2.6 70 00:50 29.07.2019
4545 Clear 25 1016 64 10000 2.6 70 00:22 29.07.2019
4546 Clear 25 1016 64 10000 2.1 90 23:41 28.07.2019
4547 Clear 26 1016 64 10000 2.1 90 23:19 28.07.2019
4548 Clear 26 1016 64 10000 2.1 90 23:19 28.07.2019
4549 Clear 25 1016 64 10000 2.1 90 22:41 28.07.2019
4550 Clear 25 1016 64 10000 2.1 90 22:22 28.07.2019
4551 Clouds 26 1016 60 10000 2.6 80 21:49 28.07.2019
4552 Clouds 27 1016 60 10000 2.6 80 21:19 28.07.2019
4553 Clear 26 1015 60 10000 4.1 100 20:48 28.07.2019
4554 Clear 26 1015 60 10000 4.1 100 20:29 28.07.2019
4555 Clear 27 1015 57 10000 5.7 110 19:56 28.07.2019
4556 Clear 27 1015 57 10000 5.7 110 19:38 28.07.2019
4557 Clear 28 1015 57 10000 5.7 110 19:19 28.07.2019
4558 Clouds 28 1014 54 10000 6.2 100 18:43 28.07.2019
4559 Clouds 28 1014 54 10000 6.2 100 18:24 28.07.2019
4560 Clouds 30 1009 40 10000 6.7 120 17:43 28.07.2019
4561 Clouds 29 1009 40 10000 6.7 120 17:22 28.07.2019
4562 Clouds 30 1012 45 10000 7.2 120 16:58 28.07.2019
4563 Clouds 30 1012 45 10000 7.2 120 16:58 28.07.2019
4564 Clouds 30 1012 45 10000 7.2 120 16:39 28.07.2019
4565 Clouds 30 1012 45 10000 7.2 120 16:21 28.07.2019
4566 Clouds 31 1012 42 10000 7.2 110 15:43 28.07.2019
4567 Clouds 31 1012 42 10000 7.2 110 15:22 28.07.2019
4568 Clouds 31 1012 42 10000 6.2 110 14:38 28.07.2019
4569 Clouds 31 1012 42 10000 6.2 110 14:19 28.07.2019
4570 Clouds 31 1012 40 10000 6.7 120 13:55 28.07.2019
4571 Clouds 31 1012 40 10000 6.7 120 13:36 28.07.2019
4572 Clouds 31 1012 40 10000 6.7 120 13:18 28.07.2019
4573 Clouds 32 1012 35 9000 2.6 0 12:40 28.07.2019
4574 Clouds 32 1012 35 9000 2.6 0 12:22 28.07.2019
4575 Clouds 32 1013 33 9000 3.6 210 11:48 28.07.2019
4576 Clouds 32 1013 33 9000 3.6 210 11:27 28.07.2019
4577 Clouds 32 1014 35 9000 2.6 0 10:42 28.07.2019
4578 Clouds 32 1014 35 9000 2.6 0 10:22 28.07.2019
4579 Clouds 30 1014 45 9000 3.6 120 09:54 28.07.2019
4580 Clouds 30 1014 45 9000 3.6 120 09:36 28.07.2019
4581 Clouds 30 1014 45 9000 3.6 120 09:18 28.07.2019
4582 Clouds 29 1015 51 8000 2.1 0 08:41 28.07.2019
4583 Clouds 28 1015 51 8000 2.1 0 08:18 28.07.2019
4584 Clouds 27 1015 57 8000 1.5 0 07:38 28.07.2019
4585 Clouds 25 1015 64 8000 2.1 190 06:46 28.07.2019
4586 Clear 24 1015 73 7000 2.1 150 05:53 28.07.2019
4587 Clouds 23 1014 68 10000 1.5 170 03:39 28.07.2019
4588 Clouds 23 1014 68 10000 1.5 0 02:24 28.07.2019
4589 Clouds 22 1014 68 10000 1 0 01:20 28.07.2019
4590 Clouds 22 1013 68 10000 3.1 90 00:45 28.07.2019
4591 Clouds 22 1013 68 10000 3.1 90 00:20 28.07.2019
4592 Clouds 23 1013 64 10000 3.1 80 23:46 27.07.2019
4593 Clouds 24 1013 64 10000 3.1 80 23:22 27.07.2019
4594 Clouds 24 1013 64 10000 3.1 80 22:41 27.07.2019
4595 Clouds 25 1013 69 10000 2.6 80 22:22 27.07.2019
4596 Clouds 25 1013 69 10000 2.6 80 22:22 27.07.2019
4597 Clear 25 1013 69 10000 4.6 110 21:41 27.07.2019
4598 Clear 25 1013 69 10000 4.6 110 21:20 27.07.2019
4599 Haze 26 1008 57 9000 4.6 100 20:52 27.07.2019
4600 Haze 25 1008 57 9000 4.6 100 20:26 27.07.2019
4601 Haze 26 1012 60 10000 5.1 80 19:56 27.07.2019
4602 Haze 26 1012 60 10000 5.1 80 19:38 27.07.2019
4603 Clear 27 1012 60 10000 5.1 80 19:18 27.07.2019
4604 Clear 27 1011 57 10000 5.1 90 18:42 27.07.2019
4605 Clear 27 1011 57 10000 5.1 90 18:24 27.07.2019
4606 Clouds 28 1009 51 9000 7.2 100 17:42 27.07.2019
4607 Clouds 28 1009 51 9000 7.2 100 17:42 27.07.2019
4608 Clouds 28 1009 51 9000 7.2 100 17:23 27.07.2019
4609 Clouds 30 1008 48 9000 8.7 110 16:50 27.07.2019
4610 Clouds 30 1008 48 9000 8.7 110 16:32 27.07.2019
4611 Clouds 32 1007 42 10000 5.1 100 15:54 27.07.2019
4612 Clouds 32 1007 42 10000 5.1 100 15:24 27.07.2019
4613 Clouds 34 1007 33 10000 5.7 110 14:51 27.07.2019
4614 Clouds 34 1007 33 10000 5.7 110 14:32 27.07.2019
4615 Clouds 34 1007 31 10000 5.1 120 13:58 27.07.2019
4616 Clouds 34 1007 31 10000 5.1 120 13:39 27.07.2019
4617 Clouds 34 1007 31 10000 5.1 120 13:19 27.07.2019
4618 Clouds 34 1008 27 10000 3.6 140 12:42 27.07.2019
4619 Clouds 34 1008 27 10000 3.6 140 12:22 27.07.2019
4620 Clouds 33 1008 33 10000 3.1 170 11:44 27.07.2019
4621 Clouds 33 1008 33 10000 3.1 170 11:25 27.07.2019
4622 Clouds 32 1009 33 10000 3.6 150 10:43 27.07.2019
4623 Clouds 32 1009 33 10000 3.6 150 10:24 27.07.2019
4624 Clouds 32 1009 33 10000 3.1 130 09:59 27.07.2019
4625 Clouds 32 1009 33 10000 3.1 130 09:39 27.07.2019
4626 Clouds 32 1009 33 10000 3.1 130 09:20 27.07.2019
4627 Clouds 31 1010 37 10000 3.1 110 08:42 27.07.2019
4628 Clouds 31 1010 37 10000 3.1 110 08:24 27.07.2019
4629 Clouds 29 1010 45 9000 2.1 0 07:42 27.07.2019
4630 Clouds 27 1010 45 9000 2.1 0 07:22 27.07.2019
4631 Clouds 27 1010 45 9000 2.1 0 06:52 27.07.2019
4632 Haze 27 1010 57 9000 1 0 06:25 27.07.2019
4633 Mist 25 1010 61 8000 1 90 05:37 27.07.2019
4634 Mist 24 1010 61 8000 1 90 04:51 27.07.2019
4635 Mist 21 1009 82 9000 1.56 79.597 03:50 27.07.2019
4636 Clear 21 1009 77 10000 0.5 0 02:43 27.07.2019
4637 Clear 22 1009 78 10000 1.5 140 01:59 27.07.2019
4638 Clear 22 1009 78 10000 1.5 140 01:36 27.07.2019
4639 Clear 24 1009 78 10000 2.1 140 00:41 27.07.2019
4640 Clear 24 1009 78 10000 2.1 140 00:22 27.07.2019
4641 Clear 23 1009 73 10000 1 110 23:44 26.07.2019
4642 Clear 23 1009 73 10000 1 110 23:44 26.07.2019
4643 Clear 23 1009 73 10000 1 110 23:26 26.07.2019
4644 Clear 25 1010 69 10000 2.1 90 22:43 26.07.2019
4645 Clear 25 1010 69 10000 2.1 90 22:25 26.07.2019
4646 Clear 25 1010 60 10000 2.6 120 21:52 26.07.2019
4647 Clear 25 1010 60 10000 2.6 120 21:21 26.07.2019
4648 Clear 26 1010 60 10000 2.6 120 20:52 26.07.2019
4649 Clear 26 1010 60 10000 2.6 100 20:33 26.07.2019
4650 Clouds 27 1009 57 10000 2.1 170 19:57 26.07.2019
4651 Clouds 27 1009 57 10000 2.1 170 19:38 26.07.2019
4652 Clouds 27 1009 57 10000 2.1 170 19:20 26.07.2019
4653 Clouds 27 1009 57 10000 2.1 170 19:20 26.07.2019
4654 Clouds 27 1009 50 10000 5.1 120 18:41 26.07.2019
4655 Clouds 28 1009 50 10000 5.1 120 18:21 26.07.2019
4656 Clouds 28 1008 51 10000 6.7 110 17:56 26.07.2019
4657 Clouds 28 1008 51 10000 6.7 110 17:37 26.07.2019
4658 Clouds 29 1008 51 10000 6.7 110 17:18 26.07.2019
4659 Clouds 29 1007 48 10000 7.2 120 16:54 26.07.2019
4660 Clouds 29 1007 48 10000 7.2 120 16:36 26.07.2019
4661 Clouds 31 1007 48 10000 7.2 120 16:18 26.07.2019
4662 Clouds 31 1007 45 10000 7.7 120 15:44 26.07.2019
4663 Clouds 32 1007 45 10000 7.7 120 15:21 26.07.2019
4664 Clouds 32 1006 40 10000 7.7 130 14:45 26.07.2019
4665 Clouds 32 1006 40 10000 7.7 130 14:25 26.07.2019
4666 Clouds 33 1007 35 10000 6.7 120 13:47 26.07.2019
4667 Clouds 33 1007 35 10000 6.7 120 13:28 26.07.2019
4668 Clouds 33 1007 35 10000 4.6 150 12:50 26.07.2019
4669 Clouds 33 1007 35 10000 4.6 150 12:24 26.07.2019
4670 Clouds 33 1008 35 10000 5.7 140 11:58 26.07.2019
4671 Clouds 33 1008 35 10000 5.7 140 11:37 26.07.2019
4672 Clouds 32 1008 35 10000 5.7 140 11:18 26.07.2019
4673 Clouds 32 1009 35 10000 6.2 130 10:42 26.07.2019
4674 Clouds 32 1009 35 10000 6.2 130 10:24 26.07.2019
4675 Clouds 31 1009 40 10000 5.1 130 09:50 26.07.2019
4676 Clouds 31 1009 40 10000 5.1 130 09:30 26.07.2019
4677 Clouds 29 1011 35 8000 3.1 80 08:41 26.07.2019
4678 Clouds 29 1011 35 8000 3.1 80 08:21 26.07.2019
4679 Clear 28 1011 48 8000 3.6 60 07:43 26.07.2019
4680 Clear 28 1011 48 8000 3.6 60 07:24 26.07.2019
4681 Haze 26 1011 57 8000 3.6 120 06:31 26.07.2019
4682 Haze 22 1010 73 8000 1.5 120 04:30 26.07.2019
4683 Clear 21 1009 77 9000 2.1 130 03:54 26.07.2019
4684 Clear 22 1009 83 10000 2.1 120 01:50 26.07.2019
4685 Clear 22 1009 83 10000 2.1 120 01:26 26.07.2019
4686 Clear 23 1010 78 10000 1.5 150 00:32 26.07.2019
4687 Clear 23 1010 78 10000 1.5 150 23:48 25.07.2019
4688 Clear 23 1010 78 10000 2.1 170 23:22 25.07.2019
4689 Clear 24 1011 73 10000 2.6 140 22:42 25.07.2019
4690 Clear 24 1011 73 10000 2.6 140 22:23 25.07.2019
4691 Clear 24 1011 73 10000 2.6 150 21:57 25.07.2019
4692 Clear 24 1011 73 10000 2.6 150 21:38 25.07.2019
4693 Clear 26 1011 73 10000 2.6 150 21:20 25.07.2019
4694 Clear 27 1006 57 10000 4.6 90 20:41 25.07.2019
4695 Clear 26 1011 64 10000 3.1 60 20:21 25.07.2019
4696 Clear 26 1011 64 10000 3.1 60 19:41 25.07.2019
4697 Clear 26 1011 64 10000 3.1 60 19:23 25.07.2019
4698 Clouds 27 1010 65 8000 6.7 110 18:43 25.07.2019
4699 Clouds 27 1010 65 8000 6.7 110 18:25 25.07.2019
4700 Haze 27 1009 57 8000 5.7 120 17:51 25.07.2019
4701 Haze 27 1009 57 8000 5.7 120 17:33 25.07.2019
4702 Dust 30 1008 54 6000 6.7 130 16:57 25.07.2019
4703 Dust 30 1008 54 6000 6.7 130 16:39 25.07.2019
4704 Dust 32 1008 54 6000 6.7 130 16:20 25.07.2019
4705 Dust 33 1007 48 6000 7.2 100 15:50 25.07.2019
4706 Dust 35 1007 48 6000 7.2 100 15:21 25.07.2019
4707 Clouds 35 1007 43 6000 9.3 100 14:43 25.07.2019
4708 Clouds 37 1006 14 10000 6.7 350 14:23 25.07.2019
4709 Clouds 37 1007 14 10000 6.2 80 13:59 25.07.2019
4710 Clouds 37 1007 14 10000 6.2 80 13:36 25.07.2019
4711 Clouds 37 1007 14 10000 6.2 80 13:18 25.07.2019
4712 Clouds 37 1007 14 10000 4.1 100 12:34 25.07.2019
4713 Clouds 38 1008 13 10000 2.1 0 11:56 25.07.2019
4714 Clouds 38 1008 13 10000 2.1 0 11:37 25.07.2019
4715 Clouds 38 1008 13 10000 2.1 0 11:19 25.07.2019
4716 Clouds 37 1009 14 10000 3.1 110 10:42 25.07.2019
4717 Clouds 37 1009 14 10000 3.1 110 10:23 25.07.2019
4718 Clouds 36 1010 16 10000 2.1 0 09:44 25.07.2019
4719 Clouds 36 1010 16 10000 2.1 0 09:26 25.07.2019
4720 Clouds 34 1011 16 10000 5.7 350 08:47 25.07.2019
4721 Clouds 34 1011 16 10000 5.7 350 08:20 25.07.2019
4722 Clear 33 1011 18 10000 3.6 30 07:37 25.07.2019
4723 Clear 31 1011 25 10000 1.5 190 06:45 25.07.2019
4724 Clear 28 1011 42 9000 1.5 140 05:53 25.07.2019
4725 Clear 28 1011 42 9000 1.5 140 05:31 25.07.2019
4726 Clear 25 1010 36 10000 1.5 330 04:39 25.07.2019
4727 Clear 22 1010 33 10000 1.27 315.382 02:21 25.07.2019
4728 Clear 23 1010 33 10000 1 300 01:21 25.07.2019
4729 Clear 24 1010 29 10000 0.5 0 00:22 25.07.2019
4730 Clear 28 1010 29 10000 0.5 0 23:52 24.07.2019
4731 Clear 27 1011 31 10000 1.39 335.481 23:31 24.07.2019
4732 Clear 29 1011 31 10000 1.39 335.481 22:58 24.07.2019
4733 Clear 31 1006 15 10000 6.2 350 22:39 24.07.2019
4734 Clear 31 1011 18 10000 4.1 360 22:20 24.07.2019
4735 Clear 31 1011 18 10000 4.1 360 21:43 24.07.2019
4736 Clear 31 1011 18 10000 4.1 360 21:22 24.07.2019
4737 Clear 31 1011 18 10000 4.1 360 20:58 24.07.2019
4738 Clear 30 1011 20 10000 2.1 360 20:38 24.07.2019
4739 Clear 31 1011 20 10000 2.1 360 20:20 24.07.2019
4740 Clear 31 1010 20 10000 1 0 19:54 24.07.2019
4741 Clear 31 1010 20 10000 1 0 19:36 24.07.2019
4742 Clear 31 1010 20 10000 1 0 19:18 24.07.2019
4743 Clear 32 1009 16 10000 3.6 40 18:40 24.07.2019
4744 Clear 32 1009 16 10000 3.6 40 18:22 24.07.2019
4745 Clear 32 1009 16 10000 3.6 40 17:42 24.07.2019
4746 Clear 33 1008 17 10000 4.1 10 17:20 24.07.2019
4747 Clouds 34 1007 16 10000 5.7 10 16:41 24.07.2019
4748 Clouds 34 1007 16 10000 5.7 10 16:22 24.07.2019
4749 Clouds 36 1007 16 10000 6.2 350 15:40 24.07.2019
4750 Clouds 36 1007 16 10000 6.2 350 15:21 24.07.2019
4751 Clouds 37 1007 14 10000 4.1 60 14:56 24.07.2019
4752 Clouds 37 1007 14 10000 4.1 60 14:56 24.07.2019
4753 Clouds 37 1007 14 10000 4.1 60 14:38 24.07.2019
4754 Clouds 37 1007 14 10000 4.1 60 14:18 24.07.2019
4755 Clouds 38 1008 13 10000 4.1 60 13:37 24.07.2019
4756 Clouds 37 1008 13 10000 4.1 60 13:18 24.07.2019
4757 Clouds 37 1009 13 10000 4.6 80 12:49 24.07.2019
4758 Clouds 37 1009 13 10000 4.6 80 12:26 24.07.2019
4759 Clouds 36 1009 13 10000 3.1 60 11:38 24.07.2019
4760 Clouds 36 1009 13 10000 3.1 60 11:19 24.07.2019
4761 Clouds 35 1010 17 10000 2.6 70 10:43 24.07.2019
4762 Clouds 35 1010 17 10000 2.6 70 10:24 24.07.2019
4763 Clear 35 1011 18 9000 2.1 30 09:45 24.07.2019
4764 Clear 35 1011 18 9000 2.1 30 09:24 24.07.2019
4765 Clear 33 1011 27 8000 1.5 0 08:56 24.07.2019
4766 Clear 33 1011 27 8000 1.5 0 08:30 24.07.2019
4767 Haze 32 1012 33 8000 1 0 07:51 24.07.2019
4768 Haze 32 1012 33 8000 1 0 07:24 24.07.2019
4769 Haze 29 1012 48 8000 2.1 150 06:29 24.07.2019
4770 Haze 26 1012 61 7000 3.1 140 05:40 24.07.2019
4771 Clear 24 1011 49 10000 1 0 02:45 24.07.2019
4772 Clear 25 1012 37 10000 1.5 160 01:29 24.07.2019
4773 Clear 26 1011 31 10000 1 0 00:57 24.07.2019
4774 Clear 26 1011 31 10000 1 0 00:57 24.07.2019
4775 Clear 26 1011 31 10000 1 0 00:57 24.07.2019
4776 Clear 28 1011 31 10000 1 0 00:22 24.07.2019
4777 Clear 27 1012 29 10000 2.1 120 23:42 23.07.2019
4778 Clear 27 1012 29 10000 2.1 120 23:23 23.07.2019
4779 Clear 29 1012 18 10000 2.6 350 22:40 23.07.2019
4780 Clear 29 1012 18 10000 2.6 350 22:20 23.07.2019
4781 Clear 30 1012 18 10000 2.6 350 21:58 23.07.2019
4782 Clear 31 1012 36 10000 5.7 350 21:40 23.07.2019
4783 Clear 31 1012 37 10000 5.7 350 21:21 23.07.2019
4784 Clear 30 1012 18 10000 3.1 350 20:47 23.07.2019
4785 Clear 31 1012 18 10000 3.1 350 20:21 23.07.2019
4786 Clear 32 1012 15 10000 6.2 30 19:42 23.07.2019
4787 Clear 32 1012 15 10000 6.2 30 19:19 23.07.2019
4788 Clear 32 1011 17 10000 5.7 40 18:48 23.07.2019
4789 Clear 32 1011 17 10000 5.7 40 18:24 23.07.2019
4790 Clouds 32 1011 23 10000 3.6 60 17:45 23.07.2019
4791 Clouds 32 1011 23 10000 3.6 60 17:25 23.07.2019
4792 Clouds 33 1010 16 10000 5.7 360 16:57 23.07.2019
4793 Clouds 33 1010 16 10000 5.7 360 16:39 23.07.2019
4794 Clouds 35 1010 16 10000 5.7 360 16:18 23.07.2019
4795 Clouds 35 1009 14 10000 6.2 10 15:43 23.07.2019
4796 Clouds 35 1009 14 10000 6.2 10 15:23 23.07.2019
4797 Clouds 36 1010 14 10000 3.1 360 14:39 23.07.2019
4798 Clouds 36 1010 14 10000 3.1 360 14:20 23.07.2019
4799 Clouds 36 1011 14 10000 3.6 350 13:58 23.07.2019
4800 Clouds 36 1011 14 10000 3.6 350 13:39 23.07.2019
4801 Clouds 36 1011 14 10000 3.6 350 13:20 23.07.2019
4802 Clouds 36 1012 13 10000 2.6 0 12:47 23.07.2019
4803 Clouds 36 1012 13 10000 2.6 0 12:25 23.07.2019
4804 Clouds 35 1013 13 10000 2.1 0 11:47 23.07.2019
4805 Clouds 35 1013 13 10000 2.1 0 11:29 23.07.2019
4806 Clouds 34 1013 15 10000 3.1 80 10:57 23.07.2019
4807 Clouds 34 1013 15 10000 3.1 80 10:38 23.07.2019
4808 Clouds 33 1013 15 10000 3.1 80 10:19 23.07.2019
4809 Clear 33 1014 17 10000 2.6 0 09:40 23.07.2019
4810 Clear 33 1014 17 10000 2.6 0 09:18 23.07.2019
4811 Clear 32 1014 25 10000 1.5 0 08:40 23.07.2019
4812 Clear 31 1014 25 10000 1.5 0 08:19 23.07.2019
4813 Clear 31 1015 33 10000 1.5 0 07:55 23.07.2019
4814 Clear 31 1015 33 10000 1.5 0 07:33 23.07.2019
4815 Haze 29 1011 35 9000 2.1 0 06:38 23.07.2019
4816 Haze 27 1015 57 8000 1.5 130 05:57 23.07.2019
4817 Clear 25 1014 29 10000 2.1 260 02:25 23.07.2019
4818 Clear 25 1014 31 10000 1 0 01:29 23.07.2019
4819 Clear 27 1014 23 10000 1.5 200 00:30 23.07.2019
4820 Clear 28 1008 18 10000 3.6 320 23:42 22.07.2019
4821 Clear 29 1013 17 10000 4.1 30 23:21 22.07.2019
4822 Clear 29 1013 17 10000 4.1 30 22:58 22.07.2019
4823 Clear 29 1013 17 10000 4.1 30 22:40 22.07.2019
4824 Clear 29 1013 17 10000 4.1 30 22:20 22.07.2019
4825 Clear 29 1013 17 10000 4.1 30 22:20 22.07.2019
4826 Clear 30 1013 16 10000 6.2 30 21:42 22.07.2019
4827 Clear 30 1013 16 10000 6.2 30 21:21 22.07.2019
4828 Clear 30 1013 16 10000 6.7 30 20:48 22.07.2019
4829 Clear 30 1013 16 10000 6.7 30 20:29 22.07.2019
4830 Clear 31 1013 15 10000 8.7 30 19:55 22.07.2019
4831 Clear 31 1013 15 10000 8.7 30 19:36 22.07.2019
4832 Clear 31 1013 15 10000 8.7 30 19:18 22.07.2019
4833 Clear 32 1012 14 10000 8.7 20 18:41 22.07.2019
4834 Clear 32 1012 14 10000 8.7 20 18:22 22.07.2019
4835 Clear 32 1012 14 9000 7.7 20 17:42 22.07.2019
4836 Clear 32 1012 14 9000 7.7 20 17:24 22.07.2019
4837 Clear 33 1011 18 9000 6.7 30 16:43 22.07.2019
4838 Clear 33 1011 18 9000 6.7 30 16:22 22.07.2019
4839 Clear 35 1011 10 10000 7.7 50 15:59 22.07.2019
4840 Clear 35 1011 10 10000 7.7 50 15:38 22.07.2019
4841 Clear 35 1011 10 10000 7.7 50 15:18 22.07.2019
4842 Clear 36 1011 9 10000 5.7 40 14:43 22.07.2019
4843 Clear 36 1011 9 10000 5.7 40 14:21 22.07.2019
4844 Clear 36 1011 9 10000 5.7 40 14:21 22.07.2019
4845 Clouds 36 1012 8 10000 6.2 40 13:48 22.07.2019
4846 Clouds 36 1012 8 10000 6.2 40 13:29 22.07.2019
4847 Clouds 37 1012 8 10000 6.2 50 12:47 22.07.2019
4848 Clouds 37 1012 8 10000 6.2 50 12:28 22.07.2019
4849 Clouds 37 1013 8 10000 7.2 40 11:45 22.07.2019
4850 Clouds 37 1013 8 10000 7.2 40 11:25 22.07.2019
4851 Clouds 36 1014 11 10000 5.1 40 10:58 22.07.2019
4852 Clouds 36 1014 11 10000 5.1 40 10:33 22.07.2019
4853 Clouds 35 1014 14 10000 6.2 40 09:45 22.07.2019
4854 Clouds 35 1014 14 10000 6.2 40 09:26 22.07.2019
4855 Clear 33 1015 17 10000 2.1 0 08:56 22.07.2019
4856 Clear 33 1015 17 10000 2.1 0 08:36 22.07.2019
4857 Clear 32 1015 17 10000 2.1 0 08:18 22.07.2019
4858 Clear 31 1016 28 9000 1.5 0 07:41 22.07.2019
4859 Clear 29 1016 28 9000 1.5 0 07:22 22.07.2019
4860 Clear 25 1015 31 10000 1 0 04:53 22.07.2019
4861 Clear 25 1014 25 10000 1 0 02:57 22.07.2019
4862 Clear 28 1014 21 10000 3.1 210 00:58 22.07.2019
4863 Clear 28 1014 21 10000 3.1 210 00:38 22.07.2019
4864 Clear 28 1014 21 10000 3.1 210 00:38 22.07.2019
4865 Clear 28 1014 21 10000 3.1 210 00:38 22.07.2019
4866 Clear 29 1014 21 10000 3.1 210 00:18 22.07.2019
4867 Clear 28 1014 16 10000 3.6 350 23:42 21.07.2019
4868 Clear 30 1015 14 10000 4.6 10 22:56 21.07.2019
4869 Clear 30 1015 14 10000 4.6 10 22:37 21.07.2019
4870 Clear 30 1015 14 10000 4.6 10 22:19 21.07.2019
4871 Clear 30 1015 28 10000 5.1 20 21:48 21.07.2019
4872 Clear 30 1015 24 10000 5.1 20 21:25 21.07.2019
4873 Clear 30 1015 24 10000 5.1 20 20:56 21.07.2019
4874 Clear 30 1015 32 10000 4.1 20 20:38 21.07.2019
4875 Clear 31 1015 32 10000 4.1 20 20:20 21.07.2019
4876 Clear 31 1015 32 10000 4.1 20 19:47 21.07.2019
4877 Clear 31 1015 32 10000 6.2 20 19:26 21.07.2019
4878 Clear 31 1015 32 10000 6.2 20 18:48 21.07.2019
4879 Clear 32 1014 20 10000 7.7 20 18:26 21.07.2019
4880 Clear 32 1014 20 10000 7.7 20 18:26 21.07.2019
4881 Clear 32 1013 20 9000 8.7 30 17:44 21.07.2019
4882 Clear 32 1013 20 9000 8.7 30 17:21 21.07.2019
4883 Clear 32 1013 20 9000 8.7 30 16:59 21.07.2019
4884 Clouds 33 1012 20 8000 5.7 30 16:40 21.07.2019
4885 Clouds 33 1012 20 8000 5.7 30 16:20 21.07.2019
4886 Clouds 35 1011 12 10000 10.3 350 15:39 21.07.2019
4887 Clouds 35 1011 12 10000 10.3 350 15:19 21.07.2019
4888 Clouds 36 1011 12 10000 6.91 56.961 14:42 21.07.2019
4889 Clouds 37 1011 12 10000 6.2 60 14:23 21.07.2019
4890 Clouds 37 1015 11 10000 4.6 60 13:53 21.07.2019
4891 Clouds 37 1012 11 10000 5.1 50 13:32 21.07.2019
4892 Clouds 37 1013 12 10000 6.2 60 12:46 21.07.2019
4893 Clouds 37 1013 12 10000 6.2 60 12:28 21.07.2019
4894 Clouds 36 1014 14 10000 5.7 110 11:55 21.07.2019
4895 Clouds 36 1014 14 10000 5.7 110 11:37 21.07.2019
4896 Clouds 35 1014 14 10000 5.7 110 11:18 21.07.2019
4897 Clouds 35 1015 15 10000 6.2 40 10:41 21.07.2019
4898 Clouds 35 1015 15 10000 6.2 40 10:22 21.07.2019
4899 Clouds 34 1015 16 10000 4.1 350 09:42 21.07.2019
4900 Clouds 34 1015 16 10000 4.1 350 09:24 21.07.2019
4901 Clouds 33 1015 16 10000 4.1 350 08:45 21.07.2019
4902 Clouds 33 1015 16 10000 4.1 350 08:45 21.07.2019
4903 Clouds 33 1016 18 10000 3.1 350 08:26 21.07.2019
4904 Clouds 31 1016 33 9000 2.1 130 07:39 21.07.2019
4905 Clear 29 1017 45 9000 2.6 90 06:52 21.07.2019
4906 Clear 26 1017 65 8000 1.5 0 05:43 21.07.2019
4907 Clear 25 1016 64 10000 1 0 02:52 21.07.2019
4908 Clear 26 1015 60 10000 0.99 329.831 01:19 21.07.2019
4909 Clear 26 1015 57 10000 1 0 00:40 21.07.2019
4910 Clear 27 1015 57 10000 1 0 00:18 21.07.2019
4911 Clear 26 1015 41 10000 1.29 353.91 23:40 20.07.2019
4912 Clear 27 1015 41 10000 1.29 353.91 23:21 20.07.2019
4913 Clear 29 1015 46 10000 2.1 80 22:44 20.07.2019
4914 Clear 29 1015 46 10000 2.1 80 22:22 20.07.2019
4915 Clear 29 1015 46 10000 1.5 0 21:46 20.07.2019
4916 Clear 29 1015 46 10000 1.5 0 21:28 20.07.2019
4917 Clear 30 1015 46 10000 2.6 30 20:57 20.07.2019
4918 Clear 30 1015 43 10000 2.6 30 20:38 20.07.2019
4919 Clear 30 1015 43 10000 2.6 30 20:18 20.07.2019
4920 Clear 30 1015 43 10000 2.6 30 20:18 20.07.2019
4921 Clear 30 1014 15 10000 5.7 40 19:44 20.07.2019
4922 Clear 30 1014 15 10000 5.7 40 19:19 20.07.2019
4923 Clear 31 1014 43 10000 6.2 40 18:41 20.07.2019
4924 Clear 31 1014 42 10000 6.2 40 18:20 20.07.2019
4925 Clear 32 1013 42 10000 6.2 30 17:51 20.07.2019
4926 Clear 32 1013 42 10000 6.2 30 17:23 20.07.2019
4927 Clear 32 1013 42 10000 4.1 0 16:44 20.07.2019
4928 Clear 33 1012 18 9000 6.2 36 16:26 20.07.2019
4929 Clear 33 1012 21 10000 5.1 10 15:57 20.07.2019
4930 Clear 33 1012 21 10000 5.1 10 15:38 20.07.2019
4931 Clear 35 1012 21 10000 5.1 10 15:19 20.07.2019
4932 Clouds 35 1012 26 10000 2.6 0 14:47 20.07.2019
4933 Clouds 37 1013 16 10000 1.5 0 14:22 20.07.2019
4934 Clouds 37 1013 16 10000 1.5 0 13:39 20.07.2019
4935 Clouds 36 1013 16 10000 1.5 0 13:20 20.07.2019
4936 Clouds 36 1013 16 10000 1.5 0 13:20 20.07.2019
4937 Clouds 35 1014 16 10000 2.1 0 12:54 20.07.2019
4938 Clouds 34 1014 16 10000 2.1 0 12:21 20.07.2019
4939 Clouds 34 1015 21 10000 3.1 0 11:56 20.07.2019
4940 Clouds 34 1015 21 10000 3.1 0 11:24 20.07.2019
4941 Clouds 33 1016 24 10000 2.6 0 10:55 20.07.2019
4942 Clouds 33 1016 24 10000 2.6 0 10:36 20.07.2019
4943 Clouds 32 1016 24 10000 2.6 0 10:18 20.07.2019
4944 Clouds 31 1016 30 10000 2.1 0 09:45 20.07.2019
4945 Clouds 30 1016 30 10000 2.1 0 09:18 20.07.2019
4946 Clouds 30 1016 30 10000 2.1 0 09:18 20.07.2019
4947 Clouds 30 1017 37 10000 2.6 0 08:44 20.07.2019
4948 Clouds 29 1017 37 10000 2.6 0 08:20 20.07.2019
4949 Haze 27 1017 47 9000 2.6 360 07:20 20.07.2019
4950 Haze 27 1017 57 9000 1.5 0 06:41 20.07.2019
4951 Mist 23 1017 60 7000 1.5 110 04:31 20.07.2019
4952 Clear 21 1016 82 8000 2.1 90 03:28 20.07.2019
4953 Clear 23 1015 73 10000 2.1 170 01:21 20.07.2019
4954 Clear 23 1015 73 10000 2.1 170 01:21 20.07.2019
4955 Clear 24 1015 69 10000 2.1 190 00:46 20.07.2019
4956 Clear 24 1015 69 10000 2.1 190 00:21 20.07.2019
4957 Clear 25 1015 69 10000 2.1 190 23:44 19.07.2019
4958 Clear 24 1015 68 10000 2.6 110 23:25 19.07.2019
4959 Clear 25 1015 60 10000 2.6 90 22:50 19.07.2019
4960 Clear 25 1015 60 10000 2.6 90 22:26 19.07.2019
4961 Clear 26 1015 60 10000 2.6 90 21:51 19.07.2019
4962 Clear 26 1015 53 10000 1.5 0 21:33 19.07.2019
4963 Clear 27 1015 53 10000 1.5 0 20:58 19.07.2019
4964 Clear 27 1014 47 10000 2.1 100 20:38 19.07.2019
4965 Clear 28 1014 47 10000 2.1 100 20:20 19.07.2019
4966 Clear 29 1014 39 10000 5.1 140 19:35 19.07.2019
4967 Clear 29 1013 39 10000 3.6 130 18:43 19.07.2019
4968 Clear 29 1013 39 10000 3.6 130 18:25 19.07.2019
4969 Clear 32 1012 11 10000 5.1 50 17:55 19.07.2019
4970 Clear 32 1012 11 10000 5.1 50 17:29 19.07.2019
4971 Clear 32 1012 11 10000 5.1 50 16:57 19.07.2019
4972 Clear 32 1012 11 10000 5.1 50 16:57 19.07.2019
4973 Clear 33 1011 11 9000 6.2 40 16:39 19.07.2019
4974 Clear 34 1011 11 9000 6.2 40 16:18 19.07.2019
4975 Clouds 34 1011 13 9000 7.2 360 15:43 19.07.2019
4976 Clouds 34 1011 13 9000 7.2 360 15:24 19.07.2019
4977 Clouds 35 1011 16 10000 6.2 350 14:45 19.07.2019
4978 Clouds 35 1011 16 10000 6.2 350 14:25 19.07.2019
4979 Clouds 35 1011 15 10000 6.2 350 13:47 19.07.2019
4980 Clouds 35 1011 15 10000 6.2 350 13:27 19.07.2019
4981 Clouds 34 1012 18 10000 4.1 20 12:58 19.07.2019
4982 Clouds 34 1012 18 10000 4.1 20 12:38 19.07.2019
4983 Clouds 34 1012 18 10000 4.1 20 12:19 19.07.2019
4984 Clouds 34 1012 19 10000 4.6 40 11:45 19.07.2019
4985 Clouds 33 1012 19 10000 4.6 40 11:18 19.07.2019
4986 Clouds 33 1012 19 10000 4.6 40 11:18 19.07.2019
4987 Clouds 33 1013 18 10000 4.1 70 10:48 19.07.2019
4988 Clouds 33 1013 18 10000 4.1 70 10:23 19.07.2019
4989 Clouds 31 1014 28 9000 2.6 130 09:59 19.07.2019
4990 Clouds 31 1014 28 9000 2.6 130 09:41 19.07.2019
4991 Clouds 30 1014 28 9000 2.6 130 09:22 19.07.2019
4992 Clouds 30 1014 37 8000 2.6 190 08:49 19.07.2019
4993 Clouds 30 1014 37 8000 2.6 190 08:22 19.07.2019
4994 Clear 28 1015 44 8000 3.6 170 07:29 19.07.2019
4995 Clear 25 1015 53 8000 1.5 0 06:19 19.07.2019
4996 Clear 22 1014 68 10000 1.12 26.519 02:55 19.07.2019
4997 Clear 23 1014 68 10000 1 0 01:21 19.07.2019
4998 Clear 23 1013 68 10000 1 0 00:45 19.07.2019
4999 Clear 24 1014 68 10000 2.1 140 23:58 18.07.2019
5000 Clear 24 1014 68 10000 2.1 140 23:39 18.07.2019
5001 Clear 24 1014 68 10000 2.1 140 23:21 18.07.2019
5002 Clear 24 1014 64 10000 2.6 150 22:41 18.07.2019
5003 Clear 25 1014 64 10000 2.6 150 22:20 18.07.2019
5004 Clear 26 1009 54 10000 4.1 60 21:49 18.07.2019
5005 Clear 26 1009 54 10000 4.1 60 21:31 18.07.2019
5006 Clear 26 1013 60 10000 3.6 150 20:54 18.07.2019
5007 Clear 26 1013 60 10000 3.6 150 20:36 18.07.2019
5008 Clear 27 1013 60 10000 3.6 150 20:18 18.07.2019
5009 Clear 27 1013 57 10000 5.7 130 19:45 18.07.2019
5010 Clear 29 1013 57 10000 5.7 130 19:20 18.07.2019
5011 Clear 29 1012 51 10000 5.1 100 18:49 18.07.2019
5012 Clear 30 1012 51 10000 5.1 100 18:21 18.07.2019
5013 Clear 31 1011 26 9000 6.7 50 17:44 18.07.2019
5014 Clear 31 1011 26 9000 6.7 50 17:25 18.07.2019
5015 Clear 33 1010 13 10000 6.2 40 16:58 18.07.2019
5016 Clear 33 1010 13 10000 6.2 40 16:40 18.07.2019
5017 Clear 33 1010 13 10000 6.2 40 16:19 18.07.2019
5018 Clear 33 1010 13 10000 6.2 40 15:53 18.07.2019
5019 Clear 34 1009 13 10000 5.7 50 15:34 18.07.2019
5020 Clear 35 1009 13 10000 4.6 50 14:55 18.07.2019
5021 Clear 35 1009 12 10000 5.7 50 14:36 18.07.2019
5022 Clouds 36 1009 12 10000 5.1 70 13:52 18.07.2019
5023 Clouds 36 1009 9 10000 5.1 70 13:31 18.07.2019
5024 Clouds 36 1011 12 10000 3.1 70 12:57 18.07.2019
5025 Clouds 36 1011 12 10000 3.1 70 12:37 18.07.2019
5026 Clouds 36 1011 12 10000 3.1 70 12:18 18.07.2019
5027 Clouds 36 1011 12 10000 4.1 50 11:47 18.07.2019
5028 Clouds 36 1011 12 10000 4.1 50 11:26 18.07.2019
5029 Clouds 35 1012 10 10000 4.6 50 10:51 18.07.2019
5030 Clear 34 1013 13 10000 3.6 10 09:51 18.07.2019
5031 Clear 33 1013 13 10000 3.6 10 09:27 18.07.2019
5032 Clear 33 1013 16 10000 5.1 340 08:55 18.07.2019
5033 Clear 33 1013 14 10000 3.6 0 08:25 18.07.2019
5034 Clear 31 1013 14 10000 3.6 0 07:59 18.07.2019
5035 Clear 31 1013 13 10000 2.1 0 07:36 18.07.2019
5036 Clear 29 1013 23 10000 1 0 06:55 18.07.2019
5037 Clear 27 1013 23 10000 1 0 06:30 18.07.2019
5038 Clear 22 1013 49 10000 1 0 03:56 18.07.2019
5039 Clear 22 1013 77 10000 0.5 0 02:51 18.07.2019
5040 Clear 24 1008 64 10000 2.1 110 01:36 18.07.2019
5041 Clear 25 1012 73 10000 1.5 0 00:23 18.07.2019
5042 Clear 25 1013 69 10000 2.1 210 23:40 17.07.2019
5043 Clear 26 1013 69 10000 2.1 210 23:18 17.07.2019
5044 Clear 26 1013 64 10000 2.1 180 22:41 17.07.2019
5045 Clear 28 1013 64 10000 2.1 180 22:22 17.07.2019
5046 Clear 27 1013 60 10000 2.1 0 21:58 17.07.2019
5047 Clear 27 1013 60 10000 2.1 0 21:38 17.07.2019
5048 Clear 28 1013 60 10000 2.1 0 21:20 17.07.2019
5049 Clear 28 1013 57 10000 1 0 20:56 17.07.2019
5050 Clear 28 1013 57 10000 1 0 20:38 17.07.2019
5051 Clear 28 1013 57 10000 1 0 20:18 17.07.2019
5052 Clear 29 1012 57 10000 2.6 140 19:42 17.07.2019
5053 Clear 29 1012 57 10000 2.6 140 19:20 17.07.2019
5054 Clear 29 1011 51 10000 3.1 120 18:45 17.07.2019
5055 Clear 30 1011 51 10000 3.1 120 18:21 17.07.2019
5056 Clear 31 1011 39 9000 2.1 80 17:57 17.07.2019
5057 Clear 31 1011 39 9000 2.1 80 17:39 17.07.2019
5058 Clear 32 1011 39 9000 2.1 80 17:20 17.07.2019
5059 Clear 32 1009 38 8000 3.6 80 16:40 17.07.2019
5060 Clear 34 1009 38 8000 3.6 80 16:20 17.07.2019
5061 Clouds 35 1009 14 9000 6.2 360 15:51 17.07.2019
5062 Clouds 35 1009 14 9000 6.2 360 15:31 17.07.2019
5063 Clouds 36 1009 12 10000 2.6 100 14:57 17.07.2019
5064 Clouds 36 1009 12 10000 2.6 100 14:38 17.07.2019
5065 Clouds 36 1009 12 10000 2.6 100 14:20 17.07.2019
5066 Clouds 36 1010 12 10000 3.1 100 13:49 17.07.2019
5067 Clouds 36 1010 12 10000 3.1 100 13:31 17.07.2019
5068 Clouds 35 1010 12 10000 3.1 100 12:55 17.07.2019
5069 Clouds 35 1011 12 10000 3.1 80 12:36 17.07.2019
5070 Clouds 35 1011 12 10000 3.1 80 12:18 17.07.2019
5071 Clouds 35 1011 12 10000 3.6 350 11:40 17.07.2019
5072 Clouds 35 1011 12 10000 3.6 350 11:40 17.07.2019
5073 Clouds 35 1011 12 10000 3.6 350 11:19 17.07.2019
5074 Clouds 35 1011 12 10000 3.6 350 10:43 17.07.2019
5075 Clouds 34 1012 14 10000 1.5 0 10:20 17.07.2019
5076 Clear 33 1013 14 10000 3.6 40 09:45 17.07.2019
5077 Clear 33 1013 14 10000 3.6 40 09:26 17.07.2019
5078 Clear 32 1013 18 10000 1.5 0 08:44 17.07.2019
5079 Clear 30 1013 18 10000 1.5 0 08:22 17.07.2019
5080 Clear 30 1013 27 10000 1.5 0 07:53 17.07.2019
5081 Clear 30 1013 27 10000 1.5 0 07:28 17.07.2019
5082 Clear 27 1013 37 9000 1.5 0 06:59 17.07.2019
5083 Clear 27 1013 37 9000 1.5 0 06:38 17.07.2019
5084 Haze 25 1013 37 9000 1.5 0 06:18 17.07.2019
5085 Haze 24 1013 64 7000 1.5 0 05:32 17.07.2019
5086 Haze 22 1013 73 9000 1 0 04:56 17.07.2019
5087 Clear 20 1013 77 9000 1 0 03:50 17.07.2019
5088 Clear 20 1013 73 10000 1 40 02:32 17.07.2019
5089 Clear 23 1013 77 10000 1.5 0 01:41 17.07.2019
5090 Clear 24 1013 77 10000 1.5 0 01:20 17.07.2019
5091 Clear 24 1013 78 10000 2.1 140 00:38 17.07.2019
5092 Clear 25 1013 78 10000 2.1 140 00:19 17.07.2019
5093 Clear 25 1013 64 10000 2.1 180 23:42 16.07.2019
5094 Clear 25 1013 64 10000 2.1 180 23:22 16.07.2019
5095 Clear 25 1013 64 10000 2.1 110 22:43 16.07.2019
5096 Clear 25 1013 64 10000 2.1 110 22:24 16.07.2019
5097 Clear 25 1013 64 10000 1 0 21:56 16.07.2019
5098 Clear 25 1013 64 10000 1 0 21:36 16.07.2019
5099 Clear 26 1013 64 10000 1 0 21:18 16.07.2019
5100 Clear 27 1013 24 10000 2.6 110 20:41 16.07.2019
5101 Clear 29 1013 24 10000 2.6 110 20:22 16.07.2019
5102 Clear 28 1012 44 10000 2.6 100 19:54 16.07.2019
5103 Clouds 30 1008 47 10000 3.6 30 19:30 16.07.2019
5104 Clouds 31 1006 12 10000 8.2 350 18:59 16.07.2019
5105 Clouds 31 1006 12 10000 8.2 350 18:40 16.07.2019
5106 Clear 31 1010 25 10000 5.1 30 18:20 16.07.2019
5107 Clear 31 1010 25 10000 5.1 30 17:44 16.07.2019
5108 Clouds 32 1005 25 10000 7.7 340 17:26 16.07.2019
5109 Clear 32 1009 13 10000 6.2 10 16:49 16.07.2019
5110 Clear 33 1009 13 10000 6.2 10 16:25 16.07.2019
5111 Clear 34 1008 25 10000 4.6 350 15:57 16.07.2019
5112 Clouds 34 1004 13 10000 8.7 350 15:38 16.07.2019
5113 Clouds 34 1004 13 10000 8.7 350 15:38 16.07.2019
5114 Clear 36 1008 9 10000 2.1 0 15:19 16.07.2019
5115 Clear 36 1008 9 10000 2.1 0 14:47 16.07.2019
5116 Clear 36 1008 9 10000 2.1 0 14:28 16.07.2019
5117 Clear 36 1009 8 10000 3.1 340 13:57 16.07.2019
5118 Clear 36 1009 8 10000 3.1 340 13:37 16.07.2019
5119 Clear 36 1009 8 10000 3.1 340 13:18 16.07.2019
5120 Clear 36 1009 10 10000 3.1 340 12:43 16.07.2019
5121 Clear 36 1009 10 10000 3.1 340 12:20 16.07.2019
5122 Clear 36 1010 10 10000 3.1 80 11:54 16.07.2019
5123 Clear 36 1010 10 10000 3.1 80 11:36 16.07.2019
5124 Clear 35 1010 10 10000 3.1 80 11:18 16.07.2019
5125 Clear 35 1010 10 10000 3.1 80 11:18 16.07.2019
5126 Clear 35 1010 10 10000 3.1 0 10:43 16.07.2019
5127 Clear 35 1010 10 10000 3.1 0 10:20 16.07.2019
5128 Clear 34 1011 11 10000 5.7 360 09:43 16.07.2019
5129 Clear 33 1011 13 10000 5.7 360 09:21 16.07.2019
5130 Clear 33 1011 11 10000 6.7 360 08:48 16.07.2019
5131 Clear 33 1011 11 10000 6.7 360 08:27 16.07.2019
5132 Clear 33 1011 11 10000 6.7 360 07:57 16.07.2019
5133 Clear 32 1011 12 10000 5.1 320 07:36 16.07.2019
5134 Clear 30 1011 14 10000 2.1 260 06:59 16.07.2019
5135 Clear 30 1011 14 10000 2.1 260 06:37 16.07.2019
5136 Clear 29 1011 14 10000 2.1 260 05:52 16.07.2019
5137 Clear 28 1011 19 10000 2.6 250 05:28 16.07.2019
5138 Clear 26 1011 23 10000 0.59 313.293 04:36 16.07.2019
5139 Clear 24 1011 24 10000 1.5 0 03:43 16.07.2019
5140 Clear 25 1010 20 10000 1.5 0 02:46 16.07.2019
5141 Clear 25 1010 20 10000 1.5 0 02:28 16.07.2019
5142 Clear 26 1009 17 10000 3.6 30 01:26 16.07.2019
5143 Clear 26 1009 16 10000 8.2 10 00:25 16.07.2019
5144 Clear 27 1010 24 10000 5.7 360 23:59 15.07.2019
5145 Clear 27 1010 24 10000 5.7 360 23:39 15.07.2019
5146 Clear 28 1010 24 10000 5.7 360 23:20 15.07.2019
5147 Clear 28 1010 24 10000 9.3 20 22:44 15.07.2019
5148 Clear 28 1010 24 10000 9.3 20 22:20 15.07.2019
5149 Clear 28 1010 24 10000 7.7 20 21:57 15.07.2019
5150 Clear 28 1010 24 10000 7.7 20 21:39 15.07.2019
5151 Clear 29 1010 23 10000 7.7 20 21:19 15.07.2019
5152 Clear 29 1010 15 10000 8.7 10 20:44 15.07.2019
5153 Clear 29 1010 15 10000 8.7 10 20:24 15.07.2019
5154 Clear 30 1010 13 10000 10.3 10 19:57 15.07.2019
5155 Clear 30 1010 13 10000 10.3 10 19:38 15.07.2019
5156 Clear 30 1010 13 10000 10.3 10 19:18 15.07.2019
5157 Clear 30 1008 12 10000 12.9 10 18:44 15.07.2019
5158 Clear 30 1008 12 10000 12.9 10 18:21 15.07.2019
5159 Clear 31 1007 11 9000 11.3 20 17:56 15.07.2019
5160 Clear 31 1007 11 9000 11.3 20 17:56 15.07.2019
5161 Clear 31 1007 11 9000 11.3 20 17:38 15.07.2019
5162 Clear 31 1007 11 9000 11.3 20 17:20 15.07.2019
5163 Clear 32 1007 11 8000 11.8 10 16:57 15.07.2019
5164 Clear 32 1007 11 8000 11.8 10 16:36 15.07.2019
5165 Clear 32 1007 11 8000 11.8 10 16:36 15.07.2019
5166 Clear 32 1007 11 8000 11.8 10 16:18 15.07.2019
5167 Dust 33 1007 11 8000 10.3 20 15:38 15.07.2019
5168 Dust 33 1007 11 8000 10.3 20 15:38 15.07.2019
5169 Dust 33 1007 11 8000 10.3 20 15:20 15.07.2019
5170 Clear 34 1006 11 9000 10.8 10 14:55 15.07.2019
5171 Clear 34 1006 11 9000 10.8 10 14:37 15.07.2019
5172 Clear 34 1006 11 9000 10.8 10 14:18 15.07.2019
5173 Clear 34 1007 10 10000 8.7 10 13:43 15.07.2019
5174 Clear 34 1007 10 10000 8.7 10 13:18 15.07.2019
5175 Clear 35 1007 10 10000 9.3 20 12:43 15.07.2019
5176 Clear 35 1007 10 10000 9.3 20 12:23 15.07.2019
5177 Clear 35 1007 9 10000 10.8 10 11:44 15.07.2019
5178 Clear 35 1007 9 10000 10.8 10 11:26 15.07.2019
5179 Clear 34 1008 11 10000 8.2 10 10:49 15.07.2019
5180 Clear 34 1008 11 10000 8.2 10 10:30 15.07.2019
5181 Clear 33 1008 11 10000 9.3 360 09:58 15.07.2019
5182 Clear 33 1008 11 10000 9.3 360 09:39 15.07.2019
5183 Clear 33 1008 11 10000 9.3 360 09:18 15.07.2019
5184 Clear 32 1008 12 10000 12.3 10 08:42 15.07.2019
5185 Clear 32 1008 12 10000 12.3 10 08:23 15.07.2019
5186 Clear 31 1009 13 10000 6.7 10 07:41 15.07.2019
5187 Clear 31 1009 13 10000 6.7 10 07:20 15.07.2019
5188 Clear 30 1009 14 10000 5.7 10 06:39 15.07.2019
5189 Clear 28 1009 21 8000 1.5 0 05:51 15.07.2019
5190 Clear 28 1009 21 8000 1.5 0 05:51 15.07.2019
5191 Clear 28 1009 21 8000 1.5 0 05:32 15.07.2019
5192 Clear 26 1009 25 10000 1 0 04:43 15.07.2019
5193 Clear 24 1009 18 10000 1.5 270 03:58 15.07.2019
5194 Clear 24 1008 26 10000 1 0 02:49 15.07.2019
5195 Clear 24 1008 30 10000 1.5 0 01:54 15.07.2019
5196 Clear 24 1008 30 10000 1.5 0 01:32 15.07.2019
5197 Clear 26 1008 15 10000 2.6 350 00:53 15.07.2019
5198 Clear 26 1008 15 10000 2.6 350 00:26 15.07.2019
5199 Clear 26 1009 16 10000 4.1 350 23:57 14.07.2019
5200 Clear 26 1009 16 10000 4.1 350 23:39 14.07.2019
5201 Clear 27 1009 16 10000 4.1 350 23:18 14.07.2019
5202 Clear 27 1009 14 10000 4.1 330 22:57 14.07.2019
5203 Clear 27 1009 14 10000 4.1 330 22:37 14.07.2019
5204 Clear 27 1009 14 10000 4.1 330 22:18 14.07.2019
5205 Clear 28 1010 14 10000 5.7 360 21:42 14.07.2019
5206 Clear 28 1010 14 10000 5.7 360 21:19 14.07.2019
5207 Clear 28 1010 13 10000 5.7 350 20:57 14.07.2019
5208 Clear 28 1010 13 10000 5.7 350 20:57 14.07.2019
5209 Clear 28 1010 13 10000 5.7 350 20:37 14.07.2019
5210 Clear 28 1010 13 10000 5.7 350 20:19 14.07.2019
5211 Clear 29 1010 13 10000 6.2 350 19:45 14.07.2019
5212 Clear 29 1010 13 10000 6.2 350 19:26 14.07.2019
5213 Clear 30 1009 12 10000 10.8 360 18:58 14.07.2019
5214 Clear 30 1009 12 10000 10.8 360 18:39 14.07.2019
5215 Clear 30 1009 12 10000 10.8 360 18:21 14.07.2019
5216 Clear 30 1009 12 10000 10.8 360 17:49 14.07.2019
5217 Clear 31 1008 11 10000 10.8 10 17:21 14.07.2019
5218 Clear 32 1007 10 9000 11.3 10 16:47 14.07.2019
5219 Clear 32 1007 10 9000 11.3 10 16:24 14.07.2019
5220 Clear 33 1007 11 9000 11.3 10 15:56 14.07.2019
5221 Clear 33 1007 11 9000 11.3 10 15:34 14.07.2019
5222 Clouds 34 1007 11 9000 7.7 360 14:51 14.07.2019
5223 Clouds 34 1007 11 9000 7.7 360 14:22 14.07.2019
5224 Clouds 35 1007 9 10000 9.3 360 13:58 14.07.2019
5225 Clouds 35 1007 9 10000 9.3 360 13:38 14.07.2019
5226 Clouds 35 1007 10 10000 9.3 360 13:20 14.07.2019
5227 Clouds 35 1007 10 10000 7.7 360 12:43 14.07.2019
5228 Clouds 35 1007 10 10000 7.7 360 12:22 14.07.2019
5229 Clouds 35 1008 10 10000 6.7 360 11:55 14.07.2019
5230 Clouds 35 1008 10 10000 6.7 360 11:28 14.07.2019
5231 Clouds 34 1009 13 10000 5.1 10 10:59 14.07.2019
5232 Clouds 34 1009 13 10000 5.1 10 10:40 14.07.2019
5233 Clouds 34 1009 13 10000 5.1 10 10:19 14.07.2019
5234 Clouds 34 1005 13 10000 9.3 340 09:42 14.07.2019
5235 Clear 33 1010 13 10000 6.7 360 09:23 14.07.2019
5236 Clear 33 1010 13 10000 6.7 360 08:43 14.07.2019
5237 Clear 32 1010 13 10000 6.7 360 07:58 14.07.2019
5238 Clear 32 1011 15 10000 7.2 360 07:39 14.07.2019
5239 Clear 30 1011 16 10000 5.1 360 06:57 14.07.2019
5240 Clear 29 1011 17 10000 1.5 0 05:45 14.07.2019
5241 Clear 25 1010 28 10000 2.1 280 03:48 14.07.2019
5242 Clear 25 1010 28 10000 2.1 280 03:29 14.07.2019
5243 Clear 25 1010 27 10000 0.5 0 02:41 14.07.2019
5244 Clear 26 1010 27 10000 0.5 0 02:21 14.07.2019
5245 Clear 26 1009 23 10000 2.6 330 01:33 14.07.2019
5246 Clear 27 1010 19 10000 3.6 20 00:57 14.07.2019
5247 Clear 27 1010 19 10000 3.6 20 00:38 14.07.2019
5248 Clear 27 1010 19 10000 3.6 20 00:19 14.07.2019
5249 Clear 28 1010 18 10000 4.1 10 23:44 13.07.2019
5250 Clear 28 1010 18 10000 4.1 10 23:25 13.07.2019
5251 Clear 29 1011 17 10000 6.2 30 22:47 13.07.2019
5252 Clear 29 1011 17 10000 6.2 30 22:26 13.07.2019
5253 Clear 29 1011 17 10000 6.2 20 21:58 13.07.2019
5254 Clear 29 1011 17 10000 6.2 20 21:39 13.07.2019
5255 Clear 29 1011 17 10000 6.2 20 21:19 13.07.2019
5256 Clear 30 1012 16 10000 6.7 0 20:41 13.07.2019
5257 Clear 30 1012 16 10000 6.7 0 20:23 13.07.2019
5258 Clear 30 1011 26 10000 7.7 40 19:43 13.07.2019
5259 Clear 30 1011 26 10000 7.7 40 19:25 13.07.2019
5260 Clear 31 1010 15 10000 7.2 10 18:42 13.07.2019
5261 Clear 31 1010 15 10000 7.2 10 18:20 13.07.2019
5262 Clear 31 1009 19 10000 5.7 30 17:38 13.07.2019
5263 Clear 31 1009 19 10000 5.7 30 17:20 13.07.2019
5264 Clear 32 1008 19 8000 6.2 20 16:46 13.07.2019
5265 Clear 32 1008 19 8000 6.2 20 16:26 13.07.2019
5266 Clear 34 1008 13 9000 6.2 360 15:54 13.07.2019
5267 Clear 34 1008 13 9000 6.2 360 15:36 13.07.2019
5268 Clouds 34 1008 13 9000 6.2 360 15:18 13.07.2019
5269 Clouds 35 1008 12 9000 5.7 20 14:41 13.07.2019
5270 Clouds 35 1008 12 9000 5.7 20 14:20 13.07.2019
5271 Clouds 35 1008 12 10000 6.2 360 13:44 13.07.2019
5272 Clouds 35 1008 12 10000 6.2 360 13:23 13.07.2019
5273 Clouds 36 1009 11 10000 4.1 10 12:42 13.07.2019
5274 Clouds 36 1009 11 10000 4.1 10 12:23 13.07.2019
5275 Clouds 36 1009 13 10000 8.2 360 11:59 13.07.2019
5276 Clouds 36 1009 13 10000 8.2 360 11:38 13.07.2019
5277 Clouds 35 1009 13 10000 8.2 360 11:19 13.07.2019
5278 Clouds 35 1010 14 10000 5.1 360 10:42 13.07.2019
5279 Clouds 35 1010 14 10000 5.1 360 10:23 13.07.2019
5280 Clouds 34 1011 15 10000 6.2 360 09:50 13.07.2019
5281 Clouds 34 1011 15 10000 6.2 360 09:30 13.07.2019
5282 Clouds 33 1011 18 10000 6.2 360 08:56 13.07.2019
5283 Clouds 33 1011 18 10000 6.2 360 08:28 13.07.2019
5284 Clear 32 1012 23 10000 3.6 350 07:55 13.07.2019
5285 Clear 32 1012 23 10000 3.6 350 07:28 13.07.2019
5286 Clear 30 1012 32 9000 2.6 350 06:31 13.07.2019
5287 Clear 27 1012 54 7000 1.5 0 05:48 13.07.2019
5288 Clear 23 1011 60 8000 1.5 180 04:41 13.07.2019
5289 Clear 21 1011 60 8000 1.5 180 04:21 13.07.2019
5290 Clear 21 1011 49 10000 1.5 280 03:42 13.07.2019
5291 Clear 21 1011 49 10000 1.5 280 03:18 13.07.2019
5292 Clear 23 1011 35 10000 0.5 0 01:53 13.07.2019
5293 Clear 23 1011 35 10000 0.5 0 01:53 13.07.2019
5294 Haze 24 1011 36 10000 2.1 340 01:21 13.07.2019
5295 Haze 24 1011 31 10000 1 0 00:59 13.07.2019
5296 Haze 23 1011 31 10000 1 0 00:21 13.07.2019
5297 Haze 23 1011 29 10000 1.5 130 23:55 12.07.2019
5298 Haze 23 1011 29 10000 1.5 130 23:34 12.07.2019
5299 Clear 28 1011 30 10000 1 0 22:59 12.07.2019
5300 Clear 28 1011 30 10000 1 0 22:40 12.07.2019
5301 Clear 28 1011 30 10000 1 0 22:22 12.07.2019
5302 Clear 29 1011 17 10000 1.5 0 21:42 12.07.2019
5303 Clear 30 1011 17 10000 1.5 0 21:21 12.07.2019
5304 Clear 29 1011 19 10000 2.6 310 20:47 12.07.2019
5305 Clear 29 1011 19 10000 2.6 310 20:23 12.07.2019
5306 Clear 30 1011 17 10000 2.1 50 19:44 12.07.2019
5307 Clear 30 1011 17 10000 2.1 50 19:26 12.07.2019
5308 Clear 30 1011 17 10000 2.1 50 18:58 12.07.2019
5309 Clear 31 1010 13 10000 4.1 50 18:37 12.07.2019
5310 Clear 31 1010 13 10000 4.1 50 18:19 12.07.2019
5311 Clear 32 1009 18 10000 5.1 30 17:45 12.07.2019
5312 Clear 32 1009 18 10000 5.1 30 17:27 12.07.2019
5313 Clouds 33 1008 18 9000 5.7 360 16:38 12.07.2019
5314 Clouds 34 1008 18 9000 5.7 360 16:20 12.07.2019
5315 Clouds 35 1008 13 10000 5.1 360 15:41 12.07.2019
5316 Clouds 35 1008 13 10000 5.1 360 15:20 12.07.2019
5317 Clouds 36 1008 10 10000 2.6 70 14:47 12.07.2019
5318 Clouds 36 1008 10 10000 2.6 70 14:47 12.07.2019
5319 Clouds 36 1008 10 10000 2.6 70 14:22 12.07.2019
5320 Clouds 36 1009 10 10000 2.6 0 13:55 12.07.2019
5321 Clouds 36 1009 10 10000 2.6 0 13:37 12.07.2019
5322 Clear 35 1009 9 10000 2.1 0 12:55 12.07.2019
5323 Clear 35 1009 9 10000 2.1 0 12:37 12.07.2019
5324 Clear 35 1009 9 10000 2.1 0 12:18 12.07.2019
5325 Clear 35 1010 9 10000 2.6 160 11:43 12.07.2019
5326 Clear 35 1010 9 10000 2.6 160 11:20 12.07.2019
5327 Clear 35 1010 10 10000 3.1 0 10:43 12.07.2019
5328 Clear 35 1010 10 10000 3.1 0 10:23 12.07.2019
5329 Clear 34 1011 10 10000 3.1 210 09:54 12.07.2019
5330 Clear 34 1011 10 10000 3.1 210 09:29 12.07.2019
5331 Clear 33 1011 11 10000 1.5 0 08:58 12.07.2019
5332 Clear 33 1011 11 10000 1.5 0 08:26 12.07.2019
5333 Clear 31 1011 13 10000 1 0 07:55 12.07.2019
5334 Clear 31 1011 13 10000 1 0 07:32 12.07.2019
5335 Clear 31 1011 13 10000 1 0 07:32 12.07.2019
5336 Clear 29 1011 16 9000 1.5 230 06:59 12.07.2019
5337 Clear 28 1011 16 9000 1.5 230 06:28 12.07.2019
5338 Clear 27 1011 22 0 1 0 05:42 12.07.2019
5339 Clear 21 1011 28 10000 1 340 03:21 12.07.2019
5340 Clear 20 1010 32 10000 2.1 300 01:41 12.07.2019
5341 Clear 25 1010 17 10000 1.5 0 00:58 12.07.2019
5342 Clear 25 1010 17 10000 1.5 0 00:20 12.07.2019
5343 Clear 25 1010 17 10000 1.5 0 23:47 11.07.2019
5344 Clear 26 1011 16 10000 4.1 350 23:26 11.07.2019
5345 Clear 26 1011 16 10000 4.1 360 22:55 11.07.2019
5346 Clear 26 1011 16 10000 4.1 360 22:37 11.07.2019
5347 Clear 27 1011 16 10000 4.1 360 22:19 11.07.2019
5348 Clear 28 1011 14 10000 5.7 20 21:40 11.07.2019
5349 Clear 29 1011 14 10000 5.7 20 21:18 11.07.2019
5350 Clear 29 1011 14 10000 8.7 20 20:43 11.07.2019
5351 Clear 29 1011 14 10000 8.7 20 20:24 11.07.2019
5352 Clear 29 1010 12 10000 7.2 30 19:59 11.07.2019
5353 Clear 29 1010 12 10000 7.2 30 19:40 11.07.2019
5354 Clear 30 1010 12 10000 7.2 30 19:22 11.07.2019
5355 Clear 30 1009 12 10000 8.7 20 18:43 11.07.2019
5356 Clear 30 1009 12 10000 8.7 20 18:25 11.07.2019
5357 Clear 31 1009 11 10000 7.7 20 17:53 11.07.2019
5358 Clear 31 1009 11 10000 7.7 20 17:31 11.07.2019
5359 Clear 32 1008 11 10000 7.2 20 16:58 11.07.2019
5360 Clear 32 1008 11 10000 7.2 20 16:40 11.07.2019
5361 Clear 32 1008 11 10000 7.2 20 16:19 11.07.2019
5362 Clear 33 1007 11 10000 8.2 10 15:43 11.07.2019
5363 Clear 33 1007 11 10000 8.2 10 15:24 11.07.2019
5364 Clear 34 1007 10 10000 5.1 20 14:46 11.07.2019
5365 Clear 35 1007 10 10000 5.1 20 14:25 11.07.2019
5366 Clear 35 1007 9 10000 5.1 340 13:59 11.07.2019
5367 Clear 35 1007 9 10000 5.1 340 13:41 11.07.2019
5368 Clear 35 1007 9 10000 5.1 340 13:23 11.07.2019
5369 Clear 35 1008 9 10000 6.7 360 12:38 11.07.2019
5370 Clear 35 1008 9 10000 6.7 360 12:19 11.07.2019
5371 Clear 35 1008 9 10000 4.6 20 11:45 11.07.2019
5372 Clear 35 1008 9 10000 4.6 20 11:27 11.07.2019
5373 Clear 34 1009 10 10000 2.6 0 10:52 11.07.2019
5374 Clear 34 1009 10 10000 2.6 0 10:20 11.07.2019
5375 Clear 34 1009 10 10000 2.6 0 10:20 11.07.2019
5376 Clear 34 1009 10 10000 2.6 0 09:56 11.07.2019
5377 Clear 34 1009 10 10000 3.6 320 09:36 11.07.2019
5378 Clear 34 1009 10 10000 3.6 320 09:36 11.07.2019
5379 Clear 33 1009 15 10000 3.6 320 09:18 11.07.2019
5380 Clear 32 1010 11 10000 4.6 360 08:42 11.07.2019
5381 Clear 32 1010 11 10000 4.6 360 08:20 11.07.2019
5382 Clear 31 1011 16 10000 2.6 0 07:45 11.07.2019
5383 Clear 30 1011 16 10000 2.6 0 07:23 11.07.2019
5384 Clear 29 1011 23 10000 4.1 350 06:19 11.07.2019
5385 Clear 28 1010 23 10000 2.1 0 05:32 11.07.2019
5386 Clear 26 1009 20 10000 2.6 280 04:56 11.07.2019
5387 Clear 25 1009 19 10000 5.1 360 03:57 11.07.2019
5388 Clear 26 1008 16 10000 6.2 20 02:25 11.07.2019
5389 Clear 27 1008 15 10000 5.7 360 00:35 11.07.2019
5390 Clear 26 1009 17 10000 1 0 23:51 10.07.2019
5391 Clear 26 1009 17 10000 1 0 23:27 10.07.2019
5392 Clear 27 1009 16 10000 2.1 360 22:57 10.07.2019
5393 Clear 27 1009 16 10000 2.1 360 22:26 10.07.2019
5394 Clear 28 1009 12 10000 7.2 360 21:57 10.07.2019
5395 Clear 28 1009 12 10000 7.2 360 21:38 10.07.2019
5396 Clear 29 1009 12 10000 7.2 360 21:20 10.07.2019
5397 Clear 29 1008 11 10000 8.2 10 20:46 10.07.2019
5398 Clear 29 1008 11 10000 8.2 10 20:26 10.07.2019
5399 Clear 30 1008 14 10000 9.8 20 19:57 10.07.2019
5400 Clear 30 1008 14 10000 9.8 20 19:38 10.07.2019
5401 Clear 30 1008 14 10000 9.8 20 19:20 10.07.2019
5402 Clear 30 1007 14 10000 9.3 20 18:46 10.07.2019
5403 Clear 30 1007 14 10000 9.3 20 18:23 10.07.2019
5404 Clear 31 1007 13 9000 10.3 20 17:47 10.07.2019
5405 Clear 31 1007 13 9000 10.3 20 17:29 10.07.2019
5406 Clear 31 1007 21 8000 6.2 20 16:47 10.07.2019
5407 Clear 31 1007 21 8000 6.2 20 16:47 10.07.2019
5408 Clear 32 1007 21 8000 6.2 20 16:21 10.07.2019
5409 Clouds 33 1006 21 7000 6.7 20 15:47 10.07.2019
5410 Clouds 33 1006 13 7000 6.7 20 15:26 10.07.2019
5411 Clouds 34 1006 13 10000 5.7 20 14:49 10.07.2019
5412 Clouds 34 1006 13 10000 5.7 20 14:29 10.07.2019
5413 Clouds 35 1006 14 10000 8.7 40 13:59 10.07.2019
5414 Clouds 35 1006 13 10000 3.1 0 13:36 10.07.2019
5415 Clouds 35 1006 13 10000 3.1 0 13:36 10.07.2019
5416 Clouds 35 1006 13 10000 3.1 0 13:18 10.07.2019
5417 Clouds 35 1007 13 10000 2.1 0 12:41 10.07.2019
5418 Clouds 35 1007 13 10000 2.1 0 12:21 10.07.2019
5419 Clear 35 1007 14 10000 3.1 0 11:49 10.07.2019
5420 Clear 34 1007 14 10000 3.1 0 11:22 10.07.2019
5421 Clear 34 1008 13 10000 2.1 190 10:58 10.07.2019
5422 Clear 34 1008 13 10000 2.1 190 10:58 10.07.2019
5423 Clear 34 1008 13 10000 2.1 190 10:58 10.07.2019
5424 Clear 34 1008 13 10000 2.1 190 10:24 10.07.2019
5425 Clear 33 1009 14 10000 2.6 140 09:57 10.07.2019
5426 Clear 33 1009 14 10000 2.6 140 09:38 10.07.2019
5427 Clear 33 1009 14 10000 2.6 140 09:19 10.07.2019
5428 Clear 32 1009 16 10000 1.5 0 08:49 10.07.2019
5429 Clear 31 1009 16 10000 1.5 0 08:24 10.07.2019
5430 Clear 31 1009 16 10000 1 0 07:51 10.07.2019
5431 Clear 31 1009 16 10000 1 0 07:23 10.07.2019
5432 Clear 29 1010 18 10000 2.6 340 06:39 10.07.2019
5433 Clear 27 1010 24 10000 1.5 240 05:42 10.07.2019
5434 Clear 25 1009 31 10000 1 340 04:33 10.07.2019
5435 Clear 25 1009 32 10000 2.1 310 02:20 10.07.2019
5436 Clear 26 1008 22 10000 2.6 350 00:44 10.07.2019
5437 Clear 26 1008 21 10000 5.1 350 23:42 09.07.2019
5438 Clear 26 1008 21 10000 5.1 350 23:24 09.07.2019
5439 Clear 27 1009 19 10000 6.7 20 22:57 09.07.2019
5440 Clear 27 1009 19 10000 6.7 20 22:38 09.07.2019
5441 Clear 28 1009 19 10000 6.7 20 22:20 09.07.2019
5442 Clear 28 1009 18 10000 7.7 20 21:47 09.07.2019
5443 Clear 28 1009 18 10000 7.7 20 21:26 09.07.2019
5444 Clear 29 1009 18 10000 9.3 20 20:55 09.07.2019
5445 Clear 29 1009 18 10000 9.3 20 20:36 09.07.2019
5446 Clear 29 1009 18 10000 9.3 20 20:18 09.07.2019
5447 Clear 30 1009 14 10000 8.7 30 19:37 09.07.2019
5448 Clear 30 1009 14 10000 8.7 30 19:19 09.07.2019
5449 Clear 30 1008 27 10000 10.3 20 18:39 09.07.2019
5450 Clear 30 1008 20 10000 10.3 20 18:19 09.07.2019
5451 Clear 31 1007 13 10000 8.7 20 17:44 09.07.2019
5452 Clear 31 1007 13 10000 8.7 20 17:21 09.07.2019
5453 Clear 32 1007 12 10000 8.2 10 16:58 09.07.2019
5454 Clear 32 1007 12 10000 8.2 10 16:39 09.07.2019
5455 Clear 32 1007 12 10000 8.2 10 16:21 09.07.2019
5456 Clear 33 1006 11 10000 8.2 360 15:41 09.07.2019
5457 Clear 33 1006 11 10000 8.2 360 15:22 09.07.2019
5458 Clear 34 1006 11 10000 8.2 360 14:43 09.07.2019
5459 Clear 35 1006 11 10000 7.7 360 14:23 09.07.2019
5460 Clear 35 1007 11 10000 4.6 360 13:50 09.07.2019
5461 Clear 35 1007 12 10000 4.6 360 13:29 09.07.2019
5462 Clear 36 1007 11 10000 2.1 0 12:59 09.07.2019
5463 Clear 36 1007 11 10000 2.1 0 12:38 09.07.2019
5464 Clear 36 1007 11 10000 2.1 0 12:19 09.07.2019
5465 Clear 36 1008 12 10000 2.6 350 11:42 09.07.2019
5466 Clear 36 1008 12 10000 2.6 350 11:22 09.07.2019
5467 Clear 35 1008 11 10000 3.1 340 10:59 09.07.2019
5468 Clear 35 1008 11 10000 3.1 340 10:40 09.07.2019
5469 Clear 34 1008 11 10000 3.1 340 10:21 09.07.2019
5470 Clear 34 1009 11 10000 3.1 0 09:38 09.07.2019
5471 Clear 33 1009 11 10000 3.1 0 09:20 09.07.2019
5472 Clear 33 1009 15 10000 1.5 0 08:44 09.07.2019
5473 Clear 32 1009 15 10000 1.5 0 08:18 09.07.2019
5474 Haze 19 1010 37 9000 1.5 0 03:45 05.07.2019
5475 Haze 24 1010 37 9000 1.5 0 03:21 05.07.2019
5476 Clear 23 1010 32 10000 1 350 02:52 05.07.2019
5477 Clear 25 1010 32 10000 1 350 02:20 05.07.2019
5478 Clear 26 1010 22 10000 1.5 0 01:34 05.07.2019
5479 Clear 23 1009 34 10000 1.5 0 00:52 05.07.2019
5480 Clear 23 1009 34 10000 1.5 0 00:31 05.07.2019
5481 Clear 27 1010 33 10000 3.6 270 23:40 04.07.2019
5482 Clear 27 1010 33 10000 3.6 270 23:19 04.07.2019
5483 Clear 27 1010 17 10000 3.1 280 22:42 04.07.2019
5484 Clear 27 1010 17 10000 3.1 280 22:23 04.07.2019
5485 Clear 27 1011 16 10000 2.6 0 21:45 04.07.2019
5486 Clear 27 1011 16 10000 2.6 0 21:26 04.07.2019
5487 Clear 28 1011 14 10000 2.6 30 20:59 04.07.2019
5488 Clear 28 1011 14 10000 2.6 30 20:38 04.07.2019
5489 Clear 28 1011 14 10000 2.6 30 20:19 04.07.2019
5490 Clear 28 1011 14 10000 2.6 30 20:19 04.07.2019
5491 Clear 28 1011 14 10000 2.6 30 20:19 04.07.2019
5492 Clear 29 1011 26 10000 5.1 360 19:42 04.07.2019
5493 Clear 29 1011 26 10000 5.1 360 19:22 04.07.2019
5494 Clear 30 1010 13 10000 5.1 30 18:55 04.07.2019
5495 Clear 30 1010 13 10000 5.1 30 18:36 04.07.2019
5496 Clear 30 1010 13 10000 5.1 30 18:18 04.07.2019
5497 Clear 30 1010 13 10000 5.1 30 17:41 04.07.2019
5498 Clear 31 1009 17 9000 3.6 20 17:18 04.07.2019
5499 Clouds 33 1009 9 9000 4.1 340 15:45 04.07.2019
5500 Clouds 33 1009 9 9000 4.1 340 15:25 04.07.2019
5501 Clouds 35 1010 8 10000 2.6 320 14:59 04.07.2019
5502 Clouds 35 1010 8 10000 2.6 320 14:40 04.07.2019
5503 Clouds 36 1010 8 10000 2.6 320 14:20 04.07.2019
5504 Clouds 35 1012 9 10000 3.1 30 13:57 04.07.2019
5505 Clouds 35 1012 9 10000 3.1 30 13:38 04.07.2019
5506 Clouds 35 1012 9 10000 3.1 30 13:19 04.07.2019
5507 Clear 36 1012 8 10000 2.6 310 12:39 04.07.2019
5508 Clear 36 1012 8 10000 2.6 310 12:39 04.07.2019
5509 Clear 36 1012 8 10000 2.6 310 12:20 04.07.2019
5510 Clear 35 1012 9 10000 2.1 300 11:55 04.07.2019
5511 Clear 35 1012 9 10000 2.1 300 11:36 04.07.2019
5512 Clear 34 1012 9 10000 2.1 300 11:18 04.07.2019
5513 Clear 34 1013 9 10000 1.5 0 10:39 04.07.2019
5514 Clear 33 1013 9 10000 1.5 0 10:18 04.07.2019
5515 Clear 33 1013 9 10000 3.1 30 09:39 04.07.2019
5516 Clear 32 1013 9 10000 3.1 30 09:19 04.07.2019
5517 Clear 32 1014 10 10000 3.6 20 08:53 04.07.2019
5518 Clear 30 1014 10 10000 3.6 20 08:19 04.07.2019
5519 Clear 30 1014 12 10000 1.5 0 07:42 04.07.2019
5520 Clear 29 1014 12 10000 1.5 0 07:19 04.07.2019
5521 Clear 29 1015 16 9000 1 0 06:33 04.07.2019
5522 Clear 27 1015 20 7000 1 0 05:43 04.07.2019
5523 Clear 23 1014 31 10000 1 340 04:59 04.07.2019
5524 Clear 23 1014 32 10000 1 0 02:23 04.07.2019
5525 Clear 24 1014 24 10000 1 270 01:27 04.07.2019
5526 Clear 25 1014 26 10000 2.1 270 00:52 04.07.2019
5527 Clear 25 1014 26 10000 2.1 270 23:53 03.07.2019
5528 Clear 25 1014 24 10000 1.5 70 23:21 03.07.2019
5529 Clear 25 1014 24 10000 1.5 70 23:21 03.07.2019
5530 Clear 26 1014 42 10000 1.5 30 22:57 03.07.2019
5531 Clear 26 1014 42 10000 1.5 30 22:38 03.07.2019
5532 Clear 26 1014 42 10000 1.5 30 22:20 03.07.2019
5533 Clear 26 1014 42 10000 1.5 30 21:55 03.07.2019
5534 Clear 27 1014 15 10000 6.2 10 21:36 03.07.2019
5535 Dust 28 1014 37 10000 8.7 10 20:55 03.07.2019
5536 Dust 28 1014 37 10000 8.7 10 20:36 03.07.2019
5537 Dust 28 1014 37 10000 8.7 10 20:18 03.07.2019
5538 Dust 28 1014 15 10000 8.7 30 19:44 03.07.2019
5539 Dust 28 1014 15 10000 8.7 30 19:44 03.07.2019
5540 Dust 28 1014 15 10000 8.7 30 19:25 03.07.2019
5541 Dust 29 1014 37 10000 10.3 20 18:45 03.07.2019
5542 Dust 29 1014 29 10000 10.3 20 18:22 03.07.2019
5543 Dust 29 1013 12 9000 10.8 10 17:49 03.07.2019
5544 Dust 30 1013 12 9000 10.8 10 17:19 03.07.2019
5545 Dust 30 1013 12 9000 10.8 10 17:19 03.07.2019
5546 Dust 30 1013 11 8000 9.3 10 16:58 03.07.2019
5547 Dust 30 1013 11 8000 9.3 10 16:39 03.07.2019
5548 Dust 32 1013 11 8000 9.3 10 16:18 03.07.2019
5549 Dust 32 1013 29 7000 7.2 20 15:44 03.07.2019
5550 Dust 32 1013 20 7000 7.2 20 15:26 03.07.2019
5551 Dust 33 1013 13 7000 9.3 10 14:44 03.07.2019
5552 Clear 34 1013 13 7000 9.3 10 14:22 03.07.2019
5553 Dust 34 1013 14 10000 7.2 350 13:50 03.07.2019
5554 Dust 34 1013 14 10000 7.2 350 13:31 03.07.2019
5555 Dust 35 1013 8 10000 3.1 0 12:52 03.07.2019
5556 Haze 35 1013 8 10000 3.1 0 12:20 03.07.2019
5557 Haze 35 1014 14 10000 3.1 0 11:55 03.07.2019
5558 Haze 35 1014 14 10000 3.1 0 11:36 03.07.2019
5559 Haze 35 1014 14 10000 3.1 0 11:18 03.07.2019
5560 Haze 34 1015 13 10000 3.6 340 10:40 03.07.2019
5561 Clear 34 1015 13 10000 3.6 340 10:21 03.07.2019
5562 Clear 33 1015 14 10000 2.6 0 09:41 03.07.2019
5563 Clear 33 1015 14 10000 2.6 0 09:20 03.07.2019
5564 Clear 32 1016 15 10000 2.1 0 08:53 03.07.2019
5565 Clear 32 1016 15 10000 2.1 0 08:31 03.07.2019
5566 Clear 32 1016 15 10000 2.1 0 08:31 03.07.2019
5567 Clear 30 1016 18 10000 1.5 0 07:49 03.07.2019
5568 Clear 30 1016 18 10000 1.5 0 07:31 03.07.2019
5569 Clear 30 1016 20 10000 1.5 0 06:35 03.07.2019
5570 Haze 27 1016 24 10000 1.5 300 05:39 03.07.2019
5571 Haze 23 1012 35 9000 2.1 220 04:50 03.07.2019
5572 Haze 21 1012 35 9000 2.6 210 03:26 03.07.2019
5573 Haze 23 1011 24 9000 3.1 320 02:37 03.07.2019
5574 Clear 24 1015 30 10000 1.5 260 01:22 03.07.2019
5575 Clear 26 1015 25 10000 1.5 0 00:52 03.07.2019
5576 Clear 26 1015 25 10000 1.5 0 00:33 03.07.2019
5577 Clear 26 1016 23 10000 6.2 360 23:39 02.07.2019
5578 Clear 26 1016 23 10000 6.2 360 23:20 02.07.2019
5579 Clear 27 1016 22 10000 8.2 10 22:57 02.07.2019
5580 Clear 27 1016 22 10000 8.2 10 22:57 02.07.2019
5581 Clear 27 1016 22 10000 8.2 10 22:39 02.07.2019
5582 Clear 27 1016 22 10000 8.2 10 22:20 02.07.2019
5583 Clouds 28 1012 21 10000 7.2 330 21:47 02.07.2019
5584 Clouds 27 1012 21 10000 7.2 330 21:25 02.07.2019
5585 Clear 28 1015 21 10000 9.3 20 20:59 02.07.2019
5586 Clear 28 1015 21 10000 9.3 20 20:40 02.07.2019
5587 Clear 28 1015 21 10000 9.3 20 20:22 02.07.2019
5588 Clear 29 1015 20 10000 8.7 20 19:44 02.07.2019
5589 Clear 29 1015 20 10000 8.7 20 19:24 02.07.2019
5590 Clear 29 1015 20 10000 8.7 20 19:24 02.07.2019
5591 Clear 29 1014 18 10000 9.3 20 18:59 02.07.2019
5592 Clear 29 1014 18 10000 9.3 20 18:37 02.07.2019
5593 Clear 29 1014 18 10000 9.3 20 18:18 02.07.2019
5594 Clear 30 1014 17 9000 5.7 20 17:37 02.07.2019
5595 Clear 30 1014 17 9000 5.7 20 17:19 02.07.2019
5596 Clear 31 1014 16 8000 7.7 20 16:45 02.07.2019
5597 Clear 32 1014 16 8000 7.7 20 16:26 02.07.2019
5598 Clear 33 1013 14 8000 9.3 10 15:42 02.07.2019
5599 Clear 33 1013 14 8000 9.3 10 15:23 02.07.2019
5600 Clear 34 1014 13 9000 6.7 360 14:49 02.07.2019
5601 Clear 34 1014 13 9000 6.7 360 14:28 02.07.2019
5602 Clear 34 1014 10 10000 6.2 40 13:45 02.07.2019
5603 Clear 34 1014 10 10000 6.2 40 13:20 02.07.2019
5604 Clear 35 1015 9 10000 6.7 340 12:45 02.07.2019
5605 Clear 35 1015 9 10000 6.7 340 12:25 02.07.2019
5606 Clear 35 1015 10 10000 5.1 360 11:55 02.07.2019
5607 Clear 35 1015 10 10000 5.1 360 11:37 02.07.2019
5608 Clear 35 1015 10 10000 5.1 360 11:18 02.07.2019
5609 Clear 34 1015 11 10000 4.6 350 10:42 02.07.2019
5610 Clear 34 1015 11 10000 4.6 350 10:23 02.07.2019
5611 Clear 34 1015 11 10000 4.6 350 10:23 02.07.2019
5612 Clear 33 1016 11 10000 6.2 360 09:43 02.07.2019
5613 Clear 33 1016 11 10000 6.2 360 09:20 02.07.2019
5614 Clear 32 1016 13 10000 4.1 350 08:41 02.07.2019
5615 Clear 32 1016 13 10000 4.1 350 08:20 02.07.2019
5616 Clear 31 1016 15 10000 3.1 360 07:52 02.07.2019
5617 Clear 31 1016 15 10000 3.1 360 07:20 02.07.2019
5618 Clear 29 1016 18 10000 3.6 350 06:42 02.07.2019
5619 Clear 26 1016 25 10000 1.5 320 05:58 02.07.2019
5620 Clear 19 1015 34 10000 2.1 310 03:53 02.07.2019
5621 Clear 25 1014 23 10000 4.1 320 00:56 02.07.2019
5622 Clear 26 1014 28 10000 1 0 23:46 01.07.2019
5623 Clear 26 1014 28 10000 1 0 23:20 01.07.2019
5624 Clear 26 1014 28 10000 3.6 320 22:45 01.07.2019
5625 Clear 26 1014 28 10000 3.6 320 22:26 01.07.2019
5626 Clear 27 1013 16 10000 5.1 10 21:47 01.07.2019
5627 Clear 27 1013 16 10000 5.1 10 21:26 01.07.2019
5628 Clear 28 1013 18 10000 6.7 30 20:51 01.07.2019
5629 Clear 28 1013 18 10000 6.7 30 20:22 01.07.2019
5630 Clear 28 1013 19 10000 8.2 20 19:58 01.07.2019
5631 Clear 28 1013 19 10000 8.2 20 19:40 01.07.2019
5632 Clear 28 1013 19 10000 8.2 20 19:21 01.07.2019
5633 Clear 28 1013 19 10000 8.2 20 18:52 01.07.2019
5634 Clear 29 1012 17 10000 6.7 360 18:30 01.07.2019
5635 Clear 30 1012 14 10000 6.2 360 17:57 01.07.2019
5636 Clear 30 1012 14 10000 6.2 360 17:57 01.07.2019
5637 Clear 30 1012 14 10000 6.2 360 17:39 01.07.2019
5638 Clear 30 1012 14 10000 6.2 360 17:19 01.07.2019
5639 Clouds 31 1011 13 10000 6.7 10 16:46 01.07.2019
5640 Clouds 32 1011 13 10000 6.7 10 16:25 01.07.2019
5641 Clouds 32 1011 13 10000 6.7 10 15:47 01.07.2019
5642 Clouds 33 1011 14 10000 6.2 10 15:28 01.07.2019
5643 Clouds 34 1006 14 10000 9.8 350 14:57 01.07.2019
5644 Clouds 34 1006 14 10000 9.8 350 14:37 01.07.2019
5645 Clouds 34 1012 15 10000 4.1 50 14:18 01.07.2019
5646 Clouds 34 1012 15 10000 4.1 50 13:39 01.07.2019
5647 Clouds 34 1012 15 10000 4.1 50 13:20 01.07.2019
5648 Clouds 34 1013 15 10000 3.1 60 12:40 01.07.2019
5649 Clouds 34 1013 15 10000 3.1 60 12:40 01.07.2019
5650 Clouds 33 1013 15 10000 3.1 60 12:22 01.07.2019
5651 Clouds 33 1013 15 10000 5.1 20 11:56 01.07.2019
5652 Clouds 33 1013 15 10000 5.1 20 11:56 01.07.2019
5653 Clouds 33 1013 15 10000 5.1 20 11:37 01.07.2019
5654 Clouds 33 1013 15 10000 5.1 20 11:18 01.07.2019
5655 Clouds 32 1014 18 10000 3.6 0 10:42 01.07.2019
5656 Clouds 32 1014 18 10000 3.6 0 10:20 01.07.2019
5657 Clouds 32 1014 20 10000 3.6 340 09:42 01.07.2019
5658 Clouds 31 1014 20 10000 3.6 340 09:24 01.07.2019
5659 Clouds 31 1014 21 10000 4.6 350 08:42 01.07.2019
5660 Clouds 30 1014 21 10000 4.6 350 08:21 01.07.2019
5661 Clouds 30 1015 23 10000 2.6 10 07:34 01.07.2019
5662 Clear 28 1015 28 10000 1 0 06:51 01.07.2019
5663 Clouds 22 1014 40 10000 1 80 04:44 01.07.2019
5664 Clear 20 1013 48 10000 1.5 110 01:20 01.07.2019
5665 Clear 21 1013 45 10000 2.1 140 00:41 01.07.2019
5666 Clear 22 1013 45 10000 2.1 140 00:20 01.07.2019
5667 Clear 25 1013 37 10000 2.1 340 23:25 30.06.2019
5668 Clear 25 1013 38 10000 1.5 50 22:56 30.06.2019
5669 Clear 26 1013 38 10000 1.5 50 22:24 30.06.2019
5670 Clear 27 1013 27 10000 1.5 10 21:59 30.06.2019
5671 Clear 27 1013 27 10000 1.5 10 21:41 30.06.2019
5672 Clear 26 1013 27 10000 1.5 10 21:18 30.06.2019
5673 Clear 26 1013 33 10000 3.02 21.05 20:41 30.06.2019
5674 Clear 26 1013 33 10000 2.68 354.519 20:23 30.06.2019
5675 Clear 26 1012 31 10000 2.6 60 19:52 30.06.2019
5676 Clear 26 1012 31 10000 2.6 60 19:26 30.06.2019
5677 Clouds 28 1011 27 10000 3.1 40 18:55 30.06.2019
5678 Clouds 29 1011 27 10000 3.1 40 18:23 30.06.2019
5679 Clouds 29 1011 23 10000 4.1 360 17:55 30.06.2019
5680 Clouds 29 1011 23 10000 4.1 360 17:36 30.06.2019
5681 Clouds 29 1011 23 10000 4.1 360 17:18 30.06.2019
5682 Clouds 29 1010 26 10000 4.1 350 16:43 30.06.2019
5683 Clouds 31 1010 26 10000 4.1 350 16:25 30.06.2019
5684 Clouds 31 1009 25 10000 3.6 20 15:37 30.06.2019
5685 Clouds 32 1009 25 10000 3.6 20 15:18 30.06.2019
5686 Rain 31 1009 20 10000 3.6 30 14:49 30.06.2019
5687 Rain 31 1009 20 10000 3.6 30 14:29 30.06.2019
5688 Rain 31 1010 21 10000 4.1 30 13:46 30.06.2019
5689 Rain 31 1010 21 10000 4.1 30 13:24 30.06.2019
5690 Thunderstorm 30 1011 24 10000 6.7 350 12:49 30.06.2019
5691 Clouds 31 1010 25 10000 4.6 10 12:25 30.06.2019
5692 Clouds 31 1011 25 10000 4.1 20 11:55 30.06.2019
5693 Clouds 32 1011 20 10000 3.1 70 11:37 30.06.2019
5694 Clouds 31 1011 20 10000 3.1 70 11:18 30.06.2019
5695 Clouds 31 1007 22 10000 1.5 280 10:42 30.06.2019
5696 Clouds 30 1012 20 10000 2.6 240 10:19 30.06.2019
5697 Clouds 30 1012 20 10000 2.6 240 09:44 30.06.2019
5698 Clouds 30 1012 20 10000 2.6 240 09:44 30.06.2019
5699 Clouds 29 1012 20 10000 2.6 240 09:23 30.06.2019
5700 Clouds 29 1012 24 10000 2.1 0 08:59 30.06.2019
5701 Clouds 29 1012 24 10000 2.1 0 08:38 30.06.2019
5702 Clouds 28 1012 24 10000 2.1 0 08:18 30.06.2019
5703 Clouds 28 1013 24 10000 2.1 0 07:37 30.06.2019
5704 Clouds 27 1013 24 10000 2.1 0 07:18 30.06.2019
5705 Clear 24 1013 29 9000 1.5 280 05:54 30.06.2019
5706 Clear 18 1012 42 10000 1 200 03:25 30.06.2019
5707 Clear 18 1011 35 10000 1.5 0 01:31 30.06.2019
5708 Clear 19 1011 37 10000 1 0 00:38 30.06.2019
5709 Clear 21 1012 33 10000 2.6 70 23:57 29.06.2019
5710 Clear 21 1012 33 10000 2.6 70 23:25 29.06.2019
5711 Clear 20 1012 33 10000 2.6 70 23:25 29.06.2019
5712 Clear 20 1012 33 10000 3.1 30 22:59 29.06.2019
5713 Clear 20 1012 33 10000 3.1 30 22:40 29.06.2019
5714 Clear 23 1012 33 10000 3.1 30 22:21 29.06.2019
5715 Clear 23 1012 29 10000 4.1 360 21:51 29.06.2019
5716 Clear 25 1012 29 10000 4.1 360 21:23 29.06.2019
5717 Clear 25 1012 27 10000 2.6 360 20:45 29.06.2019
5718 Clear 25 1012 27 10000 2.6 360 20:27 29.06.2019
5719 Clear 25 1012 29 10000 2.1 0 19:48 29.06.2019
5720 Clear 26 1012 29 10000 2.1 0 19:25 29.06.2019
5721 Clear 26 1011 27 10000 6.2 350 18:54 29.06.2019
5722 Clear 26 1011 27 10000 6.2 350 18:27 29.06.2019
5723 Clouds 27 1011 24 10000 4.6 10 17:57 29.06.2019
5724 Clouds 27 1011 24 10000 4.6 10 17:37 29.06.2019
5725 Clouds 27 1011 24 10000 4.6 10 17:19 29.06.2019
5726 Clouds 28 1010 21 9000 5.1 20 16:42 29.06.2019
5727 Clouds 29 1010 21 10000 6.2 360 15:56 29.06.2019
5728 Clouds 29 1010 21 10000 6.2 360 15:31 29.06.2019
5729 Clouds 30 1010 18 10000 7.2 360 14:45 29.06.2019
5730 Dust 28 1010 18 10000 7.2 360 14:26 29.06.2019
5731 Dust 28 1010 18 10000 7.7 10 13:51 29.06.2019
5732 Dust 28 1010 18 10000 7.7 10 13:27 29.06.2019
5733 Clouds 33 1005 15 10000 4.1 230 12:57 29.06.2019
5734 Clouds 33 1005 15 10000 4.1 230 12:38 29.06.2019
5735 Clouds 30 1010 17 9000 9.3 360 12:20 29.06.2019
5736 Clouds 30 1010 17 9000 9.3 360 11:42 29.06.2019
5737 Clouds 31 1010 17 9000 9.3 360 11:21 29.06.2019
5738 Clouds 30 1010 15 10000 2.6 150 10:46 29.06.2019
5739 Clouds 31 1010 15 10000 2.6 150 10:21 29.06.2019
5740 Clouds 31 1011 15 10000 2.6 80 09:50 29.06.2019
5741 Clouds 30 1008 19 10000 2.1 340 08:55 29.06.2019
5742 Clouds 30 1008 19 10000 2.1 340 08:28 29.06.2019
5743 Clouds 29 1012 17 10000 2.1 360 07:45 29.06.2019
5744 Clear 26 1013 18 9000 1.5 0 06:48 29.06.2019
5745 Clear 24 1013 18 9000 1.5 0 06:24 29.06.2019
5746 Clear 17 1012 39 10000 1.5 0 03:25 29.06.2019
5747 Clear 18 1011 32 10000 1 0 01:41 29.06.2019
5748 Clear 20 1011 36 10000 2.1 300 00:32 29.06.2019
5749 Clear 23 1012 31 10000 2.6 290 23:38 28.06.2019
5750 Clear 24 1012 31 10000 2.6 290 23:20 28.06.2019
5751 Clear 25 1012 20 10000 2.6 340 22:46 28.06.2019
5752 Clear 25 1012 20 10000 4.1 330 21:58 28.06.2019
5753 Clear 25 1012 20 10000 4.1 330 21:27 28.06.2019
5754 Clear 26 1012 17 10000 6.7 20 20:55 28.06.2019
5755 Clear 26 1012 17 10000 6.7 20 20:37 28.06.2019
5756 Clear 26 1012 17 10000 6.7 20 20:18 28.06.2019
5757 Clouds 27 1012 16 10000 7.2 10 19:37 28.06.2019
5758 Clouds 27 1012 16 10000 7.2 10 19:19 28.06.2019
5759 Clouds 27 1011 16 10000 5.7 360 18:41 28.06.2019
5760 Clouds 28 1011 16 10000 5.7 360 18:21 28.06.2019
5761 Clouds 28 1011 15 10000 5.1 360 17:38 28.06.2019
5762 Clouds 29 1011 15 10000 5.1 360 17:18 28.06.2019
5763 Clouds 30 1011 14 10000 4.6 360 16:41 28.06.2019
5764 Clouds 30 1011 14 10000 4.6 360 16:18 28.06.2019
5765 Clouds 31 1010 13 10000 6.7 360 15:39 28.06.2019
5766 Clouds 31 1010 13 10000 6.7 360 15:18 28.06.2019
5767 Clouds 31 1011 12 10000 4.6 360 14:39 28.06.2019
5768 Clouds 32 1011 12 10000 4.6 360 14:20 28.06.2019
5769 Clouds 33 1011 11 10000 3.6 330 13:45 28.06.2019
5770 Clouds 33 1011 11 10000 3.6 330 13:25 28.06.2019
5771 Clouds 33 1012 10 10000 3.6 300 12:50 28.06.2019
5772 Clouds 33 1012 10 10000 3.6 300 12:31 28.06.2019
5773 Clouds 32 1013 10 10000 3.6 330 11:29 28.06.2019
5774 Clouds 31 1013 11 10000 2.1 0 10:47 28.06.2019
5775 Clouds 31 1013 11 10000 2.1 0 10:23 28.06.2019
5776 Clear 30 1014 13 10000 3.1 0 10:00 28.06.2019
5777 Clear 30 1014 13 10000 3.1 0 09:41 28.06.2019
5778 Clear 29 1014 13 10000 3.1 0 09:22 28.06.2019
5779 Clear 29 1014 13 10000 2.1 0 08:42 28.06.2019
5780 Clear 29 1014 13 10000 2.1 0 08:23 28.06.2019
5781 Clear 28 1015 14 10000 3.1 10 07:42 28.06.2019
5782 Clear 27 1015 15 10000 2.1 0 06:52 28.06.2019
5783 Clear 21 1014 24 10000 1 0 03:57 28.06.2019
5784 Clear 23 1013 19 10000 6.7 20 00:46 28.06.2019
5785 Clear 24 1013 19 10000 6.7 20 00:19 28.06.2019
5786 Clear 24 1013 19 10000 5.7 10 23:43 27.06.2019
5787 Clear 24 1013 19 10000 5.7 10 23:22 27.06.2019
5788 Clear 24 1013 18 10000 7.7 10 22:43 27.06.2019
5789 Clear 25 1013 18 10000 7.7 10 22:25 27.06.2019
5790 Clear 25 1013 16 10000 9.8 10 21:57 27.06.2019
5791 Clear 25 1013 16 10000 9.8 10 21:38 27.06.2019
5792 Clear 25 1013 16 10000 9.8 10 21:19 27.06.2019
5793 Clear 25 1013 16 10000 7.7 20 20:45 27.06.2019
5794 Clear 25 1013 16 10000 7.7 20 20:27 27.06.2019
5795 Clear 26 1013 15 10000 9.3 360 19:47 27.06.2019
5796 Clear 26 1013 15 10000 9.3 360 19:27 27.06.2019
5797 Clear 26 1012 14 10000 8.2 20 18:51 27.06.2019
5798 Clear 26 1012 14 10000 8.2 20 18:30 27.06.2019
5799 Clear 27 1012 12 10000 7.7 20 17:47 27.06.2019
5800 Clear 28 1012 12 10000 7.7 20 17:24 27.06.2019
5801 Clouds 28 1012 10 9000 3.33 2.515 16:55 27.06.2019
5802 Clouds 28 1012 10 9000 3.33 2.515 16:36 27.06.2019
5803 Clouds 29 1012 10 9000 3.33 2.515 16:18 27.06.2019
5804 Clouds 30 1011 9 10000 7.2 360 15:44 27.06.2019
5805 Clouds 30 1011 9 10000 7.2 360 15:18 27.06.2019
5806 Clouds 31 1012 9 10000 6.2 320 14:43 27.06.2019
5807 Clouds 31 1012 9 10000 6.2 320 14:24 27.06.2019
5808 Clouds 32 1012 9 10000 5.1 340 13:48 27.06.2019
5809 Clouds 32 1012 9 10000 5.1 340 13:30 27.06.2019
5810 Clouds 31 1013 9 10000 4.6 10 12:52 27.06.2019
5811 Clouds 31 1013 9 10000 4.6 10 12:33 27.06.2019
5812 Clouds 31 1013 9 10000 4.6 10 11:56 27.06.2019
5813 Clouds 31 1013 9 10000 4.6 10 11:38 27.06.2019
5814 Clouds 31 1013 9 10000 4.6 10 11:20 27.06.2019
5815 Clouds 30 1014 10 10000 4.1 340 10:42 27.06.2019
5816 Clouds 30 1014 10 10000 4.1 340 10:20 27.06.2019
5817 Clouds 30 1015 12 10000 6.2 360 09:50 27.06.2019
5818 Clouds 29 1015 12 10000 6.2 360 09:22 27.06.2019
5819 Clear 29 1015 12 10000 6.7 20 08:52 27.06.2019
5820 Clear 29 1015 12 10000 6.7 20 08:30 27.06.2019
5821 Clear 28 1015 14 10000 5.7 10 07:49 27.06.2019
5822 Clear 28 1015 14 10000 5.7 10 07:29 27.06.2019
5823 Clear 27 1016 14 10000 6.2 360 06:43 27.06.2019
5824 Clear 24 1016 20 10000 6.7 350 04:24 27.06.2019
5825 Clear 23 1015 21 10000 9.3 10 02:44 27.06.2019
5826 Clear 24 1015 20 10000 9.8 10 01:48 27.06.2019
5827 Clear 24 1015 20 10000 8.7 20 00:56 27.06.2019
5828 Clear 24 1015 20 10000 8.7 20 00:36 27.06.2019
5829 Clear 24 1015 20 10000 8.7 20 00:18 27.06.2019
5830 Clear 24 1014 20 10000 10.3 20 23:24 26.06.2019
5831 Clear 24 1015 20 10000 8.7 20 22:59 26.06.2019
5832 Clear 24 1015 20 10000 8.7 20 22:41 26.06.2019
5833 Clear 25 1015 20 10000 8.7 20 22:20 26.06.2019
5834 Clear 25 1015 19 10000 7.7 20 21:55 26.06.2019
5835 Clear 25 1015 19 10000 7.7 20 21:37 26.06.2019
5836 Clear 25 1015 19 10000 7.7 20 21:18 26.06.2019
5837 Clear 26 1014 16 10000 11.8 20 20:40 26.06.2019
5838 Clear 26 1014 16 10000 11.8 20 20:40 26.06.2019
5839 Clear 26 1014 16 10000 11.8 20 20:22 26.06.2019
5840 Clear 27 1014 14 10000 12.9 10 19:44 26.06.2019
5841 Clear 27 1014 14 10000 12.9 10 19:25 26.06.2019
5842 Clear 27 1014 14 10000 9.8 10 18:54 26.06.2019
5843 Clear 27 1014 14 10000 9.8 10 18:36 26.06.2019
5844 Clear 27 1014 14 10000 9.8 10 18:18 26.06.2019
5845 Clear 28 1014 12 10000 5.1 360 17:38 26.06.2019
5846 Clear 28 1014 12 10000 5.1 360 17:19 26.06.2019
5847 Clear 29 1013 11 10000 7.2 30 16:50 26.06.2019
5848 Clear 29 1013 11 10000 7.2 30 16:26 26.06.2019
5849 Clouds 30 1013 11 10000 7.7 360 15:48 26.06.2019
5850 Clouds 30 1013 11 10000 7.7 360 15:26 26.06.2019
5851 Clouds 31 1013 11 10000 6.7 10 14:39 26.06.2019
5852 Clouds 31 1013 11 10000 6.7 10 14:20 26.06.2019
5853 Clouds 32 1014 10 10000 7.7 20 13:45 26.06.2019
5854 Clouds 32 1014 10 10000 7.7 20 13:21 26.06.2019
5855 Clouds 32 1015 10 10000 6.2 350 12:43 26.06.2019
5856 Clouds 32 1015 10 10000 6.2 350 12:25 26.06.2019
5857 Clouds 31 1015 10 10000 2.1 0 11:54 26.06.2019
5858 Clouds 31 1015 10 10000 2.1 0 11:23 26.06.2019
5859 Clear 30 1016 9 10000 1.5 0 10:48 26.06.2019
5860 Clear 30 1016 9 10000 1.5 0 10:29 26.06.2019
5861 Clear 30 1016 9 10000 1.5 0 09:51 26.06.2019
5862 Clear 30 1017 12 10000 3.6 360 09:26 26.06.2019
5863 Clear 29 1017 13 10000 2.1 0 08:49 26.06.2019
5864 Clear 28 1017 13 10000 2.1 0 08:20 26.06.2019
5865 Clear 27 1017 14 10000 4.6 10 07:52 26.06.2019
5866 Clear 27 1017 14 10000 4.6 10 07:34 26.06.2019
5867 Clear 26 1018 17 10000 3.6 20 06:32 26.06.2019
5868 Clear 22 1017 22 10000 5.7 360 01:36 26.06.2019
5869 Clear 23 1017 38 10000 3.1 330 00:26 26.06.2019
5870 Clear 23 1017 38 10000 3.1 330 23:48 25.06.2019
5871 Clear 23 1018 38 10000 3.6 330 23:29 25.06.2019
5872 Clear 24 1017 18 10000 7.2 20 22:59 25.06.2019
5873 Clear 24 1017 18 10000 7.2 20 22:40 25.06.2019
5874 Clear 24 1017 18 10000 7.2 20 22:21 25.06.2019
5875 Clear 24 1017 18 10000 7.2 20 21:45 25.06.2019
5876 Clear 24 1018 20 10000 5.7 20 21:24 25.06.2019
5877 Clear 24 1018 20 10000 5.7 20 20:47 25.06.2019
5878 Clear 24 1018 20 10000 5.7 20 20:47 25.06.2019
5879 Clear 24 1018 20 10000 5.7 20 20:47 25.06.2019
5880 Clear 25 1018 19 10000 7.2 20 20:23 25.06.2019
5881 Clear 26 1018 16 10000 8.2 30 19:54 25.06.2019
5882 Clear 26 1018 16 10000 8.2 30 19:36 25.06.2019
5883 Clear 26 1018 16 10000 8.2 30 19:18 25.06.2019
5884 Clear 26 1017 16 10000 8.7 10 18:41 25.06.2019
5885 Clear 26 1017 16 10000 8.7 10 18:22 25.06.2019
5886 -273 0 0 0 0 0 17:42 25.06.2019
5887 Clear 27 1017 14 10000 9.3 20 17:21 25.06.2019
5888 Clear 27 1017 14 10000 9.3 20 17:21 25.06.2019
5889 Clear 27 1017 14 10000 9.3 20 17:21 25.06.2019
5890 Clear 27 1017 14 10000 9.3 20 17:21 25.06.2019
5891 Clear 28 1016 13 9000 9.3 360 16:43 25.06.2019
5892 Clear 28 1016 13 9000 9.3 360 16:25 25.06.2019
5893 Clouds 29 1016 14 10000 7.2 10 15:43 25.06.2019
5894 Clouds 29 1016 14 10000 7.2 10 15:25 25.06.2019
5895 Clouds 30 1017 14 10000 7.2 360 14:57 25.06.2019
5896 Clouds 30 1017 14 10000 7.2 360 14:37 25.06.2019
5897 Clouds 30 1017 14 10000 4.6 10 13:59 25.06.2019
5898 Clouds 30 1017 14 10000 4.6 10 13:39 25.06.2019
5899 Clouds 30 1017 14 10000 4.6 10 13:19 25.06.2019
5900 Clouds 30 1018 14 10000 5.1 360 12:39 25.06.2019
5901 Clouds 30 1018 14 10000 5.1 360 12:21 25.06.2019
5902 Clouds 30 1018 13 10000 4.1 310 11:44 25.06.2019
5903 Clouds 30 1018 13 10000 4.1 310 11:21 25.06.2019
5904 Clouds 30 1018 12 10000 5.1 350 10:46 25.06.2019
5905 Clouds 30 1018 12 10000 5.1 350 10:24 25.06.2019
5906 Clouds 29 1019 13 10000 2.6 90 09:56 25.06.2019
5907 Clouds 29 1019 13 10000 2.6 90 09:38 25.06.2019
5908 Clouds 28 1019 13 10000 2.6 90 09:19 25.06.2019
5909 Clear 29 1019 13 10000 2.6 290 08:48 25.06.2019
5910 Clear 29 1019 13 10000 2.6 290 08:28 25.06.2019
5911 Clear 27 1020 14 10000 1.5 0 07:43 25.06.2019
5912 Clear 26 1020 16 10000 2.1 20 06:59 25.06.2019
5913 Clear 26 1020 16 10000 2.1 20 06:40 25.06.2019
5914 Clear 22 1020 21 10000 1 0 04:30 25.06.2019
5915 Clear 21 1019 24 10000 3.6 340 02:25 25.06.2019
5916 Clear 22 1019 19 10000 5.1 360 00:38 25.06.2019
5917 Clear 23 1019 19 10000 5.1 360 00:18 25.06.2019
5918 Clear 23 1019 18 10000 6.2 360 23:43 24.06.2019
5919 Clear 23 1019 18 10000 6.2 360 23:25 24.06.2019
5920 Clear 23 1019 18 10000 6.2 360 22:45 24.06.2019
5921 Clear 23 1019 18 10000 6.2 360 22:45 24.06.2019
5922 Clear 24 1019 19 10000 3.6 350 22:19 24.06.2019
5923 Clouds 25 1015 16 10000 8.2 340 21:42 24.06.2019
5924 Clear 24 1018 16 10000 3.6 30 21:20 24.06.2019
5925 Clear 24 1018 16 10000 3.6 30 20:59 24.06.2019
5926 Clear 24 1018 16 10000 3.6 30 20:40 24.06.2019
5927 Clear 24 1018 16 10000 3.6 30 20:21 24.06.2019
5928 Clear 25 1017 15 10000 7.2 30 19:46 24.06.2019
5929 Clear 25 1017 15 10000 7.2 30 19:24 24.06.2019
5930 Clear 25 1017 15 10000 7.2 30 19:24 24.06.2019
5931 Clear 25 1017 15 10000 6.7 40 18:48 24.06.2019
5932 Clear 25 1017 15 10000 6.7 40 18:30 24.06.2019
5933 Clear 27 1016 12 10000 7.7 10 17:57 24.06.2019
5934 Clear 27 1016 12 10000 7.7 10 17:36 24.06.2019
5935 Clear 27 1016 12 10000 7.7 10 17:36 24.06.2019
5936 Clouds 28 1015 12 9000 6.2 10 16:55 24.06.2019
5937 Clouds 28 1015 12 9000 6.2 10 16:36 24.06.2019
5938 Clouds 29 1015 12 9000 6.2 10 16:18 24.06.2019
5939 Clouds 30 1015 9 10000 5.7 360 15:38 24.06.2019
5940 Clouds 30 1015 9 10000 5.7 360 15:19 24.06.2019
5941 Clouds 30 1015 10 10000 2.6 60 14:34 24.06.2019
5942 Clouds 31 1016 9 10000 4.6 350 13:51 24.06.2019
5943 Clouds 31 1016 9 10000 4.6 350 13:31 24.06.2019
5944 Clouds 30 1016 9 10000 5.1 350 12:45 24.06.2019
5945 Clouds 30 1016 9 10000 5.1 350 12:22 24.06.2019
5946 Clouds 30 1017 7 10000 4.1 350 11:58 24.06.2019
5947 Clouds 30 1017 7 10000 4.1 350 11:40 24.06.2019
5948 Clouds 30 1017 7 10000 4.1 350 11:20 24.06.2019
5949 Clouds 29 1018 8 10000 4.6 350 10:46 24.06.2019
5950 Clouds 29 1018 8 10000 4.6 350 10:25 24.06.2019
5951 Clouds 29 1019 8 10000 5.1 360 09:49 24.06.2019
5952 Clouds 28 1019 8 10000 5.1 360 09:22 24.06.2019
5953 Clouds 28 1020 9 10000 3.1 360 08:51 24.06.2019
5954 Clouds 27 1020 9 10000 3.1 360 08:25 24.06.2019
5955 Clouds 27 1019 12 10000 4.1 350 07:45 24.06.2019
5956 Clouds 27 1019 12 10000 4.1 350 07:26 24.06.2019
5957 Clouds 25 1019 16 10000 3.6 30 06:39 24.06.2019
5958 Clouds 25 1019 16 10000 3.6 30 06:19 24.06.2019
5959 Clouds 23 1018 18 10000 1.5 290 04:59 24.06.2019
5960 Clouds 23 1018 18 10000 1.5 290 04:23 24.06.2019
5961 Clouds 21 1014 17 10000 6.7 340 02:56 24.06.2019
5962 Clear 21 1018 20 10000 3.1 310 02:20 24.06.2019
5963 Clear 21 1017 20 10000 2.6 310 01:49 24.06.2019
5964 Clear 22 1017 20 10000 2.6 310 01:21 24.06.2019
5965 Clear 23 1017 18 10000 5.1 20 00:39 24.06.2019
5966 Clear 22 1017 18 10000 5.1 20 00:19 24.06.2019
5967 Clear 22 1017 18 10000 5.1 20 23:44 23.06.2019
5968 Clear 23 1017 17 10000 7.2 10 23:22 23.06.2019
5969 Clear 23 1017 18 10000 6.7 20 22:43 23.06.2019
5970 Clear 23 1017 18 10000 6.7 20 22:20 23.06.2019
5971 Clear 24 1017 17 10000 9.3 20 21:44 23.06.2019
5972 Clear 24 1017 17 10000 9.3 20 21:25 23.06.2019
5973 Clear 24 1017 17 10000 9.3 20 20:58 23.06.2019
5974 Clear 24 1017 17 10000 7.2 30 20:40 23.06.2019
5975 Clear 25 1017 17 10000 7.2 30 20:21 23.06.2019
5976 Clear 25 1017 17 10000 7.2 30 19:43 23.06.2019
5977 Clear 25 1016 17 10000 9.8 30 19:20 23.06.2019
5978 Clear 25 1015 19 10000 8.7 30 18:48 23.06.2019
5979 Clear 26 1015 19 10000 8.7 30 18:20 23.06.2019
5980 Clear 26 1015 19 10000 8.7 30 17:46 23.06.2019
5981 Clouds 27 1014 17 10000 6.7 30 17:25 23.06.2019
5982 Clouds 28 1014 15 10000 6.7 20 16:47 23.06.2019
5983 Clouds 28 1014 15 10000 6.7 20 16:27 23.06.2019
5984 Clouds 28 1014 15 10000 6.7 20 15:59 23.06.2019
5985 Clouds 29 1013 14 10000 5.1 30 15:40 23.06.2019
5986 Clouds 30 1013 14 10000 5.1 30 15:19 23.06.2019
5987 Clouds 30 1013 13 10000 6.2 10 14:39 23.06.2019
5988 Clouds 31 1013 13 10000 6.2 10 14:21 23.06.2019
5989 Clouds 31 1014 13 10000 6.2 360 13:54 23.06.2019
5990 Clouds 31 1014 13 10000 6.2 360 13:36 23.06.2019
5991 Clouds 31 1014 13 10000 6.2 360 13:18 23.06.2019
5992 Clouds 31 1014 13 10000 6.2 360 12:42 23.06.2019
5993 Clouds 32 1015 12 10000 5.1 350 12:20 23.06.2019
5994 Clouds 32 1015 12 10000 5.1 350 11:49 23.06.2019
5995 Clouds 31 1015 12 10000 7.7 340 11:28 23.06.2019
5996 Clouds 31 1015 12 10000 7.7 340 11:28 23.06.2019
5997 Clouds 31 1015 12 10000 7.7 340 10:51 23.06.2019
5998 Clouds 31 1016 13 10000 6.2 360 10:22 23.06.2019
5999 Clouds 30 1017 13 10000 5.1 360 09:59 23.06.2019
6000 Clouds 30 1017 13 10000 5.1 360 09:25 23.06.2019
6001 Clouds 30 1017 13 10000 5.1 360 08:55 23.06.2019
6002 Clouds 29 1013 17 10000 7.7 340 08:36 23.06.2019
6003 Clouds 29 1017 13 10000 5.1 350 08:18 23.06.2019
6004 Clouds 29 1017 13 10000 5.1 350 07:45 23.06.2019
6005 Clear 28 1018 13 10000 4.1 30 07:19 23.06.2019
6006 Clear 28 1018 13 10000 4.1 30 06:52 23.06.2019
6007 Clear 26 1018 16 10000 4.1 20 05:53 23.06.2019
6008 Clear 22 1017 22 10000 2.1 230 02:52 23.06.2019
6009 Clear 22 1017 20 10000 2.1 310 01:42 23.06.2019
6010 Clear 23 1017 20 10000 2.1 310 01:24 23.06.2019
6011 Clear 24 1016 17 10000 7.2 20 00:32 23.06.2019
6012 Clear 24 1016 17 10000 8.2 20 23:49 22.06.2019
6013 Clear 24 1016 17 10000 8.2 20 23:26 22.06.2019
6014 Clear 25 1016 16 10000 9.3 30 22:47 22.06.2019
6015 Clear 25 1016 16 10000 9.3 30 22:29 22.06.2019
6016 Clear 25 1017 17 10000 9.3 10 21:59 22.06.2019
6017 Clear 25 1017 17 10000 9.3 10 21:36 22.06.2019
6018 Clear 25 1017 17 10000 9.3 10 21:36 22.06.2019
6019 Clear 26 1017 17 10000 9.3 10 21:18 22.06.2019
6020 Clear 26 1017 17 10000 7.7 20 20:45 22.06.2019
6021 Clear 26 1017 17 10000 7.7 20 20:24 22.06.2019
6022 Clear 27 1016 15 10000 12.3 20 19:42 22.06.2019
6023 Clear 27 1016 15 10000 12.3 20 19:21 22.06.2019
6024 Clouds 27 1015 16 10000 8.7 20 18:43 22.06.2019
6025 Clouds 27 1015 16 10000 8.7 20 18:23 22.06.2019
6026 Clouds 28 1015 27 9000 8.2 10 17:46 22.06.2019
6027 Clouds 28 1015 27 9000 8.2 10 17:26 22.06.2019
6028 Clouds 29 1014 17 10000 7.7 360 16:46 22.06.2019
6029 Clouds 30 1014 17 10000 7.7 360 16:24 22.06.2019
6030 Clouds 31 1014 17 10000 6.7 360 15:46 22.06.2019
6031 Clouds 31 1014 17 10000 6.7 360 15:27 22.06.2019
6032 Clouds 31 1014 20 10000 6.2 20 14:52 22.06.2019
6033 Clouds 31 1014 20 10000 6.2 20 14:32 22.06.2019
6034 Clouds 32 1014 19 10000 6.2 360 13:58 22.06.2019
6035 Clouds 32 1014 19 10000 6.2 360 13:39 22.06.2019
6036 Clouds 32 1014 19 10000 6.2 360 13:19 22.06.2019
6037 Clouds 32 1014 19 10000 6.2 360 12:45 22.06.2019
6038 Clouds 32 1015 20 10000 4.1 350 12:26 22.06.2019
6039 Clouds 32 1015 19 10000 2.6 0 11:46 22.06.2019
6040 Clouds 32 1015 19 10000 2.6 0 11:27 22.06.2019
6041 Clouds 32 1016 18 10000 3.6 330 10:47 22.06.2019
6042 Clouds 30 1016 18 10000 3.6 330 10:19 22.06.2019
6043 Clouds 30 1016 20 10000 4.1 360 09:37 22.06.2019
6044 Clouds 29 1017 23 10000 4.1 10 08:56 22.06.2019
6045 Clouds 30 1013 23 10000 2.6 10 08:37 22.06.2019
6046 Clouds 27 1017 26 10000 4.1 40 07:53 22.06.2019
6047 Clouds 27 1013 32 10000 1.5 150 07:29 22.06.2019
6048 Clear 26 1017 31 10000 3.6 20 06:44 22.06.2019
6049 Clouds 21 1017 46 8000 0.5 0 04:37 22.06.2019
6050 Clouds 18 1016 55 10000 1.58 14.01 02:26 22.06.2019
6051 Clouds 19 1016 56 10000 0.5 10 00:54 22.06.2019
6052 Clouds 19 1016 56 10000 0.5 10 00:31 22.06.2019
6053 Clear 20 1016 52 10000 1 0 23:50 21.06.2019
6054 Clear 22 1016 52 10000 1 0 23:24 21.06.2019
6055 Clear 22 1016 52 10000 0.5 0 22:57 21.06.2019
6056 Clear 22 1016 52 10000 0.5 0 22:39 21.06.2019
6057 Clear 24 1016 52 10000 0.5 0 22:19 21.06.2019
6058 Clouds 24 1016 49 10000 1 0 21:40 21.06.2019
6059 Clouds 25 1016 49 10000 1 0 21:20 21.06.2019
6060 Clear 24 1016 49 10000 3.6 90 20:48 21.06.2019
6061 Clear 24 1016 49 10000 3.6 90 20:26 21.06.2019
6062 Clear 24 1016 49 10000 3.1 100 19:48 21.06.2019
6063 Clear 25 1016 49 10000 3.1 100 19:22 21.06.2019
6064 Clouds 26 1015 41 10000 5.1 110 18:41 21.06.2019
6065 Clouds 27 1015 41 10000 5.1 110 18:23 21.06.2019
6066 Clouds 27 1014 38 9000 7.2 100 17:31 21.06.2019
6067 Clouds 28 1014 34 10000 6.7 100 16:59 21.06.2019
6068 Clouds 28 1014 34 10000 6.7 100 16:37 21.06.2019
6069 Clouds 29 1014 34 10000 6.7 100 16:18 21.06.2019
6070 Clouds 29 1013 32 10000 7.2 110 15:37 21.06.2019
6071 Clouds 30 1013 32 10000 7.2 110 14:57 21.06.2019
6072 Clouds 30 1013 28 10000 5.7 120 14:39 21.06.2019
6073 Clouds 31 1013 28 10000 5.7 120 14:20 21.06.2019
6074 Clouds 30 1013 32 10000 4.6 110 13:39 21.06.2019
6075 Clouds 31 1013 32 10000 4.6 110 13:21 21.06.2019
6076 Clouds 31 1014 27 10000 4.6 110 12:50 21.06.2019
6077 Clouds 31 1014 27 10000 4.6 110 12:23 21.06.2019
6078 Clouds 31 1015 28 10000 4.6 120 11:55 21.06.2019
6079 Clouds 31 1015 28 10000 4.6 120 11:37 21.06.2019
6080 Clouds 30 1015 28 10000 4.6 120 11:19 21.06.2019
6081 Clouds 30 1015 18 10000 2.1 0 10:42 21.06.2019
6082 Clouds 30 1015 18 10000 2.1 0 10:20 21.06.2019
6083 Clouds 30 1015 18 10000 2.1 0 10:20 21.06.2019
6084 Clouds 29 1016 18 10000 4.6 10 09:43 21.06.2019
6085 Clouds 29 1016 18 10000 4.6 10 09:23 21.06.2019
6086 Clouds 28 1017 19 10000 3.6 350 08:56 21.06.2019
6087 Clouds 28 1017 19 10000 3.6 350 08:37 21.06.2019
6088 Haze 27 1017 19 10000 3.6 350 08:18 21.06.2019
6089 Haze 27 1017 22 10000 3.1 40 07:42 21.06.2019
6090 Haze 26 1017 22 10000 3.1 40 07:19 21.06.2019
6091 Haze 26 1017 29 10000 1 0 06:28 21.06.2019
6092 Clouds 24 1017 43 9000 0.5 0 05:35 21.06.2019
6093 Clouds 21 1016 37 10000 1.5 310 04:40 21.06.2019
6094 Clouds 19 1016 42 10000 0.5 0 03:41 21.06.2019
6095 Clouds 18 1016 42 10000 0.5 0 03:23 21.06.2019
6096 Clouds 19 1015 39 10000 1.5 0 02:26 21.06.2019
6097 Clouds 19 1011 42 10000 1.06 34.908 01:30 21.06.2019
6098 Clear 22 1015 34 10000 1.5 0 00:35 21.06.2019
6099 Clear 22 1015 32 10000 2.1 80 23:56 20.06.2019
6100 Clear 22 1015 32 10000 2.1 80 23:37 20.06.2019
6101 Clear 23 1015 32 10000 2.1 80 23:19 20.06.2019
6102 Clear 24 1015 23 10000 2.6 20 22:41 20.06.2019
6103 Clear 25 1015 23 10000 2.6 20 22:23 20.06.2019
6104 Clear 25 1015 23 10000 2.6 20 21:55 20.06.2019
6105 Clear 24 1015 24 10000 2.1 50 21:37 20.06.2019
6106 Clear 25 1015 24 10000 2.1 50 21:18 20.06.2019
6107 Clear 25 1015 24 10000 2.1 50 21:18 20.06.2019
6108 Clear 25 1015 23 10000 4.6 30 20:41 20.06.2019
6109 Clear 25 1015 23 10000 4.6 30 20:21 20.06.2019
6110 Clear 25 1014 22 10000 7.2 20 19:43 20.06.2019
6111 Clear 26 1014 22 10000 7.2 20 19:19 20.06.2019
6112 Clouds 25 1014 28 10000 3.1 360 18:56 20.06.2019
6113 Clouds 25 1014 28 10000 3.1 360 18:38 20.06.2019
6114 Clouds 26 1014 28 10000 3.1 360 18:20 20.06.2019
6115 Clouds 26 1013 25 10000 3.6 320 17:45 20.06.2019
6116 Clouds 26 1013 25 10000 3.6 320 17:25 20.06.2019
6117 Clouds 27 1013 23 10000 3.1 60 16:42 20.06.2019
6118 Clouds 28 1013 23 10000 3.1 60 16:19 20.06.2019
6119 Rain 27 1013 23 10000 10.3 340 15:44 20.06.2019
6120 Rain 29 1013 23 10000 10.3 340 15:24 20.06.2019
6121 Rain 28 1013 29 10000 7.7 0 14:58 20.06.2019
6122 Dust 30 1013 17 8000 7.7 300 14:39 20.06.2019
6123 Dust 31 1013 17 8000 7.7 300 14:19 20.06.2019
6124 Clouds 30 1013 17 10000 8.7 330 13:39 20.06.2019
6125 Clouds 31 1013 17 10000 8.7 330 13:19 20.06.2019
6126 Rain 31 1013 37 10000 5.1 330 12:43 20.06.2019
6127 Rain 31 1013 22 10000 5.1 330 12:22 20.06.2019
6128 Rain 30 1014 17 10000 4.1 350 11:43 20.06.2019
6129 Rain 30 1014 17 10000 4.1 350 11:23 20.06.2019
6130 Rain 30 1014 17 10000 4.1 350 10:45 20.06.2019
6131 Clouds 30 1014 16 10000 5.1 20 10:24 20.06.2019
6132 Clouds 29 1015 22 10000 2.6 350 09:57 20.06.2019
6133 Clouds 29 1015 22 10000 2.6 350 09:38 20.06.2019
6134 Clouds 29 1015 20 10000 2.6 350 09:20 20.06.2019
6135 Clouds 29 1015 19 10000 4.1 40 08:44 20.06.2019
6136 Clouds 28 1015 19 10000 4.1 40 08:25 20.06.2019
6137 Clouds 28 1016 15 10000 4.1 20 07:50 20.06.2019
6138 Clouds 26 1016 15 10000 4.1 20 07:26 20.06.2019
6139 Clouds 23 1016 27 10000 3.6 30 06:25 20.06.2019
6140 Clouds 18 1015 36 10000 1.72 60.68 03:55 20.06.2019
6141 Clouds 19 1014 32 10000 3.1 350 02:29 20.06.2019
6142 Clear 19 1014 45 10000 1.13 21.358 00:33 20.06.2019
6143 Clear 21 1014 40 10000 1.5 240 23:49 19.06.2019
6144 Clear 21 1014 40 10000 1.5 240 23:30 19.06.2019
6145 Clear 20 1014 43 10000 1 0 22:49 19.06.2019
6146 Clear 21 1014 43 10000 1 0 22:25 19.06.2019
6147 Clear 21 1014 43 10000 1 0 21:58 19.06.2019
6148 Clear 21 1014 35 10000 3.1 70 21:40 19.06.2019
6149 Clear 25 1014 35 10000 3.1 70 21:21 19.06.2019
6150 Clouds 25 1014 26 10000 1.5 0 20:42 19.06.2019
6151 Clouds 26 1014 26 10000 1.5 0 20:21 19.06.2019
6152 Clouds 26 1013 22 10000 1 0 19:50 19.06.2019
6153 Clouds 26 1013 22 10000 1 0 19:29 19.06.2019
6154 Clouds 26 1013 20 10000 5.7 360 18:57 19.06.2019
6155 Clouds 26 1013 20 10000 5.7 360 18:28 19.06.2019
6156 Clouds 27 1012 19 10000 7.2 340 17:53 19.06.2019
6157 Clouds 27 1012 19 10000 7.2 340 17:33 19.06.2019
6158 Clouds 29 1011 14 10000 6.2 340 16:56 19.06.2019
6159 Clouds 29 1011 14 10000 6.2 340 16:38 19.06.2019
6160 Clouds 30 1011 14 10000 6.2 340 16:19 19.06.2019
6161 Clouds 30 1011 13 10000 5.1 350 15:46 19.06.2019
6162 Clouds 30 1011 13 10000 5.1 350 15:25 19.06.2019
6163 Rain 30 1011 12 10000 4.1 10 14:48 19.06.2019
6164 Rain 30 1011 12 10000 4.1 10 14:29 19.06.2019
6165 Clouds 31 1011 11 10000 3.1 110 13:56 19.06.2019
6166 Clouds 31 1011 11 10000 3.1 110 13:37 19.06.2019
6167 Clouds 31 1011 11 10000 3.1 110 13:19 19.06.2019
6168 Clouds 31 1012 10 10000 2.6 90 12:42 19.06.2019
6169 Clouds 31 1012 10 10000 2.6 90 12:20 19.06.2019
6170 Clouds 31 1012 10 10000 2.6 90 11:43 19.06.2019
6171 Clouds 30 1013 11 10000 2.1 0 11:23 19.06.2019
6172 Clouds 30 1014 13 10000 2.6 0 10:51 19.06.2019
6173 Clouds 30 1014 13 10000 2.6 0 10:30 19.06.2019
6174 Clouds 29 1014 13 10000 2.6 0 09:58 19.06.2019
6175 Clouds 29 1014 13 10000 2.6 0 09:58 19.06.2019
6176 Clouds 29 1014 13 10000 3.1 340 09:38 19.06.2019
6177 Clouds 28 1014 13 10000 3.1 340 09:19 19.06.2019
6178 Clear 28 1015 13 10000 4.1 10 08:44 19.06.2019
6179 Clear 27 1015 13 10000 4.1 10 08:25 19.06.2019
6180 Clear 26 1015 15 10000 3.6 40 07:44 19.06.2019
6181 Clear 25 1015 15 10000 3.6 40 07:23 19.06.2019
6182 Clear 25 1015 16 10000 2.1 70 06:42 19.06.2019
6183 Clear 24 1015 16 10000 2.1 70 06:20 19.06.2019
6184 Clear 23 1015 18 10000 0.5 0 05:41 19.06.2019
6185 Clear 15 1014 23 10000 1.5 100 03:58 19.06.2019
6186 Clear 15 1014 35 10000 1.5 100 02:59 19.06.2019
6187 Clear 21 1013 25 10000 1 0 01:47 19.06.2019
6188 Clear 22 1013 25 10000 1 0 00:56 19.06.2019
6189 Clear 21 1013 25 10000 1.5 180 00:38 19.06.2019
6190 Clear 22 1013 25 10000 1.5 180 00:19 19.06.2019
6191 Clear 23 1013 18 10000 4.6 10 23:43 18.06.2019
6192 Clear 23 1013 18 10000 4.6 10 23:25 18.06.2019
6193 Clear 23 1013 18 10000 2.6 10 22:42 18.06.2019
6194 Clear 24 1013 18 10000 2.6 10 22:23 18.06.2019
6195 Clear 24 1014 18 10000 4.1 350 21:55 18.06.2019
6196 Clear 24 1014 18 10000 4.1 350 21:37 18.06.2019
6197 Clear 24 1014 18 10000 4.1 350 21:37 18.06.2019
6198 Clear 24 1014 18 10000 4.1 350 21:18 18.06.2019
6199 Clear 24 1014 18 10000 2.1 0 20:41 18.06.2019
6200 Clear 24 1014 18 10000 2.1 0 20:22 18.06.2019
6201 Clear 25 1013 14 10000 4.1 20 19:41 18.06.2019
6202 Clear 25 1013 14 10000 4.1 20 19:22 18.06.2019
6203 Clear 25 1013 14 10000 4.1 20 18:55 18.06.2019
6204 Clear 26 1012 14 10000 6.7 40 18:26 18.06.2019
6205 Clear 26 1012 14 10000 6.7 40 17:55 18.06.2019
6206 Clear 26 1012 14 10000 6.7 40 17:37 18.06.2019
6207 Clear 26 1012 14 10000 6.7 40 17:19 18.06.2019
6208 Clear 27 1011 13 10000 5.1 20 16:42 18.06.2019
6209 Clear 28 1011 13 10000 5.1 20 16:22 18.06.2019
6210 Clouds 29 1011 13 10000 5.1 350 15:42 18.06.2019
6211 Clouds 29 1011 13 10000 5.1 350 15:23 18.06.2019
6212 Clouds 30 1011 11 10000 7.7 340 14:56 18.06.2019
6213 Clouds 30 1011 11 10000 7.7 340 14:38 18.06.2019
6214 Clouds 30 1011 11 10000 7.7 340 14:19 18.06.2019
6215 Clouds 30 1011 11 10000 5.1 10 13:50 18.06.2019
6216 Clouds 30 1011 11 10000 5.1 10 13:30 18.06.2019
6217 Clouds 30 1011 11 10000 5.1 10 12:46 18.06.2019
6218 Clouds 30 1012 11 10000 4.1 340 12:28 18.06.2019
6219 Clouds 30 1012 11 10000 5.1 360 11:54 18.06.2019
6220 Clouds 30 1012 11 10000 5.1 360 11:36 18.06.2019
6221 Clouds 30 1012 11 10000 5.1 360 11:18 18.06.2019
6222 Clear 30 1013 11 10000 5.1 340 10:41 18.06.2019
6223 Clear 30 1013 11 10000 5.1 340 10:21 18.06.2019
6224 Clear 29 1013 13 10000 3.6 350 09:51 18.06.2019
6225 Clear 29 1013 13 10000 3.6 350 09:25 18.06.2019
6226 Clear 28 1014 13 10000 6.2 20 08:50 18.06.2019
6227 Clear 28 1014 13 10000 6.2 20 08:30 18.06.2019
6228 Clear 26 1014 13 10000 6.2 20 07:56 18.06.2019
6229 Clear 26 1014 14 10000 6.2 350 07:26 18.06.2019
6230 Clear 26 1014 14 10000 6.2 350 06:55 18.06.2019
6231 Clear 23 1014 25 10000 1 0 05:25 18.06.2019
6232 Clear 22 1014 26 10000 2.1 300 04:21 18.06.2019
6233 Clear 16 1016 39 10000 1 0 02:48 18.06.2019
6234 Clear 20 1013 25 10000 2.1 0 01:27 18.06.2019
6235 Clear 22 1009 17 10000 6.7 320 00:58 18.06.2019
6236 Clear 22 1009 17 10000 6.7 320 00:30 18.06.2019
6237 Clear 21 1013 22 10000 3.6 320 23:58 17.06.2019
6238 Clear 21 1013 22 10000 3.6 320 23:37 17.06.2019
6239 Clear 22 1013 22 10000 3.6 320 23:18 17.06.2019
6240 Clear 23 1013 17 10000 8.2 20 22:40 17.06.2019
6241 Clear 23 1013 17 10000 8.2 20 22:21 17.06.2019
6242 Clear 24 1014 17 10000 7.7 30 21:45 17.06.2019
6243 Clear 24 1014 17 10000 7.7 30 21:23 17.06.2019
6244 Clear 24 1013 16 10000 10.8 20 20:43 17.06.2019
6245 Clear 24 1013 16 10000 10.8 20 20:24 17.06.2019
6246 Clear 25 1013 16 10000 10.8 10 19:57 17.06.2019
6247 Clear 25 1013 16 10000 10.8 10 19:39 17.06.2019
6248 Clear 25 1013 16 10000 10.8 10 19:39 17.06.2019
6249 Clear 25 1013 16 10000 10.8 10 19:20 17.06.2019
6250 Clear 25 1013 16 10000 8.2 30 18:39 17.06.2019
6251 Clear 25 1013 16 10000 8.2 30 18:18 17.06.2019
6252 Clear 25 1013 16 10000 8.2 30 18:18 17.06.2019
6253 Clouds 26 1012 14 10000 4.1 30 17:48 17.06.2019
6254 Clouds 26 1012 14 10000 4.1 30 17:30 17.06.2019
6255 Clouds 27 1011 14 10000 6.7 30 16:59 17.06.2019
6256 Clouds 27 1011 14 10000 6.7 30 16:41 17.06.2019
6257 Clouds 28 1011 14 10000 6.7 30 16:23 17.06.2019
6258 Clouds 29 1011 11 10000 5.1 20 15:44 17.06.2019
6259 Clouds 29 1011 11 10000 5.1 20 15:20 17.06.2019
6260 Clouds 30 1011 11 10000 6.2 360 14:56 17.06.2019
6261 Clouds 30 1011 11 10000 6.2 360 14:37 17.06.2019
6262 Clouds 30 1011 11 10000 6.2 360 14:18 17.06.2019
6263 Clouds 30 1012 10 10000 2.6 10 13:41 17.06.2019
6264 Clouds 30 1012 10 10000 2.6 10 13:21 17.06.2019
6265 Clouds 30 1012 10 10000 3.6 230 12:42 17.06.2019
6266 Clouds 30 1012 10 10000 3.6 230 12:21 17.06.2019
6267 Clouds 30 1013 11 10000 2.6 20 11:43 17.06.2019
6268 Clouds 30 1013 11 10000 2.6 20 11:25 17.06.2019
6269 Clouds 30 1014 12 10000 3.6 350 10:48 17.06.2019
6270 Clouds 30 1014 12 10000 3.6 350 10:48 17.06.2019
6271 Clouds 30 1014 12 10000 3.6 350 10:29 17.06.2019
6272 Clouds 29 1014 12 10000 5.1 10 09:57 17.06.2019
6273 Clouds 29 1014 12 10000 5.1 10 09:35 17.06.2019
6274 Clouds 28 1015 12 10000 4.6 360 08:58 17.06.2019
6275 Clouds 28 1015 12 10000 4.6 360 08:38 17.06.2019
6276 Clouds 27 1015 12 10000 4.6 360 08:20 17.06.2019
6277 Clear 27 1015 13 10000 3.6 20 07:39 17.06.2019
6278 Clear 27 1015 13 10000 3.6 20 07:19 17.06.2019
6279 Clear 26 1015 16 10000 6.2 20 06:29 17.06.2019
6280 Clear 24 1015 17 10000 5.1 20 05:31 17.06.2019
6281 Clear 23 1015 19 10000 2.1 30 04:33 17.06.2019
6282 Clear 20 1014 27 10000 2.1 290 03:33 17.06.2019
6283 Clear 20 1014 29 10000 2.1 300 02:49 17.06.2019
6284 Clear 20 1014 29 10000 2.1 300 02:31 17.06.2019
6285 Clear 21 1014 19 10000 3.1 330 01:38 17.06.2019
6286 Clear 22 1014 16 10000 4.1 20 00:58 17.06.2019
6287 Clear 22 1014 16 10000 4.1 20 00:38 17.06.2019
6288 Clear 22 1014 16 10000 4.1 20 00:19 17.06.2019
6289 Clear 22 1015 16 10000 5.1 360 23:40 16.06.2019
6290 Clear 22 1015 16 10000 5.1 360 23:20 16.06.2019
6291 Clear 23 1015 15 10000 6.2 350 22:45 16.06.2019
6292 Clear 23 1015 15 10000 6.2 350 22:21 16.06.2019
6293 Clear 24 1015 15 10000 7.2 10 21:59 16.06.2019
6294 Clear 24 1015 15 10000 7.2 10 21:40 16.06.2019
6295 Clear 24 1015 15 10000 7.2 10 21:21 16.06.2019
6296 Clear 24 1015 15 10000 7.7 360 20:54 16.06.2019
6297 Clear 24 1015 15 10000 7.7 360 20:36 16.06.2019
6298 Clear 24 1015 15 10000 7.7 360 20:18 16.06.2019
6299 Clear 25 1015 14 10000 10.3 20 19:39 16.06.2019
6300 Clear 25 1015 14 10000 10.3 20 19:21 16.06.2019
6301 Clear 25 1015 14 10000 10.3 20 19:21 16.06.2019
6302 Clear 25 1015 15 10000 8.7 20 18:57 16.06.2019
6303 Clear 25 1015 15 10000 8.7 20 18:36 16.06.2019
6304 Clear 25 1015 15 10000 8.7 20 18:18 16.06.2019
6305 Clear 26 1014 13 10000 8.2 50 17:42 16.06.2019
6306 Clear 26 1014 13 10000 8.2 50 17:21 16.06.2019
6307 Clear 27 1014 12 10000 6.2 20 16:56 16.06.2019
6308 Clear 27 1014 12 10000 6.2 20 16:38 16.06.2019
6309 Clear 28 1014 12 10000 6.2 20 16:19 16.06.2019
6310 Clouds 29 1014 11 10000 6.2 20 15:41 16.06.2019
6311 Clouds 29 1014 11 10000 6.2 20 15:41 16.06.2019
6312 Clouds 29 1014 11 10000 6.2 20 15:23 16.06.2019
6313 Clouds 29 1014 11 10000 5.1 0 14:41 16.06.2019
6314 Clouds 29 1014 11 10000 5.1 0 14:22 16.06.2019
6315 Clouds 30 1015 9 10000 5.1 50 13:51 16.06.2019
6316 Clouds 30 1015 9 10000 5.1 50 13:51 16.06.2019
6317 Clouds 30 1015 9 10000 5.1 50 13:51 16.06.2019
6318 Clouds 30 1015 9 10000 5.1 50 13:26 16.06.2019
6319 Clear 30 1015 8 10000 7.2 360 12:56 16.06.2019
6320 Clear 30 1015 8 10000 7.2 360 12:37 16.06.2019
6321 Clear 30 1015 8 10000 7.2 360 12:18 16.06.2019
6322 Clear 30 1016 9 10000 8.2 20 11:38 16.06.2019
6323 Clear 30 1016 9 10000 8.2 20 11:19 16.06.2019
6324 Clear 29 1016 11 10000 6.7 10 10:45 16.06.2019
6325 Clear 29 1016 11 10000 6.7 10 10:20 16.06.2019
6326 Clear 28 1017 10 10000 6.2 360 09:47 16.06.2019
6327 Clear 28 1017 10 10000 6.2 360 09:25 16.06.2019
6328 Clear 27 1017 13 10000 4.1 350 08:50 16.06.2019
6329 Clear 27 1017 13 10000 4.1 350 08:22 16.06.2019
6330 Clear 26 1018 15 10000 4.6 350 07:50 16.06.2019
6331 Clear 26 1018 15 10000 4.6 350 07:32 16.06.2019
6332 Clear 25 1018 15 10000 4.6 350 06:55 16.06.2019
6333 Clear 24 1018 16 10000 3.1 300 06:21 16.06.2019
6334 Clear 23 1018 21 10000 1.5 270 05:28 16.06.2019
6335 Clear 21 1018 25 10000 2.6 300 04:33 16.06.2019
6336 Clear 19 1017 25 10000 1 0 03:45 16.06.2019
6337 Clear 20 1017 25 10000 1 0 03:26 16.06.2019
6338 Clear 21 1017 22 10000 5.7 10 01:55 16.06.2019
6339 Clear 21 1017 22 10000 5.7 10 01:37 16.06.2019
6340 Clear 22 1017 22 10000 5.1 10 00:59 16.06.2019
6341 Clear 22 1017 22 10000 5.1 10 00:37 16.06.2019
6342 Clear 22 1017 22 10000 5.1 10 00:18 16.06.2019
6343 Clear 22 1017 24 10000 7.2 20 23:40 15.06.2019
6344 Clear 21 1017 24 10000 7.2 20 23:20 15.06.2019
6345 Clear 22 1018 21 10000 6.2 40 22:49 15.06.2019
6346 Clear 22 1018 21 10000 6.2 40 22:26 15.06.2019
6347 Clear 22 1018 21 10000 6.2 40 21:45 15.06.2019
6348 Clear 22 1018 21 10000 5.1 20 21:27 15.06.2019
6349 -273 0 0 0 0 0 21:27 15.06.2019
6350 Clear 23 1018 19 10000 8.2 30 20:46 15.06.2019
6351 Clear 23 1018 19 10000 8.2 30 20:24 15.06.2019
6352 Clear 23 1017 19 10000 9.3 20 19:53 15.06.2019
6353 Clear 23 1017 19 10000 9.3 20 19:30 15.06.2019
6354 Clear 23 1017 19 10000 9.3 20 18:59 15.06.2019
6355 Clear 23 1016 19 10000 7.7 30 18:37 15.06.2019
6356 Clear 23 1016 19 10000 7.7 30 18:19 15.06.2019
6357 Clouds 24 1016 18 10000 7.7 20 17:41 15.06.2019
6358 Clouds 24 1016 18 10000 7.7 20 17:21 15.06.2019
6359 Clouds 25 1015 16 9000 7.2 40 16:44 15.06.2019
6360 Clouds 26 1015 16 9000 7.2 40 16:18 15.06.2019
6361 Dust 27 1014 15 8000 9.3 350 15:42 15.06.2019
6362 Dust 28 1014 15 8000 9.3 350 15:22 15.06.2019
6363 Clouds 28 1014 21 10000 6.2 320 14:39 15.06.2019
6364 Clouds 29 1014 21 10000 6.2 320 14:18 15.06.2019
6365 Clouds 29 1014 17 10000 3.6 320 13:44 15.06.2019
6366 Clouds 29 1014 17 10000 3.6 320 13:22 15.06.2019
6367 Rain 29 1015 19 10000 9.8 300 13:00 15.06.2019
6368 Rain 29 1015 19 10000 9.8 300 12:41 15.06.2019
6369 Rain 30 1015 19 10000 9.8 300 12:23 15.06.2019
6370 Clouds 30 1014 37 10000 7.7 350 11:47 15.06.2019
6371 Clouds 30 1014 37 10000 7.7 350 11:28 15.06.2019
6372 Clouds 30 1015 17 10000 6.2 360 10:43 15.06.2019
6373 Clouds 30 1015 17 10000 6.2 360 10:25 15.06.2019
6374 Clouds 29 1015 17 10000 5.1 350 09:48 15.06.2019
6375 Clouds 29 1015 17 10000 5.1 350 09:27 15.06.2019
6376 Clouds 28 1049 18 10000 4.1 360 08:54 15.06.2019
6377 Clouds 28 1049 18 10000 4.1 360 08:36 15.06.2019
6378 Clouds 28 1049 18 10000 4.1 360 08:18 15.06.2019
6379 Clouds 27 1016 24 10000 4.6 360 07:26 15.06.2019
6380 Clouds 26 1016 22 10000 4.6 10 06:48 15.06.2019
6381 Clouds 26 1016 22 10000 4.6 10 06:25 15.06.2019
6382 Clouds 25 1016 22 10000 5.1 20 05:39 15.06.2019
6383 Clouds 25 1016 22 10000 5.1 20 05:39 15.06.2019
6384 Clear 22 1015 26 10000 5.1 20 04:52 15.06.2019
6385 Clear 20 1015 26 10000 5.1 20 04:19 15.06.2019
6386 Clear 20 1015 26 10000 5.1 20 03:22 15.06.2019
6387 Clouds 20 1012 37 10000 0.99 1.095 02:31 15.06.2019
6388 Rain 21 1015 32 10000 3.6 320 01:57 15.06.2019
6389 Thunderstorm 21 1015 34 10000 1.5 0 01:20 15.06.2019
6390 Clear 19 1014 32 10000 1 0 00:42 15.06.2019
6391 Clear 20 1014 32 10000 1 0 00:23 15.06.2019
6392 Clear 19 1014 32 10000 1 0 23:46 14.06.2019
6393 Clear 21 1015 30 10000 1 0 23:19 14.06.2019
6394 Clear 21 1015 24 10000 2.1 0 22:41 14.06.2019
6395 Clear 21 1015 24 10000 2.1 0 22:21 14.06.2019
6396 Clear 21 1015 24 10000 2.1 0 21:48 14.06.2019
6397 Clear 21 1015 24 10000 3.1 340 21:28 14.06.2019
6398 Clear 24 1015 24 10000 3.1 340 20:55 14.06.2019
6399 Clear 24 1015 23 10000 3.1 280 20:36 14.06.2019
6400 Clear 24 1015 23 10000 3.1 280 20:18 14.06.2019
6401 Clear 25 1015 38 10000 7.7 20 19:39 14.06.2019
6402 Clear 25 1015 38 10000 7.7 20 19:19 14.06.2019
6403 Clouds 26 1015 20 10000 5.1 30 18:45 14.06.2019
6404 Clouds 26 1015 20 10000 5.1 30 18:27 14.06.2019
6405 Clouds 25 1011 26 10000 8.7 350 17:58 14.06.2019
6406 Clouds 26 1014 20 10000 6.7 30 17:40 14.06.2019
6407 Clouds 26 1014 20 10000 6.7 30 17:21 14.06.2019
6408 Clouds 27 1014 19 10000 7.7 10 16:48 14.06.2019
6409 Clouds 27 1014 19 10000 7.7 10 16:22 14.06.2019
6410 Clouds 27 1014 19 10000 7.7 10 16:22 14.06.2019
6411 Clouds 28 1013 18 10000 5.1 350 15:57 14.06.2019
6412 Clouds 28 1013 18 10000 5.1 350 15:38 14.06.2019
6413 Clouds 28 1013 18 10000 5.1 350 15:38 14.06.2019
6414 Clouds 29 1013 18 10000 5.1 350 15:19 14.06.2019
6415 Clouds 29 1013 18 10000 5.1 350 15:19 14.06.2019
6416 Clouds 30 1013 14 10000 6.7 350 14:43 14.06.2019
6417 Clouds 30 1013 14 10000 6.7 350 14:25 14.06.2019
6418 Clouds 30 1012 16 10000 5.1 350 13:45 14.06.2019
6419 Clouds 30 1012 16 10000 5.1 350 13:26 14.06.2019
6420 Clouds 31 1013 10 10000 2.6 100 12:55 14.06.2019
6421 Clouds 31 1013 10 10000 2.6 100 12:36 14.06.2019
6422 Clouds 31 1013 10 10000 2.6 100 12:18 14.06.2019
6423 Clouds 31 1014 9 10000 1.5 0 11:42 14.06.2019
6424 Clouds 30 1014 9 10000 1.5 0 11:23 14.06.2019
6425 Clouds 30 1015 12 10000 2.6 110 10:47 14.06.2019
6426 Clouds 29 1015 12 10000 2.6 110 10:20 14.06.2019
6427 Clouds 29 1015 11 10000 2.1 0 09:52 14.06.2019
6428 Clouds 29 1015 10 10000 2.1 0 09:33 14.06.2019
6429 Clear 28 1016 18 10000 2.1 0 08:48 14.06.2019
6430 Clear 26 1016 18 10000 2.1 0 08:21 14.06.2019
6431 Clear 25 1016 16 10000 1.5 0 07:55 14.06.2019
6432 Clear 24 1016 16 10000 1.5 0 07:23 14.06.2019
6433 Clear 24 1016 16 10000 2.1 320 06:53 14.06.2019
6434 Haze 22 1016 16 10000 2.1 320 06:18 14.06.2019
6435 Haze 21 1016 17 10000 2.1 330 05:35 14.06.2019
6436 Haze 19 1016 11 10000 1.34 67.984 04:51 14.06.2019
6437 Haze 15 1016 11 10000 1.34 67.984 04:22 14.06.2019
6438 Haze 12 1012 58 9000 1.5 230 03:38 14.06.2019
6439 Clear 14 1015 31 9000 1 0 03:19 14.06.2019
6440 Clear 14 1015 31 9000 1 0 02:35 14.06.2019
6441 Clear 14 1015 21 10000 1.5 0 01:39 14.06.2019
6442 Clear 14 1015 21 10000 1.5 0 01:39 14.06.2019
6443 Clear 16 1015 20 10000 1.5 0 00:37 14.06.2019
6444 Clear 16 1015 20 10000 1.5 0 00:18 14.06.2019
6445 Clear 17 1015 19 10000 1 0 23:49 13.06.2019
6446 Clear 17 1015 19 10000 1 0 23:25 13.06.2019
6447 Clear 17 1016 19 10000 3.6 60 22:40 13.06.2019
6448 Clear 18 1016 19 10000 3.6 60 22:22 13.06.2019
6449 Clear 19 1016 19 10000 3.1 70 21:58 13.06.2019
6450 Clear 19 1016 19 10000 3.1 70 21:37 13.06.2019
6451 Clear 18 1016 19 10000 3.1 70 21:18 13.06.2019
6452 Clear 19 1016 18 10000 2.1 70 20:44 13.06.2019
6453 Clear 24 1016 18 10000 2.1 70 20:20 13.06.2019
6454 Clear 23 1015 16 10000 3.6 50 19:43 13.06.2019
6455 Clear 24 1015 16 10000 3.6 50 19:25 13.06.2019
6456 Clouds 23 1015 16 10000 2.6 80 18:59 13.06.2019
6457 Clouds 23 1015 16 10000 2.6 80 18:40 13.06.2019
6458 Clouds 25 1015 16 10000 2.6 80 18:22 13.06.2019
6459 Clouds 25 1015 13 10000 4.6 100 17:44 13.06.2019
6460 Clouds 27 1015 13 10000 4.6 100 17:21 13.06.2019
6461 Clouds 28 1014 10 10000 4.6 100 16:58 13.06.2019
6462 Clouds 28 1014 10 10000 4.6 100 16:38 13.06.2019
6463 Clouds 28 1014 10 10000 4.6 100 16:18 13.06.2019
6464 Clouds 28 1014 10 10000 5.1 90 15:40 13.06.2019
6465 Clouds 29 1014 10 10000 5.1 90 15:22 13.06.2019
6466 Clouds 30 1014 9 10000 5.1 100 14:49 13.06.2019
6467 Clouds 30 1014 9 10000 5.1 100 14:31 13.06.2019
6468 Clouds 30 1014 9 10000 5.1 50 13:54 13.06.2019
6469 Clouds 30 1014 9 10000 5.1 50 13:36 13.06.2019
6470 Clouds 29 1014 9 10000 5.1 50 13:18 13.06.2019
6471 Clouds 29 1015 9 10000 4.1 30 12:39 13.06.2019
6472 Clouds 28 1015 9 10000 4.1 30 12:21 13.06.2019
6473 Clear 28 1016 10 10000 1.5 0 11:44 13.06.2019
6474 Clear 28 1016 10 10000 1.5 0 11:25 13.06.2019
6475 Clear 28 1016 10 10000 3.1 260 10:49 13.06.2019
6476 Clear 28 1016 10 10000 3.1 260 10:29 13.06.2019
6477 Clear 26 1017 11 10000 1.5 0 09:53 13.06.2019
6478 Clear 26 1017 11 10000 1.5 0 09:31 13.06.2019
6479 Clear 25 1017 13 10000 1.5 0 08:57 13.06.2019
6480 Clear 25 1017 13 10000 1.5 0 08:57 13.06.2019
6481 Clear 25 1017 13 10000 1.5 0 08:38 13.06.2019
6482 Haze 24 1017 13 10000 1.5 0 08:19 13.06.2019
6483 Haze 23 1017 13 10000 1.5 0 07:39 13.06.2019
6484 Haze 22 1017 13 10000 1.5 0 07:21 13.06.2019
6485 Haze 21 1017 21 10000 1.5 0 06:40 13.06.2019
6486 Haze 20 1017 21 10000 1.5 0 06:22 13.06.2019
6487 Haze 19 1017 16 10000 2.1 0 05:44 13.06.2019
6488 Haze 17 1017 16 10000 2.1 0 05:26 13.06.2019
6489 Clear 13 1016 30 10000 1 0 03:50 13.06.2019
6490 Clear 12 1016 37 10000 1 0 02:20 13.06.2019
6491 Clear 13 1016 22 10000 1 0 00:36 13.06.2019
6492 Clear 16 1016 22 10000 1.5 280 23:38 12.06.2019
6493 Clear 18 1016 22 10000 1.5 280 23:20 12.06.2019
6494 Clear 18 1017 15 10000 1.5 310 22:41 12.06.2019
6495 Clear 19 1017 15 10000 1.5 310 22:22 12.06.2019
6496 Clear 19 1017 17 10000 2.6 290 21:47 12.06.2019
6497 Clear 19 1017 17 10000 2.6 290 21:29 12.06.2019
6498 Clear 20 1017 14 10000 4.1 310 20:49 12.06.2019
6499 Clear 20 1017 14 10000 4.1 310 20:31 12.06.2019
6500 Clear 21 1016 11 10000 8.2 360 19:59 12.06.2019
6501 Clear 21 1016 11 10000 8.2 360 19:41 12.06.2019
6502 Clear 21 1016 11 10000 8.2 360 19:22 12.06.2019
6503 Clear 21 1016 11 10000 6.2 350 18:51 12.06.2019
6504 Clear 21 1016 11 10000 6.2 350 18:29 12.06.2019
6505 Clear 21 1016 11 10000 6.2 350 18:29 12.06.2019
6506 Clear 22 1016 10 10000 8.7 350 17:58 12.06.2019
6507 Clear 22 1016 10 10000 8.7 350 17:39 12.06.2019
6508 Clear 23 1016 10 10000 8.7 350 17:18 12.06.2019
6509 Clear 23 1015 10 10000 8.7 360 16:40 12.06.2019
6510 Clear 24 1015 10 10000 8.7 360 16:22 12.06.2019
6511 Clear 25 1015 8 10000 7.2 360 15:47 12.06.2019
6512 Clear 25 1015 8 10000 7.2 360 15:29 12.06.2019
6513 Clear 25 1015 8 10000 7.2 360 14:42 12.06.2019
6514 Clear 26 1015 8 10000 6.7 360 14:22 12.06.2019
6515 -273 0 0 0 0 0 13:42 12.06.2019
6516 Clear 26 1015 9 10000 5.7 10 13:20 12.06.2019
6517 Clear 26 1015 10 10000 5.1 360 12:56 12.06.2019
6518 Clear 26 1016 14 10000 5.1 350 12:38 12.06.2019
6519 Clear 26 1016 14 10000 5.1 350 12:19 12.06.2019
6520 Clear 26 1016 14 10000 5.1 350 12:19 12.06.2019
6521 Clear 27 1016 12 10000 2.1 0 11:44 12.06.2019
6522 Clear 26 1016 12 10000 2.1 0 11:26 12.06.2019
6523 Clear 25 1017 15 10000 2.6 0 10:50 12.06.2019
6524 Clear 25 1017 15 10000 2.6 0 10:25 12.06.2019
6525 Clear 24 1017 17 10000 2.6 0 09:45 12.06.2019
6526 Clear 23 1017 17 10000 2.6 0 09:23 12.06.2019
6527 Clear 22 1018 18 10000 2.1 0 08:53 12.06.2019
6528 Clear 21 1018 18 10000 2.1 0 08:21 12.06.2019
6529 Clear 21 1018 18 10000 3.1 320 07:39 12.06.2019
6530 Clear 20 1018 23 10000 3.6 360 06:53 12.06.2019
6531 Clear 18 1018 23 10000 5.1 10 05:27 12.06.2019
6532 Clear 16 1018 24 10000 6.7 10 04:29 12.06.2019
6533 Clear 16 1016 24 10000 3.1 20 01:27 12.06.2019
6534 Clear 16 1016 24 10000 6.7 10 00:38 12.06.2019
6535 Clear 16 1016 24 10000 7.2 20 23:47 11.06.2019
6536 Clear 16 1016 24 10000 7.2 20 23:29 11.06.2019
6537 Clear 16 1017 26 10000 7.2 10 22:44 11.06.2019
6538 Clear 16 1017 26 10000 7.2 10 22:19 11.06.2019
6539 Clear 17 1017 25 10000 9.8 20 21:57 11.06.2019
6540 Clear 17 1017 25 10000 9.8 20 21:38 11.06.2019
6541 Clear 17 1017 25 10000 9.8 20 21:19 11.06.2019
6542 Clear 17 1017 25 10000 7.2 20 20:48 11.06.2019
6543 Clear 17 1017 25 10000 7.2 20 20:25 11.06.2019
6544 Clear 17 1017 25 10000 7.2 20 20:25 11.06.2019
6545 Clear 18 1016 21 10000 10.3 10 19:54 11.06.2019
6546 Clear 18 1016 21 10000 10.3 10 19:32 11.06.2019
6547 -273 0 0 0 0 0 18:56 11.06.2019
6548 Clouds 19 1015 21 10000 13.9 20 18:21 11.06.2019
6549 Clouds 20 1014 19 9000 12.3 10 17:42 11.06.2019
6550 Clouds 20 1014 19 9000 12.3 10 17:22 11.06.2019
6551 Clouds 21 1013 19 9000 15.4 20 16:56 11.06.2019
6552 Clouds 21 1013 19 9000 15.4 20 16:37 11.06.2019
6553 Clouds 21 1013 19 9000 15.4 20 16:19 11.06.2019
6554 Clouds 22 1012 19 9000 10.3 10 15:42 11.06.2019
6555 Clouds 23 1012 19 9000 10.3 10 15:22 11.06.2019
6556 Clouds 23 1011 17 9000 13.4 350 14:47 11.06.2019
6557 Clouds 24 1011 17 9000 13.4 350 14:21 11.06.2019
6558 Clouds 24 1011 17 9000 13.4 350 13:51 11.06.2019
6559 Clouds 25 1011 15 9000 12.3 350 13:24 11.06.2019
6560 Clouds 26 1011 15 10000 10.3 360 12:55 11.06.2019
6561 Clouds 26 1011 15 10000 10.3 360 12:55 11.06.2019
6562 Clouds 26 1011 15 10000 10.3 360 12:37 11.06.2019
6563 Clouds 26 1011 15 10000 10.3 360 12:18 11.06.2019
6564 Clouds 26 1008 16 10000 13.9 360 11:39 11.06.2019
6565 Clouds 27 1013 15 10000 5.1 350 11:19 11.06.2019
6566 Clouds 27 1013 15 10000 5.1 350 10:45 11.06.2019
6567 Clouds 27 1013 15 10000 5.1 350 10:25 11.06.2019
6568 Clouds 26 1013 15 10000 5.7 350 09:48 11.06.2019
6569 Clouds 26 1013 15 10000 5.7 350 09:24 11.06.2019
6570 Clouds 26 1013 15 10000 5.7 350 09:24 11.06.2019
6571 Clear 26 1014 17 10000 5.1 340 08:45 11.06.2019
6572 Clear 26 1014 17 10000 5.1 340 08:25 11.06.2019
6573 Clear 24 1014 20 10000 6.2 360 07:38 11.06.2019
6574 Clear 23 1014 19 10000 7.2 10 06:56 11.06.2019
6575 Clear 23 1014 19 10000 7.2 10 06:30 11.06.2019
6576 Clear 20 1014 29 10000 3.1 310 04:53 11.06.2019
6577 Clear 20 1014 44 10000 5.1 350 02:54 11.06.2019
6578 Clear 19 1014 31 10000 3.6 340 01:25 11.06.2019
6579 Clear 20 1014 31 10000 3.6 340 00:46 11.06.2019
6580 Clear 20 1014 32 10000 4.6 350 23:47 10.06.2019
6581 Clear 21 1014 32 10000 4.6 350 23:22 10.06.2019
6582 Clear 21 1014 32 10000 4.6 350 22:55 10.06.2019
6583 Clear 21 1014 30 10000 5.7 360 22:36 10.06.2019
6584 Clear 21 1014 30 10000 5.7 360 22:18 10.06.2019
6585 Clear 22 1014 28 10000 5.1 20 21:40 10.06.2019
6586 Clear 22 1014 28 10000 5.1 20 21:22 10.06.2019
6587 Clear 22 1014 28 10000 6.7 20 20:45 10.06.2019
6588 Clear 22 1014 28 10000 6.7 20 20:23 10.06.2019
6589 Clear 22 1014 28 10000 7.7 360 19:54 10.06.2019
6590 Clear 22 1014 28 10000 7.7 360 19:28 10.06.2019
6591 Clear 23 1014 26 10000 8.7 360 18:59 10.06.2019
6592 Clear 23 1014 26 10000 8.7 360 18:41 10.06.2019
6593 Haze 23 1014 26 10000 8.7 360 18:21 10.06.2019
6594 Haze 24 1014 25 10000 7.2 360 17:58 10.06.2019
6595 Haze 24 1014 25 10000 7.2 360 17:37 10.06.2019
6596 Clouds 24 1014 25 10000 7.2 360 17:19 10.06.2019
6597 Dust 25 1013 23 8000 8.7 10 16:42 10.06.2019
6598 Dust 26 1013 23 8000 8.7 10 16:23 10.06.2019
6599 Clouds 27 1013 21 9000 8.7 10 15:42 10.06.2019
6600 Clouds 27 1013 21 9000 8.7 10 15:24 10.06.2019
6601 Dust 28 1013 18 8000 9.8 10 14:55 10.06.2019
6602 Dust 28 1013 18 8000 9.8 10 14:36 10.06.2019
6603 Dust 28 1013 18 8000 9.8 10 14:18 10.06.2019
6604 Clouds 29 1013 17 10000 6.7 360 13:42 10.06.2019
6605 Clouds 29 1013 17 10000 6.7 360 13:21 10.06.2019
6606 Clouds 29 1014 17 10000 6.7 360 12:42 10.06.2019
6607 Clouds 29 1014 17 10000 6.7 360 12:23 10.06.2019
6608 Clouds 29 1015 17 10000 7.2 350 11:44 10.06.2019
6609 Clouds 29 1015 17 10000 7.2 350 11:24 10.06.2019
6610 Clouds 29 1015 18 10000 3.6 350 10:42 10.06.2019
6611 Clouds 29 1015 18 10000 3.6 350 10:21 10.06.2019
6612 Clouds 29 1016 18 10000 3.1 10 09:57 10.06.2019
6613 Clouds 29 1016 18 10000 3.1 10 09:38 10.06.2019
6614 Clouds 29 1016 18 10000 3.1 10 09:19 10.06.2019
6615 Clouds 28 1016 18 10000 3.1 350 08:44 10.06.2019
6616 Clouds 28 1016 18 10000 3.1 350 08:23 10.06.2019
6617 Clear 27 1013 19 10000 6.2 340 06:56 10.06.2019
6618 Clear 23 1016 24 10000 4.6 340 04:28 10.06.2019
6619 Clear 22 1016 32 10000 3.1 350 01:58 10.06.2019
6620 Clear 22 1016 32 10000 3.1 350 01:26 10.06.2019
6621 Clear 22 1016 32 10000 3.1 350 00:55 10.06.2019
6622 Clear 23 1016 28 10000 1.5 0 00:19 10.06.2019
6623 Clear 23 1016 26 10000 3.6 350 23:42 09.06.2019
6624 Clear 23 1016 26 10000 3.6 350 23:19 09.06.2019
6625 Clear 23 1016 24 10000 3.1 240 22:43 09.06.2019
6626 Clear 23 1016 24 10000 3.1 240 22:25 09.06.2019
6627 Clear 23 1017 24 10000 5.1 350 21:43 09.06.2019
6628 Clear 24 1017 24 10000 5.1 350 21:23 09.06.2019
6629 Clear 24 1017 25 10000 2.1 0 20:43 09.06.2019
6630 Clear 24 1017 25 10000 2.1 0 20:23 09.06.2019
6631 Clear 25 1016 19 10000 7.7 20 19:47 09.06.2019
6632 Clear 25 1016 19 10000 7.7 20 19:19 09.06.2019
6633 Clear 25 1016 19 10000 7.7 360 18:58 09.06.2019
6634 Clear 25 1016 19 10000 7.7 360 18:58 09.06.2019
6635 Clear 25 1016 19 10000 7.7 360 18:40 09.06.2019
6636 Clear 25 1016 19 10000 7.7 360 18:22 09.06.2019
6637 Clear 26 1015 18 10000 5.7 360 17:46 09.06.2019
6638 Clear 26 1015 18 10000 5.7 360 17:27 09.06.2019
6639 Clear 28 1015 18 10000 6.7 20 16:54 09.06.2019
6640 Clear 28 1015 18 10000 6.7 20 16:36 09.06.2019
6641 Clear 28 1015 18 10000 6.7 20 16:18 09.06.2019
6642 Clouds 29 1015 14 10000 5.7 10 15:44 09.06.2019
6643 Clouds 30 1015 14 10000 5.7 10 15:24 09.06.2019
6644 Clouds 30 1015 8 10000 5.1 10 14:45 09.06.2019
6645 Clouds 32 1015 8 10000 5.1 10 14:22 09.06.2019
6646 Clear 32 1015 7 10000 5.1 30 13:52 09.06.2019
6647 Clear 32 1015 7 10000 5.1 30 13:26 09.06.2019
6648 Clear 31 1016 10 10000 2.6 80 12:42 09.06.2019
6649 Clear 31 1016 10 10000 2.6 80 12:23 09.06.2019
6650 Clear 31 1017 11 10000 1.5 0 11:40 09.06.2019
6651 Clear 31 1017 11 10000 1.5 0 11:21 09.06.2019
6652 Clear 31 1017 11 10000 1.5 0 10:46 09.06.2019
6653 Clear 29 1017 12 10000 2.1 30 10:23 09.06.2019
6654 Clear 29 1018 14 10000 1 0 09:41 09.06.2019
6655 Clear 28 1018 14 10000 1 0 09:23 09.06.2019
6656 Clear 28 1019 18 10000 1 0 08:55 09.06.2019
6657 Clear 28 1019 18 10000 1 0 08:36 09.06.2019
6658 Clear 26 1019 22 10000 1.5 0 07:28 09.06.2019
6659 Clear 25 1019 22 10000 1 0 06:30 09.06.2019
6660 Clear 25 1019 22 10000 1 0 06:30 09.06.2019
6661 Clear 21 1019 25 10000 1.5 340 05:28 09.06.2019
6662 Clear 21 1019 25 10000 1.5 340 05:28 09.06.2019
6663 Clear 20 1019 33 10000 2.6 310 01:46 09.06.2019
6664 Clear 20 1019 33 10000 2.6 310 01:22 09.06.2019
6665 Clear 20 1019 33 10000 2.6 310 01:21 09.06.2019
6666 Clear 21 1020 34 10000 2.6 270 00:59 09.06.2019
6667 Clear 22 1020 34 10000 2.6 260 23:56 08.06.2019
6668 Clear 22 1020 34 10000 2.6 260 23:38 08.06.2019
6669 Clear 22 1020 34 10000 2.6 260 23:19 08.06.2019
6670 Clear 23 1020 21 10000 6.7 20 22:42 08.06.2019
6671 Clear 23 1020 21 10000 6.7 20 22:23 08.06.2019
6672 Clear 22 1020 28 10000 5.1 340 21:52 08.06.2019
6673 Clear 22 1020 28 10000 5.1 340 21:29 08.06.2019
6674 Clear 24 1021 23 10000 6.2 10 20:58 08.06.2019
6675 Clear 24 1021 23 10000 6.2 10 20:40 08.06.2019
6676 Clear 24 1021 23 10000 6.2 10 20:19 08.06.2019
6677 Clouds 24 1021 25 10000 7.7 40 19:40 08.06.2019
6678 Clouds 24 1021 25 10000 7.7 40 19:20 08.06.2019
6679 Clouds 24 1020 25 10000 6.7 30 18:56 08.06.2019
6680 Clouds 24 1020 25 10000 6.7 30 18:35 08.06.2019
6681 Dust 25 1019 25 9000 9.8 20 17:57 08.06.2019
6682 Dust 25 1019 25 9000 9.8 20 17:38 08.06.2019
6683 Dust 25 1019 25 9000 9.8 20 17:18 08.06.2019
6684 Smoke 26 1019 23 9000 8.7 20 16:38 08.06.2019
6685 Clouds 26 1019 23 9000 8.7 20 16:18 08.06.2019
6686 Dust 27 1018 24 8000 6.2 20 15:37 08.06.2019
6687 Clouds 28 1018 17 10000 7.2 360 14:53 08.06.2019
6688 Clouds 28 1018 17 10000 7.2 360 14:31 08.06.2019
6689 Clouds 29 1019 15 10000 6.7 350 13:56 08.06.2019
6690 Clouds 29 1019 15 10000 6.7 350 13:24 08.06.2019
6691 Clouds 29 1019 16 10000 5.1 340 12:45 08.06.2019
6692 Clouds 30 1019 16 10000 5.1 340 12:19 08.06.2019
6693 Clouds 30 1019 16 10000 6.2 360 11:40 08.06.2019
6694 Clouds 30 1019 16 10000 6.2 360 11:21 08.06.2019
6695 Clouds 30 1020 17 10000 6.7 340 10:44 08.06.2019
6696 Clouds 29 1020 17 10000 6.7 340 10:22 08.06.2019
6697 Clouds 29 1020 18 10000 6.2 360 09:43 08.06.2019
6698 Clouds 28 1021 21 10000 7.7 10 08:59 08.06.2019
6699 Clouds 28 1021 21 10000 7.7 10 08:28 08.06.2019
6700 Clouds 27 1020 22 10000 6.2 10 07:47 08.06.2019
6701 Clouds 27 1020 22 10000 6.2 10 07:47 08.06.2019
6702 Clear 26 1021 25 10000 3.1 360 06:48 08.06.2019
6703 Clear 20 1020 37 10000 0.83 247.038 04:19 08.06.2019
6704 Clear 21 1019 34 10000 3.1 10 02:21 08.06.2019
6705 Clear 21 1019 42 10000 2.1 360 00:58 08.06.2019
6706 Clear 21 1019 42 10000 2.1 360 00:24 08.06.2019
6707 Clouds 22 1019 32 10000 2.1 300 23:41 07.06.2019
6708 Clouds 22 1019 32 10000 2.1 300 23:19 07.06.2019
6709 Clouds 22 1020 32 10000 2.1 320 22:36 07.06.2019
6710 Clouds 23 1020 28 10000 4.1 350 21:58 07.06.2019
6711 Clouds 23 1020 28 10000 4.1 350 21:40 07.06.2019
6712 Clouds 23 1020 28 10000 4.1 350 21:21 07.06.2019
6713 Clear 23 1019 28 10000 3.1 300 20:53 07.06.2019
6714 Clear 23 1019 28 10000 3.1 300 20:35 07.06.2019
6715 Clear 23 1019 28